<?xml version="1.0" encoding="UTF-8" standalone="no" ?>
<gpx xmlns="http://www.topografix.com/GPX/1/1" xmlns:xsi="http://www.w3.org/2001/XMLSchema-instance" xsi:schemaLocation="http://www.topografix.com/GPX/1/1 http://www.topografix.com/GPX/1/1/gpx.xsd" version="1.1" creator="VisuGPX - https://www.visugpx.com">
  <metadata>
    <name>Saint Julien-25km</name>
    <desc><![CDATA[Balade Sur Saint Julien Le Montagnier]]></desc>
  </metadata>
  <trk>
    <name><![CDATA[Chemin de Cabridon]]></name>
    <desc><![CDATA[]]></desc>
    <trkseg>
      <trkpt lat="43.67221" lon="5.86271">
        <ele>450</ele>
        <time>2015-10-31T08:09:20.898Z</time>
      </trkpt>
      <trkpt lat="43.67225" lon="5.86276">
        <ele>468</ele>
        <time>2015-10-31T08:09:35.152Z</time>
      </trkpt>
      <trkpt lat="43.67231" lon="5.8628">
        <ele>476</ele>
        <time>2015-10-31T08:09:36.126Z</time>
      </trkpt>
      <trkpt lat="43.67233" lon="5.86289">
        <ele>475</ele>
        <time>2015-10-31T08:10:08.300Z</time>
      </trkpt>
      <trkpt lat="43.67232" lon="5.86293">
        <ele>474</ele>
        <time>2015-10-31T08:10:09.275Z</time>
      </trkpt>
      <trkpt lat="43.67231" lon="5.86303">
        <ele>474</ele>
        <time>2015-10-31T08:10:11.306Z</time>
      </trkpt>
      <trkpt lat="43.67232" lon="5.86306">
        <ele>474</ele>
        <time>2015-10-31T08:10:12.273Z</time>
      </trkpt>
      <trkpt lat="43.67237" lon="5.86315">
        <ele>474</ele>
        <time>2015-10-31T08:10:16.299Z</time>
      </trkpt>
      <trkpt lat="43.67238" lon="5.86316">
        <ele>474</ele>
        <time>2015-10-31T08:10:17.275Z</time>
      </trkpt>
      <trkpt lat="43.6724" lon="5.86325">
        <ele>475</ele>
        <time>2015-10-31T08:10:21.296Z</time>
      </trkpt>
      <trkpt lat="43.67241" lon="5.86328">
        <ele>475</ele>
        <time>2015-10-31T08:10:22.275Z</time>
      </trkpt>
      <trkpt lat="43.67244" lon="5.86335">
        <ele>475</ele>
        <time>2015-10-31T08:10:24.300Z</time>
      </trkpt>
      <trkpt lat="43.67247" lon="5.86338">
        <ele>475</ele>
        <time>2015-10-31T08:10:25.275Z</time>
      </trkpt>
      <trkpt lat="43.67253" lon="5.8634">
        <ele>475</ele>
        <time>2015-10-31T08:10:27.300Z</time>
      </trkpt>
      <trkpt lat="43.67256" lon="5.8634">
        <ele>475</ele>
        <time>2015-10-31T08:10:28.274Z</time>
      </trkpt>
      <trkpt lat="43.67262" lon="5.86337">
        <ele>475</ele>
        <time>2015-10-31T08:10:30.525Z</time>
      </trkpt>
      <trkpt lat="43.67264" lon="5.86334">
        <ele>475</ele>
        <time>2015-10-31T08:10:31.303Z</time>
      </trkpt>
      <trkpt lat="43.67267" lon="5.86323">
        <ele>475</ele>
        <time>2015-10-31T08:10:33.300Z</time>
      </trkpt>
      <trkpt lat="43.67268" lon="5.86317">
        <ele>474</ele>
        <time>2015-10-31T08:10:34.275Z</time>
      </trkpt>
      <trkpt lat="43.67266" lon="5.86306">
        <ele>474</ele>
        <time>2015-10-31T08:10:36.299Z</time>
      </trkpt>
      <trkpt lat="43.67266" lon="5.86299">
        <ele>474</ele>
        <time>2015-10-31T08:10:37.275Z</time>
      </trkpt>
      <trkpt lat="43.67266" lon="5.86288">
        <ele>473</ele>
        <time>2015-10-31T08:10:39.296Z</time>
      </trkpt>
      <trkpt lat="43.67267" lon="5.86282">
        <ele>473</ele>
        <time>2015-10-31T08:10:40.268Z</time>
      </trkpt>
      <trkpt lat="43.67268" lon="5.86277">
        <ele>472</ele>
        <time>2015-10-31T08:10:41.298Z</time>
      </trkpt>
      <trkpt lat="43.67271" lon="5.86269">
        <ele>472</ele>
        <time>2015-10-31T08:10:42.305Z</time>
      </trkpt>
      <trkpt lat="43.67273" lon="5.86262">
        <ele>471</ele>
        <time>2015-10-31T08:10:43.300Z</time>
      </trkpt>
      <trkpt lat="43.67274" lon="5.86255">
        <ele>471</ele>
        <time>2015-10-31T08:10:44.275Z</time>
      </trkpt>
      <trkpt lat="43.67276" lon="5.86247">
        <ele>470</ele>
        <time>2015-10-31T08:10:45.301Z</time>
      </trkpt>
      <trkpt lat="43.67277" lon="5.8624">
        <ele>470</ele>
        <time>2015-10-31T08:10:46.275Z</time>
      </trkpt>
      <trkpt lat="43.67278" lon="5.86232">
        <ele>470</ele>
        <time>2015-10-31T08:10:47.301Z</time>
      </trkpt>
      <trkpt lat="43.67279" lon="5.86224">
        <ele>469</ele>
        <time>2015-10-31T08:10:48.274Z</time>
      </trkpt>
      <trkpt lat="43.6728" lon="5.86216">
        <ele>469</ele>
        <time>2015-10-31T08:10:49.300Z</time>
      </trkpt>
      <trkpt lat="43.67281" lon="5.86208">
        <ele>469</ele>
        <time>2015-10-31T08:10:50.267Z</time>
      </trkpt>
      <trkpt lat="43.67283" lon="5.86199">
        <ele>470</ele>
        <time>2015-10-31T08:10:51.298Z</time>
      </trkpt>
      <trkpt lat="43.67285" lon="5.86192">
        <ele>470</ele>
        <time>2015-10-31T08:10:52.274Z</time>
      </trkpt>
      <trkpt lat="43.67287" lon="5.86184">
        <ele>470</ele>
        <time>2015-10-31T08:10:53.515Z</time>
      </trkpt>
      <trkpt lat="43.67288" lon="5.86178">
        <ele>470</ele>
        <time>2015-10-31T08:10:54.275Z</time>
      </trkpt>
      <trkpt lat="43.6729" lon="5.86173">
        <ele>470</ele>
        <time>2015-10-31T08:10:55.299Z</time>
      </trkpt>
      <trkpt lat="43.67293" lon="5.86167">
        <ele>470</ele>
        <time>2015-10-31T08:10:56.276Z</time>
      </trkpt>
      <trkpt lat="43.67297" lon="5.86156">
        <ele>469</ele>
        <time>2015-10-31T08:10:58.313Z</time>
      </trkpt>
      <trkpt lat="43.67299" lon="5.86151">
        <ele>470</ele>
        <time>2015-10-31T08:10:59.276Z</time>
      </trkpt>
      <trkpt lat="43.67303" lon="5.86142">
        <ele>470</ele>
        <time>2015-10-31T08:11:01.298Z</time>
      </trkpt>
      <trkpt lat="43.67305" lon="5.86137">
        <ele>470</ele>
        <time>2015-10-31T08:11:02.276Z</time>
      </trkpt>
      <trkpt lat="43.6731" lon="5.86128">
        <ele>471</ele>
        <time>2015-10-31T08:11:04.325Z</time>
      </trkpt>
      <trkpt lat="43.67312" lon="5.86123">
        <ele>471</ele>
        <time>2015-10-31T08:11:05.496Z</time>
      </trkpt>
      <trkpt lat="43.67317" lon="5.86113">
        <ele>472</ele>
        <time>2015-10-31T08:11:07.300Z</time>
      </trkpt>
      <trkpt lat="43.67318" lon="5.86109">
        <ele>472</ele>
        <time>2015-10-31T08:11:08.277Z</time>
      </trkpt>
      <trkpt lat="43.67322" lon="5.861">
        <ele>472</ele>
        <time>2015-10-31T08:11:10.298Z</time>
      </trkpt>
      <trkpt lat="43.67324" lon="5.86096">
        <ele>473</ele>
        <time>2015-10-31T08:11:11.274Z</time>
      </trkpt>
      <trkpt lat="43.67328" lon="5.86087">
        <ele>472</ele>
        <time>2015-10-31T08:11:13.339Z</time>
      </trkpt>
      <trkpt lat="43.6733" lon="5.86083">
        <ele>472</ele>
        <time>2015-10-31T08:11:14.276Z</time>
      </trkpt>
      <trkpt lat="43.67333" lon="5.86074">
        <ele>473</ele>
        <time>2015-10-31T08:11:16.300Z</time>
      </trkpt>
      <trkpt lat="43.67335" lon="5.86068">
        <ele>473</ele>
        <time>2015-10-31T08:11:17.275Z</time>
      </trkpt>
      <trkpt lat="43.67337" lon="5.86059">
        <ele>473</ele>
        <time>2015-10-31T08:11:19.297Z</time>
      </trkpt>
      <trkpt lat="43.67339" lon="5.86054">
        <ele>473</ele>
        <time>2015-10-31T08:11:20.274Z</time>
      </trkpt>
      <trkpt lat="43.6734" lon="5.86044">
        <ele>473</ele>
        <time>2015-10-31T08:11:22.297Z</time>
      </trkpt>
      <trkpt lat="43.67341" lon="5.86039">
        <ele>473</ele>
        <time>2015-10-31T08:11:23.278Z</time>
      </trkpt>
      <trkpt lat="43.67342" lon="5.86029">
        <ele>474</ele>
        <time>2015-10-31T08:11:25.299Z</time>
      </trkpt>
      <trkpt lat="43.67342" lon="5.86025">
        <ele>474</ele>
        <time>2015-10-31T08:11:26.276Z</time>
      </trkpt>
      <trkpt lat="43.67342" lon="5.86015">
        <ele>474</ele>
        <time>2015-10-31T08:11:28.297Z</time>
      </trkpt>
      <trkpt lat="43.67342" lon="5.8601">
        <ele>474</ele>
        <time>2015-10-31T08:11:29.275Z</time>
      </trkpt>
      <trkpt lat="43.67342" lon="5.86">
        <ele>475</ele>
        <time>2015-10-31T08:11:31.326Z</time>
      </trkpt>
      <trkpt lat="43.67342" lon="5.85995">
        <ele>475</ele>
        <time>2015-10-31T08:11:32.275Z</time>
      </trkpt>
      <trkpt lat="43.67341" lon="5.85985">
        <ele>475</ele>
        <time>2015-10-31T08:11:34.299Z</time>
      </trkpt>
      <trkpt lat="43.6734" lon="5.8598">
        <ele>475</ele>
        <time>2015-10-31T08:11:35.276Z</time>
      </trkpt>
      <trkpt lat="43.67339" lon="5.85971">
        <ele>475</ele>
        <time>2015-10-31T08:11:37.299Z</time>
      </trkpt>
      <trkpt lat="43.67338" lon="5.85966">
        <ele>475</ele>
        <time>2015-10-31T08:11:38.275Z</time>
      </trkpt>
      <trkpt lat="43.67336" lon="5.85956">
        <ele>475</ele>
        <time>2015-10-31T08:11:40.298Z</time>
      </trkpt>
      <trkpt lat="43.67335" lon="5.85951">
        <ele>475</ele>
        <time>2015-10-31T08:11:41.274Z</time>
      </trkpt>
      <trkpt lat="43.67333" lon="5.85943">
        <ele>475</ele>
        <time>2015-10-31T08:11:43.298Z</time>
      </trkpt>
      <trkpt lat="43.67333" lon="5.85939">
        <ele>475</ele>
        <time>2015-10-31T08:11:44.276Z</time>
      </trkpt>
      <trkpt lat="43.6734" lon="5.85933">
        <ele>474</ele>
        <time>2015-10-31T08:11:47.300Z</time>
      </trkpt>
      <trkpt lat="43.67345" lon="5.85933">
        <ele>473</ele>
        <time>2015-10-31T08:11:48.274Z</time>
      </trkpt>
      <trkpt lat="43.6735" lon="5.85933">
        <ele>473</ele>
        <time>2015-10-31T08:11:49.318Z</time>
      </trkpt>
      <trkpt lat="43.67354" lon="5.85933">
        <ele>473</ele>
        <time>2015-10-31T08:11:50.275Z</time>
      </trkpt>
      <trkpt lat="43.67362" lon="5.85937">
        <ele>473</ele>
        <time>2015-10-31T08:11:52.312Z</time>
      </trkpt>
      <trkpt lat="43.67364" lon="5.8594">
        <ele>473</ele>
        <time>2015-10-31T08:11:53.305Z</time>
      </trkpt>
      <trkpt lat="43.67369" lon="5.85949">
        <ele>472</ele>
        <time>2015-10-31T08:11:55.310Z</time>
      </trkpt>
      <trkpt lat="43.6737" lon="5.85954">
        <ele>472</ele>
        <time>2015-10-31T08:11:56.276Z</time>
      </trkpt>
      <trkpt lat="43.67373" lon="5.85965">
        <ele>472</ele>
        <time>2015-10-31T08:11:58.314Z</time>
      </trkpt>
      <trkpt lat="43.67375" lon="5.85971">
        <ele>472</ele>
        <time>2015-10-31T08:11:59.275Z</time>
      </trkpt>
      <trkpt lat="43.67377" lon="5.85977">
        <ele>472</ele>
        <time>2015-10-31T08:12:00.307Z</time>
      </trkpt>
      <trkpt lat="43.67379" lon="5.85985">
        <ele>472</ele>
        <time>2015-10-31T08:12:01.286Z</time>
      </trkpt>
      <trkpt lat="43.67381" lon="5.85991">
        <ele>472</ele>
        <time>2015-10-31T08:12:02.317Z</time>
      </trkpt>
      <trkpt lat="43.67383" lon="5.85996">
        <ele>472</ele>
        <time>2015-10-31T08:12:03.280Z</time>
      </trkpt>
      <trkpt lat="43.67385" lon="5.86002">
        <ele>472</ele>
        <time>2015-10-31T08:12:04.317Z</time>
      </trkpt>
      <trkpt lat="43.67387" lon="5.86008">
        <ele>472</ele>
        <time>2015-10-31T08:12:05.287Z</time>
      </trkpt>
      <trkpt lat="43.67393" lon="5.86017">
        <ele>473</ele>
        <time>2015-10-31T08:12:07.370Z</time>
      </trkpt>
      <trkpt lat="43.67396" lon="5.86021">
        <ele>474</ele>
        <time>2015-10-31T08:12:08.279Z</time>
      </trkpt>
      <trkpt lat="43.67401" lon="5.86029">
        <ele>474</ele>
        <time>2015-10-31T08:12:10.305Z</time>
      </trkpt>
      <trkpt lat="43.67404" lon="5.86033">
        <ele>474</ele>
        <time>2015-10-31T08:12:11.274Z</time>
      </trkpt>
      <trkpt lat="43.67409" lon="5.8604">
        <ele>474</ele>
        <time>2015-10-31T08:12:13.368Z</time>
      </trkpt>
      <trkpt lat="43.67412" lon="5.86043">
        <ele>475</ele>
        <time>2015-10-31T08:12:14.275Z</time>
      </trkpt>
      <trkpt lat="43.67419" lon="5.86048">
        <ele>474</ele>
        <time>2015-10-31T08:12:16.310Z</time>
      </trkpt>
      <trkpt lat="43.67422" lon="5.86051">
        <ele>474</ele>
        <time>2015-10-31T08:12:17.275Z</time>
      </trkpt>
      <trkpt lat="43.67427" lon="5.86056">
        <ele>474</ele>
        <time>2015-10-31T08:12:19.309Z</time>
      </trkpt>
      <trkpt lat="43.6743" lon="5.86058">
        <ele>474</ele>
        <time>2015-10-31T08:12:20.303Z</time>
      </trkpt>
      <trkpt lat="43.67437" lon="5.86061">
        <ele>474</ele>
        <time>2015-10-31T08:12:22.311Z</time>
      </trkpt>
      <trkpt lat="43.6744" lon="5.86063">
        <ele>474</ele>
        <time>2015-10-31T08:12:23.276Z</time>
      </trkpt>
      <trkpt lat="43.67448" lon="5.86067">
        <ele>474</ele>
        <time>2015-10-31T08:12:25.358Z</time>
      </trkpt>
      <trkpt lat="43.67452" lon="5.86068">
        <ele>474</ele>
        <time>2015-10-31T08:12:26.277Z</time>
      </trkpt>
      <trkpt lat="43.6746" lon="5.86071">
        <ele>474</ele>
        <time>2015-10-31T08:12:28.299Z</time>
      </trkpt>
      <trkpt lat="43.67466" lon="5.86071">
        <ele>474</ele>
        <time>2015-10-31T08:12:29.275Z</time>
      </trkpt>
      <trkpt lat="43.67474" lon="5.86074">
        <ele>473</ele>
        <time>2015-10-31T08:12:31.299Z</time>
      </trkpt>
      <trkpt lat="43.67479" lon="5.86076">
        <ele>473</ele>
        <time>2015-10-31T08:12:32.288Z</time>
      </trkpt>
      <trkpt lat="43.67486" lon="5.86077">
        <ele>474</ele>
        <time>2015-10-31T08:12:35.300Z</time>
      </trkpt>
      <trkpt lat="43.67489" lon="5.86076">
        <ele>474</ele>
        <time>2015-10-31T08:12:36.357Z</time>
      </trkpt>
      <trkpt lat="43.67496" lon="5.86076">
        <ele>474</ele>
        <time>2015-10-31T08:12:38.299Z</time>
      </trkpt>
      <trkpt lat="43.675" lon="5.86077">
        <ele>474</ele>
        <time>2015-10-31T08:12:39.275Z</time>
      </trkpt>
      <trkpt lat="43.67507" lon="5.86079">
        <ele>474</ele>
        <time>2015-10-31T08:12:41.299Z</time>
      </trkpt>
      <trkpt lat="43.67511" lon="5.8608">
        <ele>474</ele>
        <time>2015-10-31T08:12:42.276Z</time>
      </trkpt>
      <trkpt lat="43.67518" lon="5.86083">
        <ele>474</ele>
        <time>2015-10-31T08:12:44.298Z</time>
      </trkpt>
      <trkpt lat="43.67522" lon="5.86085">
        <ele>474</ele>
        <time>2015-10-31T08:12:45.286Z</time>
      </trkpt>
      <trkpt lat="43.67529" lon="5.86088">
        <ele>475</ele>
        <time>2015-10-31T08:12:47.299Z</time>
      </trkpt>
      <trkpt lat="43.67533" lon="5.8609">
        <ele>475</ele>
        <time>2015-10-31T08:12:48.275Z</time>
      </trkpt>
      <trkpt lat="43.67539" lon="5.86095">
        <ele>475</ele>
        <time>2015-10-31T08:12:50.297Z</time>
      </trkpt>
      <trkpt lat="43.67542" lon="5.86097">
        <ele>475</ele>
        <time>2015-10-31T08:12:51.275Z</time>
      </trkpt>
      <trkpt lat="43.6755" lon="5.86101">
        <ele>475</ele>
        <time>2015-10-31T08:12:53.298Z</time>
      </trkpt>
      <trkpt lat="43.67553" lon="5.86103">
        <ele>475</ele>
        <time>2015-10-31T08:12:54.274Z</time>
      </trkpt>
      <trkpt lat="43.67561" lon="5.86104">
        <ele>474</ele>
        <time>2015-10-31T08:12:56.300Z</time>
      </trkpt>
      <trkpt lat="43.67565" lon="5.86104">
        <ele>474</ele>
        <time>2015-10-31T08:12:57.275Z</time>
      </trkpt>
      <trkpt lat="43.67573" lon="5.86103">
        <ele>473</ele>
        <time>2015-10-31T08:12:59.299Z</time>
      </trkpt>
      <trkpt lat="43.67577" lon="5.86102">
        <ele>472</ele>
        <time>2015-10-31T08:13:00.266Z</time>
      </trkpt>
      <trkpt lat="43.67586" lon="5.86099">
        <ele>472</ele>
        <time>2015-10-31T08:13:02.298Z</time>
      </trkpt>
      <trkpt lat="43.6759" lon="5.86098">
        <ele>471</ele>
        <time>2015-10-31T08:13:03.305Z</time>
      </trkpt>
      <trkpt lat="43.67599" lon="5.86096">
        <ele>471</ele>
        <time>2015-10-31T08:13:05.302Z</time>
      </trkpt>
      <trkpt lat="43.67603" lon="5.86095">
        <ele>470</ele>
        <time>2015-10-31T08:13:06.276Z</time>
      </trkpt>
      <trkpt lat="43.67608" lon="5.86094">
        <ele>470</ele>
        <time>2015-10-31T08:13:07.300Z</time>
      </trkpt>
      <trkpt lat="43.67613" lon="5.86093">
        <ele>469</ele>
        <time>2015-10-31T08:13:08.275Z</time>
      </trkpt>
      <trkpt lat="43.67622" lon="5.86091">
        <ele>469</ele>
        <time>2015-10-31T08:13:10.299Z</time>
      </trkpt>
      <trkpt lat="43.67626" lon="5.8609">
        <ele>468</ele>
        <time>2015-10-31T08:13:11.275Z</time>
      </trkpt>
      <trkpt lat="43.6763" lon="5.86089">
        <ele>469</ele>
        <time>2015-10-31T08:13:12.298Z</time>
      </trkpt>
      <trkpt lat="43.67635" lon="5.86088">
        <ele>468</ele>
        <time>2015-10-31T08:13:13.277Z</time>
      </trkpt>
      <trkpt lat="43.67639" lon="5.86087">
        <ele>467</ele>
        <time>2015-10-31T08:13:14.299Z</time>
      </trkpt>
      <trkpt lat="43.67644" lon="5.86085">
        <ele>467</ele>
        <time>2015-10-31T08:13:15.266Z</time>
      </trkpt>
      <trkpt lat="43.67649" lon="5.86084">
        <ele>466</ele>
        <time>2015-10-31T08:13:16.299Z</time>
      </trkpt>
      <trkpt lat="43.67655" lon="5.86081">
        <ele>465</ele>
        <time>2015-10-31T08:13:17.275Z</time>
      </trkpt>
      <trkpt lat="43.6766" lon="5.86077">
        <ele>465</ele>
        <time>2015-10-31T08:13:18.301Z</time>
      </trkpt>
      <trkpt lat="43.67665" lon="5.86074">
        <ele>465</ele>
        <time>2015-10-31T08:13:19.275Z</time>
      </trkpt>
      <trkpt lat="43.67671" lon="5.86069">
        <ele>464</ele>
        <time>2015-10-31T08:13:20.300Z</time>
      </trkpt>
      <trkpt lat="43.67676" lon="5.86066">
        <ele>464</ele>
        <time>2015-10-31T08:13:21.266Z</time>
      </trkpt>
      <trkpt lat="43.67681" lon="5.86063">
        <ele>464</ele>
        <time>2015-10-31T08:13:22.299Z</time>
      </trkpt>
      <trkpt lat="43.67686" lon="5.86057">
        <ele>463</ele>
        <time>2015-10-31T08:13:23.275Z</time>
      </trkpt>
      <trkpt lat="43.67691" lon="5.86052">
        <ele>463</ele>
        <time>2015-10-31T08:13:24.341Z</time>
      </trkpt>
      <trkpt lat="43.67697" lon="5.86048">
        <ele>463</ele>
        <time>2015-10-31T08:13:25.275Z</time>
      </trkpt>
      <trkpt lat="43.67701" lon="5.86043">
        <ele>463</ele>
        <time>2015-10-31T08:13:26.298Z</time>
      </trkpt>
      <trkpt lat="43.67706" lon="5.86039">
        <ele>462</ele>
        <time>2015-10-31T08:13:27.276Z</time>
      </trkpt>
      <trkpt lat="43.6771" lon="5.86034">
        <ele>461</ele>
        <time>2015-10-31T08:13:28.299Z</time>
      </trkpt>
      <trkpt lat="43.67714" lon="5.8603">
        <ele>461</ele>
        <time>2015-10-31T08:13:29.286Z</time>
      </trkpt>
      <trkpt lat="43.67719" lon="5.86026">
        <ele>461</ele>
        <time>2015-10-31T08:13:30.299Z</time>
      </trkpt>
      <trkpt lat="43.67723" lon="5.86023">
        <ele>461</ele>
        <time>2015-10-31T08:13:31.274Z</time>
      </trkpt>
      <trkpt lat="43.67727" lon="5.86019">
        <ele>461</ele>
        <time>2015-10-31T08:13:32.307Z</time>
      </trkpt>
      <trkpt lat="43.67731" lon="5.86016">
        <ele>461</ele>
        <time>2015-10-31T08:13:33.275Z</time>
      </trkpt>
      <trkpt lat="43.67738" lon="5.8601">
        <ele>460</ele>
        <time>2015-10-31T08:13:35.327Z</time>
      </trkpt>
      <trkpt lat="43.67742" lon="5.86006">
        <ele>460</ele>
        <time>2015-10-31T08:13:36.277Z</time>
      </trkpt>
      <trkpt lat="43.67749" lon="5.86001">
        <ele>460</ele>
        <time>2015-10-31T08:13:38.300Z</time>
      </trkpt>
      <trkpt lat="43.67753" lon="5.85999">
        <ele>460</ele>
        <time>2015-10-31T08:13:39.276Z</time>
      </trkpt>
      <trkpt lat="43.6776" lon="5.85994">
        <ele>459</ele>
        <time>2015-10-31T08:13:41.299Z</time>
      </trkpt>
      <trkpt lat="43.67763" lon="5.85992">
        <ele>459</ele>
        <time>2015-10-31T08:13:42.290Z</time>
      </trkpt>
      <trkpt lat="43.6777" lon="5.85987">
        <ele>459</ele>
        <time>2015-10-31T08:13:44.531Z</time>
      </trkpt>
      <trkpt lat="43.67773" lon="5.85985">
        <ele>458</ele>
        <time>2015-10-31T08:13:45.276Z</time>
      </trkpt>
      <trkpt lat="43.67779" lon="5.85981">
        <ele>457</ele>
        <time>2015-10-31T08:13:47.300Z</time>
      </trkpt>
      <trkpt lat="43.67782" lon="5.8598">
        <ele>458</ele>
        <time>2015-10-31T08:13:48.276Z</time>
      </trkpt>
      <trkpt lat="43.67787" lon="5.85976">
        <ele>457</ele>
        <time>2015-10-31T08:13:50.300Z</time>
      </trkpt>
      <trkpt lat="43.6779" lon="5.85975">
        <ele>457</ele>
        <time>2015-10-31T08:13:51.305Z</time>
      </trkpt>
      <trkpt lat="43.67796" lon="5.85971">
        <ele>456</ele>
        <time>2015-10-31T08:13:53.299Z</time>
      </trkpt>
      <trkpt lat="43.67799" lon="5.85969">
        <ele>456</ele>
        <time>2015-10-31T08:13:54.277Z</time>
      </trkpt>
      <trkpt lat="43.67805" lon="5.85967">
        <ele>456</ele>
        <time>2015-10-31T08:13:56.541Z</time>
      </trkpt>
      <trkpt lat="43.67808" lon="5.85966">
        <ele>456</ele>
        <time>2015-10-31T08:13:57.276Z</time>
      </trkpt>
      <trkpt lat="43.67815" lon="5.85965">
        <ele>456</ele>
        <time>2015-10-31T08:13:59.301Z</time>
      </trkpt>
      <trkpt lat="43.67819" lon="5.85965">
        <ele>456</ele>
        <time>2015-10-31T08:14:00.277Z</time>
      </trkpt>
      <trkpt lat="43.67825" lon="5.85964">
        <ele>456</ele>
        <time>2015-10-31T08:14:02.298Z</time>
      </trkpt>
      <trkpt lat="43.67829" lon="5.85962">
        <ele>456</ele>
        <time>2015-10-31T08:14:03.275Z</time>
      </trkpt>
      <trkpt lat="43.67835" lon="5.85958">
        <ele>456</ele>
        <time>2015-10-31T08:14:05.297Z</time>
      </trkpt>
      <trkpt lat="43.67838" lon="5.85956">
        <ele>456</ele>
        <time>2015-10-31T08:14:06.275Z</time>
      </trkpt>
      <trkpt lat="43.67845" lon="5.85956">
        <ele>456</ele>
        <time>2015-10-31T08:14:08.568Z</time>
      </trkpt>
      <trkpt lat="43.67848" lon="5.85958">
        <ele>456</ele>
        <time>2015-10-31T08:14:09.275Z</time>
      </trkpt>
      <trkpt lat="43.67853" lon="5.85964">
        <ele>457</ele>
        <time>2015-10-31T08:14:11.299Z</time>
      </trkpt>
      <trkpt lat="43.67856" lon="5.85967">
        <ele>457</ele>
        <time>2015-10-31T08:14:12.275Z</time>
      </trkpt>
      <trkpt lat="43.67862" lon="5.85971">
        <ele>458</ele>
        <time>2015-10-31T08:14:14.299Z</time>
      </trkpt>
      <trkpt lat="43.67866" lon="5.85973">
        <ele>458</ele>
        <time>2015-10-31T08:14:15.275Z</time>
      </trkpt>
      <trkpt lat="43.67872" lon="5.85977">
        <ele>457</ele>
        <time>2015-10-31T08:14:17.298Z</time>
      </trkpt>
      <trkpt lat="43.67875" lon="5.85979">
        <ele>458</ele>
        <time>2015-10-31T08:14:18.304Z</time>
      </trkpt>
      <trkpt lat="43.67881" lon="5.85984">
        <ele>457</ele>
        <time>2015-10-31T08:14:20.298Z</time>
      </trkpt>
      <trkpt lat="43.67885" lon="5.85986">
        <ele>457</ele>
        <time>2015-10-31T08:14:21.275Z</time>
      </trkpt>
      <trkpt lat="43.67891" lon="5.8599">
        <ele>458</ele>
        <time>2015-10-31T08:14:23.311Z</time>
      </trkpt>
      <trkpt lat="43.67894" lon="5.85993">
        <ele>458</ele>
        <time>2015-10-31T08:14:24.274Z</time>
      </trkpt>
      <trkpt lat="43.679" lon="5.85997">
        <ele>458</ele>
        <time>2015-10-31T08:14:26.290Z</time>
      </trkpt>
      <trkpt lat="43.67904" lon="5.85999">
        <ele>458</ele>
        <time>2015-10-31T08:14:27.276Z</time>
      </trkpt>
      <trkpt lat="43.6791" lon="5.86004">
        <ele>458</ele>
        <time>2015-10-31T08:14:29.332Z</time>
      </trkpt>
      <trkpt lat="43.67913" lon="5.86006">
        <ele>458</ele>
        <time>2015-10-31T08:14:30.277Z</time>
      </trkpt>
      <trkpt lat="43.6792" lon="5.86012">
        <ele>458</ele>
        <time>2015-10-31T08:14:32.300Z</time>
      </trkpt>
      <trkpt lat="43.67924" lon="5.86014">
        <ele>459</ele>
        <time>2015-10-31T08:14:33.275Z</time>
      </trkpt>
      <trkpt lat="43.67932" lon="5.86019">
        <ele>459</ele>
        <time>2015-10-31T08:14:35.300Z</time>
      </trkpt>
      <trkpt lat="43.67936" lon="5.86021">
        <ele>459</ele>
        <time>2015-10-31T08:14:36.275Z</time>
      </trkpt>
      <trkpt lat="43.67944" lon="5.86024">
        <ele>459</ele>
        <time>2015-10-31T08:14:38.300Z</time>
      </trkpt>
      <trkpt lat="43.67948" lon="5.86025">
        <ele>459</ele>
        <time>2015-10-31T08:14:39.288Z</time>
      </trkpt>
      <trkpt lat="43.67955" lon="5.86029">
        <ele>459</ele>
        <time>2015-10-31T08:14:41.297Z</time>
      </trkpt>
      <trkpt lat="43.67959" lon="5.8603">
        <ele>459</ele>
        <time>2015-10-31T08:14:42.276Z</time>
      </trkpt>
      <trkpt lat="43.67967" lon="5.86032">
        <ele>458</ele>
        <time>2015-10-31T08:14:44.310Z</time>
      </trkpt>
      <trkpt lat="43.67971" lon="5.86033">
        <ele>458</ele>
        <time>2015-10-31T08:14:45.275Z</time>
      </trkpt>
      <trkpt lat="43.67979" lon="5.86033">
        <ele>458</ele>
        <time>2015-10-31T08:14:47.301Z</time>
      </trkpt>
      <trkpt lat="43.67984" lon="5.86034">
        <ele>458</ele>
        <time>2015-10-31T08:14:48.274Z</time>
      </trkpt>
      <trkpt lat="43.67992" lon="5.86035">
        <ele>458</ele>
        <time>2015-10-31T08:14:50.298Z</time>
      </trkpt>
      <trkpt lat="43.67996" lon="5.86038">
        <ele>457</ele>
        <time>2015-10-31T08:14:51.274Z</time>
      </trkpt>
      <trkpt lat="43.68002" lon="5.86044">
        <ele>457</ele>
        <time>2015-10-31T08:14:53.298Z</time>
      </trkpt>
      <trkpt lat="43.68005" lon="5.86046">
        <ele>457</ele>
        <time>2015-10-31T08:14:54.287Z</time>
      </trkpt>
      <trkpt lat="43.68011" lon="5.86043">
        <ele>456</ele>
        <time>2015-10-31T08:14:56.329Z</time>
      </trkpt>
      <trkpt lat="43.68014" lon="5.86042">
        <ele>456</ele>
        <time>2015-10-31T08:14:57.278Z</time>
      </trkpt>
      <trkpt lat="43.68021" lon="5.86039">
        <ele>456</ele>
        <time>2015-10-31T08:14:59.298Z</time>
      </trkpt>
      <trkpt lat="43.68024" lon="5.86038">
        <ele>456</ele>
        <time>2015-10-31T08:15:00.275Z</time>
      </trkpt>
      <trkpt lat="43.68032" lon="5.86035">
        <ele>455</ele>
        <time>2015-10-31T08:15:02.298Z</time>
      </trkpt>
      <trkpt lat="43.68036" lon="5.86034">
        <ele>455</ele>
        <time>2015-10-31T08:15:03.275Z</time>
      </trkpt>
      <trkpt lat="43.68045" lon="5.86032">
        <ele>455</ele>
        <time>2015-10-31T08:15:05.298Z</time>
      </trkpt>
      <trkpt lat="43.68049" lon="5.86032">
        <ele>454</ele>
        <time>2015-10-31T08:15:06.275Z</time>
      </trkpt>
      <trkpt lat="43.68057" lon="5.86031">
        <ele>454</ele>
        <time>2015-10-31T08:15:08.298Z</time>
      </trkpt>
      <trkpt lat="43.68061" lon="5.8603">
        <ele>454</ele>
        <time>2015-10-31T08:15:09.275Z</time>
      </trkpt>
      <trkpt lat="43.68068" lon="5.86029">
        <ele>453</ele>
        <time>2015-10-31T08:15:13.294Z</time>
      </trkpt>
      <trkpt lat="43.68071" lon="5.8603">
        <ele>453</ele>
        <time>2015-10-31T08:15:14.276Z</time>
      </trkpt>
      <trkpt lat="43.68078" lon="5.8603">
        <ele>453</ele>
        <time>2015-10-31T08:15:16.299Z</time>
      </trkpt>
      <trkpt lat="43.68082" lon="5.86029">
        <ele>453</ele>
        <time>2015-10-31T08:15:17.274Z</time>
      </trkpt>
      <trkpt lat="43.68089" lon="5.86026">
        <ele>453</ele>
        <time>2015-10-31T08:15:19.297Z</time>
      </trkpt>
      <trkpt lat="43.68093" lon="5.86025">
        <ele>453</ele>
        <time>2015-10-31T08:15:20.274Z</time>
      </trkpt>
      <trkpt lat="43.681" lon="5.86024">
        <ele>453</ele>
        <time>2015-10-31T08:15:22.306Z</time>
      </trkpt>
      <trkpt lat="43.68103" lon="5.86024">
        <ele>453</ele>
        <time>2015-10-31T08:15:23.275Z</time>
      </trkpt>
      <trkpt lat="43.68111" lon="5.8603">
        <ele>452</ele>
        <time>2015-10-31T08:15:26.298Z</time>
      </trkpt>
      <trkpt lat="43.68112" lon="5.86032">
        <ele>453</ele>
        <time>2015-10-31T08:15:27.275Z</time>
      </trkpt>
      <trkpt lat="43.68115" lon="5.86041">
        <ele>454</ele>
        <time>2015-10-31T08:15:30.298Z</time>
      </trkpt>
      <trkpt lat="43.68116" lon="5.86044">
        <ele>454</ele>
        <time>2015-10-31T08:15:31.275Z</time>
      </trkpt>
      <trkpt lat="43.68122" lon="5.86053">
        <ele>454</ele>
        <time>2015-10-31T08:15:34.300Z</time>
      </trkpt>
      <trkpt lat="43.68125" lon="5.86055">
        <ele>454</ele>
        <time>2015-10-31T08:15:35.275Z</time>
      </trkpt>
      <trkpt lat="43.68133" lon="5.86055">
        <ele>454</ele>
        <time>2015-10-31T08:15:37.318Z</time>
      </trkpt>
      <trkpt lat="43.68136" lon="5.86054">
        <ele>453</ele>
        <time>2015-10-31T08:15:38.275Z</time>
      </trkpt>
      <trkpt lat="43.68144" lon="5.86053">
        <ele>453</ele>
        <time>2015-10-31T08:15:40.299Z</time>
      </trkpt>
      <trkpt lat="43.68148" lon="5.86053">
        <ele>453</ele>
        <time>2015-10-31T08:15:41.275Z</time>
      </trkpt>
      <trkpt lat="43.68156" lon="5.86055">
        <ele>452</ele>
        <time>2015-10-31T08:15:43.299Z</time>
      </trkpt>
      <trkpt lat="43.68159" lon="5.86057">
        <ele>453</ele>
        <time>2015-10-31T08:15:44.305Z</time>
      </trkpt>
      <trkpt lat="43.68166" lon="5.86062">
        <ele>452</ele>
        <time>2015-10-31T08:15:47.306Z</time>
      </trkpt>
      <trkpt lat="43.68168" lon="5.86064">
        <ele>452</ele>
        <time>2015-10-31T08:15:48.276Z</time>
      </trkpt>
      <trkpt lat="43.68175" lon="5.86071">
        <ele>453</ele>
        <time>2015-10-31T08:15:51.299Z</time>
      </trkpt>
      <trkpt lat="43.68178" lon="5.86071">
        <ele>452</ele>
        <time>2015-10-31T08:15:52.287Z</time>
      </trkpt>
      <trkpt lat="43.68186" lon="5.86072">
        <ele>452</ele>
        <time>2015-10-31T08:15:55.299Z</time>
      </trkpt>
      <trkpt lat="43.68189" lon="5.86074">
        <ele>452</ele>
        <time>2015-10-31T08:15:56.275Z</time>
      </trkpt>
      <trkpt lat="43.68195" lon="5.86083">
        <ele>453</ele>
        <time>2015-10-31T08:15:59.297Z</time>
      </trkpt>
      <trkpt lat="43.68196" lon="5.86086">
        <ele>453</ele>
        <time>2015-10-31T08:16:00.302Z</time>
      </trkpt>
      <trkpt lat="43.68199" lon="5.86098">
        <ele>453</ele>
        <time>2015-10-31T08:16:03.309Z</time>
      </trkpt>
      <trkpt lat="43.68199" lon="5.86101">
        <ele>453</ele>
        <time>2015-10-31T08:16:04.275Z</time>
      </trkpt>
      <trkpt lat="43.68202" lon="5.86112">
        <ele>453</ele>
        <time>2015-10-31T08:16:07.296Z</time>
      </trkpt>
      <trkpt lat="43.68203" lon="5.86115">
        <ele>453</ele>
        <time>2015-10-31T08:16:08.274Z</time>
      </trkpt>
      <trkpt lat="43.68205" lon="5.86127">
        <ele>453</ele>
        <time>2015-10-31T08:16:11.537Z</time>
      </trkpt>
      <trkpt lat="43.68205" lon="5.8613">
        <ele>452</ele>
        <time>2015-10-31T08:16:12.276Z</time>
      </trkpt>
      <trkpt lat="43.68211" lon="5.86139">
        <ele>452</ele>
        <time>2015-10-31T08:16:15.300Z</time>
      </trkpt>
      <trkpt lat="43.68214" lon="5.8614">
        <ele>452</ele>
        <time>2015-10-31T08:16:16.303Z</time>
      </trkpt>
      <trkpt lat="43.6822" lon="5.86141">
        <ele>452</ele>
        <time>2015-10-31T08:16:18.298Z</time>
      </trkpt>
      <trkpt lat="43.68223" lon="5.86141">
        <ele>451</ele>
        <time>2015-10-31T08:16:19.275Z</time>
      </trkpt>
      <trkpt lat="43.68229" lon="5.86143">
        <ele>451</ele>
        <time>2015-10-31T08:16:21.301Z</time>
      </trkpt>
      <trkpt lat="43.68232" lon="5.86144">
        <ele>452</ele>
        <time>2015-10-31T08:16:22.277Z</time>
      </trkpt>
      <trkpt lat="43.68241" lon="5.86146">
        <ele>452</ele>
        <time>2015-10-31T08:16:25.297Z</time>
      </trkpt>
      <trkpt lat="43.68242" lon="5.86145">
        <ele>452</ele>
        <time>2015-10-31T08:16:26.275Z</time>
      </trkpt>
      <trkpt lat="43.6825" lon="5.86147">
        <ele>452</ele>
        <time>2015-10-31T08:16:34.534Z</time>
      </trkpt>
      <trkpt lat="43.68251" lon="5.86149">
        <ele>452</ele>
        <time>2015-10-31T08:16:35.276Z</time>
      </trkpt>
      <trkpt lat="43.68255" lon="5.86156">
        <ele>452</ele>
        <time>2015-10-31T08:16:38.309Z</time>
      </trkpt>
      <trkpt lat="43.68257" lon="5.86158">
        <ele>452</ele>
        <time>2015-10-31T08:16:39.286Z</time>
      </trkpt>
      <trkpt lat="43.68264" lon="5.86164">
        <ele>451</ele>
        <time>2015-10-31T08:16:42.300Z</time>
      </trkpt>
      <trkpt lat="43.68266" lon="5.86167">
        <ele>451</ele>
        <time>2015-10-31T08:16:43.277Z</time>
      </trkpt>
      <trkpt lat="43.68274" lon="5.86172">
        <ele>451</ele>
        <time>2015-10-31T08:16:46.300Z</time>
      </trkpt>
      <trkpt lat="43.68277" lon="5.86172">
        <ele>450</ele>
        <time>2015-10-31T08:16:47.276Z</time>
      </trkpt>
      <trkpt lat="43.68283" lon="5.86171">
        <ele>450</ele>
        <time>2015-10-31T08:16:49.310Z</time>
      </trkpt>
      <trkpt lat="43.68286" lon="5.86171">
        <ele>450</ele>
        <time>2015-10-31T08:16:50.275Z</time>
      </trkpt>
      <trkpt lat="43.68292" lon="5.86169">
        <ele>449</ele>
        <time>2015-10-31T08:16:52.299Z</time>
      </trkpt>
      <trkpt lat="43.68295" lon="5.86168">
        <ele>449</ele>
        <time>2015-10-31T08:16:53.304Z</time>
      </trkpt>
      <trkpt lat="43.68302" lon="5.86166">
        <ele>449</ele>
        <time>2015-10-31T08:16:55.298Z</time>
      </trkpt>
      <trkpt lat="43.68306" lon="5.86165">
        <ele>448</ele>
        <time>2015-10-31T08:16:56.276Z</time>
      </trkpt>
      <trkpt lat="43.68313" lon="5.86163">
        <ele>448</ele>
        <time>2015-10-31T08:16:58.298Z</time>
      </trkpt>
      <trkpt lat="43.68316" lon="5.86162">
        <ele>448</ele>
        <time>2015-10-31T08:16:59.275Z</time>
      </trkpt>
      <trkpt lat="43.68323" lon="5.86159">
        <ele>448</ele>
        <time>2015-10-31T08:17:01.298Z</time>
      </trkpt>
      <trkpt lat="43.68325" lon="5.86158">
        <ele>448</ele>
        <time>2015-10-31T08:17:02.281Z</time>
      </trkpt>
      <trkpt lat="43.68332" lon="5.86154">
        <ele>448</ele>
        <time>2015-10-31T08:17:04.298Z</time>
      </trkpt>
      <trkpt lat="43.68335" lon="5.86152">
        <ele>448</ele>
        <time>2015-10-31T08:17:05.274Z</time>
      </trkpt>
      <trkpt lat="43.6834" lon="5.86149">
        <ele>448</ele>
        <time>2015-10-31T08:17:07.506Z</time>
      </trkpt>
      <trkpt lat="43.68343" lon="5.86147">
        <ele>448</ele>
        <time>2015-10-31T08:17:08.276Z</time>
      </trkpt>
      <trkpt lat="43.68349" lon="5.86144">
        <ele>448</ele>
        <time>2015-10-31T08:17:10.300Z</time>
      </trkpt>
      <trkpt lat="43.68351" lon="5.86142">
        <ele>448</ele>
        <time>2015-10-31T08:17:11.276Z</time>
      </trkpt>
      <trkpt lat="43.68357" lon="5.86139">
        <ele>448</ele>
        <time>2015-10-31T08:17:13.298Z</time>
      </trkpt>
      <trkpt lat="43.6836" lon="5.86137">
        <ele>448</ele>
        <time>2015-10-31T08:17:14.277Z</time>
      </trkpt>
      <trkpt lat="43.68365" lon="5.86134">
        <ele>449</ele>
        <time>2015-10-31T08:17:16.310Z</time>
      </trkpt>
      <trkpt lat="43.68368" lon="5.86132">
        <ele>449</ele>
        <time>2015-10-31T08:17:17.276Z</time>
      </trkpt>
      <trkpt lat="43.68376" lon="5.86127">
        <ele>448</ele>
        <time>2015-10-31T08:17:20.349Z</time>
      </trkpt>
      <trkpt lat="43.68378" lon="5.86125">
        <ele>448</ele>
        <time>2015-10-31T08:17:21.276Z</time>
      </trkpt>
      <trkpt lat="43.68383" lon="5.8612">
        <ele>448</ele>
        <time>2015-10-31T08:17:23.300Z</time>
      </trkpt>
      <trkpt lat="43.68386" lon="5.86117">
        <ele>448</ele>
        <time>2015-10-31T08:17:24.276Z</time>
      </trkpt>
      <trkpt lat="43.68391" lon="5.86112">
        <ele>448</ele>
        <time>2015-10-31T08:17:26.309Z</time>
      </trkpt>
      <trkpt lat="43.68393" lon="5.8611">
        <ele>449</ele>
        <time>2015-10-31T08:17:27.276Z</time>
      </trkpt>
      <trkpt lat="43.68399" lon="5.86105">
        <ele>448</ele>
        <time>2015-10-31T08:17:29.299Z</time>
      </trkpt>
      <trkpt lat="43.68402" lon="5.86102">
        <ele>449</ele>
        <time>2015-10-31T08:17:30.288Z</time>
      </trkpt>
      <trkpt lat="43.68408" lon="5.86098">
        <ele>449</ele>
        <time>2015-10-31T08:17:32.299Z</time>
      </trkpt>
      <trkpt lat="43.68411" lon="5.86096">
        <ele>449</ele>
        <time>2015-10-31T08:17:33.276Z</time>
      </trkpt>
      <trkpt lat="43.68417" lon="5.86094">
        <ele>449</ele>
        <time>2015-10-31T08:17:35.299Z</time>
      </trkpt>
      <trkpt lat="43.6842" lon="5.86092">
        <ele>449</ele>
        <time>2015-10-31T08:17:36.277Z</time>
      </trkpt>
      <trkpt lat="43.68426" lon="5.86089">
        <ele>450</ele>
        <time>2015-10-31T08:17:38.299Z</time>
      </trkpt>
      <trkpt lat="43.68428" lon="5.86087">
        <ele>449</ele>
        <time>2015-10-31T08:17:39.276Z</time>
      </trkpt>
      <trkpt lat="43.68436" lon="5.86082">
        <ele>450</ele>
        <time>2015-10-31T08:17:42.528Z</time>
      </trkpt>
      <trkpt lat="43.68439" lon="5.8608">
        <ele>449</ele>
        <time>2015-10-31T08:17:43.278Z</time>
      </trkpt>
      <trkpt lat="43.68447" lon="5.86076">
        <ele>451</ele>
        <time>2015-10-31T08:17:46.310Z</time>
      </trkpt>
      <trkpt lat="43.68449" lon="5.86075">
        <ele>451</ele>
        <time>2015-10-31T08:17:47.276Z</time>
      </trkpt>
      <trkpt lat="43.68456" lon="5.86069">
        <ele>451</ele>
        <time>2015-10-31T08:17:51.299Z</time>
      </trkpt>
      <trkpt lat="43.68458" lon="5.86066">
        <ele>452</ele>
        <time>2015-10-31T08:17:52.304Z</time>
      </trkpt>
      <trkpt lat="43.68463" lon="5.8606">
        <ele>452</ele>
        <time>2015-10-31T08:17:55.299Z</time>
      </trkpt>
      <trkpt lat="43.68466" lon="5.86057">
        <ele>451</ele>
        <time>2015-10-31T08:17:56.277Z</time>
      </trkpt>
      <trkpt lat="43.68472" lon="5.8605">
        <ele>452</ele>
        <time>2015-10-31T08:17:59.312Z</time>
      </trkpt>
      <trkpt lat="43.68475" lon="5.86047">
        <ele>452</ele>
        <time>2015-10-31T08:18:00.276Z</time>
      </trkpt>
      <trkpt lat="43.68483" lon="5.86044">
        <ele>452</ele>
        <time>2015-10-31T08:18:03.299Z</time>
      </trkpt>
      <trkpt lat="43.68485" lon="5.86043">
        <ele>452</ele>
        <time>2015-10-31T08:18:04.288Z</time>
      </trkpt>
      <trkpt lat="43.68493" lon="5.86044">
        <ele>452</ele>
        <time>2015-10-31T08:18:07.300Z</time>
      </trkpt>
      <trkpt lat="43.68496" lon="5.86045">
        <ele>452</ele>
        <time>2015-10-31T08:18:08.306Z</time>
      </trkpt>
      <trkpt lat="43.68504" lon="5.86048">
        <ele>452</ele>
        <time>2015-10-31T08:18:11.301Z</time>
      </trkpt>
      <trkpt lat="43.68506" lon="5.86048">
        <ele>452</ele>
        <time>2015-10-31T08:18:12.274Z</time>
      </trkpt>
      <trkpt lat="43.68515" lon="5.86049">
        <ele>452</ele>
        <time>2015-10-31T08:18:15.286Z</time>
      </trkpt>
      <trkpt lat="43.68518" lon="5.8605">
        <ele>453</ele>
        <time>2015-10-31T08:18:16.284Z</time>
      </trkpt>
      <trkpt lat="43.68527" lon="5.8605">
        <ele>452</ele>
        <time>2015-10-31T08:18:19.299Z</time>
      </trkpt>
      <trkpt lat="43.68529" lon="5.86052">
        <ele>452</ele>
        <time>2015-10-31T08:18:20.276Z</time>
      </trkpt>
      <trkpt lat="43.68534" lon="5.86057">
        <ele>453</ele>
        <time>2015-10-31T08:18:22.300Z</time>
      </trkpt>
      <trkpt lat="43.68537" lon="5.8606">
        <ele>453</ele>
        <time>2015-10-31T08:18:23.277Z</time>
      </trkpt>
      <trkpt lat="43.68543" lon="5.86069">
        <ele>454</ele>
        <time>2015-10-31T08:18:26.301Z</time>
      </trkpt>
      <trkpt lat="43.68545" lon="5.86072">
        <ele>454</ele>
        <time>2015-10-31T08:18:27.277Z</time>
      </trkpt>
      <trkpt lat="43.68553" lon="5.86075">
        <ele>454</ele>
        <time>2015-10-31T08:18:30.300Z</time>
      </trkpt>
      <trkpt lat="43.68556" lon="5.86075">
        <ele>454</ele>
        <time>2015-10-31T08:18:31.286Z</time>
      </trkpt>
      <trkpt lat="43.68563" lon="5.8607">
        <ele>454</ele>
        <time>2015-10-31T08:18:34.300Z</time>
      </trkpt>
      <trkpt lat="43.68566" lon="5.86068">
        <ele>454</ele>
        <time>2015-10-31T08:18:35.306Z</time>
      </trkpt>
      <trkpt lat="43.68572" lon="5.8606">
        <ele>456</ele>
        <time>2015-10-31T08:18:39.300Z</time>
      </trkpt>
      <trkpt lat="43.68574" lon="5.86058">
        <ele>456</ele>
        <time>2015-10-31T08:18:40.287Z</time>
      </trkpt>
      <trkpt lat="43.68579" lon="5.86052">
        <ele>456</ele>
        <time>2015-10-31T08:18:43.301Z</time>
      </trkpt>
      <trkpt lat="43.68581" lon="5.8605">
        <ele>456</ele>
        <time>2015-10-31T08:18:44.277Z</time>
      </trkpt>
      <trkpt lat="43.68589" lon="5.86048">
        <ele>457</ele>
        <time>2015-10-31T08:18:47.301Z</time>
      </trkpt>
      <trkpt lat="43.68591" lon="5.86048">
        <ele>457</ele>
        <time>2015-10-31T08:18:48.276Z</time>
      </trkpt>
      <trkpt lat="43.68599" lon="5.86049">
        <ele>458</ele>
        <time>2015-10-31T08:18:52.303Z</time>
      </trkpt>
      <trkpt lat="43.68601" lon="5.86051">
        <ele>458</ele>
        <time>2015-10-31T08:18:53.276Z</time>
      </trkpt>
      <trkpt lat="43.68607" lon="5.8606">
        <ele>459</ele>
        <time>2015-10-31T08:18:57.305Z</time>
      </trkpt>
      <trkpt lat="43.68608" lon="5.86062">
        <ele>459</ele>
        <time>2015-10-31T08:18:58.290Z</time>
      </trkpt>
      <trkpt lat="43.68611" lon="5.86071">
        <ele>459</ele>
        <time>2015-10-31T08:19:01.312Z</time>
      </trkpt>
      <trkpt lat="43.68612" lon="5.86073">
        <ele>459</ele>
        <time>2015-10-31T08:19:02.276Z</time>
      </trkpt>
      <trkpt lat="43.68616" lon="5.86082">
        <ele>460</ele>
        <time>2015-10-31T08:19:05.299Z</time>
      </trkpt>
      <trkpt lat="43.68618" lon="5.86085">
        <ele>460</ele>
        <time>2015-10-31T08:19:06.276Z</time>
      </trkpt>
      <trkpt lat="43.68623" lon="5.86093">
        <ele>461</ele>
        <time>2015-10-31T08:19:09.300Z</time>
      </trkpt>
      <trkpt lat="43.68626" lon="5.86095">
        <ele>460</ele>
        <time>2015-10-31T08:19:10.276Z</time>
      </trkpt>
      <trkpt lat="43.68631" lon="5.86101">
        <ele>460</ele>
        <time>2015-10-31T08:19:12.327Z</time>
      </trkpt>
      <trkpt lat="43.68633" lon="5.86103">
        <ele>460</ele>
        <time>2015-10-31T08:19:13.277Z</time>
      </trkpt>
      <trkpt lat="43.6864" lon="5.86108">
        <ele>460</ele>
        <time>2015-10-31T08:19:15.297Z</time>
      </trkpt>
      <trkpt lat="43.68643" lon="5.8611">
        <ele>460</ele>
        <time>2015-10-31T08:19:16.289Z</time>
      </trkpt>
      <trkpt lat="43.6865" lon="5.86115">
        <ele>460</ele>
        <time>2015-10-31T08:19:18.442Z</time>
      </trkpt>
      <trkpt lat="43.68654" lon="5.86117">
        <ele>460</ele>
        <time>2015-10-31T08:19:19.276Z</time>
      </trkpt>
      <trkpt lat="43.6866" lon="5.86121">
        <ele>460</ele>
        <time>2015-10-31T08:19:21.299Z</time>
      </trkpt>
      <trkpt lat="43.68663" lon="5.86123">
        <ele>460</ele>
        <time>2015-10-31T08:19:22.275Z</time>
      </trkpt>
      <trkpt lat="43.68669" lon="5.86127">
        <ele>460</ele>
        <time>2015-10-31T08:19:24.313Z</time>
      </trkpt>
      <trkpt lat="43.68672" lon="5.86129">
        <ele>461</ele>
        <time>2015-10-31T08:19:25.288Z</time>
      </trkpt>
      <trkpt lat="43.68679" lon="5.86127">
        <ele>461</ele>
        <time>2015-10-31T08:19:28.330Z</time>
      </trkpt>
      <trkpt lat="43.68681" lon="5.86127">
        <ele>461</ele>
        <time>2015-10-31T08:19:29.287Z</time>
      </trkpt>
      <trkpt lat="43.68689" lon="5.86131">
        <ele>461</ele>
        <time>2015-10-31T08:19:35.312Z</time>
      </trkpt>
      <trkpt lat="43.6869" lon="5.86135">
        <ele>461</ele>
        <time>2015-10-31T08:19:36.277Z</time>
      </trkpt>
      <trkpt lat="43.68693" lon="5.86146">
        <ele>461</ele>
        <time>2015-10-31T08:19:39.299Z</time>
      </trkpt>
      <trkpt lat="43.68694" lon="5.8615">
        <ele>461</ele>
        <time>2015-10-31T08:19:40.276Z</time>
      </trkpt>
      <trkpt lat="43.68694" lon="5.86161">
        <ele>461</ele>
        <time>2015-10-31T08:19:43.300Z</time>
      </trkpt>
      <trkpt lat="43.68695" lon="5.86165">
        <ele>460</ele>
        <time>2015-10-31T08:19:44.305Z</time>
      </trkpt>
      <trkpt lat="43.68695" lon="5.86176">
        <ele>460</ele>
        <time>2015-10-31T08:19:47.298Z</time>
      </trkpt>
      <trkpt lat="43.68695" lon="5.86179">
        <ele>460</ele>
        <time>2015-10-31T08:19:48.277Z</time>
      </trkpt>
      <trkpt lat="43.68697" lon="5.86188">
        <ele>461</ele>
        <time>2015-10-31T08:19:52.324Z</time>
      </trkpt>
      <trkpt lat="43.68698" lon="5.86192">
        <ele>461</ele>
        <time>2015-10-31T08:19:53.276Z</time>
      </trkpt>
      <trkpt lat="43.68699" lon="5.86203">
        <ele>460</ele>
        <time>2015-10-31T08:19:56.299Z</time>
      </trkpt>
      <trkpt lat="43.68699" lon="5.86207">
        <ele>461</ele>
        <time>2015-10-31T08:19:57.277Z</time>
      </trkpt>
      <trkpt lat="43.68698" lon="5.86217">
        <ele>460</ele>
        <time>2015-10-31T08:20:00.330Z</time>
      </trkpt>
      <trkpt lat="43.68698" lon="5.8622">
        <ele>460</ele>
        <time>2015-10-31T08:20:01.276Z</time>
      </trkpt>
      <trkpt lat="43.68697" lon="5.86231">
        <ele>460</ele>
        <time>2015-10-31T08:20:05.300Z</time>
      </trkpt>
      <trkpt lat="43.68697" lon="5.86233">
        <ele>460</ele>
        <time>2015-10-31T08:20:06.276Z</time>
      </trkpt>
      <trkpt lat="43.68697" lon="5.86244">
        <ele>461</ele>
        <time>2015-10-31T08:20:10.310Z</time>
      </trkpt>
      <trkpt lat="43.68697" lon="5.86247">
        <ele>461</ele>
        <time>2015-10-31T08:20:11.280Z</time>
      </trkpt>
      <trkpt lat="43.68699" lon="5.86256">
        <ele>462</ele>
        <time>2015-10-31T08:20:14.301Z</time>
      </trkpt>
      <trkpt lat="43.68699" lon="5.86259">
        <ele>462</ele>
        <time>2015-10-31T08:20:15.277Z</time>
      </trkpt>
      <trkpt lat="43.68699" lon="5.86271">
        <ele>463</ele>
        <time>2015-10-31T08:20:19.299Z</time>
      </trkpt>
      <trkpt lat="43.68699" lon="5.86274">
        <ele>463</ele>
        <time>2015-10-31T08:20:20.276Z</time>
      </trkpt>
      <trkpt lat="43.68703" lon="5.86285">
        <ele>464</ele>
        <time>2015-10-31T08:20:24.298Z</time>
      </trkpt>
      <trkpt lat="43.68705" lon="5.86287">
        <ele>464</ele>
        <time>2015-10-31T08:20:25.276Z</time>
      </trkpt>
      <trkpt lat="43.68708" lon="5.86298">
        <ele>464</ele>
        <time>2015-10-31T08:20:29.299Z</time>
      </trkpt>
      <trkpt lat="43.68709" lon="5.86301">
        <ele>464</ele>
        <time>2015-10-31T08:20:30.277Z</time>
      </trkpt>
      <trkpt lat="43.68708" lon="5.86313">
        <ele>465</ele>
        <time>2015-10-31T08:20:34.535Z</time>
      </trkpt>
      <trkpt lat="43.68707" lon="5.86316">
        <ele>465</ele>
        <time>2015-10-31T08:20:35.276Z</time>
      </trkpt>
      <trkpt lat="43.68703" lon="5.86323">
        <ele>464</ele>
        <time>2015-10-31T08:20:38.363Z</time>
      </trkpt>
      <trkpt lat="43.68702" lon="5.86326">
        <ele>465</ele>
        <time>2015-10-31T08:20:39.286Z</time>
      </trkpt>
      <trkpt lat="43.68697" lon="5.86332">
        <ele>464</ele>
        <time>2015-10-31T08:20:42.299Z</time>
      </trkpt>
      <trkpt lat="43.68696" lon="5.86335">
        <ele>464</ele>
        <time>2015-10-31T08:20:43.304Z</time>
      </trkpt>
      <trkpt lat="43.68692" lon="5.86343">
        <ele>464</ele>
        <time>2015-10-31T08:20:46.533Z</time>
      </trkpt>
      <trkpt lat="43.68691" lon="5.86346">
        <ele>464</ele>
        <time>2015-10-31T08:20:47.280Z</time>
      </trkpt>
      <trkpt lat="43.68687" lon="5.86354">
        <ele>464</ele>
        <time>2015-10-31T08:20:50.352Z</time>
      </trkpt>
      <trkpt lat="43.68686" lon="5.86357">
        <ele>464</ele>
        <time>2015-10-31T08:20:51.277Z</time>
      </trkpt>
      <trkpt lat="43.68682" lon="5.86365">
        <ele>464</ele>
        <time>2015-10-31T08:20:54.299Z</time>
      </trkpt>
      <trkpt lat="43.68681" lon="5.86368">
        <ele>464</ele>
        <time>2015-10-31T08:20:55.276Z</time>
      </trkpt>
      <trkpt lat="43.68676" lon="5.86378">
        <ele>465</ele>
        <time>2015-10-31T08:20:59.328Z</time>
      </trkpt>
      <trkpt lat="43.68676" lon="5.8638">
        <ele>466</ele>
        <time>2015-10-31T08:21:00.273Z</time>
      </trkpt>
      <trkpt lat="43.68673" lon="5.86391">
        <ele>466</ele>
        <time>2015-10-31T08:21:05.310Z</time>
      </trkpt>
      <trkpt lat="43.68673" lon="5.86394">
        <ele>466</ele>
        <time>2015-10-31T08:21:06.276Z</time>
      </trkpt>
      <trkpt lat="43.68672" lon="5.86404">
        <ele>466</ele>
        <time>2015-10-31T08:21:10.311Z</time>
      </trkpt>
      <trkpt lat="43.68672" lon="5.86407">
        <ele>466</ele>
        <time>2015-10-31T08:21:11.276Z</time>
      </trkpt>
      <trkpt lat="43.6867" lon="5.86417">
        <ele>466</ele>
        <time>2015-10-31T08:21:15.329Z</time>
      </trkpt>
      <trkpt lat="43.68669" lon="5.86419">
        <ele>467</ele>
        <time>2015-10-31T08:21:16.277Z</time>
      </trkpt>
      <trkpt lat="43.68666" lon="5.86429">
        <ele>467</ele>
        <time>2015-10-31T08:21:20.301Z</time>
      </trkpt>
      <trkpt lat="43.68665" lon="5.86432">
        <ele>467</ele>
        <time>2015-10-31T08:21:21.278Z</time>
      </trkpt>
      <trkpt lat="43.68664" lon="5.86442">
        <ele>468</ele>
        <time>2015-10-31T08:21:25.295Z</time>
      </trkpt>
      <trkpt lat="43.68664" lon="5.86445">
        <ele>468</ele>
        <time>2015-10-31T08:21:26.274Z</time>
      </trkpt>
      <trkpt lat="43.68663" lon="5.86455">
        <ele>469</ele>
        <time>2015-10-31T08:21:30.297Z</time>
      </trkpt>
      <trkpt lat="43.68663" lon="5.86458">
        <ele>468</ele>
        <time>2015-10-31T08:21:31.299Z</time>
      </trkpt>
      <trkpt lat="43.68661" lon="5.86467">
        <ele>469</ele>
        <time>2015-10-31T08:21:35.294Z</time>
      </trkpt>
      <trkpt lat="43.6866" lon="5.86469">
        <ele>469</ele>
        <time>2015-10-31T08:21:36.275Z</time>
      </trkpt>
      <trkpt lat="43.68659" lon="5.86479">
        <ele>469</ele>
        <time>2015-10-31T08:21:40.295Z</time>
      </trkpt>
      <trkpt lat="43.6866" lon="5.86482">
        <ele>470</ele>
        <time>2015-10-31T08:21:41.275Z</time>
      </trkpt>
      <trkpt lat="43.68663" lon="5.86493">
        <ele>470</ele>
        <time>2015-10-31T08:21:45.295Z</time>
      </trkpt>
      <trkpt lat="43.68664" lon="5.86495">
        <ele>471</ele>
        <time>2015-10-31T08:21:46.275Z</time>
      </trkpt>
      <trkpt lat="43.68667" lon="5.86506">
        <ele>470</ele>
        <time>2015-10-31T08:21:50.296Z</time>
      </trkpt>
      <trkpt lat="43.68667" lon="5.86509">
        <ele>470</ele>
        <time>2015-10-31T08:21:51.275Z</time>
      </trkpt>
      <trkpt lat="43.68664" lon="5.8652">
        <ele>470</ele>
        <time>2015-10-31T08:21:55.294Z</time>
      </trkpt>
      <trkpt lat="43.68663" lon="5.86522">
        <ele>470</ele>
        <time>2015-10-31T08:21:56.282Z</time>
      </trkpt>
      <trkpt lat="43.6866" lon="5.86533">
        <ele>471</ele>
        <time>2015-10-31T08:22:00.305Z</time>
      </trkpt>
      <trkpt lat="43.68659" lon="5.86535">
        <ele>471</ele>
        <time>2015-10-31T08:22:01.275Z</time>
      </trkpt>
      <trkpt lat="43.68653" lon="5.86543">
        <ele>471</ele>
        <time>2015-10-31T08:22:05.305Z</time>
      </trkpt>
      <trkpt lat="43.68653" lon="5.86545">
        <ele>471</ele>
        <time>2015-10-31T08:22:06.274Z</time>
      </trkpt>
      <trkpt lat="43.68654" lon="5.86556">
        <ele>470</ele>
        <time>2015-10-31T08:22:10.326Z</time>
      </trkpt>
      <trkpt lat="43.68655" lon="5.86559">
        <ele>470</ele>
        <time>2015-10-31T08:22:11.266Z</time>
      </trkpt>
      <trkpt lat="43.68659" lon="5.86568">
        <ele>471</ele>
        <time>2015-10-31T08:22:15.302Z</time>
      </trkpt>
      <trkpt lat="43.6866" lon="5.86571">
        <ele>471</ele>
        <time>2015-10-31T08:22:16.289Z</time>
      </trkpt>
      <trkpt lat="43.68658" lon="5.86581">
        <ele>472</ele>
        <time>2015-10-31T08:22:20.327Z</time>
      </trkpt>
      <trkpt lat="43.68656" lon="5.86582">
        <ele>472</ele>
        <time>2015-10-31T08:22:21.276Z</time>
      </trkpt>
      <trkpt lat="43.68651" lon="5.8659">
        <ele>472</ele>
        <time>2015-10-31T08:22:25.299Z</time>
      </trkpt>
      <trkpt lat="43.6865" lon="5.86592">
        <ele>472</ele>
        <time>2015-10-31T08:22:26.277Z</time>
      </trkpt>
      <trkpt lat="43.68647" lon="5.86603">
        <ele>473</ele>
        <time>2015-10-31T08:22:31.328Z</time>
      </trkpt>
      <trkpt lat="43.68647" lon="5.86605">
        <ele>473</ele>
        <time>2015-10-31T08:22:32.275Z</time>
      </trkpt>
      <trkpt lat="43.68642" lon="5.86614">
        <ele>473</ele>
        <time>2015-10-31T08:22:37.290Z</time>
      </trkpt>
      <trkpt lat="43.68641" lon="5.86615">
        <ele>473</ele>
        <time>2015-10-31T08:22:38.276Z</time>
      </trkpt>
      <trkpt lat="43.68636" lon="5.86626">
        <ele>475</ele>
        <time>2015-10-31T08:22:43.294Z</time>
      </trkpt>
      <trkpt lat="43.68635" lon="5.86628">
        <ele>475</ele>
        <time>2015-10-31T08:22:44.275Z</time>
      </trkpt>
      <trkpt lat="43.68631" lon="5.86636">
        <ele>476</ele>
        <time>2015-10-31T08:22:48.295Z</time>
      </trkpt>
      <trkpt lat="43.6863" lon="5.86638">
        <ele>476</ele>
        <time>2015-10-31T08:22:49.275Z</time>
      </trkpt>
      <trkpt lat="43.68625" lon="5.86645">
        <ele>476</ele>
        <time>2015-10-31T08:22:53.320Z</time>
      </trkpt>
      <trkpt lat="43.68623" lon="5.86647">
        <ele>476</ele>
        <time>2015-10-31T08:22:54.274Z</time>
      </trkpt>
      <trkpt lat="43.6862" lon="5.86657">
        <ele>477</ele>
        <time>2015-10-31T08:22:59.294Z</time>
      </trkpt>
      <trkpt lat="43.68619" lon="5.8666">
        <ele>477</ele>
        <time>2015-10-31T08:23:00.275Z</time>
      </trkpt>
      <trkpt lat="43.68617" lon="5.8667">
        <ele>478</ele>
        <time>2015-10-31T08:23:04.293Z</time>
      </trkpt>
      <trkpt lat="43.68617" lon="5.86672">
        <ele>478</ele>
        <time>2015-10-31T08:23:05.274Z</time>
      </trkpt>
      <trkpt lat="43.68616" lon="5.86683">
        <ele>479</ele>
        <time>2015-10-31T08:23:09.318Z</time>
      </trkpt>
      <trkpt lat="43.68616" lon="5.86686">
        <ele>479</ele>
        <time>2015-10-31T08:23:10.275Z</time>
      </trkpt>
      <trkpt lat="43.68617" lon="5.86697">
        <ele>480</ele>
        <time>2015-10-31T08:23:14.301Z</time>
      </trkpt>
      <trkpt lat="43.68617" lon="5.867">
        <ele>480</ele>
        <time>2015-10-31T08:23:15.278Z</time>
      </trkpt>
      <trkpt lat="43.68617" lon="5.86711">
        <ele>480</ele>
        <time>2015-10-31T08:23:18.311Z</time>
      </trkpt>
      <trkpt lat="43.68616" lon="5.86716">
        <ele>479</ele>
        <time>2015-10-31T08:23:19.277Z</time>
      </trkpt>
      <trkpt lat="43.68615" lon="5.86727">
        <ele>478</ele>
        <time>2015-10-31T08:23:21.513Z</time>
      </trkpt>
      <trkpt lat="43.68614" lon="5.86733">
        <ele>478</ele>
        <time>2015-10-31T08:23:22.276Z</time>
      </trkpt>
      <trkpt lat="43.68613" lon="5.86744">
        <ele>478</ele>
        <time>2015-10-31T08:23:24.300Z</time>
      </trkpt>
      <trkpt lat="43.68614" lon="5.8675">
        <ele>478</ele>
        <time>2015-10-31T08:23:25.304Z</time>
      </trkpt>
      <trkpt lat="43.68615" lon="5.86762">
        <ele>478</ele>
        <time>2015-10-31T08:23:30.300Z</time>
      </trkpt>
      <trkpt lat="43.68614" lon="5.86764">
        <ele>478</ele>
        <time>2015-10-31T08:23:31.277Z</time>
      </trkpt>
      <trkpt lat="43.68609" lon="5.86773">
        <ele>478</ele>
        <time>2015-10-31T08:23:34.367Z</time>
      </trkpt>
      <trkpt lat="43.68607" lon="5.86775">
        <ele>478</ele>
        <time>2015-10-31T08:23:35.277Z</time>
      </trkpt>
      <trkpt lat="43.68603" lon="5.86784">
        <ele>478</ele>
        <time>2015-10-31T08:23:38.301Z</time>
      </trkpt>
      <trkpt lat="43.68603" lon="5.86786">
        <ele>479</ele>
        <time>2015-10-31T08:23:39.278Z</time>
      </trkpt>
      <trkpt lat="43.68602" lon="5.86799">
        <ele>481</ele>
        <time>2015-10-31T08:23:44.309Z</time>
      </trkpt>
      <trkpt lat="43.68602" lon="5.86801">
        <ele>482</ele>
        <time>2015-10-31T08:23:45.277Z</time>
      </trkpt>
      <trkpt lat="43.68602" lon="5.86811">
        <ele>484</ele>
        <time>2015-10-31T08:23:49.313Z</time>
      </trkpt>
      <trkpt lat="43.68602" lon="5.86814">
        <ele>484</ele>
        <time>2015-10-31T08:23:50.277Z</time>
      </trkpt>
      <trkpt lat="43.686" lon="5.86825">
        <ele>485</ele>
        <time>2015-10-31T08:23:55.300Z</time>
      </trkpt>
      <trkpt lat="43.68598" lon="5.86827">
        <ele>486</ele>
        <time>2015-10-31T08:23:56.277Z</time>
      </trkpt>
      <trkpt lat="43.68592" lon="5.86832">
        <ele>486</ele>
        <time>2015-10-31T08:24:00.299Z</time>
      </trkpt>
      <trkpt lat="43.68591" lon="5.86833">
        <ele>485</ele>
        <time>2015-10-31T08:24:01.277Z</time>
      </trkpt>
      <trkpt lat="43.68585" lon="5.86841">
        <ele>485</ele>
        <time>2015-10-31T08:24:05.300Z</time>
      </trkpt>
      <trkpt lat="43.68584" lon="5.86844">
        <ele>485</ele>
        <time>2015-10-31T08:24:06.276Z</time>
      </trkpt>
      <trkpt lat="43.68584" lon="5.86854">
        <ele>486</ele>
        <time>2015-10-31T08:24:10.300Z</time>
      </trkpt>
      <trkpt lat="43.68583" lon="5.86857">
        <ele>486</ele>
        <time>2015-10-31T08:24:11.506Z</time>
      </trkpt>
      <trkpt lat="43.68578" lon="5.86865">
        <ele>486</ele>
        <time>2015-10-31T08:24:15.337Z</time>
      </trkpt>
      <trkpt lat="43.68577" lon="5.86867">
        <ele>486</ele>
        <time>2015-10-31T08:24:16.287Z</time>
      </trkpt>
      <trkpt lat="43.68573" lon="5.86873">
        <ele>485</ele>
        <time>2015-10-31T08:24:18.301Z</time>
      </trkpt>
      <trkpt lat="43.6857" lon="5.86877">
        <ele>485</ele>
        <time>2015-10-31T08:24:19.305Z</time>
      </trkpt>
      <trkpt lat="43.68567" lon="5.86882">
        <ele>484</ele>
        <time>2015-10-31T08:24:20.300Z</time>
      </trkpt>
      <trkpt lat="43.68562" lon="5.86889">
        <ele>483</ele>
        <time>2015-10-31T08:24:21.288Z</time>
      </trkpt>
      <trkpt lat="43.6856" lon="5.86896">
        <ele>483</ele>
        <time>2015-10-31T08:24:22.299Z</time>
      </trkpt>
      <trkpt lat="43.68559" lon="5.86903">
        <ele>483</ele>
        <time>2015-10-31T08:24:23.277Z</time>
      </trkpt>
      <trkpt lat="43.68558" lon="5.86911">
        <ele>483</ele>
        <time>2015-10-31T08:24:24.338Z</time>
      </trkpt>
      <trkpt lat="43.68559" lon="5.86916">
        <ele>483</ele>
        <time>2015-10-31T08:24:25.266Z</time>
      </trkpt>
      <trkpt lat="43.68558" lon="5.86926">
        <ele>483</ele>
        <time>2015-10-31T08:24:27.300Z</time>
      </trkpt>
      <trkpt lat="43.68558" lon="5.86931">
        <ele>483</ele>
        <time>2015-10-31T08:24:28.276Z</time>
      </trkpt>
      <trkpt lat="43.68558" lon="5.86941">
        <ele>484</ele>
        <time>2015-10-31T08:24:30.311Z</time>
      </trkpt>
      <trkpt lat="43.68558" lon="5.86945">
        <ele>484</ele>
        <time>2015-10-31T08:24:31.277Z</time>
      </trkpt>
      <trkpt lat="43.68557" lon="5.86955">
        <ele>484</ele>
        <time>2015-10-31T08:24:34.299Z</time>
      </trkpt>
      <trkpt lat="43.68557" lon="5.86957">
        <ele>484</ele>
        <time>2015-10-31T08:24:35.304Z</time>
      </trkpt>
      <trkpt lat="43.68559" lon="5.86969">
        <ele>485</ele>
        <time>2015-10-31T08:24:40.301Z</time>
      </trkpt>
      <trkpt lat="43.68559" lon="5.86972">
        <ele>485</ele>
        <time>2015-10-31T08:24:41.277Z</time>
      </trkpt>
      <trkpt lat="43.68558" lon="5.86982">
        <ele>485</ele>
        <time>2015-10-31T08:24:45.300Z</time>
      </trkpt>
      <trkpt lat="43.68558" lon="5.86985">
        <ele>485</ele>
        <time>2015-10-31T08:24:46.277Z</time>
      </trkpt>
      <trkpt lat="43.68558" lon="5.86996">
        <ele>487</ele>
        <time>2015-10-31T08:24:50.300Z</time>
      </trkpt>
      <trkpt lat="43.68558" lon="5.86999">
        <ele>487</ele>
        <time>2015-10-31T08:24:51.270Z</time>
      </trkpt>
      <trkpt lat="43.68555" lon="5.8701">
        <ele>487</ele>
        <time>2015-10-31T08:24:54.298Z</time>
      </trkpt>
      <trkpt lat="43.68555" lon="5.87014">
        <ele>487</ele>
        <time>2015-10-31T08:24:55.275Z</time>
      </trkpt>
      <trkpt lat="43.68556" lon="5.87024">
        <ele>487</ele>
        <time>2015-10-31T08:24:58.300Z</time>
      </trkpt>
      <trkpt lat="43.68556" lon="5.87027">
        <ele>487</ele>
        <time>2015-10-31T08:24:59.278Z</time>
      </trkpt>
      <trkpt lat="43.68557" lon="5.87039">
        <ele>488</ele>
        <time>2015-10-31T08:25:03.299Z</time>
      </trkpt>
      <trkpt lat="43.68557" lon="5.87042">
        <ele>488</ele>
        <time>2015-10-31T08:25:04.276Z</time>
      </trkpt>
      <trkpt lat="43.68554" lon="5.87053">
        <ele>488</ele>
        <time>2015-10-31T08:25:08.300Z</time>
      </trkpt>
      <trkpt lat="43.68554" lon="5.87056">
        <ele>489</ele>
        <time>2015-10-31T08:25:09.282Z</time>
      </trkpt>
      <trkpt lat="43.68552" lon="5.87067">
        <ele>489</ele>
        <time>2015-10-31T08:25:14.299Z</time>
      </trkpt>
      <trkpt lat="43.68551" lon="5.8707">
        <ele>489</ele>
        <time>2015-10-31T08:25:15.277Z</time>
      </trkpt>
      <trkpt lat="43.68546" lon="5.87078">
        <ele>489</ele>
        <time>2015-10-31T08:25:19.310Z</time>
      </trkpt>
      <trkpt lat="43.68546" lon="5.8708">
        <ele>489</ele>
        <time>2015-10-31T08:25:20.277Z</time>
      </trkpt>
      <trkpt lat="43.6854" lon="5.87088">
        <ele>490</ele>
        <time>2015-10-31T08:25:24.305Z</time>
      </trkpt>
      <trkpt lat="43.68538" lon="5.87088">
        <ele>490</ele>
        <time>2015-10-31T08:25:25.278Z</time>
      </trkpt>
      <trkpt lat="43.68531" lon="5.87094">
        <ele>490</ele>
        <time>2015-10-31T08:25:30.311Z</time>
      </trkpt>
      <trkpt lat="43.68531" lon="5.87098">
        <ele>490</ele>
        <time>2015-10-31T08:25:31.276Z</time>
      </trkpt>
      <trkpt lat="43.68532" lon="5.87107">
        <ele>490</ele>
        <time>2015-10-31T08:25:33.300Z</time>
      </trkpt>
      <trkpt lat="43.68532" lon="5.87112">
        <ele>491</ele>
        <time>2015-10-31T08:25:34.306Z</time>
      </trkpt>
      <trkpt lat="43.68531" lon="5.87121">
        <ele>491</ele>
        <time>2015-10-31T08:25:36.299Z</time>
      </trkpt>
      <trkpt lat="43.68529" lon="5.87124">
        <ele>491</ele>
        <time>2015-10-31T08:25:37.270Z</time>
      </trkpt>
      <trkpt lat="43.68524" lon="5.87132">
        <ele>491</ele>
        <time>2015-10-31T08:25:40.311Z</time>
      </trkpt>
      <trkpt lat="43.68522" lon="5.87134">
        <ele>491</ele>
        <time>2015-10-31T08:25:41.277Z</time>
      </trkpt>
      <trkpt lat="43.68516" lon="5.87142">
        <ele>492</ele>
        <time>2015-10-31T08:25:45.338Z</time>
      </trkpt>
      <trkpt lat="43.68514" lon="5.87143">
        <ele>492</ele>
        <time>2015-10-31T08:25:46.278Z</time>
      </trkpt>
      <trkpt lat="43.68508" lon="5.87152">
        <ele>493</ele>
        <time>2015-10-31T08:25:50.300Z</time>
      </trkpt>
      <trkpt lat="43.68507" lon="5.87155">
        <ele>493</ele>
        <time>2015-10-31T08:25:51.276Z</time>
      </trkpt>
      <trkpt lat="43.68502" lon="5.87163">
        <ele>493</ele>
        <time>2015-10-31T08:25:54.300Z</time>
      </trkpt>
      <trkpt lat="43.685" lon="5.87166">
        <ele>493</ele>
        <time>2015-10-31T08:25:55.276Z</time>
      </trkpt>
      <trkpt lat="43.68494" lon="5.87174">
        <ele>494</ele>
        <time>2015-10-31T08:25:58.299Z</time>
      </trkpt>
      <trkpt lat="43.68493" lon="5.87176">
        <ele>494</ele>
        <time>2015-10-31T08:25:59.277Z</time>
      </trkpt>
      <trkpt lat="43.68489" lon="5.87184">
        <ele>494</ele>
        <time>2015-10-31T08:26:02.300Z</time>
      </trkpt>
      <trkpt lat="43.68487" lon="5.87186">
        <ele>494</ele>
        <time>2015-10-31T08:26:03.278Z</time>
      </trkpt>
      <trkpt lat="43.68481" lon="5.87195">
        <ele>495</ele>
        <time>2015-10-31T08:26:07.312Z</time>
      </trkpt>
      <trkpt lat="43.6848" lon="5.87198">
        <ele>495</ele>
        <time>2015-10-31T08:26:08.282Z</time>
      </trkpt>
      <trkpt lat="43.68474" lon="5.87207">
        <ele>495</ele>
        <time>2015-10-31T08:26:12.339Z</time>
      </trkpt>
      <trkpt lat="43.68473" lon="5.8721">
        <ele>495</ele>
        <time>2015-10-31T08:26:13.277Z</time>
      </trkpt>
      <trkpt lat="43.68467" lon="5.87219">
        <ele>496</ele>
        <time>2015-10-31T08:26:17.301Z</time>
      </trkpt>
      <trkpt lat="43.68466" lon="5.87222">
        <ele>496</ele>
        <time>2015-10-31T08:26:18.278Z</time>
      </trkpt>
      <trkpt lat="43.68461" lon="5.87231">
        <ele>497</ele>
        <time>2015-10-31T08:26:22.306Z</time>
      </trkpt>
      <trkpt lat="43.6846" lon="5.87233">
        <ele>497</ele>
        <time>2015-10-31T08:26:23.302Z</time>
      </trkpt>
      <trkpt lat="43.68455" lon="5.87242">
        <ele>498</ele>
        <time>2015-10-31T08:26:27.305Z</time>
      </trkpt>
      <trkpt lat="43.68454" lon="5.87244">
        <ele>498</ele>
        <time>2015-10-31T08:26:28.277Z</time>
      </trkpt>
      <trkpt lat="43.6845" lon="5.87254">
        <ele>499</ele>
        <time>2015-10-31T08:26:32.299Z</time>
      </trkpt>
      <trkpt lat="43.68449" lon="5.87256">
        <ele>499</ele>
        <time>2015-10-31T08:26:33.277Z</time>
      </trkpt>
      <trkpt lat="43.68444" lon="5.87266">
        <ele>499</ele>
        <time>2015-10-31T08:26:37.295Z</time>
      </trkpt>
      <trkpt lat="43.68444" lon="5.87269">
        <ele>499</ele>
        <time>2015-10-31T08:26:38.277Z</time>
      </trkpt>
      <trkpt lat="43.6844" lon="5.8728">
        <ele>499</ele>
        <time>2015-10-31T08:26:42.300Z</time>
      </trkpt>
      <trkpt lat="43.68439" lon="5.87282">
        <ele>500</ele>
        <time>2015-10-31T08:26:43.278Z</time>
      </trkpt>
      <trkpt lat="43.68435" lon="5.87292">
        <ele>500</ele>
        <time>2015-10-31T08:26:47.300Z</time>
      </trkpt>
      <trkpt lat="43.68434" lon="5.87294">
        <ele>500</ele>
        <time>2015-10-31T08:26:48.278Z</time>
      </trkpt>
      <trkpt lat="43.68431" lon="5.87304">
        <ele>501</ele>
        <time>2015-10-31T08:26:52.300Z</time>
      </trkpt>
      <trkpt lat="43.6843" lon="5.87306">
        <ele>501</ele>
        <time>2015-10-31T08:26:53.278Z</time>
      </trkpt>
      <trkpt lat="43.68425" lon="5.87315">
        <ele>501</ele>
        <time>2015-10-31T08:26:57.300Z</time>
      </trkpt>
      <trkpt lat="43.68424" lon="5.87316">
        <ele>501</ele>
        <time>2015-10-31T08:26:58.277Z</time>
      </trkpt>
      <trkpt lat="43.68419" lon="5.87325">
        <ele>501</ele>
        <time>2015-10-31T08:27:02.311Z</time>
      </trkpt>
      <trkpt lat="43.68418" lon="5.87327">
        <ele>502</ele>
        <time>2015-10-31T08:27:03.277Z</time>
      </trkpt>
      <trkpt lat="43.68415" lon="5.87337">
        <ele>502</ele>
        <time>2015-10-31T08:27:07.311Z</time>
      </trkpt>
      <trkpt lat="43.68414" lon="5.8734">
        <ele>502</ele>
        <time>2015-10-31T08:27:08.277Z</time>
      </trkpt>
      <trkpt lat="43.68409" lon="5.87349">
        <ele>501</ele>
        <time>2015-10-31T08:27:12.299Z</time>
      </trkpt>
      <trkpt lat="43.68408" lon="5.87351">
        <ele>501</ele>
        <time>2015-10-31T08:27:13.278Z</time>
      </trkpt>
      <trkpt lat="43.684" lon="5.87356">
        <ele>501</ele>
        <time>2015-10-31T08:27:17.302Z</time>
      </trkpt>
      <trkpt lat="43.68399" lon="5.87358">
        <ele>501</ele>
        <time>2015-10-31T08:27:18.275Z</time>
      </trkpt>
      <trkpt lat="43.68391" lon="5.87364">
        <ele>501</ele>
        <time>2015-10-31T08:27:22.330Z</time>
      </trkpt>
      <trkpt lat="43.68389" lon="5.87366">
        <ele>501</ele>
        <time>2015-10-31T08:27:23.278Z</time>
      </trkpt>
      <trkpt lat="43.68384" lon="5.87371">
        <ele>500</ele>
        <time>2015-10-31T08:27:26.300Z</time>
      </trkpt>
      <trkpt lat="43.68382" lon="5.87373">
        <ele>501</ele>
        <time>2015-10-31T08:27:27.277Z</time>
      </trkpt>
      <trkpt lat="43.68375" lon="5.87379">
        <ele>500</ele>
        <time>2015-10-31T08:27:30.359Z</time>
      </trkpt>
      <trkpt lat="43.68373" lon="5.8738">
        <ele>500</ele>
        <time>2015-10-31T08:27:31.379Z</time>
      </trkpt>
      <trkpt lat="43.68367" lon="5.87384">
        <ele>501</ele>
        <time>2015-10-31T08:27:34.302Z</time>
      </trkpt>
      <trkpt lat="43.68365" lon="5.87385">
        <ele>502</ele>
        <time>2015-10-31T08:27:35.276Z</time>
      </trkpt>
      <trkpt lat="43.68357" lon="5.87382">
        <ele>503</ele>
        <time>2015-10-31T08:27:40.301Z</time>
      </trkpt>
      <trkpt lat="43.68356" lon="5.8738">
        <ele>503</ele>
        <time>2015-10-31T08:27:41.279Z</time>
      </trkpt>
      <trkpt lat="43.68349" lon="5.87372">
        <ele>505</ele>
        <time>2015-10-31T08:27:46.301Z</time>
      </trkpt>
      <trkpt lat="43.68348" lon="5.87372">
        <ele>504</ele>
        <time>2015-10-31T08:27:47.277Z</time>
      </trkpt>
      <trkpt lat="43.6834" lon="5.87373">
        <ele>505</ele>
        <time>2015-10-31T08:27:51.299Z</time>
      </trkpt>
      <trkpt lat="43.68339" lon="5.87375">
        <ele>505</ele>
        <time>2015-10-31T08:27:52.278Z</time>
      </trkpt>
      <trkpt lat="43.68333" lon="5.87383">
        <ele>505</ele>
        <time>2015-10-31T08:27:56.300Z</time>
      </trkpt>
      <trkpt lat="43.68331" lon="5.87385">
        <ele>505</ele>
        <time>2015-10-31T08:27:57.277Z</time>
      </trkpt>
      <trkpt lat="43.68324" lon="5.87387">
        <ele>505</ele>
        <time>2015-10-31T08:28:00.328Z</time>
      </trkpt>
      <trkpt lat="43.68322" lon="5.87388">
        <ele>505</ele>
        <time>2015-10-31T08:28:01.276Z</time>
      </trkpt>
      <trkpt lat="43.68317" lon="5.87398">
        <ele>505</ele>
        <time>2015-10-31T08:28:05.300Z</time>
      </trkpt>
      <trkpt lat="43.68315" lon="5.874">
        <ele>506</ele>
        <time>2015-10-31T08:28:06.277Z</time>
      </trkpt>
      <trkpt lat="43.68308" lon="5.87407">
        <ele>506</ele>
        <time>2015-10-31T08:28:10.299Z</time>
      </trkpt>
      <trkpt lat="43.68307" lon="5.8741">
        <ele>506</ele>
        <time>2015-10-31T08:28:11.307Z</time>
      </trkpt>
      <trkpt lat="43.68304" lon="5.87418">
        <ele>506</ele>
        <time>2015-10-31T08:28:14.327Z</time>
      </trkpt>
      <trkpt lat="43.68302" lon="5.87421">
        <ele>506</ele>
        <time>2015-10-31T08:28:15.276Z</time>
      </trkpt>
      <trkpt lat="43.68296" lon="5.87426">
        <ele>506</ele>
        <time>2015-10-31T08:28:18.300Z</time>
      </trkpt>
      <trkpt lat="43.68294" lon="5.87428">
        <ele>506</ele>
        <time>2015-10-31T08:28:19.298Z</time>
      </trkpt>
      <trkpt lat="43.68291" lon="5.87436">
        <ele>506</ele>
        <time>2015-10-31T08:28:22.301Z</time>
      </trkpt>
      <trkpt lat="43.6829" lon="5.87439">
        <ele>505</ele>
        <time>2015-10-31T08:28:23.278Z</time>
      </trkpt>
      <trkpt lat="43.68285" lon="5.87448">
        <ele>504</ele>
        <time>2015-10-31T08:34:49.299Z</time>
      </trkpt>
      <trkpt lat="43.68285" lon="5.8745">
        <ele>504</ele>
        <time>2015-10-31T08:34:50.278Z</time>
      </trkpt>
      <trkpt lat="43.68286" lon="5.8746">
        <ele>503</ele>
        <time>2015-10-31T08:34:58.314Z</time>
      </trkpt>
      <trkpt lat="43.68287" lon="5.87462">
        <ele>503</ele>
        <time>2015-10-31T08:34:59.278Z</time>
      </trkpt>
      <trkpt lat="43.68283" lon="5.87473">
        <ele>504</ele>
        <time>2015-10-31T08:35:48.314Z</time>
      </trkpt>
      <trkpt lat="43.68282" lon="5.87473">
        <ele>504</ele>
        <time>2015-10-31T08:35:49.502Z</time>
      </trkpt>
      <trkpt lat="43.68276" lon="5.8748">
        <ele>503</ele>
        <time>2015-10-31T08:35:53.313Z</time>
      </trkpt>
      <trkpt lat="43.68275" lon="5.87483">
        <ele>503</ele>
        <time>2015-10-31T08:35:54.278Z</time>
      </trkpt>
      <trkpt lat="43.68269" lon="5.8749">
        <ele>503</ele>
        <time>2015-10-31T08:35:58.302Z</time>
      </trkpt>
      <trkpt lat="43.68267" lon="5.8749">
        <ele>503</ele>
        <time>2015-10-31T08:35:59.278Z</time>
      </trkpt>
      <trkpt lat="43.68261" lon="5.87498">
        <ele>503</ele>
        <time>2015-10-31T08:36:04.301Z</time>
      </trkpt>
      <trkpt lat="43.68261" lon="5.87501">
        <ele>504</ele>
        <time>2015-10-31T08:36:05.280Z</time>
      </trkpt>
      <trkpt lat="43.68263" lon="5.87512">
        <ele>504</ele>
        <time>2015-10-31T08:36:10.348Z</time>
      </trkpt>
      <trkpt lat="43.68264" lon="5.87514">
        <ele>504</ele>
        <time>2015-10-31T08:36:11.276Z</time>
      </trkpt>
      <trkpt lat="43.68265" lon="5.87525">
        <ele>504</ele>
        <time>2015-10-31T08:36:14.310Z</time>
      </trkpt>
      <trkpt lat="43.68265" lon="5.87529">
        <ele>504</ele>
        <time>2015-10-31T08:36:15.279Z</time>
      </trkpt>
      <trkpt lat="43.68261" lon="5.87538">
        <ele>503</ele>
        <time>2015-10-31T08:36:18.301Z</time>
      </trkpt>
      <trkpt lat="43.68259" lon="5.87541">
        <ele>503</ele>
        <time>2015-10-31T08:36:19.279Z</time>
      </trkpt>
      <trkpt lat="43.68255" lon="5.8755">
        <ele>502</ele>
        <time>2015-10-31T08:36:22.304Z</time>
      </trkpt>
      <trkpt lat="43.68253" lon="5.87553">
        <ele>502</ele>
        <time>2015-10-31T08:36:23.528Z</time>
      </trkpt>
      <trkpt lat="43.6825" lon="5.87564">
        <ele>501</ele>
        <time>2015-10-31T08:36:27.307Z</time>
      </trkpt>
      <trkpt lat="43.68249" lon="5.87567">
        <ele>501</ele>
        <time>2015-10-31T08:36:28.292Z</time>
      </trkpt>
      <trkpt lat="43.68248" lon="5.87578">
        <ele>501</ele>
        <time>2015-10-31T08:36:31.316Z</time>
      </trkpt>
      <trkpt lat="43.68249" lon="5.87582">
        <ele>500</ele>
        <time>2015-10-31T08:36:32.278Z</time>
      </trkpt>
      <trkpt lat="43.68252" lon="5.87592">
        <ele>502</ele>
        <time>2015-10-31T08:36:35.303Z</time>
      </trkpt>
      <trkpt lat="43.68254" lon="5.87595">
        <ele>503</ele>
        <time>2015-10-31T08:36:36.290Z</time>
      </trkpt>
      <trkpt lat="43.68261" lon="5.876">
        <ele>505</ele>
        <time>2015-10-31T08:36:39.302Z</time>
      </trkpt>
      <trkpt lat="43.68264" lon="5.87602">
        <ele>505</ele>
        <time>2015-10-31T08:36:40.278Z</time>
      </trkpt>
      <trkpt lat="43.68272" lon="5.87602">
        <ele>506</ele>
        <time>2015-10-31T08:36:44.302Z</time>
      </trkpt>
      <trkpt lat="43.68274" lon="5.87603">
        <ele>506</ele>
        <time>2015-10-31T08:36:45.307Z</time>
      </trkpt>
      <trkpt lat="43.68282" lon="5.87606">
        <ele>509</ele>
        <time>2015-10-31T08:37:19.303Z</time>
      </trkpt>
      <trkpt lat="43.68285" lon="5.87608">
        <ele>509</ele>
        <time>2015-10-31T08:37:20.279Z</time>
      </trkpt>
      <trkpt lat="43.68292" lon="5.87612">
        <ele>510</ele>
        <time>2015-10-31T08:37:23.303Z</time>
      </trkpt>
      <trkpt lat="43.68295" lon="5.87614">
        <ele>509</ele>
        <time>2015-10-31T08:37:24.280Z</time>
      </trkpt>
      <trkpt lat="43.683" lon="5.87624">
        <ele>509</ele>
        <time>2015-10-31T08:37:27.313Z</time>
      </trkpt>
      <trkpt lat="43.68302" lon="5.87627">
        <ele>509</ele>
        <time>2015-10-31T08:37:28.304Z</time>
      </trkpt>
      <trkpt lat="43.68308" lon="5.87629">
        <ele>510</ele>
        <time>2015-10-31T08:37:30.312Z</time>
      </trkpt>
      <trkpt lat="43.68312" lon="5.8763">
        <ele>509</ele>
        <time>2015-10-31T08:37:31.279Z</time>
      </trkpt>
      <trkpt lat="43.68317" lon="5.87636">
        <ele>508</ele>
        <time>2015-10-31T08:37:33.302Z</time>
      </trkpt>
      <trkpt lat="43.68319" lon="5.87638">
        <ele>508</ele>
        <time>2015-10-31T08:37:34.278Z</time>
      </trkpt>
      <trkpt lat="43.68326" lon="5.87642">
        <ele>507</ele>
        <time>2015-10-31T08:37:37.301Z</time>
      </trkpt>
      <trkpt lat="43.68328" lon="5.87646">
        <ele>506</ele>
        <time>2015-10-31T08:37:38.278Z</time>
      </trkpt>
      <trkpt lat="43.68328" lon="5.87655">
        <ele>506</ele>
        <time>2015-10-31T08:37:39.302Z</time>
      </trkpt>
      <trkpt lat="43.68331" lon="5.87661">
        <ele>505</ele>
        <time>2015-10-31T08:37:40.290Z</time>
      </trkpt>
      <trkpt lat="43.68335" lon="5.87665">
        <ele>505</ele>
        <time>2015-10-31T08:37:41.303Z</time>
      </trkpt>
      <trkpt lat="43.6834" lon="5.87666">
        <ele>504</ele>
        <time>2015-10-31T08:37:42.279Z</time>
      </trkpt>
      <trkpt lat="43.68347" lon="5.87664">
        <ele>500</ele>
        <time>2015-10-31T08:38:58.303Z</time>
      </trkpt>
      <trkpt lat="43.68349" lon="5.87661">
        <ele>500</ele>
        <time>2015-10-31T08:38:59.280Z</time>
      </trkpt>
      <trkpt lat="43.68352" lon="5.8765">
        <ele>501</ele>
        <time>2015-10-31T08:39:02.300Z</time>
      </trkpt>
      <trkpt lat="43.68352" lon="5.87647">
        <ele>501</ele>
        <time>2015-10-31T08:39:03.279Z</time>
      </trkpt>
      <trkpt lat="43.68356" lon="5.87638">
        <ele>502</ele>
        <time>2015-10-31T08:39:06.316Z</time>
      </trkpt>
      <trkpt lat="43.68357" lon="5.87635">
        <ele>503</ele>
        <time>2015-10-31T08:39:07.274Z</time>
      </trkpt>
      <trkpt lat="43.68361" lon="5.87625">
        <ele>504</ele>
        <time>2015-10-31T08:39:11.307Z</time>
      </trkpt>
      <trkpt lat="43.68363" lon="5.87622">
        <ele>504</ele>
        <time>2015-10-31T08:39:12.276Z</time>
      </trkpt>
      <trkpt lat="43.68368" lon="5.87613">
        <ele>504</ele>
        <time>2015-10-31T08:39:15.301Z</time>
      </trkpt>
      <trkpt lat="43.68369" lon="5.8761">
        <ele>505</ele>
        <time>2015-10-31T08:39:16.280Z</time>
      </trkpt>
      <trkpt lat="43.68374" lon="5.87602">
        <ele>505</ele>
        <time>2015-10-31T08:39:19.358Z</time>
      </trkpt>
      <trkpt lat="43.68376" lon="5.87599">
        <ele>504</ele>
        <time>2015-10-31T08:39:20.310Z</time>
      </trkpt>
      <trkpt lat="43.6838" lon="5.8759">
        <ele>506</ele>
        <time>2015-10-31T08:39:24.302Z</time>
      </trkpt>
      <trkpt lat="43.68382" lon="5.87588">
        <ele>506</ele>
        <time>2015-10-31T08:39:25.293Z</time>
      </trkpt>
      <trkpt lat="43.68386" lon="5.8758">
        <ele>506</ele>
        <time>2015-10-31T08:39:28.303Z</time>
      </trkpt>
      <trkpt lat="43.68387" lon="5.87576">
        <ele>506</ele>
        <time>2015-10-31T08:39:29.280Z</time>
      </trkpt>
      <trkpt lat="43.6839" lon="5.87567">
        <ele>506</ele>
        <time>2015-10-31T08:39:32.304Z</time>
      </trkpt>
      <trkpt lat="43.68392" lon="5.87564">
        <ele>506</ele>
        <time>2015-10-31T08:39:33.280Z</time>
      </trkpt>
      <trkpt lat="43.68396" lon="5.87556">
        <ele>506</ele>
        <time>2015-10-31T08:39:36.302Z</time>
      </trkpt>
      <trkpt lat="43.68397" lon="5.87553">
        <ele>507</ele>
        <time>2015-10-31T08:39:37.328Z</time>
      </trkpt>
      <trkpt lat="43.68398" lon="5.87541">
        <ele>508</ele>
        <time>2015-10-31T08:39:41.303Z</time>
      </trkpt>
      <trkpt lat="43.68398" lon="5.8754">
        <ele>508</ele>
        <time>2015-10-31T08:39:42.280Z</time>
      </trkpt>
      <trkpt lat="43.68406" lon="5.8754">
        <ele>506</ele>
        <time>2015-10-31T08:40:03.344Z</time>
      </trkpt>
      <trkpt lat="43.68408" lon="5.87541">
        <ele>507</ele>
        <time>2015-10-31T08:40:04.281Z</time>
      </trkpt>
      <trkpt lat="43.68415" lon="5.87544">
        <ele>507</ele>
        <time>2015-10-31T08:40:07.303Z</time>
      </trkpt>
      <trkpt lat="43.68417" lon="5.87545">
        <ele>508</ele>
        <time>2015-10-31T08:40:08.291Z</time>
      </trkpt>
      <trkpt lat="43.68425" lon="5.87548">
        <ele>508</ele>
        <time>2015-10-31T08:40:11.302Z</time>
      </trkpt>
      <trkpt lat="43.68427" lon="5.87548">
        <ele>508</ele>
        <time>2015-10-31T08:40:12.278Z</time>
      </trkpt>
      <trkpt lat="43.68433" lon="5.87548">
        <ele>508</ele>
        <time>2015-10-31T08:40:14.318Z</time>
      </trkpt>
      <trkpt lat="43.68436" lon="5.87547">
        <ele>508</ele>
        <time>2015-10-31T08:40:15.280Z</time>
      </trkpt>
      <trkpt lat="43.68442" lon="5.87545">
        <ele>508</ele>
        <time>2015-10-31T08:40:17.314Z</time>
      </trkpt>
      <trkpt lat="43.68445" lon="5.87543">
        <ele>508</ele>
        <time>2015-10-31T08:40:18.280Z</time>
      </trkpt>
      <trkpt lat="43.68451" lon="5.87539">
        <ele>508</ele>
        <time>2015-10-31T08:40:20.301Z</time>
      </trkpt>
      <trkpt lat="43.68453" lon="5.87536">
        <ele>508</ele>
        <time>2015-10-31T08:40:21.270Z</time>
      </trkpt>
      <trkpt lat="43.68459" lon="5.87528">
        <ele>508</ele>
        <time>2015-10-31T08:40:24.348Z</time>
      </trkpt>
      <trkpt lat="43.6846" lon="5.87526">
        <ele>508</ele>
        <time>2015-10-31T08:40:26.095Z</time>
      </trkpt>
      <trkpt lat="43.68465" lon="5.87516">
        <ele>507</ele>
        <time>2015-10-31T08:40:32.315Z</time>
      </trkpt>
      <trkpt lat="43.68466" lon="5.87515">
        <ele>507</ele>
        <time>2015-10-31T08:40:33.278Z</time>
      </trkpt>
      <trkpt lat="43.68468" lon="5.87504">
        <ele>507</ele>
        <time>2015-10-31T08:40:38.305Z</time>
      </trkpt>
      <trkpt lat="43.68468" lon="5.87501">
        <ele>507</ele>
        <time>2015-10-31T08:40:39.279Z</time>
      </trkpt>
      <trkpt lat="43.6847" lon="5.87493">
        <ele>507</ele>
        <time>2015-10-31T08:40:41.302Z</time>
      </trkpt>
      <trkpt lat="43.6847" lon="5.87488">
        <ele>508</ele>
        <time>2015-10-31T08:40:42.289Z</time>
      </trkpt>
      <trkpt lat="43.68471" lon="5.87478">
        <ele>508</ele>
        <time>2015-10-31T08:40:44.302Z</time>
      </trkpt>
      <trkpt lat="43.68472" lon="5.87473">
        <ele>509</ele>
        <time>2015-10-31T08:40:45.291Z</time>
      </trkpt>
      <trkpt lat="43.68473" lon="5.87463">
        <ele>509</ele>
        <time>2015-10-31T08:40:47.301Z</time>
      </trkpt>
      <trkpt lat="43.68474" lon="5.87458">
        <ele>509</ele>
        <time>2015-10-31T08:40:48.279Z</time>
      </trkpt>
      <trkpt lat="43.68478" lon="5.8745">
        <ele>509</ele>
        <time>2015-10-31T08:40:50.302Z</time>
      </trkpt>
      <trkpt lat="43.68481" lon="5.87446">
        <ele>509</ele>
        <time>2015-10-31T08:40:51.279Z</time>
      </trkpt>
      <trkpt lat="43.68487" lon="5.8744">
        <ele>508</ele>
        <time>2015-10-31T08:40:53.304Z</time>
      </trkpt>
      <trkpt lat="43.6849" lon="5.87437">
        <ele>507</ele>
        <time>2015-10-31T08:40:54.280Z</time>
      </trkpt>
      <trkpt lat="43.68495" lon="5.87431">
        <ele>507</ele>
        <time>2015-10-31T08:40:56.301Z</time>
      </trkpt>
      <trkpt lat="43.68498" lon="5.87429">
        <ele>506</ele>
        <time>2015-10-31T08:40:57.290Z</time>
      </trkpt>
      <trkpt lat="43.68504" lon="5.87423">
        <ele>506</ele>
        <time>2015-10-31T08:40:59.348Z</time>
      </trkpt>
      <trkpt lat="43.68506" lon="5.87419">
        <ele>505</ele>
        <time>2015-10-31T08:41:00.279Z</time>
      </trkpt>
      <trkpt lat="43.68509" lon="5.87411">
        <ele>503</ele>
        <time>2015-10-31T08:41:02.303Z</time>
      </trkpt>
      <trkpt lat="43.6851" lon="5.87406">
        <ele>503</ele>
        <time>2015-10-31T08:41:03.292Z</time>
      </trkpt>
      <trkpt lat="43.68512" lon="5.87397">
        <ele>502</ele>
        <time>2015-10-31T08:41:05.301Z</time>
      </trkpt>
      <trkpt lat="43.68513" lon="5.87393">
        <ele>501</ele>
        <time>2015-10-31T08:41:06.280Z</time>
      </trkpt>
      <trkpt lat="43.68517" lon="5.87385">
        <ele>501</ele>
        <time>2015-10-31T08:41:08.327Z</time>
      </trkpt>
      <trkpt lat="43.68519" lon="5.87382">
        <ele>501</ele>
        <time>2015-10-31T08:41:09.496Z</time>
      </trkpt>
      <trkpt lat="43.68525" lon="5.87377">
        <ele>501</ele>
        <time>2015-10-31T08:41:11.303Z</time>
      </trkpt>
      <trkpt lat="43.68528" lon="5.87374">
        <ele>501</ele>
        <time>2015-10-31T08:41:12.279Z</time>
      </trkpt>
      <trkpt lat="43.68534" lon="5.8737">
        <ele>501</ele>
        <time>2015-10-31T08:41:15.301Z</time>
      </trkpt>
      <trkpt lat="43.68536" lon="5.87369">
        <ele>501</ele>
        <time>2015-10-31T08:41:16.279Z</time>
      </trkpt>
      <trkpt lat="43.68542" lon="5.87365">
        <ele>501</ele>
        <time>2015-10-31T08:41:19.301Z</time>
      </trkpt>
      <trkpt lat="43.68544" lon="5.87364">
        <ele>501</ele>
        <time>2015-10-31T08:41:20.278Z</time>
      </trkpt>
      <trkpt lat="43.6855" lon="5.87358">
        <ele>501</ele>
        <time>2015-10-31T08:41:23.302Z</time>
      </trkpt>
      <trkpt lat="43.68552" lon="5.87355">
        <ele>502</ele>
        <time>2015-10-31T08:41:24.279Z</time>
      </trkpt>
      <trkpt lat="43.68556" lon="5.87347">
        <ele>502</ele>
        <time>2015-10-31T08:41:27.319Z</time>
      </trkpt>
      <trkpt lat="43.68558" lon="5.87344">
        <ele>502</ele>
        <time>2015-10-31T08:41:28.280Z</time>
      </trkpt>
      <trkpt lat="43.68563" lon="5.87336">
        <ele>503</ele>
        <time>2015-10-31T08:41:31.521Z</time>
      </trkpt>
      <trkpt lat="43.68565" lon="5.87334">
        <ele>502</ele>
        <time>2015-10-31T08:41:32.280Z</time>
      </trkpt>
      <trkpt lat="43.6857" lon="5.87326">
        <ele>502</ele>
        <time>2015-10-31T08:41:35.313Z</time>
      </trkpt>
      <trkpt lat="43.68572" lon="5.87323">
        <ele>502</ele>
        <time>2015-10-31T08:41:36.279Z</time>
      </trkpt>
      <trkpt lat="43.68577" lon="5.87316">
        <ele>501</ele>
        <time>2015-10-31T08:41:39.327Z</time>
      </trkpt>
      <trkpt lat="43.68579" lon="5.87314">
        <ele>501</ele>
        <time>2015-10-31T08:41:40.290Z</time>
      </trkpt>
      <trkpt lat="43.68587" lon="5.87308">
        <ele>502</ele>
        <time>2015-10-31T08:41:43.524Z</time>
      </trkpt>
      <trkpt lat="43.68589" lon="5.87306">
        <ele>502</ele>
        <time>2015-10-31T08:41:44.279Z</time>
      </trkpt>
      <trkpt lat="43.68596" lon="5.87298">
        <ele>502</ele>
        <time>2015-10-31T08:41:47.314Z</time>
      </trkpt>
      <trkpt lat="43.68597" lon="5.87295">
        <ele>502</ele>
        <time>2015-10-31T08:41:48.279Z</time>
      </trkpt>
      <trkpt lat="43.68602" lon="5.87284">
        <ele>501</ele>
        <time>2015-10-31T08:41:51.303Z</time>
      </trkpt>
      <trkpt lat="43.68604" lon="5.87282">
        <ele>501</ele>
        <time>2015-10-31T08:41:52.292Z</time>
      </trkpt>
      <trkpt lat="43.68611" lon="5.87275">
        <ele>501</ele>
        <time>2015-10-31T08:41:55.303Z</time>
      </trkpt>
      <trkpt lat="43.68613" lon="5.87272">
        <ele>501</ele>
        <time>2015-10-31T08:41:56.280Z</time>
      </trkpt>
      <trkpt lat="43.68619" lon="5.87263">
        <ele>501</ele>
        <time>2015-10-31T08:41:59.303Z</time>
      </trkpt>
      <trkpt lat="43.6862" lon="5.87259">
        <ele>501</ele>
        <time>2015-10-31T08:42:00.280Z</time>
      </trkpt>
      <trkpt lat="43.68624" lon="5.87249">
        <ele>501</ele>
        <time>2015-10-31T08:42:03.303Z</time>
      </trkpt>
      <trkpt lat="43.68625" lon="5.87246">
        <ele>500</ele>
        <time>2015-10-31T08:42:04.279Z</time>
      </trkpt>
      <trkpt lat="43.68628" lon="5.87239">
        <ele>500</ele>
        <time>2015-10-31T08:42:06.329Z</time>
      </trkpt>
      <trkpt lat="43.68629" lon="5.87234">
        <ele>500</ele>
        <time>2015-10-31T08:42:07.299Z</time>
      </trkpt>
      <trkpt lat="43.68629" lon="5.87223">
        <ele>501</ele>
        <time>2015-10-31T08:42:09.312Z</time>
      </trkpt>
      <trkpt lat="43.68629" lon="5.87218">
        <ele>501</ele>
        <time>2015-10-31T08:42:10.281Z</time>
      </trkpt>
      <trkpt lat="43.68627" lon="5.87208">
        <ele>500</ele>
        <time>2015-10-31T08:42:12.316Z</time>
      </trkpt>
      <trkpt lat="43.68626" lon="5.87203">
        <ele>500</ele>
        <time>2015-10-31T08:42:13.279Z</time>
      </trkpt>
      <trkpt lat="43.68624" lon="5.87194">
        <ele>500</ele>
        <time>2015-10-31T08:42:15.302Z</time>
      </trkpt>
      <trkpt lat="43.68623" lon="5.87189">
        <ele>500</ele>
        <time>2015-10-31T08:42:16.280Z</time>
      </trkpt>
      <trkpt lat="43.68622" lon="5.87179">
        <ele>500</ele>
        <time>2015-10-31T08:42:18.302Z</time>
      </trkpt>
      <trkpt lat="43.68622" lon="5.87173">
        <ele>500</ele>
        <time>2015-10-31T08:42:19.281Z</time>
      </trkpt>
      <trkpt lat="43.68623" lon="5.87162">
        <ele>500</ele>
        <time>2015-10-31T08:42:21.305Z</time>
      </trkpt>
      <trkpt lat="43.68623" lon="5.87157">
        <ele>500</ele>
        <time>2015-10-31T08:42:22.317Z</time>
      </trkpt>
      <trkpt lat="43.68625" lon="5.87146">
        <ele>499</ele>
        <time>2015-10-31T08:42:24.308Z</time>
      </trkpt>
      <trkpt lat="43.68626" lon="5.87142">
        <ele>499</ele>
        <time>2015-10-31T08:42:25.280Z</time>
      </trkpt>
      <trkpt lat="43.68628" lon="5.87132">
        <ele>498</ele>
        <time>2015-10-31T08:42:27.304Z</time>
      </trkpt>
      <trkpt lat="43.68628" lon="5.87127">
        <ele>498</ele>
        <time>2015-10-31T08:42:28.281Z</time>
      </trkpt>
      <trkpt lat="43.6863" lon="5.87117">
        <ele>498</ele>
        <time>2015-10-31T08:42:30.358Z</time>
      </trkpt>
      <trkpt lat="43.68632" lon="5.87111">
        <ele>498</ele>
        <time>2015-10-31T08:42:31.281Z</time>
      </trkpt>
      <trkpt lat="43.68635" lon="5.87101">
        <ele>497</ele>
        <time>2015-10-31T08:42:33.328Z</time>
      </trkpt>
      <trkpt lat="43.68636" lon="5.87096">
        <ele>497</ele>
        <time>2015-10-31T08:42:34.280Z</time>
      </trkpt>
      <trkpt lat="43.68637" lon="5.87087">
        <ele>497</ele>
        <time>2015-10-31T08:42:36.305Z</time>
      </trkpt>
      <trkpt lat="43.68638" lon="5.87083">
        <ele>497</ele>
        <time>2015-10-31T08:42:37.280Z</time>
      </trkpt>
      <trkpt lat="43.68639" lon="5.87072">
        <ele>497</ele>
        <time>2015-10-31T08:42:40.303Z</time>
      </trkpt>
      <trkpt lat="43.68639" lon="5.87068">
        <ele>497</ele>
        <time>2015-10-31T08:42:41.281Z</time>
      </trkpt>
      <trkpt lat="43.68637" lon="5.87058">
        <ele>496</ele>
        <time>2015-10-31T08:42:43.314Z</time>
      </trkpt>
      <trkpt lat="43.68635" lon="5.87052">
        <ele>496</ele>
        <time>2015-10-31T08:42:44.280Z</time>
      </trkpt>
      <trkpt lat="43.68635" lon="5.87041">
        <ele>496</ele>
        <time>2015-10-31T08:42:46.302Z</time>
      </trkpt>
      <trkpt lat="43.68636" lon="5.87036">
        <ele>496</ele>
        <time>2015-10-31T08:42:47.280Z</time>
      </trkpt>
      <trkpt lat="43.6864" lon="5.87025">
        <ele>496</ele>
        <time>2015-10-31T08:42:49.330Z</time>
      </trkpt>
      <trkpt lat="43.6864" lon="5.87019">
        <ele>496</ele>
        <time>2015-10-31T08:42:50.281Z</time>
      </trkpt>
      <trkpt lat="43.68641" lon="5.87008">
        <ele>496</ele>
        <time>2015-10-31T08:42:52.302Z</time>
      </trkpt>
      <trkpt lat="43.68641" lon="5.87002">
        <ele>496</ele>
        <time>2015-10-31T08:42:53.280Z</time>
      </trkpt>
      <trkpt lat="43.68641" lon="5.86992">
        <ele>496</ele>
        <time>2015-10-31T08:42:55.302Z</time>
      </trkpt>
      <trkpt lat="43.68642" lon="5.86987">
        <ele>496</ele>
        <time>2015-10-31T08:42:56.281Z</time>
      </trkpt>
      <trkpt lat="43.68644" lon="5.86977">
        <ele>497</ele>
        <time>2015-10-31T08:42:59.302Z</time>
      </trkpt>
      <trkpt lat="43.68645" lon="5.86975">
        <ele>497</ele>
        <time>2015-10-31T08:43:00.306Z</time>
      </trkpt>
      <trkpt lat="43.68647" lon="5.86966">
        <ele>497</ele>
        <time>2015-10-31T08:43:03.303Z</time>
      </trkpt>
      <trkpt lat="43.68649" lon="5.86963">
        <ele>497</ele>
        <time>2015-10-31T08:43:04.279Z</time>
      </trkpt>
      <trkpt lat="43.68652" lon="5.86953">
        <ele>496</ele>
        <time>2015-10-31T08:43:07.314Z</time>
      </trkpt>
      <trkpt lat="43.68653" lon="5.86949">
        <ele>496</ele>
        <time>2015-10-31T08:43:08.281Z</time>
      </trkpt>
      <trkpt lat="43.68656" lon="5.8694">
        <ele>496</ele>
        <time>2015-10-31T08:43:11.300Z</time>
      </trkpt>
      <trkpt lat="43.68658" lon="5.86936">
        <ele>496</ele>
        <time>2015-10-31T08:43:12.280Z</time>
      </trkpt>
      <trkpt lat="43.68662" lon="5.86927">
        <ele>496</ele>
        <time>2015-10-31T08:43:14.301Z</time>
      </trkpt>
      <trkpt lat="43.68664" lon="5.86923">
        <ele>496</ele>
        <time>2015-10-31T08:43:15.279Z</time>
      </trkpt>
      <trkpt lat="43.68669" lon="5.86913">
        <ele>497</ele>
        <time>2015-10-31T08:43:17.313Z</time>
      </trkpt>
      <trkpt lat="43.6867" lon="5.86908">
        <ele>497</ele>
        <time>2015-10-31T08:43:18.501Z</time>
      </trkpt>
      <trkpt lat="43.68673" lon="5.86898">
        <ele>497</ele>
        <time>2015-10-31T08:43:20.302Z</time>
      </trkpt>
      <trkpt lat="43.68674" lon="5.86893">
        <ele>497</ele>
        <time>2015-10-31T08:43:21.280Z</time>
      </trkpt>
      <trkpt lat="43.68677" lon="5.86883">
        <ele>497</ele>
        <time>2015-10-31T08:43:23.302Z</time>
      </trkpt>
      <trkpt lat="43.68679" lon="5.86879">
        <ele>497</ele>
        <time>2015-10-31T08:43:24.280Z</time>
      </trkpt>
      <trkpt lat="43.68682" lon="5.8687">
        <ele>497</ele>
        <time>2015-10-31T08:43:26.312Z</time>
      </trkpt>
      <trkpt lat="43.68684" lon="5.86865">
        <ele>497</ele>
        <time>2015-10-31T08:43:27.318Z</time>
      </trkpt>
      <trkpt lat="43.68687" lon="5.86856">
        <ele>497</ele>
        <time>2015-10-31T08:43:29.536Z</time>
      </trkpt>
      <trkpt lat="43.68688" lon="5.86852">
        <ele>498</ele>
        <time>2015-10-31T08:43:30.277Z</time>
      </trkpt>
      <trkpt lat="43.68692" lon="5.86842">
        <ele>497</ele>
        <time>2015-10-31T08:43:33.302Z</time>
      </trkpt>
      <trkpt lat="43.68693" lon="5.8684">
        <ele>497</ele>
        <time>2015-10-31T08:43:34.279Z</time>
      </trkpt>
      <trkpt lat="43.68695" lon="5.86828">
        <ele>498</ele>
        <time>2015-10-31T08:43:38.331Z</time>
      </trkpt>
      <trkpt lat="43.68695" lon="5.86826">
        <ele>498</ele>
        <time>2015-10-31T08:43:39.281Z</time>
      </trkpt>
      <trkpt lat="43.68697" lon="5.86814">
        <ele>500</ele>
        <time>2015-10-31T08:43:43.303Z</time>
      </trkpt>
      <trkpt lat="43.68697" lon="5.86811">
        <ele>500</ele>
        <time>2015-10-31T08:43:44.280Z</time>
      </trkpt>
      <trkpt lat="43.68701" lon="5.868">
        <ele>500</ele>
        <time>2015-10-31T08:43:47.303Z</time>
      </trkpt>
      <trkpt lat="43.68703" lon="5.86796">
        <ele>499</ele>
        <time>2015-10-31T08:43:48.279Z</time>
      </trkpt>
      <trkpt lat="43.68707" lon="5.86788">
        <ele>500</ele>
        <time>2015-10-31T08:43:50.373Z</time>
      </trkpt>
      <trkpt lat="43.68709" lon="5.86784">
        <ele>500</ele>
        <time>2015-10-31T08:43:51.279Z</time>
      </trkpt>
      <trkpt lat="43.68713" lon="5.86775">
        <ele>500</ele>
        <time>2015-10-31T08:43:53.301Z</time>
      </trkpt>
      <trkpt lat="43.68715" lon="5.86771">
        <ele>500</ele>
        <time>2015-10-31T08:43:54.304Z</time>
      </trkpt>
      <trkpt lat="43.68718" lon="5.86763">
        <ele>499</ele>
        <time>2015-10-31T08:43:56.323Z</time>
      </trkpt>
      <trkpt lat="43.6872" lon="5.86759">
        <ele>499</ele>
        <time>2015-10-31T08:43:57.280Z</time>
      </trkpt>
      <trkpt lat="43.68726" lon="5.8675">
        <ele>499</ele>
        <time>2015-10-31T08:44:00.302Z</time>
      </trkpt>
      <trkpt lat="43.68728" lon="5.86748">
        <ele>499</ele>
        <time>2015-10-31T08:44:01.277Z</time>
      </trkpt>
      <trkpt lat="43.68735" lon="5.86744">
        <ele>500</ele>
        <time>2015-10-31T08:44:04.303Z</time>
      </trkpt>
      <trkpt lat="43.68737" lon="5.86744">
        <ele>500</ele>
        <time>2015-10-31T08:44:05.286Z</time>
      </trkpt>
      <trkpt lat="43.68744" lon="5.86748">
        <ele>499</ele>
        <time>2015-10-31T08:44:09.303Z</time>
      </trkpt>
      <trkpt lat="43.68747" lon="5.86752">
        <ele>499</ele>
        <time>2015-10-31T08:44:10.304Z</time>
      </trkpt>
      <trkpt lat="43.6875" lon="5.86757">
        <ele>499</ele>
        <time>2015-10-31T08:44:11.303Z</time>
      </trkpt>
      <trkpt lat="43.68753" lon="5.86762">
        <ele>498</ele>
        <time>2015-10-31T08:44:12.280Z</time>
      </trkpt>
      <trkpt lat="43.68757" lon="5.86769">
        <ele>497</ele>
        <time>2015-10-31T08:44:13.303Z</time>
      </trkpt>
      <trkpt lat="43.68761" lon="5.86773">
        <ele>497</ele>
        <time>2015-10-31T08:44:14.281Z</time>
      </trkpt>
      <trkpt lat="43.68766" lon="5.8678">
        <ele>497</ele>
        <time>2015-10-31T08:44:15.315Z</time>
      </trkpt>
      <trkpt lat="43.6877" lon="5.86786">
        <ele>496</ele>
        <time>2015-10-31T08:44:16.282Z</time>
      </trkpt>
      <trkpt lat="43.68776" lon="5.86789">
        <ele>496</ele>
        <time>2015-10-31T08:44:17.313Z</time>
      </trkpt>
      <trkpt lat="43.68782" lon="5.86791">
        <ele>495</ele>
        <time>2015-10-31T08:44:18.280Z</time>
      </trkpt>
      <trkpt lat="43.68789" lon="5.86794">
        <ele>494</ele>
        <time>2015-10-31T08:44:19.301Z</time>
      </trkpt>
      <trkpt lat="43.68796" lon="5.86797">
        <ele>493</ele>
        <time>2015-10-31T08:44:20.286Z</time>
      </trkpt>
      <trkpt lat="43.68802" lon="5.868">
        <ele>493</ele>
        <time>2015-10-31T08:44:21.327Z</time>
      </trkpt>
      <trkpt lat="43.68808" lon="5.86802">
        <ele>492</ele>
        <time>2015-10-31T08:44:22.279Z</time>
      </trkpt>
      <trkpt lat="43.68816" lon="5.86805">
        <ele>491</ele>
        <time>2015-10-31T08:44:23.312Z</time>
      </trkpt>
      <trkpt lat="43.68823" lon="5.86806">
        <ele>490</ele>
        <time>2015-10-31T08:44:24.281Z</time>
      </trkpt>
      <trkpt lat="43.68829" lon="5.86807">
        <ele>489</ele>
        <time>2015-10-31T08:44:25.304Z</time>
      </trkpt>
      <trkpt lat="43.68836" lon="5.86806">
        <ele>488</ele>
        <time>2015-10-31T08:44:26.281Z</time>
      </trkpt>
      <trkpt lat="43.68843" lon="5.86807">
        <ele>487</ele>
        <time>2015-10-31T08:44:27.303Z</time>
      </trkpt>
      <trkpt lat="43.6885" lon="5.86807">
        <ele>487</ele>
        <time>2015-10-31T08:44:28.280Z</time>
      </trkpt>
      <trkpt lat="43.68857" lon="5.86807">
        <ele>486</ele>
        <time>2015-10-31T08:44:29.304Z</time>
      </trkpt>
      <trkpt lat="43.68863" lon="5.86805">
        <ele>485</ele>
        <time>2015-10-31T08:44:30.279Z</time>
      </trkpt>
      <trkpt lat="43.6887" lon="5.86803">
        <ele>485</ele>
        <time>2015-10-31T08:44:31.304Z</time>
      </trkpt>
      <trkpt lat="43.68877" lon="5.86799">
        <ele>485</ele>
        <time>2015-10-31T08:44:32.305Z</time>
      </trkpt>
      <trkpt lat="43.68883" lon="5.86796">
        <ele>484</ele>
        <time>2015-10-31T08:44:33.312Z</time>
      </trkpt>
      <trkpt lat="43.6889" lon="5.86793">
        <ele>484</ele>
        <time>2015-10-31T08:44:34.293Z</time>
      </trkpt>
      <trkpt lat="43.68896" lon="5.8679">
        <ele>483</ele>
        <time>2015-10-31T08:44:35.304Z</time>
      </trkpt>
      <trkpt lat="43.68903" lon="5.86788">
        <ele>483</ele>
        <time>2015-10-31T08:44:36.280Z</time>
      </trkpt>
      <trkpt lat="43.68911" lon="5.86787">
        <ele>482</ele>
        <time>2015-10-31T08:44:37.303Z</time>
      </trkpt>
      <trkpt lat="43.68918" lon="5.86787">
        <ele>481</ele>
        <time>2015-10-31T08:44:38.282Z</time>
      </trkpt>
      <trkpt lat="43.68924" lon="5.86788">
        <ele>480</ele>
        <time>2015-10-31T08:44:39.303Z</time>
      </trkpt>
      <trkpt lat="43.68929" lon="5.86788">
        <ele>479</ele>
        <time>2015-10-31T08:44:40.280Z</time>
      </trkpt>
      <trkpt lat="43.68938" lon="5.86789">
        <ele>478</ele>
        <time>2015-10-31T08:44:42.314Z</time>
      </trkpt>
      <trkpt lat="43.68942" lon="5.86792">
        <ele>478</ele>
        <time>2015-10-31T08:44:43.280Z</time>
      </trkpt>
      <trkpt lat="43.68947" lon="5.868">
        <ele>476</ele>
        <time>2015-10-31T08:44:45.303Z</time>
      </trkpt>
      <trkpt lat="43.6895" lon="5.86804">
        <ele>475</ele>
        <time>2015-10-31T08:44:46.281Z</time>
      </trkpt>
      <trkpt lat="43.68954" lon="5.8681">
        <ele>475</ele>
        <time>2015-10-31T08:44:47.313Z</time>
      </trkpt>
      <trkpt lat="43.68958" lon="5.86816">
        <ele>474</ele>
        <time>2015-10-31T08:44:48.304Z</time>
      </trkpt>
      <trkpt lat="43.68962" lon="5.86822">
        <ele>473</ele>
        <time>2015-10-31T08:44:49.302Z</time>
      </trkpt>
      <trkpt lat="43.68964" lon="5.86827">
        <ele>472</ele>
        <time>2015-10-31T08:44:50.280Z</time>
      </trkpt>
      <trkpt lat="43.68967" lon="5.86832">
        <ele>472</ele>
        <time>2015-10-31T08:44:51.302Z</time>
      </trkpt>
      <trkpt lat="43.6897" lon="5.86837">
        <ele>471</ele>
        <time>2015-10-31T08:44:52.275Z</time>
      </trkpt>
      <trkpt lat="43.68973" lon="5.86843">
        <ele>470</ele>
        <time>2015-10-31T08:44:53.303Z</time>
      </trkpt>
      <trkpt lat="43.68976" lon="5.86849">
        <ele>470</ele>
        <time>2015-10-31T08:44:54.351Z</time>
      </trkpt>
      <trkpt lat="43.68976" lon="5.86855">
        <ele>469</ele>
        <time>2015-10-31T08:44:55.284Z</time>
      </trkpt>
      <trkpt lat="43.68975" lon="5.86862">
        <ele>469</ele>
        <time>2015-10-31T08:44:56.280Z</time>
      </trkpt>
      <trkpt lat="43.68973" lon="5.86867">
        <ele>468</ele>
        <time>2015-10-31T08:44:57.302Z</time>
      </trkpt>
      <trkpt lat="43.68969" lon="5.86872">
        <ele>467</ele>
        <time>2015-10-31T08:44:58.280Z</time>
      </trkpt>
      <trkpt lat="43.68964" lon="5.86876">
        <ele>466</ele>
        <time>2015-10-31T08:44:59.302Z</time>
      </trkpt>
      <trkpt lat="43.68959" lon="5.8688">
        <ele>465</ele>
        <time>2015-10-31T08:45:00.289Z</time>
      </trkpt>
      <trkpt lat="43.68955" lon="5.86887">
        <ele>464</ele>
        <time>2015-10-31T08:45:01.313Z</time>
      </trkpt>
      <trkpt lat="43.68951" lon="5.86892">
        <ele>464</ele>
        <time>2015-10-31T08:45:02.280Z</time>
      </trkpt>
      <trkpt lat="43.68946" lon="5.86897">
        <ele>464</ele>
        <time>2015-10-31T08:45:03.302Z</time>
      </trkpt>
      <trkpt lat="43.68941" lon="5.86901">
        <ele>465</ele>
        <time>2015-10-31T08:45:04.306Z</time>
      </trkpt>
      <trkpt lat="43.6894" lon="5.8691">
        <ele>465</ele>
        <time>2015-10-31T08:45:06.301Z</time>
      </trkpt>
      <trkpt lat="43.6894" lon="5.86914">
        <ele>464</ele>
        <time>2015-10-31T08:45:07.280Z</time>
      </trkpt>
      <trkpt lat="43.68941" lon="5.86924">
        <ele>464</ele>
        <time>2015-10-31T08:45:09.301Z</time>
      </trkpt>
      <trkpt lat="43.68941" lon="5.86927">
        <ele>464</ele>
        <time>2015-10-31T08:45:10.279Z</time>
      </trkpt>
      <trkpt lat="43.68942" lon="5.86937">
        <ele>466</ele>
        <time>2015-10-31T08:45:13.313Z</time>
      </trkpt>
      <trkpt lat="43.68942" lon="5.8694">
        <ele>466</ele>
        <time>2015-10-31T08:45:14.279Z</time>
      </trkpt>
      <trkpt lat="43.68944" lon="5.86951">
        <ele>467</ele>
        <time>2015-10-31T08:45:18.313Z</time>
      </trkpt>
      <trkpt lat="43.68944" lon="5.86954">
        <ele>468</ele>
        <time>2015-10-31T08:45:19.281Z</time>
      </trkpt>
      <trkpt lat="43.68944" lon="5.86964">
        <ele>468</ele>
        <time>2015-10-31T08:45:23.302Z</time>
      </trkpt>
      <trkpt lat="43.68944" lon="5.86966">
        <ele>468</ele>
        <time>2015-10-31T08:45:24.290Z</time>
      </trkpt>
      <trkpt lat="43.68943" lon="5.86978">
        <ele>470</ele>
        <time>2015-10-31T08:45:29.325Z</time>
      </trkpt>
      <trkpt lat="43.68943" lon="5.86981">
        <ele>470</ele>
        <time>2015-10-31T08:45:30.307Z</time>
      </trkpt>
      <trkpt lat="43.68943" lon="5.86993">
        <ele>471</ele>
        <time>2015-10-31T08:45:35.314Z</time>
      </trkpt>
      <trkpt lat="43.68943" lon="5.86995">
        <ele>471</ele>
        <time>2015-10-31T08:45:36.281Z</time>
      </trkpt>
      <trkpt lat="43.68943" lon="5.87007">
        <ele>471</ele>
        <time>2015-10-31T08:45:41.338Z</time>
      </trkpt>
      <trkpt lat="43.68942" lon="5.87009">
        <ele>471</ele>
        <time>2015-10-31T08:45:42.279Z</time>
      </trkpt>
      <trkpt lat="43.68939" lon="5.8702">
        <ele>471</ele>
        <time>2015-10-31T08:45:48.304Z</time>
      </trkpt>
      <trkpt lat="43.6894" lon="5.87022">
        <ele>471</ele>
        <time>2015-10-31T08:45:49.279Z</time>
      </trkpt>
      <trkpt lat="43.68938" lon="5.87032">
        <ele>473</ele>
        <time>2015-10-31T08:45:55.303Z</time>
      </trkpt>
      <trkpt lat="43.68938" lon="5.87034">
        <ele>473</ele>
        <time>2015-10-31T08:45:56.291Z</time>
      </trkpt>
      <trkpt lat="43.68937" lon="5.87045">
        <ele>473</ele>
        <time>2015-10-31T08:46:01.314Z</time>
      </trkpt>
      <trkpt lat="43.68936" lon="5.87048">
        <ele>473</ele>
        <time>2015-10-31T08:46:02.280Z</time>
      </trkpt>
      <trkpt lat="43.68935" lon="5.87058">
        <ele>474</ele>
        <time>2015-10-31T08:46:06.304Z</time>
      </trkpt>
      <trkpt lat="43.68935" lon="5.87061">
        <ele>474</ele>
        <time>2015-10-31T08:46:07.281Z</time>
      </trkpt>
      <trkpt lat="43.68938" lon="5.87071">
        <ele>475</ele>
        <time>2015-10-31T08:46:11.303Z</time>
      </trkpt>
      <trkpt lat="43.68939" lon="5.87074">
        <ele>475</ele>
        <time>2015-10-31T08:46:12.281Z</time>
      </trkpt>
      <trkpt lat="43.68943" lon="5.87081">
        <ele>475</ele>
        <time>2015-10-31T08:46:15.302Z</time>
      </trkpt>
      <trkpt lat="43.68944" lon="5.87084">
        <ele>475</ele>
        <time>2015-10-31T08:46:16.291Z</time>
      </trkpt>
      <trkpt lat="43.68947" lon="5.87096">
        <ele>475</ele>
        <time>2015-10-31T08:46:20.302Z</time>
      </trkpt>
      <trkpt lat="43.68948" lon="5.87098">
        <ele>474</ele>
        <time>2015-10-31T08:46:21.280Z</time>
      </trkpt>
      <trkpt lat="43.6895" lon="5.87109">
        <ele>474</ele>
        <time>2015-10-31T08:46:25.315Z</time>
      </trkpt>
      <trkpt lat="43.6895" lon="5.87112">
        <ele>474</ele>
        <time>2015-10-31T08:46:26.280Z</time>
      </trkpt>
      <trkpt lat="43.68951" lon="5.87123">
        <ele>475</ele>
        <time>2015-10-31T08:46:30.302Z</time>
      </trkpt>
      <trkpt lat="43.68952" lon="5.87125">
        <ele>475</ele>
        <time>2015-10-31T08:46:31.291Z</time>
      </trkpt>
      <trkpt lat="43.68952" lon="5.87136">
        <ele>475</ele>
        <time>2015-10-31T08:46:35.301Z</time>
      </trkpt>
      <trkpt lat="43.68953" lon="5.87138">
        <ele>475</ele>
        <time>2015-10-31T08:46:36.279Z</time>
      </trkpt>
      <trkpt lat="43.68956" lon="5.87148">
        <ele>476</ele>
        <time>2015-10-31T08:46:40.304Z</time>
      </trkpt>
      <trkpt lat="43.68957" lon="5.87151">
        <ele>477</ele>
        <time>2015-10-31T08:46:41.291Z</time>
      </trkpt>
      <trkpt lat="43.68959" lon="5.8716">
        <ele>478</ele>
        <time>2015-10-31T08:46:45.304Z</time>
      </trkpt>
      <trkpt lat="43.6896" lon="5.87163">
        <ele>478</ele>
        <time>2015-10-31T08:46:46.281Z</time>
      </trkpt>
      <trkpt lat="43.68963" lon="5.87172">
        <ele>479</ele>
        <time>2015-10-31T08:46:50.302Z</time>
      </trkpt>
      <trkpt lat="43.68964" lon="5.87175">
        <ele>479</ele>
        <time>2015-10-31T08:46:51.278Z</time>
      </trkpt>
      <trkpt lat="43.68968" lon="5.87185">
        <ele>479</ele>
        <time>2015-10-31T08:46:55.336Z</time>
      </trkpt>
      <trkpt lat="43.68968" lon="5.87189">
        <ele>479</ele>
        <time>2015-10-31T08:46:56.279Z</time>
      </trkpt>
      <trkpt lat="43.6897" lon="5.87201">
        <ele>479</ele>
        <time>2015-10-31T08:47:00.324Z</time>
      </trkpt>
      <trkpt lat="43.6897" lon="5.87204">
        <ele>479</ele>
        <time>2015-10-31T08:47:01.279Z</time>
      </trkpt>
      <trkpt lat="43.68971" lon="5.87216">
        <ele>479</ele>
        <time>2015-10-31T08:47:05.302Z</time>
      </trkpt>
      <trkpt lat="43.68972" lon="5.87218">
        <ele>480</ele>
        <time>2015-10-31T08:47:06.307Z</time>
      </trkpt>
      <trkpt lat="43.68974" lon="5.87228">
        <ele>480</ele>
        <time>2015-10-31T08:47:10.303Z</time>
      </trkpt>
      <trkpt lat="43.68975" lon="5.8723">
        <ele>481</ele>
        <time>2015-10-31T08:47:11.280Z</time>
      </trkpt>
      <trkpt lat="43.68977" lon="5.87242">
        <ele>481</ele>
        <time>2015-10-31T08:47:16.303Z</time>
      </trkpt>
      <trkpt lat="43.68978" lon="5.87244">
        <ele>481</ele>
        <time>2015-10-31T08:47:17.306Z</time>
      </trkpt>
      <trkpt lat="43.68979" lon="5.87255">
        <ele>482</ele>
        <time>2015-10-31T08:47:22.300Z</time>
      </trkpt>
      <trkpt lat="43.6898" lon="5.87257">
        <ele>482</ele>
        <time>2015-10-31T08:47:23.281Z</time>
      </trkpt>
      <trkpt lat="43.68982" lon="5.87269">
        <ele>484</ele>
        <time>2015-10-31T08:47:28.537Z</time>
      </trkpt>
      <trkpt lat="43.68982" lon="5.87271">
        <ele>484</ele>
        <time>2015-10-31T08:47:29.281Z</time>
      </trkpt>
      <trkpt lat="43.68985" lon="5.87281">
        <ele>485</ele>
        <time>2015-10-31T08:47:33.328Z</time>
      </trkpt>
      <trkpt lat="43.68986" lon="5.87283">
        <ele>485</ele>
        <time>2015-10-31T08:47:34.280Z</time>
      </trkpt>
      <trkpt lat="43.68989" lon="5.87292">
        <ele>485</ele>
        <time>2015-10-31T08:47:37.303Z</time>
      </trkpt>
      <trkpt lat="43.6899" lon="5.87295">
        <ele>485</ele>
        <time>2015-10-31T08:47:38.280Z</time>
      </trkpt>
      <trkpt lat="43.68996" lon="5.87304">
        <ele>487</ele>
        <time>2015-10-31T08:47:42.306Z</time>
      </trkpt>
      <trkpt lat="43.68997" lon="5.87307">
        <ele>487</ele>
        <time>2015-10-31T08:47:43.279Z</time>
      </trkpt>
      <trkpt lat="43.69001" lon="5.87316">
        <ele>488</ele>
        <time>2015-10-31T08:47:47.304Z</time>
      </trkpt>
      <trkpt lat="43.69001" lon="5.87318">
        <ele>488</ele>
        <time>2015-10-31T08:47:48.281Z</time>
      </trkpt>
      <trkpt lat="43.68999" lon="5.8733">
        <ele>488</ele>
        <time>2015-10-31T08:47:52.302Z</time>
      </trkpt>
      <trkpt lat="43.68998" lon="5.87332">
        <ele>488</ele>
        <time>2015-10-31T08:47:53.291Z</time>
      </trkpt>
      <trkpt lat="43.68993" lon="5.87339">
        <ele>489</ele>
        <time>2015-10-31T08:47:56.303Z</time>
      </trkpt>
      <trkpt lat="43.68992" lon="5.87342">
        <ele>489</ele>
        <time>2015-10-31T08:47:57.278Z</time>
      </trkpt>
      <trkpt lat="43.68989" lon="5.87354">
        <ele>490</ele>
        <time>2015-10-31T08:48:02.367Z</time>
      </trkpt>
      <trkpt lat="43.68989" lon="5.87356">
        <ele>491</ele>
        <time>2015-10-31T08:48:03.279Z</time>
      </trkpt>
      <trkpt lat="43.6899" lon="5.87368">
        <ele>492</ele>
        <time>2015-10-31T08:48:08.301Z</time>
      </trkpt>
      <trkpt lat="43.6899" lon="5.8737">
        <ele>492</ele>
        <time>2015-10-31T08:48:09.282Z</time>
      </trkpt>
      <trkpt lat="43.68995" lon="5.8738">
        <ele>494</ele>
        <time>2015-10-31T08:48:15.302Z</time>
      </trkpt>
      <trkpt lat="43.68996" lon="5.87382">
        <ele>494</ele>
        <time>2015-10-31T08:48:16.279Z</time>
      </trkpt>
      <trkpt lat="43.68999" lon="5.87393">
        <ele>495</ele>
        <time>2015-10-31T08:48:40.301Z</time>
      </trkpt>
      <trkpt lat="43.68999" lon="5.87395">
        <ele>495</ele>
        <time>2015-10-31T08:48:41.280Z</time>
      </trkpt>
      <trkpt lat="43.69003" lon="5.87405">
        <ele>497</ele>
        <time>2015-10-31T08:48:55.304Z</time>
      </trkpt>
      <trkpt lat="43.69004" lon="5.87407">
        <ele>497</ele>
        <time>2015-10-31T08:48:56.282Z</time>
      </trkpt>
      <trkpt lat="43.69006" lon="5.87417">
        <ele>498</ele>
        <time>2015-10-31T08:49:01.304Z</time>
      </trkpt>
      <trkpt lat="43.69005" lon="5.87419">
        <ele>498</ele>
        <time>2015-10-31T08:49:02.299Z</time>
      </trkpt>
      <trkpt lat="43.69001" lon="5.87429">
        <ele>499</ele>
        <time>2015-10-31T08:49:06.303Z</time>
      </trkpt>
      <trkpt lat="43.69001" lon="5.87431">
        <ele>499</ele>
        <time>2015-10-31T08:49:07.280Z</time>
      </trkpt>
      <trkpt lat="43.69001" lon="5.87441">
        <ele>499</ele>
        <time>2015-10-31T08:49:11.302Z</time>
      </trkpt>
      <trkpt lat="43.69001" lon="5.87444">
        <ele>500</ele>
        <time>2015-10-31T08:49:12.291Z</time>
      </trkpt>
      <trkpt lat="43.69005" lon="5.87454">
        <ele>499</ele>
        <time>2015-10-31T08:49:17.315Z</time>
      </trkpt>
      <trkpt lat="43.69005" lon="5.87456">
        <ele>499</ele>
        <time>2015-10-31T08:49:18.280Z</time>
      </trkpt>
      <trkpt lat="43.69003" lon="5.87467">
        <ele>500</ele>
        <time>2015-10-31T08:49:23.302Z</time>
      </trkpt>
      <trkpt lat="43.69002" lon="5.87469">
        <ele>500</ele>
        <time>2015-10-31T08:49:24.278Z</time>
      </trkpt>
      <trkpt lat="43.69005" lon="5.87479">
        <ele>501</ele>
        <time>2015-10-31T08:49:28.303Z</time>
      </trkpt>
      <trkpt lat="43.69005" lon="5.87481">
        <ele>501</ele>
        <time>2015-10-31T08:49:29.291Z</time>
      </trkpt>
      <trkpt lat="43.69007" lon="5.87491">
        <ele>500</ele>
        <time>2015-10-31T08:49:33.304Z</time>
      </trkpt>
      <trkpt lat="43.69008" lon="5.87493">
        <ele>500</ele>
        <time>2015-10-31T08:49:34.282Z</time>
      </trkpt>
      <trkpt lat="43.69009" lon="5.87503">
        <ele>501</ele>
        <time>2015-10-31T08:49:37.313Z</time>
      </trkpt>
      <trkpt lat="43.69009" lon="5.87507">
        <ele>501</ele>
        <time>2015-10-31T08:49:38.281Z</time>
      </trkpt>
      <trkpt lat="43.69009" lon="5.87517">
        <ele>502</ele>
        <time>2015-10-31T08:49:41.303Z</time>
      </trkpt>
      <trkpt lat="43.6901" lon="5.87521">
        <ele>502</ele>
        <time>2015-10-31T08:49:42.281Z</time>
      </trkpt>
      <trkpt lat="43.69012" lon="5.8753">
        <ele>503</ele>
        <time>2015-10-31T08:49:45.303Z</time>
      </trkpt>
      <trkpt lat="43.69013" lon="5.87533">
        <ele>503</ele>
        <time>2015-10-31T08:49:46.281Z</time>
      </trkpt>
      <trkpt lat="43.69015" lon="5.87544">
        <ele>504</ele>
        <time>2015-10-31T08:49:49.302Z</time>
      </trkpt>
      <trkpt lat="43.69014" lon="5.87547">
        <ele>504</ele>
        <time>2015-10-31T08:49:50.276Z</time>
      </trkpt>
      <trkpt lat="43.69013" lon="5.87558">
        <ele>504</ele>
        <time>2015-10-31T08:49:53.313Z</time>
      </trkpt>
      <trkpt lat="43.69013" lon="5.87562">
        <ele>504</ele>
        <time>2015-10-31T08:49:54.281Z</time>
      </trkpt>
      <trkpt lat="43.69015" lon="5.87573">
        <ele>505</ele>
        <time>2015-10-31T08:49:57.301Z</time>
      </trkpt>
      <trkpt lat="43.69016" lon="5.87577">
        <ele>505</ele>
        <time>2015-10-31T08:49:58.279Z</time>
      </trkpt>
      <trkpt lat="43.69018" lon="5.87588">
        <ele>505</ele>
        <time>2015-10-31T08:50:01.303Z</time>
      </trkpt>
      <trkpt lat="43.69018" lon="5.87592">
        <ele>505</ele>
        <time>2015-10-31T08:50:02.281Z</time>
      </trkpt>
      <trkpt lat="43.69017" lon="5.876">
        <ele>506</ele>
        <time>2015-10-31T08:50:04.338Z</time>
      </trkpt>
      <trkpt lat="43.69017" lon="5.87604">
        <ele>506</ele>
        <time>2015-10-31T08:50:05.280Z</time>
      </trkpt>
      <trkpt lat="43.69014" lon="5.87616">
        <ele>506</ele>
        <time>2015-10-31T08:50:08.302Z</time>
      </trkpt>
      <trkpt lat="43.69014" lon="5.87619">
        <ele>506</ele>
        <time>2015-10-31T08:50:09.280Z</time>
      </trkpt>
      <trkpt lat="43.69012" lon="5.87631">
        <ele>507</ele>
        <time>2015-10-31T08:50:12.308Z</time>
      </trkpt>
      <trkpt lat="43.69012" lon="5.87635">
        <ele>507</ele>
        <time>2015-10-31T08:50:13.280Z</time>
      </trkpt>
      <trkpt lat="43.6901" lon="5.87646">
        <ele>508</ele>
        <time>2015-10-31T08:50:16.305Z</time>
      </trkpt>
      <trkpt lat="43.69011" lon="5.87649">
        <ele>509</ele>
        <time>2015-10-31T08:50:17.281Z</time>
      </trkpt>
      <trkpt lat="43.69014" lon="5.87658">
        <ele>508</ele>
        <time>2015-10-31T08:50:20.304Z</time>
      </trkpt>
      <trkpt lat="43.69015" lon="5.87661">
        <ele>507</ele>
        <time>2015-10-31T08:50:21.281Z</time>
      </trkpt>
      <trkpt lat="43.69015" lon="5.87673">
        <ele>507</ele>
        <time>2015-10-31T08:50:27.314Z</time>
      </trkpt>
      <trkpt lat="43.69015" lon="5.87674">
        <ele>507</ele>
        <time>2015-10-31T08:50:28.293Z</time>
      </trkpt>
      <trkpt lat="43.69018" lon="5.87684">
        <ele>507</ele>
        <time>2015-10-31T08:50:34.303Z</time>
      </trkpt>
      <trkpt lat="43.69019" lon="5.87686">
        <ele>506</ele>
        <time>2015-10-31T08:50:35.280Z</time>
      </trkpt>
      <trkpt lat="43.69026" lon="5.87692">
        <ele>508</ele>
        <time>2015-10-31T08:50:40.305Z</time>
      </trkpt>
      <trkpt lat="43.69027" lon="5.87693">
        <ele>509</ele>
        <time>2015-10-31T08:50:41.281Z</time>
      </trkpt>
      <trkpt lat="43.69033" lon="5.877">
        <ele>509</ele>
        <time>2015-10-31T08:50:47.302Z</time>
      </trkpt>
      <trkpt lat="43.69035" lon="5.87701">
        <ele>509</ele>
        <time>2015-10-31T08:50:48.278Z</time>
      </trkpt>
      <trkpt lat="43.69041" lon="5.87709">
        <ele>510</ele>
        <time>2015-10-31T08:50:54.303Z</time>
      </trkpt>
      <trkpt lat="43.69042" lon="5.87711">
        <ele>510</ele>
        <time>2015-10-31T08:50:55.282Z</time>
      </trkpt>
      <trkpt lat="43.69046" lon="5.87721">
        <ele>510</ele>
        <time>2015-10-31T08:51:00.528Z</time>
      </trkpt>
      <trkpt lat="43.69046" lon="5.87722">
        <ele>510</ele>
        <time>2015-10-31T08:51:01.280Z</time>
      </trkpt>
      <trkpt lat="43.69052" lon="5.8773">
        <ele>509</ele>
        <time>2015-10-31T08:53:19.302Z</time>
      </trkpt>
      <trkpt lat="43.69055" lon="5.87733">
        <ele>510</ele>
        <time>2015-10-31T08:53:20.281Z</time>
      </trkpt>
      <trkpt lat="43.6906" lon="5.87739">
        <ele>508</ele>
        <time>2015-10-31T08:53:22.314Z</time>
      </trkpt>
      <trkpt lat="43.69062" lon="5.87743">
        <ele>508</ele>
        <time>2015-10-31T08:53:23.282Z</time>
      </trkpt>
      <trkpt lat="43.69066" lon="5.87753">
        <ele>507</ele>
        <time>2015-10-31T08:53:25.299Z</time>
      </trkpt>
      <trkpt lat="43.69068" lon="5.87757">
        <ele>507</ele>
        <time>2015-10-31T08:53:26.281Z</time>
      </trkpt>
      <trkpt lat="43.69069" lon="5.87767">
        <ele>507</ele>
        <time>2015-10-31T08:53:28.330Z</time>
      </trkpt>
      <trkpt lat="43.6907" lon="5.87772">
        <ele>507</ele>
        <time>2015-10-31T08:53:29.281Z</time>
      </trkpt>
      <trkpt lat="43.69072" lon="5.87783">
        <ele>507</ele>
        <time>2015-10-31T08:53:31.304Z</time>
      </trkpt>
      <trkpt lat="43.69073" lon="5.87787">
        <ele>506</ele>
        <time>2015-10-31T08:53:32.282Z</time>
      </trkpt>
      <trkpt lat="43.69076" lon="5.87796">
        <ele>506</ele>
        <time>2015-10-31T08:53:34.304Z</time>
      </trkpt>
      <trkpt lat="43.69077" lon="5.878">
        <ele>506</ele>
        <time>2015-10-31T08:53:35.283Z</time>
      </trkpt>
      <trkpt lat="43.69082" lon="5.87809">
        <ele>505</ele>
        <time>2015-10-31T08:53:38.304Z</time>
      </trkpt>
      <trkpt lat="43.69083" lon="5.87813">
        <ele>504</ele>
        <time>2015-10-31T08:53:39.281Z</time>
      </trkpt>
      <trkpt lat="43.69084" lon="5.87822">
        <ele>503</ele>
        <time>2015-10-31T08:53:41.303Z</time>
      </trkpt>
      <trkpt lat="43.69083" lon="5.87827">
        <ele>503</ele>
        <time>2015-10-31T08:53:42.282Z</time>
      </trkpt>
      <trkpt lat="43.6908" lon="5.87837">
        <ele>503</ele>
        <time>2015-10-31T08:53:44.335Z</time>
      </trkpt>
      <trkpt lat="43.69079" lon="5.87842">
        <ele>502</ele>
        <time>2015-10-31T08:53:45.281Z</time>
      </trkpt>
      <trkpt lat="43.69079" lon="5.87854">
        <ele>502</ele>
        <time>2015-10-31T08:53:47.314Z</time>
      </trkpt>
      <trkpt lat="43.6908" lon="5.8786">
        <ele>503</ele>
        <time>2015-10-31T08:53:48.282Z</time>
      </trkpt>
      <trkpt lat="43.69082" lon="5.87871">
        <ele>503</ele>
        <time>2015-10-31T08:53:50.313Z</time>
      </trkpt>
      <trkpt lat="43.69083" lon="5.87877">
        <ele>503</ele>
        <time>2015-10-31T08:53:51.281Z</time>
      </trkpt>
      <trkpt lat="43.69086" lon="5.87886">
        <ele>503</ele>
        <time>2015-10-31T08:53:53.305Z</time>
      </trkpt>
      <trkpt lat="43.69088" lon="5.87889">
        <ele>503</ele>
        <time>2015-10-31T08:53:54.283Z</time>
      </trkpt>
      <trkpt lat="43.6909" lon="5.87901">
        <ele>503</ele>
        <time>2015-10-31T08:53:57.308Z</time>
      </trkpt>
      <trkpt lat="43.69091" lon="5.87904">
        <ele>503</ele>
        <time>2015-10-31T08:53:58.282Z</time>
      </trkpt>
      <trkpt lat="43.69092" lon="5.87913">
        <ele>504</ele>
        <time>2015-10-31T08:54:01.304Z</time>
      </trkpt>
      <trkpt lat="43.69091" lon="5.87916">
        <ele>504</ele>
        <time>2015-10-31T08:54:02.281Z</time>
      </trkpt>
      <trkpt lat="43.69096" lon="5.87925">
        <ele>504</ele>
        <time>2015-10-31T08:54:44.304Z</time>
      </trkpt>
      <trkpt lat="43.69097" lon="5.87928">
        <ele>503</ele>
        <time>2015-10-31T08:54:45.281Z</time>
      </trkpt>
      <trkpt lat="43.69101" lon="5.87936">
        <ele>504</ele>
        <time>2015-10-31T08:54:48.302Z</time>
      </trkpt>
      <trkpt lat="43.69103" lon="5.87938">
        <ele>504</ele>
        <time>2015-10-31T08:54:49.281Z</time>
      </trkpt>
      <trkpt lat="43.69108" lon="5.87948">
        <ele>505</ele>
        <time>2015-10-31T08:54:52.302Z</time>
      </trkpt>
      <trkpt lat="43.69109" lon="5.87951">
        <ele>505</ele>
        <time>2015-10-31T08:54:53.282Z</time>
      </trkpt>
      <trkpt lat="43.69114" lon="5.87962">
        <ele>506</ele>
        <time>2015-10-31T08:54:57.303Z</time>
      </trkpt>
      <trkpt lat="43.69114" lon="5.87964">
        <ele>507</ele>
        <time>2015-10-31T08:54:58.278Z</time>
      </trkpt>
      <trkpt lat="43.69117" lon="5.87975">
        <ele>507</ele>
        <time>2015-10-31T08:55:02.303Z</time>
      </trkpt>
      <trkpt lat="43.69118" lon="5.87978">
        <ele>507</ele>
        <time>2015-10-31T08:55:03.281Z</time>
      </trkpt>
      <trkpt lat="43.69121" lon="5.87986">
        <ele>508</ele>
        <time>2015-10-31T08:55:06.302Z</time>
      </trkpt>
      <trkpt lat="43.69122" lon="5.8799">
        <ele>508</ele>
        <time>2015-10-31T08:55:07.293Z</time>
      </trkpt>
      <trkpt lat="43.69124" lon="5.87998">
        <ele>508</ele>
        <time>2015-10-31T08:55:10.343Z</time>
      </trkpt>
      <trkpt lat="43.69126" lon="5.88001">
        <ele>508</ele>
        <time>2015-10-31T08:55:11.282Z</time>
      </trkpt>
      <trkpt lat="43.69129" lon="5.88009">
        <ele>509</ele>
        <time>2015-10-31T08:55:14.305Z</time>
      </trkpt>
      <trkpt lat="43.69131" lon="5.88012">
        <ele>508</ele>
        <time>2015-10-31T08:55:15.280Z</time>
      </trkpt>
      <trkpt lat="43.69135" lon="5.88023">
        <ele>509</ele>
        <time>2015-10-31T08:55:19.304Z</time>
      </trkpt>
      <trkpt lat="43.69136" lon="5.88026">
        <ele>509</ele>
        <time>2015-10-31T08:55:20.281Z</time>
      </trkpt>
      <trkpt lat="43.69139" lon="5.88037">
        <ele>509</ele>
        <time>2015-10-31T08:55:24.303Z</time>
      </trkpt>
      <trkpt lat="43.69141" lon="5.8804">
        <ele>509</ele>
        <time>2015-10-31T08:55:25.280Z</time>
      </trkpt>
      <trkpt lat="43.69145" lon="5.88047">
        <ele>510</ele>
        <time>2015-10-31T08:55:28.302Z</time>
      </trkpt>
      <trkpt lat="43.69146" lon="5.8805">
        <ele>510</ele>
        <time>2015-10-31T08:55:29.283Z</time>
      </trkpt>
      <trkpt lat="43.69147" lon="5.88059">
        <ele>510</ele>
        <time>2015-10-31T08:55:32.305Z</time>
      </trkpt>
      <trkpt lat="43.69147" lon="5.88062">
        <ele>510</ele>
        <time>2015-10-31T08:55:33.280Z</time>
      </trkpt>
      <trkpt lat="43.69141" lon="5.88072">
        <ele>511</ele>
        <time>2015-10-31T08:55:37.348Z</time>
      </trkpt>
      <trkpt lat="43.69141" lon="5.88074">
        <ele>511</ele>
        <time>2015-10-31T08:55:38.273Z</time>
      </trkpt>
      <trkpt lat="43.69145" lon="5.88084">
        <ele>511</ele>
        <time>2015-10-31T08:55:41.305Z</time>
      </trkpt>
      <trkpt lat="43.69146" lon="5.88087">
        <ele>511</ele>
        <time>2015-10-31T08:55:42.282Z</time>
      </trkpt>
      <trkpt lat="43.69148" lon="5.88096">
        <ele>511</ele>
        <time>2015-10-31T08:55:45.303Z</time>
      </trkpt>
      <trkpt lat="43.69148" lon="5.88099">
        <ele>511</ele>
        <time>2015-10-31T08:55:46.281Z</time>
      </trkpt>
      <trkpt lat="43.69147" lon="5.8811">
        <ele>512</ele>
        <time>2015-10-31T08:55:49.304Z</time>
      </trkpt>
      <trkpt lat="43.69147" lon="5.88114">
        <ele>512</ele>
        <time>2015-10-31T08:55:50.283Z</time>
      </trkpt>
      <trkpt lat="43.69148" lon="5.88124">
        <ele>513</ele>
        <time>2015-10-31T08:55:53.316Z</time>
      </trkpt>
      <trkpt lat="43.69148" lon="5.88128">
        <ele>512</ele>
        <time>2015-10-31T08:55:54.282Z</time>
      </trkpt>
      <trkpt lat="43.6915" lon="5.88139">
        <ele>512</ele>
        <time>2015-10-31T08:55:57.304Z</time>
      </trkpt>
      <trkpt lat="43.69151" lon="5.88142">
        <ele>512</ele>
        <time>2015-10-31T08:55:58.292Z</time>
      </trkpt>
      <trkpt lat="43.69153" lon="5.88153">
        <ele>513</ele>
        <time>2015-10-31T08:56:01.304Z</time>
      </trkpt>
      <trkpt lat="43.69154" lon="5.88157">
        <ele>513</ele>
        <time>2015-10-31T08:56:02.282Z</time>
      </trkpt>
      <trkpt lat="43.69157" lon="5.88167">
        <ele>513</ele>
        <time>2015-10-31T08:56:05.539Z</time>
      </trkpt>
      <trkpt lat="43.69157" lon="5.8817">
        <ele>513</ele>
        <time>2015-10-31T08:56:06.283Z</time>
      </trkpt>
      <trkpt lat="43.69158" lon="5.88181">
        <ele>513</ele>
        <time>2015-10-31T08:56:09.306Z</time>
      </trkpt>
      <trkpt lat="43.69159" lon="5.88184">
        <ele>513</ele>
        <time>2015-10-31T08:56:10.282Z</time>
      </trkpt>
      <trkpt lat="43.69162" lon="5.88194">
        <ele>513</ele>
        <time>2015-10-31T08:56:13.329Z</time>
      </trkpt>
      <trkpt lat="43.69163" lon="5.88197">
        <ele>513</ele>
        <time>2015-10-31T08:56:14.308Z</time>
      </trkpt>
      <trkpt lat="43.69164" lon="5.88207">
        <ele>513</ele>
        <time>2015-10-31T08:56:17.304Z</time>
      </trkpt>
      <trkpt lat="43.69165" lon="5.8821">
        <ele>514</ele>
        <time>2015-10-31T08:56:18.281Z</time>
      </trkpt>
      <trkpt lat="43.69166" lon="5.88221">
        <ele>514</ele>
        <time>2015-10-31T08:56:21.306Z</time>
      </trkpt>
      <trkpt lat="43.69167" lon="5.88226">
        <ele>514</ele>
        <time>2015-10-31T08:56:22.293Z</time>
      </trkpt>
      <trkpt lat="43.6917" lon="5.88236">
        <ele>514</ele>
        <time>2015-10-31T08:56:24.316Z</time>
      </trkpt>
      <trkpt lat="43.69172" lon="5.88241">
        <ele>514</ele>
        <time>2015-10-31T08:56:25.283Z</time>
      </trkpt>
      <trkpt lat="43.69175" lon="5.8825">
        <ele>514</ele>
        <time>2015-10-31T08:56:27.310Z</time>
      </trkpt>
      <trkpt lat="43.69176" lon="5.88253">
        <ele>514</ele>
        <time>2015-10-31T08:56:28.283Z</time>
      </trkpt>
      <trkpt lat="43.69179" lon="5.88263">
        <ele>514</ele>
        <time>2015-10-31T08:56:31.305Z</time>
      </trkpt>
      <trkpt lat="43.6918" lon="5.88266">
        <ele>514</ele>
        <time>2015-10-31T08:56:32.284Z</time>
      </trkpt>
      <trkpt lat="43.69182" lon="5.88277">
        <ele>514</ele>
        <time>2015-10-31T08:56:35.315Z</time>
      </trkpt>
      <trkpt lat="43.69182" lon="5.8828">
        <ele>514</ele>
        <time>2015-10-31T08:56:36.283Z</time>
      </trkpt>
      <trkpt lat="43.69183" lon="5.88291">
        <ele>515</ele>
        <time>2015-10-31T08:56:39.317Z</time>
      </trkpt>
      <trkpt lat="43.69184" lon="5.88295">
        <ele>515</ele>
        <time>2015-10-31T08:56:40.282Z</time>
      </trkpt>
      <trkpt lat="43.69185" lon="5.88306">
        <ele>515</ele>
        <time>2015-10-31T08:56:43.309Z</time>
      </trkpt>
      <trkpt lat="43.69185" lon="5.8831">
        <ele>515</ele>
        <time>2015-10-31T08:56:44.281Z</time>
      </trkpt>
      <trkpt lat="43.69187" lon="5.88321">
        <ele>515</ele>
        <time>2015-10-31T08:56:47.308Z</time>
      </trkpt>
      <trkpt lat="43.69188" lon="5.88325">
        <ele>515</ele>
        <time>2015-10-31T08:56:48.284Z</time>
      </trkpt>
      <trkpt lat="43.69189" lon="5.88336">
        <ele>515</ele>
        <time>2015-10-31T08:56:51.304Z</time>
      </trkpt>
      <trkpt lat="43.69189" lon="5.8834">
        <ele>515</ele>
        <time>2015-10-31T08:56:52.294Z</time>
      </trkpt>
      <trkpt lat="43.69191" lon="5.88351">
        <ele>515</ele>
        <time>2015-10-31T08:56:55.307Z</time>
      </trkpt>
      <trkpt lat="43.69191" lon="5.88356">
        <ele>515</ele>
        <time>2015-10-31T08:56:56.283Z</time>
      </trkpt>
      <trkpt lat="43.69194" lon="5.88367">
        <ele>515</ele>
        <time>2015-10-31T08:56:59.304Z</time>
      </trkpt>
      <trkpt lat="43.69194" lon="5.88371">
        <ele>515</ele>
        <time>2015-10-31T08:57:00.283Z</time>
      </trkpt>
      <trkpt lat="43.69193" lon="5.88383">
        <ele>516</ele>
        <time>2015-10-31T08:57:03.315Z</time>
      </trkpt>
      <trkpt lat="43.69193" lon="5.88387">
        <ele>515</ele>
        <time>2015-10-31T08:57:04.283Z</time>
      </trkpt>
      <trkpt lat="43.69193" lon="5.88398">
        <ele>516</ele>
        <time>2015-10-31T08:57:07.316Z</time>
      </trkpt>
      <trkpt lat="43.69193" lon="5.88402">
        <ele>516</ele>
        <time>2015-10-31T08:57:08.283Z</time>
      </trkpt>
      <trkpt lat="43.69195" lon="5.88414">
        <ele>516</ele>
        <time>2015-10-31T08:57:11.306Z</time>
      </trkpt>
      <trkpt lat="43.69196" lon="5.88419">
        <ele>516</ele>
        <time>2015-10-31T08:57:12.294Z</time>
      </trkpt>
      <trkpt lat="43.69199" lon="5.8843">
        <ele>516</ele>
        <time>2015-10-31T08:57:15.306Z</time>
      </trkpt>
      <trkpt lat="43.69199" lon="5.88434">
        <ele>516</ele>
        <time>2015-10-31T08:57:16.282Z</time>
      </trkpt>
      <trkpt lat="43.69202" lon="5.88445">
        <ele>516</ele>
        <time>2015-10-31T08:57:19.315Z</time>
      </trkpt>
      <trkpt lat="43.69202" lon="5.88449">
        <ele>516</ele>
        <time>2015-10-31T08:57:20.293Z</time>
      </trkpt>
      <trkpt lat="43.69204" lon="5.8846">
        <ele>516</ele>
        <time>2015-10-31T08:57:23.305Z</time>
      </trkpt>
      <trkpt lat="43.69205" lon="5.88464">
        <ele>515</ele>
        <time>2015-10-31T08:57:24.291Z</time>
      </trkpt>
      <trkpt lat="43.69207" lon="5.88472">
        <ele>516</ele>
        <time>2015-10-31T08:57:26.305Z</time>
      </trkpt>
      <trkpt lat="43.69208" lon="5.88476">
        <ele>516</ele>
        <time>2015-10-31T08:57:27.284Z</time>
      </trkpt>
      <trkpt lat="43.69209" lon="5.88484">
        <ele>516</ele>
        <time>2015-10-31T08:57:29.305Z</time>
      </trkpt>
      <trkpt lat="43.6921" lon="5.88488">
        <ele>516</ele>
        <time>2015-10-31T08:57:30.283Z</time>
      </trkpt>
      <trkpt lat="43.69213" lon="5.88495">
        <ele>516</ele>
        <time>2015-10-31T08:57:32.316Z</time>
      </trkpt>
      <trkpt lat="43.69214" lon="5.88499">
        <ele>516</ele>
        <time>2015-10-31T08:57:33.283Z</time>
      </trkpt>
      <trkpt lat="43.69218" lon="5.8851">
        <ele>516</ele>
        <time>2015-10-31T08:57:36.305Z</time>
      </trkpt>
      <trkpt lat="43.6922" lon="5.88513">
        <ele>516</ele>
        <time>2015-10-31T08:57:37.294Z</time>
      </trkpt>
      <trkpt lat="43.69223" lon="5.8852">
        <ele>516</ele>
        <time>2015-10-31T08:57:39.306Z</time>
      </trkpt>
      <trkpt lat="43.69225" lon="5.88523">
        <ele>516</ele>
        <time>2015-10-31T08:57:40.283Z</time>
      </trkpt>
      <trkpt lat="43.69231" lon="5.88533">
        <ele>516</ele>
        <time>2015-10-31T08:57:43.305Z</time>
      </trkpt>
      <trkpt lat="43.69232" lon="5.88537">
        <ele>516</ele>
        <time>2015-10-31T08:57:44.286Z</time>
      </trkpt>
      <trkpt lat="43.69232" lon="5.88549">
        <ele>516</ele>
        <time>2015-10-31T08:57:47.305Z</time>
      </trkpt>
      <trkpt lat="43.69233" lon="5.88553">
        <ele>516</ele>
        <time>2015-10-31T08:57:48.283Z</time>
      </trkpt>
      <trkpt lat="43.69238" lon="5.88563">
        <ele>517</ele>
        <time>2015-10-31T08:57:51.317Z</time>
      </trkpt>
      <trkpt lat="43.69239" lon="5.88567">
        <ele>517</ele>
        <time>2015-10-31T08:57:52.282Z</time>
      </trkpt>
      <trkpt lat="43.69242" lon="5.88578">
        <ele>517</ele>
        <time>2015-10-31T08:57:55.307Z</time>
      </trkpt>
      <trkpt lat="43.69244" lon="5.88582">
        <ele>517</ele>
        <time>2015-10-31T08:57:56.288Z</time>
      </trkpt>
      <trkpt lat="43.69247" lon="5.88592">
        <ele>517</ele>
        <time>2015-10-31T08:57:59.305Z</time>
      </trkpt>
      <trkpt lat="43.69249" lon="5.88596">
        <ele>517</ele>
        <time>2015-10-31T08:58:00.286Z</time>
      </trkpt>
      <trkpt lat="43.69253" lon="5.88606">
        <ele>517</ele>
        <time>2015-10-31T08:58:03.307Z</time>
      </trkpt>
      <trkpt lat="43.69254" lon="5.8861">
        <ele>517</ele>
        <time>2015-10-31T08:58:04.292Z</time>
      </trkpt>
      <trkpt lat="43.69258" lon="5.8862">
        <ele>518</ele>
        <time>2015-10-31T08:58:07.314Z</time>
      </trkpt>
      <trkpt lat="43.69258" lon="5.88624">
        <ele>518</ele>
        <time>2015-10-31T08:58:08.293Z</time>
      </trkpt>
      <trkpt lat="43.69261" lon="5.88636">
        <ele>518</ele>
        <time>2015-10-31T08:58:11.357Z</time>
      </trkpt>
      <trkpt lat="43.69262" lon="5.88639">
        <ele>519</ele>
        <time>2015-10-31T08:58:12.283Z</time>
      </trkpt>
      <trkpt lat="43.69266" lon="5.8865">
        <ele>518</ele>
        <time>2015-10-31T08:58:15.307Z</time>
      </trkpt>
      <trkpt lat="43.69268" lon="5.88653">
        <ele>518</ele>
        <time>2015-10-31T08:58:16.284Z</time>
      </trkpt>
      <trkpt lat="43.69272" lon="5.88662">
        <ele>519</ele>
        <time>2015-10-31T08:58:19.315Z</time>
      </trkpt>
      <trkpt lat="43.69274" lon="5.88665">
        <ele>519</ele>
        <time>2015-10-31T08:58:20.283Z</time>
      </trkpt>
      <trkpt lat="43.6928" lon="5.88673">
        <ele>519</ele>
        <time>2015-10-31T08:58:23.326Z</time>
      </trkpt>
      <trkpt lat="43.69281" lon="5.88676">
        <ele>519</ele>
        <time>2015-10-31T08:58:24.283Z</time>
      </trkpt>
      <trkpt lat="43.69286" lon="5.88684">
        <ele>519</ele>
        <time>2015-10-31T08:58:27.305Z</time>
      </trkpt>
      <trkpt lat="43.69287" lon="5.88687">
        <ele>519</ele>
        <time>2015-10-31T08:58:28.294Z</time>
      </trkpt>
      <trkpt lat="43.6929" lon="5.88697">
        <ele>519</ele>
        <time>2015-10-31T08:58:31.305Z</time>
      </trkpt>
      <trkpt lat="43.69291" lon="5.887">
        <ele>519</ele>
        <time>2015-10-31T08:58:32.282Z</time>
      </trkpt>
      <trkpt lat="43.69296" lon="5.88709">
        <ele>520</ele>
        <time>2015-10-31T08:58:35.300Z</time>
      </trkpt>
      <trkpt lat="43.69297" lon="5.88711">
        <ele>519</ele>
        <time>2015-10-31T08:58:36.280Z</time>
      </trkpt>
      <trkpt lat="43.693" lon="5.88721">
        <ele>520</ele>
        <time>2015-10-31T08:58:39.317Z</time>
      </trkpt>
      <trkpt lat="43.69301" lon="5.88724">
        <ele>520</ele>
        <time>2015-10-31T08:58:40.281Z</time>
      </trkpt>
      <trkpt lat="43.69303" lon="5.88733">
        <ele>520</ele>
        <time>2015-10-31T08:58:43.300Z</time>
      </trkpt>
      <trkpt lat="43.69302" lon="5.88737">
        <ele>520</ele>
        <time>2015-10-31T08:58:44.288Z</time>
      </trkpt>
      <trkpt lat="43.69302" lon="5.88746">
        <ele>520</ele>
        <time>2015-10-31T08:58:47.300Z</time>
      </trkpt>
      <trkpt lat="43.69302" lon="5.8875">
        <ele>520</ele>
        <time>2015-10-31T08:58:48.280Z</time>
      </trkpt>
      <trkpt lat="43.69302" lon="5.88762">
        <ele>520</ele>
        <time>2015-10-31T08:58:51.301Z</time>
      </trkpt>
      <trkpt lat="43.69302" lon="5.88766">
        <ele>520</ele>
        <time>2015-10-31T08:58:52.288Z</time>
      </trkpt>
      <trkpt lat="43.69303" lon="5.88778">
        <ele>520</ele>
        <time>2015-10-31T08:58:55.358Z</time>
      </trkpt>
      <trkpt lat="43.69303" lon="5.88782">
        <ele>520</ele>
        <time>2015-10-31T08:58:56.282Z</time>
      </trkpt>
      <trkpt lat="43.69304" lon="5.88795">
        <ele>520</ele>
        <time>2015-10-31T08:58:59.305Z</time>
      </trkpt>
      <trkpt lat="43.69304" lon="5.88799">
        <ele>520</ele>
        <time>2015-10-31T08:59:00.282Z</time>
      </trkpt>
      <trkpt lat="43.69308" lon="5.8881">
        <ele>520</ele>
        <time>2015-10-31T08:59:03.306Z</time>
      </trkpt>
      <trkpt lat="43.69309" lon="5.88814">
        <ele>520</ele>
        <time>2015-10-31T08:59:04.278Z</time>
      </trkpt>
      <trkpt lat="43.69312" lon="5.88824">
        <ele>521</ele>
        <time>2015-10-31T08:59:07.304Z</time>
      </trkpt>
      <trkpt lat="43.69313" lon="5.88827">
        <ele>520</ele>
        <time>2015-10-31T08:59:08.282Z</time>
      </trkpt>
      <trkpt lat="43.69315" lon="5.88838">
        <ele>519</ele>
        <time>2015-10-31T08:59:13.372Z</time>
      </trkpt>
      <trkpt lat="43.69316" lon="5.88841">
        <ele>519</ele>
        <time>2015-10-31T08:59:14.284Z</time>
      </trkpt>
      <trkpt lat="43.69321" lon="5.88849">
        <ele>519</ele>
        <time>2015-10-31T08:59:17.305Z</time>
      </trkpt>
      <trkpt lat="43.69322" lon="5.88852">
        <ele>519</ele>
        <time>2015-10-31T08:59:18.294Z</time>
      </trkpt>
      <trkpt lat="43.69327" lon="5.8886">
        <ele>520</ele>
        <time>2015-10-31T08:59:21.305Z</time>
      </trkpt>
      <trkpt lat="43.69329" lon="5.88863">
        <ele>520</ele>
        <time>2015-10-31T08:59:22.282Z</time>
      </trkpt>
      <trkpt lat="43.69334" lon="5.88872">
        <ele>521</ele>
        <time>2015-10-31T08:59:25.305Z</time>
      </trkpt>
      <trkpt lat="43.69336" lon="5.88874">
        <ele>521</ele>
        <time>2015-10-31T08:59:26.309Z</time>
      </trkpt>
      <trkpt lat="43.6934" lon="5.88882">
        <ele>522</ele>
        <time>2015-10-31T08:59:29.306Z</time>
      </trkpt>
      <trkpt lat="43.69342" lon="5.88885">
        <ele>522</ele>
        <time>2015-10-31T08:59:30.282Z</time>
      </trkpt>
      <trkpt lat="43.69348" lon="5.88891">
        <ele>522</ele>
        <time>2015-10-31T08:59:33.304Z</time>
      </trkpt>
      <trkpt lat="43.69349" lon="5.88893">
        <ele>522</ele>
        <time>2015-10-31T08:59:34.284Z</time>
      </trkpt>
      <trkpt lat="43.69355" lon="5.889">
        <ele>522</ele>
        <time>2015-10-31T08:59:37.307Z</time>
      </trkpt>
      <trkpt lat="43.69356" lon="5.88902">
        <ele>522</ele>
        <time>2015-10-31T08:59:38.282Z</time>
      </trkpt>
      <trkpt lat="43.69362" lon="5.88909">
        <ele>521</ele>
        <time>2015-10-31T08:59:41.307Z</time>
      </trkpt>
      <trkpt lat="43.69363" lon="5.88911">
        <ele>522</ele>
        <time>2015-10-31T08:59:42.309Z</time>
      </trkpt>
      <trkpt lat="43.69369" lon="5.88918">
        <ele>522</ele>
        <time>2015-10-31T08:59:45.305Z</time>
      </trkpt>
      <trkpt lat="43.69371" lon="5.88921">
        <ele>522</ele>
        <time>2015-10-31T08:59:46.282Z</time>
      </trkpt>
      <trkpt lat="43.69378" lon="5.88929">
        <ele>521</ele>
        <time>2015-10-31T08:59:49.306Z</time>
      </trkpt>
      <trkpt lat="43.6938" lon="5.88931">
        <ele>521</ele>
        <time>2015-10-31T08:59:50.283Z</time>
      </trkpt>
      <trkpt lat="43.69386" lon="5.88939">
        <ele>522</ele>
        <time>2015-10-31T08:59:53.304Z</time>
      </trkpt>
      <trkpt lat="43.69389" lon="5.88941">
        <ele>523</ele>
        <time>2015-10-31T08:59:54.283Z</time>
      </trkpt>
      <trkpt lat="43.69395" lon="5.88948">
        <ele>522</ele>
        <time>2015-10-31T08:59:57.323Z</time>
      </trkpt>
      <trkpt lat="43.69397" lon="5.8895">
        <ele>523</ele>
        <time>2015-10-31T08:59:58.309Z</time>
      </trkpt>
      <trkpt lat="43.69402" lon="5.88956">
        <ele>525</ele>
        <time>2015-10-31T09:00:01.304Z</time>
      </trkpt>
      <trkpt lat="43.69403" lon="5.88959">
        <ele>525</ele>
        <time>2015-10-31T09:00:02.282Z</time>
      </trkpt>
      <trkpt lat="43.69409" lon="5.88965">
        <ele>526</ele>
        <time>2015-10-31T09:00:05.304Z</time>
      </trkpt>
      <trkpt lat="43.69411" lon="5.88968">
        <ele>526</ele>
        <time>2015-10-31T09:00:06.283Z</time>
      </trkpt>
      <trkpt lat="43.69417" lon="5.88976">
        <ele>528</ele>
        <time>2015-10-31T09:00:10.306Z</time>
      </trkpt>
      <trkpt lat="43.69419" lon="5.88978">
        <ele>528</ele>
        <time>2015-10-31T09:00:11.281Z</time>
      </trkpt>
      <trkpt lat="43.69424" lon="5.88984">
        <ele>529</ele>
        <time>2015-10-31T09:00:14.299Z</time>
      </trkpt>
      <trkpt lat="43.69426" lon="5.88985">
        <ele>529</ele>
        <time>2015-10-31T09:00:15.284Z</time>
      </trkpt>
      <trkpt lat="43.69433" lon="5.88991">
        <ele>528</ele>
        <time>2015-10-31T09:00:18.319Z</time>
      </trkpt>
      <trkpt lat="43.69435" lon="5.88993">
        <ele>528</ele>
        <time>2015-10-31T09:00:19.284Z</time>
      </trkpt>
      <trkpt lat="43.69441" lon="5.89">
        <ele>528</ele>
        <time>2015-10-31T09:00:22.312Z</time>
      </trkpt>
      <trkpt lat="43.69443" lon="5.89002">
        <ele>527</ele>
        <time>2015-10-31T09:00:23.282Z</time>
      </trkpt>
      <trkpt lat="43.6945" lon="5.89009">
        <ele>525</ele>
        <time>2015-10-31T09:00:26.306Z</time>
      </trkpt>
      <trkpt lat="43.69453" lon="5.89011">
        <ele>525</ele>
        <time>2015-10-31T09:00:27.283Z</time>
      </trkpt>
      <trkpt lat="43.69458" lon="5.89016">
        <ele>524</ele>
        <time>2015-10-31T09:00:29.317Z</time>
      </trkpt>
      <trkpt lat="43.69461" lon="5.89018">
        <ele>525</ele>
        <time>2015-10-31T09:00:30.309Z</time>
      </trkpt>
      <trkpt lat="43.69468" lon="5.89024">
        <ele>526</ele>
        <time>2015-10-31T09:00:32.306Z</time>
      </trkpt>
      <trkpt lat="43.69471" lon="5.89026">
        <ele>526</ele>
        <time>2015-10-31T09:00:33.283Z</time>
      </trkpt>
      <trkpt lat="43.69477" lon="5.89031">
        <ele>527</ele>
        <time>2015-10-31T09:00:35.317Z</time>
      </trkpt>
      <trkpt lat="43.6948" lon="5.89033">
        <ele>527</ele>
        <time>2015-10-31T09:00:36.283Z</time>
      </trkpt>
      <trkpt lat="43.69486" lon="5.89038">
        <ele>527</ele>
        <time>2015-10-31T09:00:38.306Z</time>
      </trkpt>
      <trkpt lat="43.69489" lon="5.8904">
        <ele>527</ele>
        <time>2015-10-31T09:00:39.283Z</time>
      </trkpt>
      <trkpt lat="43.69495" lon="5.89044">
        <ele>527</ele>
        <time>2015-10-31T09:00:41.330Z</time>
      </trkpt>
      <trkpt lat="43.69498" lon="5.89047">
        <ele>527</ele>
        <time>2015-10-31T09:00:42.282Z</time>
      </trkpt>
      <trkpt lat="43.69504" lon="5.89051">
        <ele>527</ele>
        <time>2015-10-31T09:00:44.304Z</time>
      </trkpt>
      <trkpt lat="43.69507" lon="5.89054">
        <ele>527</ele>
        <time>2015-10-31T09:00:45.283Z</time>
      </trkpt>
      <trkpt lat="43.69513" lon="5.89058">
        <ele>527</ele>
        <time>2015-10-31T09:00:47.312Z</time>
      </trkpt>
      <trkpt lat="43.69517" lon="5.89061">
        <ele>528</ele>
        <time>2015-10-31T09:00:48.284Z</time>
      </trkpt>
      <trkpt lat="43.69523" lon="5.89065">
        <ele>528</ele>
        <time>2015-10-31T09:00:50.316Z</time>
      </trkpt>
      <trkpt lat="43.69526" lon="5.89068">
        <ele>528</ele>
        <time>2015-10-31T09:00:51.283Z</time>
      </trkpt>
      <trkpt lat="43.69532" lon="5.89073">
        <ele>528</ele>
        <time>2015-10-31T09:00:53.306Z</time>
      </trkpt>
      <trkpt lat="43.69535" lon="5.89075">
        <ele>528</ele>
        <time>2015-10-31T09:00:54.283Z</time>
      </trkpt>
      <trkpt lat="43.69542" lon="5.8908">
        <ele>529</ele>
        <time>2015-10-31T09:00:56.306Z</time>
      </trkpt>
      <trkpt lat="43.69545" lon="5.89083">
        <ele>529</ele>
        <time>2015-10-31T09:00:57.284Z</time>
      </trkpt>
      <trkpt lat="43.69551" lon="5.89087">
        <ele>530</ele>
        <time>2015-10-31T09:00:59.304Z</time>
      </trkpt>
      <trkpt lat="43.69554" lon="5.8909">
        <ele>529</ele>
        <time>2015-10-31T09:01:00.293Z</time>
      </trkpt>
      <trkpt lat="43.6956" lon="5.89095">
        <ele>530</ele>
        <time>2015-10-31T09:01:02.306Z</time>
      </trkpt>
      <trkpt lat="43.69562" lon="5.89098">
        <ele>530</ele>
        <time>2015-10-31T09:01:03.291Z</time>
      </trkpt>
      <trkpt lat="43.69567" lon="5.89105">
        <ele>531</ele>
        <time>2015-10-31T09:01:05.299Z</time>
      </trkpt>
      <trkpt lat="43.6957" lon="5.89108">
        <ele>530</ele>
        <time>2015-10-31T09:01:06.281Z</time>
      </trkpt>
      <trkpt lat="43.69574" lon="5.89115">
        <ele>531</ele>
        <time>2015-10-31T09:01:08.299Z</time>
      </trkpt>
      <trkpt lat="43.69576" lon="5.89119">
        <ele>531</ele>
        <time>2015-10-31T09:01:09.280Z</time>
      </trkpt>
      <trkpt lat="43.69579" lon="5.89127">
        <ele>531</ele>
        <time>2015-10-31T09:01:11.302Z</time>
      </trkpt>
      <trkpt lat="43.6958" lon="5.89132">
        <ele>531</ele>
        <time>2015-10-31T09:01:12.280Z</time>
      </trkpt>
      <trkpt lat="43.69583" lon="5.8914">
        <ele>531</ele>
        <time>2015-10-31T09:01:14.495Z</time>
      </trkpt>
      <trkpt lat="43.69584" lon="5.89144">
        <ele>531</ele>
        <time>2015-10-31T09:01:15.280Z</time>
      </trkpt>
      <trkpt lat="43.69587" lon="5.89156">
        <ele>532</ele>
        <time>2015-10-31T09:01:18.309Z</time>
      </trkpt>
      <trkpt lat="43.69587" lon="5.89159">
        <ele>532</ele>
        <time>2015-10-31T09:01:19.304Z</time>
      </trkpt>
      <trkpt lat="43.69583" lon="5.89169">
        <ele>532</ele>
        <time>2015-10-31T09:01:23.316Z</time>
      </trkpt>
      <trkpt lat="43.6958" lon="5.89171">
        <ele>532</ele>
        <time>2015-10-31T09:01:24.283Z</time>
      </trkpt>
      <trkpt lat="43.69573" lon="5.89174">
        <ele>533</ele>
        <time>2015-10-31T09:01:27.311Z</time>
      </trkpt>
      <trkpt lat="43.69569" lon="5.89175">
        <ele>533</ele>
        <time>2015-10-31T09:01:28.282Z</time>
      </trkpt>
      <trkpt lat="43.69563" lon="5.89179">
        <ele>533</ele>
        <time>2015-10-31T09:01:30.332Z</time>
      </trkpt>
      <trkpt lat="43.69559" lon="5.89181">
        <ele>533</ele>
        <time>2015-10-31T09:01:31.287Z</time>
      </trkpt>
      <trkpt lat="43.69553" lon="5.89185">
        <ele>533</ele>
        <time>2015-10-31T09:01:33.306Z</time>
      </trkpt>
      <trkpt lat="43.69551" lon="5.89188">
        <ele>533</ele>
        <time>2015-10-31T09:01:34.283Z</time>
      </trkpt>
      <trkpt lat="43.69545" lon="5.89193">
        <ele>533</ele>
        <time>2015-10-31T09:01:36.358Z</time>
      </trkpt>
      <trkpt lat="43.69542" lon="5.89196">
        <ele>533</ele>
        <time>2015-10-31T09:01:37.285Z</time>
      </trkpt>
      <trkpt lat="43.69537" lon="5.89202">
        <ele>534</ele>
        <time>2015-10-31T09:01:39.337Z</time>
      </trkpt>
      <trkpt lat="43.69535" lon="5.89206">
        <ele>534</ele>
        <time>2015-10-31T09:01:40.284Z</time>
      </trkpt>
      <trkpt lat="43.6953" lon="5.89212">
        <ele>534</ele>
        <time>2015-10-31T09:01:42.318Z</time>
      </trkpt>
      <trkpt lat="43.69528" lon="5.89216">
        <ele>535</ele>
        <time>2015-10-31T09:01:43.284Z</time>
      </trkpt>
      <trkpt lat="43.69524" lon="5.89223">
        <ele>534</ele>
        <time>2015-10-31T09:01:45.317Z</time>
      </trkpt>
      <trkpt lat="43.69522" lon="5.89226">
        <ele>535</ele>
        <time>2015-10-31T09:01:46.284Z</time>
      </trkpt>
      <trkpt lat="43.69518" lon="5.89234">
        <ele>535</ele>
        <time>2015-10-31T09:01:48.305Z</time>
      </trkpt>
      <trkpt lat="43.69516" lon="5.89238">
        <ele>535</ele>
        <time>2015-10-31T09:01:49.283Z</time>
      </trkpt>
      <trkpt lat="43.69512" lon="5.89245">
        <ele>536</ele>
        <time>2015-10-31T09:01:51.307Z</time>
      </trkpt>
      <trkpt lat="43.6951" lon="5.89249">
        <ele>536</ele>
        <time>2015-10-31T09:01:52.309Z</time>
      </trkpt>
      <trkpt lat="43.69506" lon="5.89257">
        <ele>536</ele>
        <time>2015-10-31T09:01:54.318Z</time>
      </trkpt>
      <trkpt lat="43.69504" lon="5.8926">
        <ele>536</ele>
        <time>2015-10-31T09:01:55.283Z</time>
      </trkpt>
      <trkpt lat="43.695" lon="5.89268">
        <ele>536</ele>
        <time>2015-10-31T09:01:57.315Z</time>
      </trkpt>
      <trkpt lat="43.69498" lon="5.89272">
        <ele>536</ele>
        <time>2015-10-31T09:01:58.283Z</time>
      </trkpt>
      <trkpt lat="43.69493" lon="5.8928">
        <ele>536</ele>
        <time>2015-10-31T09:02:00.299Z</time>
      </trkpt>
      <trkpt lat="43.69491" lon="5.89284">
        <ele>536</ele>
        <time>2015-10-31T09:02:01.281Z</time>
      </trkpt>
      <trkpt lat="43.69486" lon="5.89292">
        <ele>537</ele>
        <time>2015-10-31T09:02:03.346Z</time>
      </trkpt>
      <trkpt lat="43.69484" lon="5.89295">
        <ele>537</ele>
        <time>2015-10-31T09:02:04.284Z</time>
      </trkpt>
      <trkpt lat="43.69479" lon="5.89303">
        <ele>537</ele>
        <time>2015-10-31T09:02:06.316Z</time>
      </trkpt>
      <trkpt lat="43.69477" lon="5.89306">
        <ele>537</ele>
        <time>2015-10-31T09:02:07.283Z</time>
      </trkpt>
      <trkpt lat="43.69473" lon="5.89314">
        <ele>537</ele>
        <time>2015-10-31T09:02:09.357Z</time>
      </trkpt>
      <trkpt lat="43.69471" lon="5.89317">
        <ele>537</ele>
        <time>2015-10-31T09:02:10.282Z</time>
      </trkpt>
      <trkpt lat="43.69466" lon="5.89324">
        <ele>538</ele>
        <time>2015-10-31T09:02:12.314Z</time>
      </trkpt>
      <trkpt lat="43.69464" lon="5.89328">
        <ele>538</ele>
        <time>2015-10-31T09:02:13.284Z</time>
      </trkpt>
      <trkpt lat="43.6946" lon="5.89334">
        <ele>539</ele>
        <time>2015-10-31T09:02:15.306Z</time>
      </trkpt>
      <trkpt lat="43.69457" lon="5.89338">
        <ele>539</ele>
        <time>2015-10-31T09:02:16.290Z</time>
      </trkpt>
      <trkpt lat="43.69452" lon="5.89344">
        <ele>540</ele>
        <time>2015-10-31T09:02:18.317Z</time>
      </trkpt>
      <trkpt lat="43.6945" lon="5.89347">
        <ele>540</ele>
        <time>2015-10-31T09:02:19.283Z</time>
      </trkpt>
      <trkpt lat="43.69445" lon="5.89353">
        <ele>540</ele>
        <time>2015-10-31T09:02:21.521Z</time>
      </trkpt>
      <trkpt lat="43.69442" lon="5.89356">
        <ele>540</ele>
        <time>2015-10-31T09:02:22.284Z</time>
      </trkpt>
      <trkpt lat="43.69437" lon="5.89362">
        <ele>540</ele>
        <time>2015-10-31T09:02:24.308Z</time>
      </trkpt>
      <trkpt lat="43.69434" lon="5.89365">
        <ele>540</ele>
        <time>2015-10-31T09:02:25.284Z</time>
      </trkpt>
      <trkpt lat="43.69429" lon="5.89371">
        <ele>541</ele>
        <time>2015-10-31T09:02:27.305Z</time>
      </trkpt>
      <trkpt lat="43.69427" lon="5.89375">
        <ele>540</ele>
        <time>2015-10-31T09:02:28.282Z</time>
      </trkpt>
      <trkpt lat="43.69422" lon="5.89381">
        <ele>541</ele>
        <time>2015-10-31T09:02:30.333Z</time>
      </trkpt>
      <trkpt lat="43.6942" lon="5.89385">
        <ele>541</ele>
        <time>2015-10-31T09:02:31.283Z</time>
      </trkpt>
      <trkpt lat="43.69415" lon="5.89392">
        <ele>541</ele>
        <time>2015-10-31T09:02:33.335Z</time>
      </trkpt>
      <trkpt lat="43.69413" lon="5.89396">
        <ele>541</ele>
        <time>2015-10-31T09:02:34.284Z</time>
      </trkpt>
      <trkpt lat="43.69409" lon="5.89403">
        <ele>541</ele>
        <time>2015-10-31T09:02:36.306Z</time>
      </trkpt>
      <trkpt lat="43.69407" lon="5.89407">
        <ele>542</ele>
        <time>2015-10-31T09:02:37.282Z</time>
      </trkpt>
      <trkpt lat="43.69402" lon="5.89413">
        <ele>541</ele>
        <time>2015-10-31T09:02:39.317Z</time>
      </trkpt>
      <trkpt lat="43.694" lon="5.89417">
        <ele>541</ele>
        <time>2015-10-31T09:02:40.294Z</time>
      </trkpt>
      <trkpt lat="43.69396" lon="5.89424">
        <ele>541</ele>
        <time>2015-10-31T09:02:42.312Z</time>
      </trkpt>
      <trkpt lat="43.69393" lon="5.89428">
        <ele>541</ele>
        <time>2015-10-31T09:02:43.283Z</time>
      </trkpt>
      <trkpt lat="43.69388" lon="5.89435">
        <ele>542</ele>
        <time>2015-10-31T09:02:45.317Z</time>
      </trkpt>
      <trkpt lat="43.69386" lon="5.89439">
        <ele>543</ele>
        <time>2015-10-31T09:02:46.309Z</time>
      </trkpt>
      <trkpt lat="43.69381" lon="5.89447">
        <ele>543</ele>
        <time>2015-10-31T09:02:48.316Z</time>
      </trkpt>
      <trkpt lat="43.69379" lon="5.8945">
        <ele>543</ele>
        <time>2015-10-31T09:02:49.283Z</time>
      </trkpt>
      <trkpt lat="43.69375" lon="5.89457">
        <ele>542</ele>
        <time>2015-10-31T09:02:51.306Z</time>
      </trkpt>
      <trkpt lat="43.69373" lon="5.8946">
        <ele>542</ele>
        <time>2015-10-31T09:02:52.284Z</time>
      </trkpt>
      <trkpt lat="43.69368" lon="5.89469">
        <ele>542</ele>
        <time>2015-10-31T09:02:55.338Z</time>
      </trkpt>
      <trkpt lat="43.69366" lon="5.89473">
        <ele>542</ele>
        <time>2015-10-31T09:02:56.285Z</time>
      </trkpt>
      <trkpt lat="43.69362" lon="5.89479">
        <ele>542</ele>
        <time>2015-10-31T09:02:58.306Z</time>
      </trkpt>
      <trkpt lat="43.6936" lon="5.89483">
        <ele>543</ele>
        <time>2015-10-31T09:02:59.283Z</time>
      </trkpt>
      <trkpt lat="43.69356" lon="5.8949">
        <ele>543</ele>
        <time>2015-10-31T09:03:01.360Z</time>
      </trkpt>
      <trkpt lat="43.69354" lon="5.89494">
        <ele>543</ele>
        <time>2015-10-31T09:03:02.307Z</time>
      </trkpt>
      <trkpt lat="43.6935" lon="5.89501">
        <ele>543</ele>
        <time>2015-10-31T09:03:04.304Z</time>
      </trkpt>
      <trkpt lat="43.69348" lon="5.89504">
        <ele>543</ele>
        <time>2015-10-31T09:03:05.293Z</time>
      </trkpt>
      <trkpt lat="43.69344" lon="5.89511">
        <ele>543</ele>
        <time>2015-10-31T09:03:07.304Z</time>
      </trkpt>
      <trkpt lat="43.69342" lon="5.89515">
        <ele>543</ele>
        <time>2015-10-31T09:03:08.283Z</time>
      </trkpt>
      <trkpt lat="43.69338" lon="5.89522">
        <ele>543</ele>
        <time>2015-10-31T09:03:10.311Z</time>
      </trkpt>
      <trkpt lat="43.69336" lon="5.89525">
        <ele>543</ele>
        <time>2015-10-31T09:03:11.284Z</time>
      </trkpt>
      <trkpt lat="43.69332" lon="5.89533">
        <ele>543</ele>
        <time>2015-10-31T09:03:13.309Z</time>
      </trkpt>
      <trkpt lat="43.6933" lon="5.89536">
        <ele>543</ele>
        <time>2015-10-31T09:03:14.284Z</time>
      </trkpt>
      <trkpt lat="43.69327" lon="5.89544">
        <ele>543</ele>
        <time>2015-10-31T09:03:16.348Z</time>
      </trkpt>
      <trkpt lat="43.69325" lon="5.89548">
        <ele>543</ele>
        <time>2015-10-31T09:03:17.283Z</time>
      </trkpt>
      <trkpt lat="43.69322" lon="5.89555">
        <ele>543</ele>
        <time>2015-10-31T09:03:19.305Z</time>
      </trkpt>
      <trkpt lat="43.6932" lon="5.89558">
        <ele>543</ele>
        <time>2015-10-31T09:03:20.283Z</time>
      </trkpt>
      <trkpt lat="43.69317" lon="5.89565">
        <ele>544</ele>
        <time>2015-10-31T09:03:22.307Z</time>
      </trkpt>
      <trkpt lat="43.69315" lon="5.89569">
        <ele>544</ele>
        <time>2015-10-31T09:03:23.340Z</time>
      </trkpt>
      <trkpt lat="43.69312" lon="5.89576">
        <ele>544</ele>
        <time>2015-10-31T09:03:25.307Z</time>
      </trkpt>
      <trkpt lat="43.6931" lon="5.89579">
        <ele>544</ele>
        <time>2015-10-31T09:03:26.284Z</time>
      </trkpt>
      <trkpt lat="43.69305" lon="5.89589">
        <ele>545</ele>
        <time>2015-10-31T09:03:29.307Z</time>
      </trkpt>
      <trkpt lat="43.69303" lon="5.89593">
        <ele>546</ele>
        <time>2015-10-31T09:03:30.296Z</time>
      </trkpt>
      <trkpt lat="43.693" lon="5.896">
        <ele>546</ele>
        <time>2015-10-31T09:03:32.318Z</time>
      </trkpt>
      <trkpt lat="43.69298" lon="5.89603">
        <ele>546</ele>
        <time>2015-10-31T09:03:33.284Z</time>
      </trkpt>
      <trkpt lat="43.69293" lon="5.89613">
        <ele>546</ele>
        <time>2015-10-31T09:03:36.305Z</time>
      </trkpt>
      <trkpt lat="43.69291" lon="5.89616">
        <ele>546</ele>
        <time>2015-10-31T09:03:37.282Z</time>
      </trkpt>
      <trkpt lat="43.69286" lon="5.89626">
        <ele>547</ele>
        <time>2015-10-31T09:03:40.307Z</time>
      </trkpt>
      <trkpt lat="43.69284" lon="5.8963">
        <ele>547</ele>
        <time>2015-10-31T09:03:41.284Z</time>
      </trkpt>
      <trkpt lat="43.6928" lon="5.89641">
        <ele>548</ele>
        <time>2015-10-31T09:03:44.305Z</time>
      </trkpt>
      <trkpt lat="43.69279" lon="5.89644">
        <ele>548</ele>
        <time>2015-10-31T09:03:45.283Z</time>
      </trkpt>
      <trkpt lat="43.69274" lon="5.89654">
        <ele>549</ele>
        <time>2015-10-31T09:03:48.306Z</time>
      </trkpt>
      <trkpt lat="43.69273" lon="5.89658">
        <ele>549</ele>
        <time>2015-10-31T09:03:49.284Z</time>
      </trkpt>
      <trkpt lat="43.69268" lon="5.89668">
        <ele>549</ele>
        <time>2015-10-31T09:03:52.305Z</time>
      </trkpt>
      <trkpt lat="43.69266" lon="5.89672">
        <ele>549</ele>
        <time>2015-10-31T09:03:53.506Z</time>
      </trkpt>
      <trkpt lat="43.69262" lon="5.89682">
        <ele>550</ele>
        <time>2015-10-31T09:03:56.306Z</time>
      </trkpt>
      <trkpt lat="43.6926" lon="5.89686">
        <ele>550</ele>
        <time>2015-10-31T09:03:57.283Z</time>
      </trkpt>
      <trkpt lat="43.69256" lon="5.89696">
        <ele>551</ele>
        <time>2015-10-31T09:04:00.307Z</time>
      </trkpt>
      <trkpt lat="43.69254" lon="5.897">
        <ele>551</ele>
        <time>2015-10-31T09:04:01.284Z</time>
      </trkpt>
      <trkpt lat="43.6925" lon="5.89711">
        <ele>551</ele>
        <time>2015-10-31T09:04:04.304Z</time>
      </trkpt>
      <trkpt lat="43.69249" lon="5.89715">
        <ele>551</ele>
        <time>2015-10-31T09:04:05.283Z</time>
      </trkpt>
      <trkpt lat="43.69246" lon="5.89722">
        <ele>552</ele>
        <time>2015-10-31T09:04:07.306Z</time>
      </trkpt>
      <trkpt lat="43.69245" lon="5.89726">
        <ele>552</ele>
        <time>2015-10-31T09:04:08.283Z</time>
      </trkpt>
      <trkpt lat="43.69241" lon="5.89737">
        <ele>552</ele>
        <time>2015-10-31T09:04:11.306Z</time>
      </trkpt>
      <trkpt lat="43.6924" lon="5.8974">
        <ele>552</ele>
        <time>2015-10-31T09:04:12.283Z</time>
      </trkpt>
      <trkpt lat="43.69237" lon="5.89752">
        <ele>552</ele>
        <time>2015-10-31T09:04:15.311Z</time>
      </trkpt>
      <trkpt lat="43.69236" lon="5.89756">
        <ele>553</ele>
        <time>2015-10-31T09:04:16.278Z</time>
      </trkpt>
      <trkpt lat="43.69233" lon="5.89768">
        <ele>553</ele>
        <time>2015-10-31T09:04:19.306Z</time>
      </trkpt>
      <trkpt lat="43.69232" lon="5.89772">
        <ele>553</ele>
        <time>2015-10-31T09:04:20.285Z</time>
      </trkpt>
      <trkpt lat="43.6923" lon="5.8978">
        <ele>553</ele>
        <time>2015-10-31T09:04:22.307Z</time>
      </trkpt>
      <trkpt lat="43.69229" lon="5.89784">
        <ele>553</ele>
        <time>2015-10-31T09:04:23.296Z</time>
      </trkpt>
      <trkpt lat="43.69227" lon="5.89791">
        <ele>553</ele>
        <time>2015-10-31T09:04:25.549Z</time>
      </trkpt>
      <trkpt lat="43.69225" lon="5.89795">
        <ele>553</ele>
        <time>2015-10-31T09:04:26.283Z</time>
      </trkpt>
      <trkpt lat="43.69222" lon="5.89802">
        <ele>554</ele>
        <time>2015-10-31T09:04:28.306Z</time>
      </trkpt>
      <trkpt lat="43.69221" lon="5.89806">
        <ele>554</ele>
        <time>2015-10-31T09:04:29.294Z</time>
      </trkpt>
      <trkpt lat="43.69218" lon="5.89813">
        <ele>554</ele>
        <time>2015-10-31T09:04:31.306Z</time>
      </trkpt>
      <trkpt lat="43.69216" lon="5.89817">
        <ele>554</ele>
        <time>2015-10-31T09:04:32.293Z</time>
      </trkpt>
      <trkpt lat="43.69212" lon="5.89825">
        <ele>554</ele>
        <time>2015-10-31T09:04:34.306Z</time>
      </trkpt>
      <trkpt lat="43.6921" lon="5.89829">
        <ele>555</ele>
        <time>2015-10-31T09:04:35.295Z</time>
      </trkpt>
      <trkpt lat="43.69205" lon="5.89837">
        <ele>555</ele>
        <time>2015-10-31T09:04:37.305Z</time>
      </trkpt>
      <trkpt lat="43.69203" lon="5.8984">
        <ele>555</ele>
        <time>2015-10-31T09:04:38.308Z</time>
      </trkpt>
      <trkpt lat="43.69198" lon="5.89849">
        <ele>555</ele>
        <time>2015-10-31T09:04:41.315Z</time>
      </trkpt>
      <trkpt lat="43.69196" lon="5.89852">
        <ele>555</ele>
        <time>2015-10-31T09:04:42.283Z</time>
      </trkpt>
      <trkpt lat="43.69192" lon="5.89858">
        <ele>556</ele>
        <time>2015-10-31T09:04:44.305Z</time>
      </trkpt>
      <trkpt lat="43.6919" lon="5.89862">
        <ele>556</ele>
        <time>2015-10-31T09:04:45.285Z</time>
      </trkpt>
      <trkpt lat="43.69186" lon="5.89868">
        <ele>556</ele>
        <time>2015-10-31T09:04:47.336Z</time>
      </trkpt>
      <trkpt lat="43.69184" lon="5.89871">
        <ele>556</ele>
        <time>2015-10-31T09:04:48.284Z</time>
      </trkpt>
      <trkpt lat="43.6918" lon="5.89877">
        <ele>556</ele>
        <time>2015-10-31T09:04:50.317Z</time>
      </trkpt>
      <trkpt lat="43.69178" lon="5.8988">
        <ele>557</ele>
        <time>2015-10-31T09:04:51.283Z</time>
      </trkpt>
      <trkpt lat="43.69173" lon="5.89886">
        <ele>557</ele>
        <time>2015-10-31T09:04:53.326Z</time>
      </trkpt>
      <trkpt lat="43.69171" lon="5.89888">
        <ele>557</ele>
        <time>2015-10-31T09:04:54.284Z</time>
      </trkpt>
      <trkpt lat="43.69163" lon="5.89895">
        <ele>558</ele>
        <time>2015-10-31T09:04:57.317Z</time>
      </trkpt>
      <trkpt lat="43.69161" lon="5.89897">
        <ele>558</ele>
        <time>2015-10-31T09:04:58.287Z</time>
      </trkpt>
      <trkpt lat="43.69155" lon="5.89906">
        <ele>559</ele>
        <time>2015-10-31T09:05:01.306Z</time>
      </trkpt>
      <trkpt lat="43.69153" lon="5.89909">
        <ele>559</ele>
        <time>2015-10-31T09:05:02.283Z</time>
      </trkpt>
      <trkpt lat="43.69149" lon="5.89918">
        <ele>560</ele>
        <time>2015-10-31T09:05:05.316Z</time>
      </trkpt>
      <trkpt lat="43.69148" lon="5.89922">
        <ele>560</ele>
        <time>2015-10-31T09:05:06.284Z</time>
      </trkpt>
      <trkpt lat="43.69143" lon="5.89932">
        <ele>560</ele>
        <time>2015-10-31T09:05:09.306Z</time>
      </trkpt>
      <trkpt lat="43.69142" lon="5.89935">
        <ele>560</ele>
        <time>2015-10-31T09:05:10.285Z</time>
      </trkpt>
      <trkpt lat="43.69137" lon="5.89945">
        <ele>560</ele>
        <time>2015-10-31T09:05:13.319Z</time>
      </trkpt>
      <trkpt lat="43.69136" lon="5.89948">
        <ele>560</ele>
        <time>2015-10-31T09:05:14.285Z</time>
      </trkpt>
      <trkpt lat="43.69131" lon="5.89958">
        <ele>561</ele>
        <time>2015-10-31T09:05:17.307Z</time>
      </trkpt>
      <trkpt lat="43.6913" lon="5.89961">
        <ele>561</ele>
        <time>2015-10-31T09:05:18.295Z</time>
      </trkpt>
      <trkpt lat="43.69126" lon="5.89972">
        <ele>560</ele>
        <time>2015-10-31T09:05:21.315Z</time>
      </trkpt>
      <trkpt lat="43.69125" lon="5.89976">
        <ele>560</ele>
        <time>2015-10-31T09:05:22.284Z</time>
      </trkpt>
      <trkpt lat="43.69123" lon="5.89984">
        <ele>560</ele>
        <time>2015-10-31T09:05:24.306Z</time>
      </trkpt>
      <trkpt lat="43.69122" lon="5.89989">
        <ele>560</ele>
        <time>2015-10-31T09:05:25.284Z</time>
      </trkpt>
      <trkpt lat="43.69122" lon="5.89997">
        <ele>561</ele>
        <time>2015-10-31T09:05:27.306Z</time>
      </trkpt>
      <trkpt lat="43.69121" lon="5.90001">
        <ele>561</ele>
        <time>2015-10-31T09:05:28.294Z</time>
      </trkpt>
      <trkpt lat="43.69121" lon="5.9001">
        <ele>561</ele>
        <time>2015-10-31T09:05:30.307Z</time>
      </trkpt>
      <trkpt lat="43.69122" lon="5.90014">
        <ele>561</ele>
        <time>2015-10-31T09:05:31.283Z</time>
      </trkpt>
      <trkpt lat="43.69123" lon="5.90026">
        <ele>561</ele>
        <time>2015-10-31T09:05:34.292Z</time>
      </trkpt>
      <trkpt lat="43.69124" lon="5.9003">
        <ele>561</ele>
        <time>2015-10-31T09:05:35.284Z</time>
      </trkpt>
      <trkpt lat="43.69127" lon="5.90041">
        <ele>562</ele>
        <time>2015-10-31T09:05:38.316Z</time>
      </trkpt>
      <trkpt lat="43.69128" lon="5.90045">
        <ele>562</ele>
        <time>2015-10-31T09:05:39.284Z</time>
      </trkpt>
      <trkpt lat="43.69131" lon="5.90056">
        <ele>562</ele>
        <time>2015-10-31T09:05:42.306Z</time>
      </trkpt>
      <trkpt lat="43.69132" lon="5.9006">
        <ele>562</ele>
        <time>2015-10-31T09:05:43.295Z</time>
      </trkpt>
      <trkpt lat="43.69135" lon="5.90069">
        <ele>563</ele>
        <time>2015-10-31T09:05:46.319Z</time>
      </trkpt>
      <trkpt lat="43.69136" lon="5.90072">
        <ele>563</ele>
        <time>2015-10-31T09:05:47.284Z</time>
      </trkpt>
      <trkpt lat="43.6914" lon="5.90082">
        <ele>564</ele>
        <time>2015-10-31T09:05:51.306Z</time>
      </trkpt>
      <trkpt lat="43.69141" lon="5.90085">
        <ele>564</ele>
        <time>2015-10-31T09:05:52.294Z</time>
      </trkpt>
      <trkpt lat="43.69145" lon="5.90094">
        <ele>565</ele>
        <time>2015-10-31T09:05:55.318Z</time>
      </trkpt>
      <trkpt lat="43.69146" lon="5.90097">
        <ele>565</ele>
        <time>2015-10-31T09:05:56.284Z</time>
      </trkpt>
      <trkpt lat="43.69148" lon="5.90106">
        <ele>565</ele>
        <time>2015-10-31T09:05:59.306Z</time>
      </trkpt>
      <trkpt lat="43.69149" lon="5.90109">
        <ele>565</ele>
        <time>2015-10-31T09:06:00.283Z</time>
      </trkpt>
      <trkpt lat="43.69149" lon="5.90119">
        <ele>564</ele>
        <time>2015-10-31T09:06:03.306Z</time>
      </trkpt>
      <trkpt lat="43.69149" lon="5.90123">
        <ele>564</ele>
        <time>2015-10-31T09:06:04.284Z</time>
      </trkpt>
      <trkpt lat="43.69148" lon="5.90131">
        <ele>564</ele>
        <time>2015-10-31T09:06:06.307Z</time>
      </trkpt>
      <trkpt lat="43.69148" lon="5.90136">
        <ele>563</ele>
        <time>2015-10-31T09:06:07.294Z</time>
      </trkpt>
      <trkpt lat="43.69146" lon="5.90146">
        <ele>563</ele>
        <time>2015-10-31T09:06:09.388Z</time>
      </trkpt>
      <trkpt lat="43.69144" lon="5.90151">
        <ele>563</ele>
        <time>2015-10-31T09:06:10.283Z</time>
      </trkpt>
      <trkpt lat="43.6914" lon="5.90162">
        <ele>563</ele>
        <time>2015-10-31T09:06:12.314Z</time>
      </trkpt>
      <trkpt lat="43.69138" lon="5.90167">
        <ele>562</ele>
        <time>2015-10-31T09:06:13.281Z</time>
      </trkpt>
      <trkpt lat="43.69132" lon="5.90176">
        <ele>562</ele>
        <time>2015-10-31T09:06:15.318Z</time>
      </trkpt>
      <trkpt lat="43.69129" lon="5.90181">
        <ele>562</ele>
        <time>2015-10-31T09:06:16.284Z</time>
      </trkpt>
      <trkpt lat="43.69124" lon="5.9019">
        <ele>562</ele>
        <time>2015-10-31T09:06:18.304Z</time>
      </trkpt>
      <trkpt lat="43.69121" lon="5.90195">
        <ele>562</ele>
        <time>2015-10-31T09:06:19.284Z</time>
      </trkpt>
      <trkpt lat="43.69118" lon="5.90205">
        <ele>562</ele>
        <time>2015-10-31T09:06:21.306Z</time>
      </trkpt>
      <trkpt lat="43.69118" lon="5.9021">
        <ele>562</ele>
        <time>2015-10-31T09:06:22.283Z</time>
      </trkpt>
      <trkpt lat="43.69117" lon="5.9022">
        <ele>562</ele>
        <time>2015-10-31T09:06:24.306Z</time>
      </trkpt>
      <trkpt lat="43.69118" lon="5.90224">
        <ele>562</ele>
        <time>2015-10-31T09:06:25.283Z</time>
      </trkpt>
      <trkpt lat="43.6912" lon="5.90234">
        <ele>562</ele>
        <time>2015-10-31T09:06:28.316Z</time>
      </trkpt>
      <trkpt lat="43.69121" lon="5.90237">
        <ele>562</ele>
        <time>2015-10-31T09:06:29.283Z</time>
      </trkpt>
      <trkpt lat="43.69125" lon="5.90245">
        <ele>562</ele>
        <time>2015-10-31T09:06:32.306Z</time>
      </trkpt>
      <trkpt lat="43.69126" lon="5.90248">
        <ele>562</ele>
        <time>2015-10-31T09:06:33.294Z</time>
      </trkpt>
      <trkpt lat="43.69129" lon="5.90256">
        <ele>563</ele>
        <time>2015-10-31T09:06:36.370Z</time>
      </trkpt>
      <trkpt lat="43.69131" lon="5.90258">
        <ele>563</ele>
        <time>2015-10-31T09:06:37.282Z</time>
      </trkpt>
      <trkpt lat="43.69134" lon="5.9027">
        <ele>563</ele>
        <time>2015-10-31T09:06:41.300Z</time>
      </trkpt>
      <trkpt lat="43.69134" lon="5.90273">
        <ele>563</ele>
        <time>2015-10-31T09:06:42.313Z</time>
      </trkpt>
      <trkpt lat="43.69133" lon="5.90283">
        <ele>564</ele>
        <time>2015-10-31T09:06:56.485Z</time>
      </trkpt>
      <trkpt lat="43.69132" lon="5.90285">
        <ele>564</ele>
        <time>2015-10-31T09:06:57.289Z</time>
      </trkpt>
      <trkpt lat="43.69129" lon="5.90296">
        <ele>565</ele>
        <time>2015-10-31T09:07:01.302Z</time>
      </trkpt>
      <trkpt lat="43.69128" lon="5.90299">
        <ele>565</ele>
        <time>2015-10-31T09:07:02.289Z</time>
      </trkpt>
      <trkpt lat="43.69124" lon="5.90306">
        <ele>565</ele>
        <time>2015-10-31T09:07:04.311Z</time>
      </trkpt>
      <trkpt lat="43.69123" lon="5.90309">
        <ele>565</ele>
        <time>2015-10-31T09:07:05.281Z</time>
      </trkpt>
      <trkpt lat="43.69118" lon="5.90316">
        <ele>566</ele>
        <time>2015-10-31T09:07:07.344Z</time>
      </trkpt>
      <trkpt lat="43.69116" lon="5.90319">
        <ele>566</ele>
        <time>2015-10-31T09:07:08.284Z</time>
      </trkpt>
      <trkpt lat="43.69111" lon="5.90325">
        <ele>566</ele>
        <time>2015-10-31T09:07:10.317Z</time>
      </trkpt>
      <trkpt lat="43.69109" lon="5.90328">
        <ele>566</ele>
        <time>2015-10-31T09:07:11.283Z</time>
      </trkpt>
      <trkpt lat="43.69103" lon="5.90336">
        <ele>566</ele>
        <time>2015-10-31T09:07:14.321Z</time>
      </trkpt>
      <trkpt lat="43.69101" lon="5.90339">
        <ele>566</ele>
        <time>2015-10-31T09:07:15.296Z</time>
      </trkpt>
      <trkpt lat="43.69095" lon="5.90348">
        <ele>567</ele>
        <time>2015-10-31T09:07:18.515Z</time>
      </trkpt>
      <trkpt lat="43.69094" lon="5.90352">
        <ele>567</ele>
        <time>2015-10-31T09:07:19.312Z</time>
      </trkpt>
      <trkpt lat="43.69088" lon="5.90361">
        <ele>567</ele>
        <time>2015-10-31T09:07:22.307Z</time>
      </trkpt>
      <trkpt lat="43.69086" lon="5.90364">
        <ele>567</ele>
        <time>2015-10-31T09:07:23.285Z</time>
      </trkpt>
      <trkpt lat="43.6908" lon="5.90373">
        <ele>567</ele>
        <time>2015-10-31T09:07:26.307Z</time>
      </trkpt>
      <trkpt lat="43.69078" lon="5.90376">
        <ele>566</ele>
        <time>2015-10-31T09:07:27.284Z</time>
      </trkpt>
      <trkpt lat="43.69073" lon="5.90385">
        <ele>566</ele>
        <time>2015-10-31T09:07:30.314Z</time>
      </trkpt>
      <trkpt lat="43.69071" lon="5.90388">
        <ele>566</ele>
        <time>2015-10-31T09:07:31.284Z</time>
      </trkpt>
      <trkpt lat="43.69065" lon="5.90396">
        <ele>567</ele>
        <time>2015-10-31T09:07:34.317Z</time>
      </trkpt>
      <trkpt lat="43.69063" lon="5.90399">
        <ele>566</ele>
        <time>2015-10-31T09:07:35.284Z</time>
      </trkpt>
      <trkpt lat="43.69058" lon="5.90408">
        <ele>567</ele>
        <time>2015-10-31T09:07:38.375Z</time>
      </trkpt>
      <trkpt lat="43.69056" lon="5.90411">
        <ele>567</ele>
        <time>2015-10-31T09:07:39.282Z</time>
      </trkpt>
      <trkpt lat="43.69049" lon="5.90417">
        <ele>567</ele>
        <time>2015-10-31T09:07:42.506Z</time>
      </trkpt>
      <trkpt lat="43.69047" lon="5.90419">
        <ele>567</ele>
        <time>2015-10-31T09:07:43.283Z</time>
      </trkpt>
      <trkpt lat="43.6904" lon="5.90423">
        <ele>566</ele>
        <time>2015-10-31T09:07:45.306Z</time>
      </trkpt>
      <trkpt lat="43.69036" lon="5.90426">
        <ele>566</ele>
        <time>2015-10-31T09:07:46.284Z</time>
      </trkpt>
      <trkpt lat="43.69028" lon="5.90431">
        <ele>566</ele>
        <time>2015-10-31T09:07:48.307Z</time>
      </trkpt>
      <trkpt lat="43.69023" lon="5.90435">
        <ele>565</ele>
        <time>2015-10-31T09:07:49.284Z</time>
      </trkpt>
      <trkpt lat="43.6902" lon="5.90438">
        <ele>565</ele>
        <time>2015-10-31T09:07:50.306Z</time>
      </trkpt>
      <trkpt lat="43.69016" lon="5.90442">
        <ele>565</ele>
        <time>2015-10-31T09:07:51.310Z</time>
      </trkpt>
      <trkpt lat="43.69011" lon="5.90446">
        <ele>565</ele>
        <time>2015-10-31T09:07:52.307Z</time>
      </trkpt>
      <trkpt lat="43.69008" lon="5.90449">
        <ele>565</ele>
        <time>2015-10-31T09:07:53.284Z</time>
      </trkpt>
      <trkpt lat="43.69003" lon="5.90453">
        <ele>564</ele>
        <time>2015-10-31T09:07:54.304Z</time>
      </trkpt>
      <trkpt lat="43.68999" lon="5.90457">
        <ele>564</ele>
        <time>2015-10-31T09:07:55.284Z</time>
      </trkpt>
      <trkpt lat="43.68996" lon="5.90461">
        <ele>564</ele>
        <time>2015-10-31T09:07:56.305Z</time>
      </trkpt>
      <trkpt lat="43.68992" lon="5.90465">
        <ele>564</ele>
        <time>2015-10-31T09:07:57.283Z</time>
      </trkpt>
      <trkpt lat="43.68985" lon="5.90472">
        <ele>564</ele>
        <time>2015-10-31T09:07:59.306Z</time>
      </trkpt>
      <trkpt lat="43.68982" lon="5.90476">
        <ele>565</ele>
        <time>2015-10-31T09:08:00.283Z</time>
      </trkpt>
      <trkpt lat="43.68976" lon="5.90483">
        <ele>564</ele>
        <time>2015-10-31T09:08:02.306Z</time>
      </trkpt>
      <trkpt lat="43.68973" lon="5.90487">
        <ele>564</ele>
        <time>2015-10-31T09:08:03.283Z</time>
      </trkpt>
      <trkpt lat="43.68968" lon="5.90493">
        <ele>564</ele>
        <time>2015-10-31T09:08:05.457Z</time>
      </trkpt>
      <trkpt lat="43.68966" lon="5.90496">
        <ele>564</ele>
        <time>2015-10-31T09:08:06.279Z</time>
      </trkpt>
      <trkpt lat="43.6896" lon="5.90503">
        <ele>563</ele>
        <time>2015-10-31T09:08:08.306Z</time>
      </trkpt>
      <trkpt lat="43.68958" lon="5.90506">
        <ele>564</ele>
        <time>2015-10-31T09:08:09.284Z</time>
      </trkpt>
      <trkpt lat="43.68952" lon="5.90513">
        <ele>563</ele>
        <time>2015-10-31T09:08:11.298Z</time>
      </trkpt>
      <trkpt lat="43.68949" lon="5.90516">
        <ele>563</ele>
        <time>2015-10-31T09:08:12.285Z</time>
      </trkpt>
      <trkpt lat="43.68943" lon="5.90523">
        <ele>563</ele>
        <time>2015-10-31T09:08:14.308Z</time>
      </trkpt>
      <trkpt lat="43.68939" lon="5.90527">
        <ele>564</ele>
        <time>2015-10-31T09:08:15.285Z</time>
      </trkpt>
      <trkpt lat="43.68933" lon="5.90534">
        <ele>563</ele>
        <time>2015-10-31T09:08:17.297Z</time>
      </trkpt>
      <trkpt lat="43.6893" lon="5.90538">
        <ele>563</ele>
        <time>2015-10-31T09:08:18.288Z</time>
      </trkpt>
      <trkpt lat="43.68924" lon="5.90545">
        <ele>563</ele>
        <time>2015-10-31T09:08:20.306Z</time>
      </trkpt>
      <trkpt lat="43.6892" lon="5.90548">
        <ele>563</ele>
        <time>2015-10-31T09:08:21.285Z</time>
      </trkpt>
      <trkpt lat="43.68914" lon="5.90555">
        <ele>563</ele>
        <time>2015-10-31T09:08:23.331Z</time>
      </trkpt>
      <trkpt lat="43.6891" lon="5.90559">
        <ele>563</ele>
        <time>2015-10-31T09:08:24.278Z</time>
      </trkpt>
      <trkpt lat="43.68904" lon="5.90565">
        <ele>564</ele>
        <time>2015-10-31T09:08:26.306Z</time>
      </trkpt>
      <trkpt lat="43.68901" lon="5.90568">
        <ele>564</ele>
        <time>2015-10-31T09:08:27.285Z</time>
      </trkpt>
      <trkpt lat="43.68894" lon="5.90574">
        <ele>564</ele>
        <time>2015-10-31T09:08:29.307Z</time>
      </trkpt>
      <trkpt lat="43.68891" lon="5.90577">
        <ele>564</ele>
        <time>2015-10-31T09:08:30.372Z</time>
      </trkpt>
      <trkpt lat="43.68885" lon="5.90584">
        <ele>563</ele>
        <time>2015-10-31T09:08:32.319Z</time>
      </trkpt>
      <trkpt lat="43.68883" lon="5.90588">
        <ele>563</ele>
        <time>2015-10-31T09:08:33.283Z</time>
      </trkpt>
      <trkpt lat="43.68877" lon="5.90596">
        <ele>563</ele>
        <time>2015-10-31T09:08:35.295Z</time>
      </trkpt>
      <trkpt lat="43.68874" lon="5.90601">
        <ele>563</ele>
        <time>2015-10-31T09:08:36.276Z</time>
      </trkpt>
      <trkpt lat="43.68871" lon="5.90606">
        <ele>563</ele>
        <time>2015-10-31T09:08:37.320Z</time>
      </trkpt>
      <trkpt lat="43.68869" lon="5.90612">
        <ele>563</ele>
        <time>2015-10-31T09:08:38.284Z</time>
      </trkpt>
      <trkpt lat="43.68863" lon="5.90621">
        <ele>562</ele>
        <time>2015-10-31T09:08:40.306Z</time>
      </trkpt>
      <trkpt lat="43.68861" lon="5.90626">
        <ele>562</ele>
        <time>2015-10-31T09:08:41.284Z</time>
      </trkpt>
      <trkpt lat="43.68856" lon="5.90634">
        <ele>562</ele>
        <time>2015-10-31T09:08:43.302Z</time>
      </trkpt>
      <trkpt lat="43.68854" lon="5.90638">
        <ele>563</ele>
        <time>2015-10-31T09:08:44.283Z</time>
      </trkpt>
      <trkpt lat="43.68849" lon="5.90646">
        <ele>562</ele>
        <time>2015-10-31T09:08:46.306Z</time>
      </trkpt>
      <trkpt lat="43.68848" lon="5.9065">
        <ele>563</ele>
        <time>2015-10-31T09:08:47.283Z</time>
      </trkpt>
      <trkpt lat="43.68843" lon="5.90656">
        <ele>563</ele>
        <time>2015-10-31T09:08:49.306Z</time>
      </trkpt>
      <trkpt lat="43.68842" lon="5.9066">
        <ele>563</ele>
        <time>2015-10-31T09:08:50.285Z</time>
      </trkpt>
      <trkpt lat="43.68838" lon="5.90667">
        <ele>563</ele>
        <time>2015-10-31T09:08:52.305Z</time>
      </trkpt>
      <trkpt lat="43.68835" lon="5.90671">
        <ele>564</ele>
        <time>2015-10-31T09:08:53.283Z</time>
      </trkpt>
      <trkpt lat="43.68831" lon="5.90677">
        <ele>564</ele>
        <time>2015-10-31T09:08:55.305Z</time>
      </trkpt>
      <trkpt lat="43.68829" lon="5.90681">
        <ele>565</ele>
        <time>2015-10-31T09:08:56.283Z</time>
      </trkpt>
      <trkpt lat="43.68825" lon="5.90688">
        <ele>565</ele>
        <time>2015-10-31T09:08:58.306Z</time>
      </trkpt>
      <trkpt lat="43.68823" lon="5.90692">
        <ele>565</ele>
        <time>2015-10-31T09:08:59.285Z</time>
      </trkpt>
      <trkpt lat="43.68818" lon="5.90699">
        <ele>564</ele>
        <time>2015-10-31T09:09:01.310Z</time>
      </trkpt>
      <trkpt lat="43.68815" lon="5.90702">
        <ele>564</ele>
        <time>2015-10-31T09:09:02.283Z</time>
      </trkpt>
      <trkpt lat="43.6881" lon="5.90709">
        <ele>564</ele>
        <time>2015-10-31T09:09:04.318Z</time>
      </trkpt>
      <trkpt lat="43.68807" lon="5.90711">
        <ele>564</ele>
        <time>2015-10-31T09:09:05.284Z</time>
      </trkpt>
      <trkpt lat="43.688" lon="5.90718">
        <ele>564</ele>
        <time>2015-10-31T09:09:09.308Z</time>
      </trkpt>
      <trkpt lat="43.68799" lon="5.9072">
        <ele>564</ele>
        <time>2015-10-31T09:09:10.288Z</time>
      </trkpt>
      <trkpt lat="43.68792" lon="5.90728">
        <ele>563</ele>
        <time>2015-10-31T09:09:13.310Z</time>
      </trkpt>
      <trkpt lat="43.68789" lon="5.90731">
        <ele>564</ele>
        <time>2015-10-31T09:09:14.283Z</time>
      </trkpt>
      <trkpt lat="43.68783" lon="5.90737">
        <ele>563</ele>
        <time>2015-10-31T09:09:16.318Z</time>
      </trkpt>
      <trkpt lat="43.68779" lon="5.9074">
        <ele>563</ele>
        <time>2015-10-31T09:09:17.288Z</time>
      </trkpt>
      <trkpt lat="43.68772" lon="5.90747">
        <ele>563</ele>
        <time>2015-10-31T09:09:28.308Z</time>
      </trkpt>
      <trkpt lat="43.68769" lon="5.9075">
        <ele>563</ele>
        <time>2015-10-31T09:09:29.285Z</time>
      </trkpt>
      <trkpt lat="43.68763" lon="5.90757">
        <ele>563</ele>
        <time>2015-10-31T09:09:31.318Z</time>
      </trkpt>
      <trkpt lat="43.68761" lon="5.90761">
        <ele>563</ele>
        <time>2015-10-31T09:09:32.283Z</time>
      </trkpt>
      <trkpt lat="43.68754" lon="5.90768">
        <ele>563</ele>
        <time>2015-10-31T09:09:34.306Z</time>
      </trkpt>
      <trkpt lat="43.68751" lon="5.90772">
        <ele>563</ele>
        <time>2015-10-31T09:09:35.297Z</time>
      </trkpt>
      <trkpt lat="43.68745" lon="5.9078">
        <ele>563</ele>
        <time>2015-10-31T09:09:37.308Z</time>
      </trkpt>
      <trkpt lat="43.68741" lon="5.90784">
        <ele>563</ele>
        <time>2015-10-31T09:09:38.284Z</time>
      </trkpt>
      <trkpt lat="43.68734" lon="5.90792">
        <ele>563</ele>
        <time>2015-10-31T09:09:40.319Z</time>
      </trkpt>
      <trkpt lat="43.6873" lon="5.90796">
        <ele>563</ele>
        <time>2015-10-31T09:09:41.284Z</time>
      </trkpt>
      <trkpt lat="43.68727" lon="5.908">
        <ele>563</ele>
        <time>2015-10-31T09:09:42.316Z</time>
      </trkpt>
      <trkpt lat="43.68723" lon="5.90805">
        <ele>562</ele>
        <time>2015-10-31T09:09:43.309Z</time>
      </trkpt>
      <trkpt lat="43.68719" lon="5.90809">
        <ele>563</ele>
        <time>2015-10-31T09:09:44.283Z</time>
      </trkpt>
      <trkpt lat="43.68715" lon="5.90812">
        <ele>563</ele>
        <time>2015-10-31T09:09:45.308Z</time>
      </trkpt>
      <trkpt lat="43.68712" lon="5.90817">
        <ele>563</ele>
        <time>2015-10-31T09:09:46.304Z</time>
      </trkpt>
      <trkpt lat="43.68708" lon="5.90821">
        <ele>563</ele>
        <time>2015-10-31T09:09:47.285Z</time>
      </trkpt>
      <trkpt lat="43.68702" lon="5.90829">
        <ele>564</ele>
        <time>2015-10-31T09:09:49.306Z</time>
      </trkpt>
      <trkpt lat="43.687" lon="5.90832">
        <ele>564</ele>
        <time>2015-10-31T09:09:50.284Z</time>
      </trkpt>
      <trkpt lat="43.68693" lon="5.90839">
        <ele>564</ele>
        <time>2015-10-31T09:09:52.307Z</time>
      </trkpt>
      <trkpt lat="43.68691" lon="5.90842">
        <ele>564</ele>
        <time>2015-10-31T09:09:53.295Z</time>
      </trkpt>
      <trkpt lat="43.68686" lon="5.90848">
        <ele>564</ele>
        <time>2015-10-31T09:09:55.308Z</time>
      </trkpt>
      <trkpt lat="43.68683" lon="5.9085">
        <ele>563</ele>
        <time>2015-10-31T09:09:56.294Z</time>
      </trkpt>
      <trkpt lat="43.68675" lon="5.90853">
        <ele>562</ele>
        <time>2015-10-31T09:09:58.306Z</time>
      </trkpt>
      <trkpt lat="43.68671" lon="5.90855">
        <ele>561</ele>
        <time>2015-10-31T09:09:59.310Z</time>
      </trkpt>
      <trkpt lat="43.68663" lon="5.90857">
        <ele>561</ele>
        <time>2015-10-31T09:10:00.291Z</time>
      </trkpt>
      <trkpt lat="43.68658" lon="5.90858">
        <ele>560</ele>
        <time>2015-10-31T09:10:01.283Z</time>
      </trkpt>
      <trkpt lat="43.68652" lon="5.90859">
        <ele>559</ele>
        <time>2015-10-31T09:10:02.306Z</time>
      </trkpt>
      <trkpt lat="43.68645" lon="5.90861">
        <ele>558</ele>
        <time>2015-10-31T09:10:03.284Z</time>
      </trkpt>
      <trkpt lat="43.68639" lon="5.90862">
        <ele>558</ele>
        <time>2015-10-31T09:10:04.306Z</time>
      </trkpt>
      <trkpt lat="43.68631" lon="5.90863">
        <ele>558</ele>
        <time>2015-10-31T09:10:05.286Z</time>
      </trkpt>
      <trkpt lat="43.68624" lon="5.90865">
        <ele>557</ele>
        <time>2015-10-31T09:10:06.298Z</time>
      </trkpt>
      <trkpt lat="43.68616" lon="5.90867">
        <ele>557</ele>
        <time>2015-10-31T09:10:07.284Z</time>
      </trkpt>
      <trkpt lat="43.68608" lon="5.90869">
        <ele>557</ele>
        <time>2015-10-31T09:10:08.305Z</time>
      </trkpt>
      <trkpt lat="43.686" lon="5.90871">
        <ele>556</ele>
        <time>2015-10-31T09:10:09.285Z</time>
      </trkpt>
      <trkpt lat="43.68592" lon="5.90872">
        <ele>556</ele>
        <time>2015-10-31T09:10:10.307Z</time>
      </trkpt>
      <trkpt lat="43.68584" lon="5.90874">
        <ele>555</ele>
        <time>2015-10-31T09:10:11.283Z</time>
      </trkpt>
      <trkpt lat="43.68576" lon="5.90876">
        <ele>555</ele>
        <time>2015-10-31T09:10:12.323Z</time>
      </trkpt>
      <trkpt lat="43.68567" lon="5.90877">
        <ele>554</ele>
        <time>2015-10-31T09:10:13.284Z</time>
      </trkpt>
      <trkpt lat="43.6856" lon="5.90878">
        <ele>554</ele>
        <time>2015-10-31T09:10:14.377Z</time>
      </trkpt>
      <trkpt lat="43.68553" lon="5.9088">
        <ele>554</ele>
        <time>2015-10-31T09:10:15.318Z</time>
      </trkpt>
      <trkpt lat="43.68545" lon="5.90883">
        <ele>554</ele>
        <time>2015-10-31T09:10:16.318Z</time>
      </trkpt>
      <trkpt lat="43.68539" lon="5.90885">
        <ele>553</ele>
        <time>2015-10-31T09:10:17.284Z</time>
      </trkpt>
      <trkpt lat="43.68532" lon="5.90886">
        <ele>554</ele>
        <time>2015-10-31T09:10:18.307Z</time>
      </trkpt>
      <trkpt lat="43.68526" lon="5.90887">
        <ele>554</ele>
        <time>2015-10-31T09:10:19.285Z</time>
      </trkpt>
      <trkpt lat="43.68521" lon="5.90888">
        <ele>554</ele>
        <time>2015-10-31T09:10:20.306Z</time>
      </trkpt>
      <trkpt lat="43.68514" lon="5.90891">
        <ele>553</ele>
        <time>2015-10-31T09:10:21.284Z</time>
      </trkpt>
      <trkpt lat="43.68509" lon="5.90892">
        <ele>553</ele>
        <time>2015-10-31T09:10:22.365Z</time>
      </trkpt>
      <trkpt lat="43.68504" lon="5.90892">
        <ele>553</ele>
        <time>2015-10-31T09:10:23.294Z</time>
      </trkpt>
      <trkpt lat="43.68499" lon="5.90893">
        <ele>553</ele>
        <time>2015-10-31T09:10:24.307Z</time>
      </trkpt>
      <trkpt lat="43.68494" lon="5.90893">
        <ele>554</ele>
        <time>2015-10-31T09:10:25.283Z</time>
      </trkpt>
      <trkpt lat="43.68489" lon="5.90894">
        <ele>554</ele>
        <time>2015-10-31T09:10:26.307Z</time>
      </trkpt>
      <trkpt lat="43.68484" lon="5.90895">
        <ele>554</ele>
        <time>2015-10-31T09:10:27.294Z</time>
      </trkpt>
      <trkpt lat="43.6848" lon="5.90896">
        <ele>554</ele>
        <time>2015-10-31T09:10:28.306Z</time>
      </trkpt>
      <trkpt lat="43.68474" lon="5.90896">
        <ele>554</ele>
        <time>2015-10-31T09:10:29.296Z</time>
      </trkpt>
      <trkpt lat="43.6847" lon="5.90896">
        <ele>554</ele>
        <time>2015-10-31T09:10:30.307Z</time>
      </trkpt>
      <trkpt lat="43.68464" lon="5.90895">
        <ele>553</ele>
        <time>2015-10-31T09:10:31.311Z</time>
      </trkpt>
      <trkpt lat="43.68458" lon="5.90895">
        <ele>553</ele>
        <time>2015-10-31T09:10:32.309Z</time>
      </trkpt>
      <trkpt lat="43.68453" lon="5.90895">
        <ele>553</ele>
        <time>2015-10-31T09:10:33.285Z</time>
      </trkpt>
      <trkpt lat="43.68447" lon="5.90894">
        <ele>552</ele>
        <time>2015-10-31T09:10:34.306Z</time>
      </trkpt>
      <trkpt lat="43.6844" lon="5.90892">
        <ele>552</ele>
        <time>2015-10-31T09:10:35.944Z</time>
      </trkpt>
      <trkpt lat="43.68434" lon="5.90888">
        <ele>551</ele>
        <time>2015-10-31T09:10:36.297Z</time>
      </trkpt>
      <trkpt lat="43.68427" lon="5.90886">
        <ele>551</ele>
        <time>2015-10-31T09:10:37.286Z</time>
      </trkpt>
      <trkpt lat="43.68421" lon="5.90884">
        <ele>550</ele>
        <time>2015-10-31T09:10:38.306Z</time>
      </trkpt>
      <trkpt lat="43.68414" lon="5.9088">
        <ele>549</ele>
        <time>2015-10-31T09:10:39.296Z</time>
      </trkpt>
      <trkpt lat="43.68405" lon="5.90877">
        <ele>548</ele>
        <time>2015-10-31T09:10:40.309Z</time>
      </trkpt>
      <trkpt lat="43.68398" lon="5.90873">
        <ele>547</ele>
        <time>2015-10-31T09:10:41.285Z</time>
      </trkpt>
      <trkpt lat="43.6839" lon="5.90869">
        <ele>546</ele>
        <time>2015-10-31T09:10:42.336Z</time>
      </trkpt>
      <trkpt lat="43.68381" lon="5.90865">
        <ele>545</ele>
        <time>2015-10-31T09:10:43.285Z</time>
      </trkpt>
      <trkpt lat="43.68381" lon="5.90865">
        <ele>545</ele>
        <time>2015-10-31T09:10:43.380Z</time>
      </trkpt>
      <trkpt lat="43.68372" lon="5.90861">
        <ele>545</ele>
        <time>2015-10-31T09:10:44.284Z</time>
      </trkpt>
      <trkpt lat="43.68372" lon="5.90861">
        <ele>545</ele>
        <time>2015-10-31T09:10:44.309Z</time>
      </trkpt>
      <trkpt lat="43.68362" lon="5.90856">
        <ele>545</ele>
        <time>2015-10-31T09:10:45.284Z</time>
      </trkpt>
      <trkpt lat="43.68362" lon="5.90856">
        <ele>545</ele>
        <time>2015-10-31T09:10:45.311Z</time>
      </trkpt>
      <trkpt lat="43.68354" lon="5.90852">
        <ele>544</ele>
        <time>2015-10-31T09:10:46.283Z</time>
      </trkpt>
      <trkpt lat="43.68354" lon="5.90852">
        <ele>544</ele>
        <time>2015-10-31T09:10:46.309Z</time>
      </trkpt>
      <trkpt lat="43.68345" lon="5.90847">
        <ele>543</ele>
        <time>2015-10-31T09:10:47.284Z</time>
      </trkpt>
      <trkpt lat="43.68345" lon="5.90847">
        <ele>543</ele>
        <time>2015-10-31T09:10:47.309Z</time>
      </trkpt>
      <trkpt lat="43.68335" lon="5.90844">
        <ele>543</ele>
        <time>2015-10-31T09:10:48.277Z</time>
      </trkpt>
      <trkpt lat="43.68326" lon="5.90841">
        <ele>542</ele>
        <time>2015-10-31T09:10:49.317Z</time>
      </trkpt>
      <trkpt lat="43.68316" lon="5.90837">
        <ele>542</ele>
        <time>2015-10-31T09:10:50.284Z</time>
      </trkpt>
      <trkpt lat="43.68316" lon="5.90837">
        <ele>542</ele>
        <time>2015-10-31T09:10:50.311Z</time>
      </trkpt>
      <trkpt lat="43.68307" lon="5.90834">
        <ele>542</ele>
        <time>2015-10-31T09:10:51.286Z</time>
      </trkpt>
      <trkpt lat="43.68298" lon="5.90832">
        <ele>543</ele>
        <time>2015-10-31T09:10:52.308Z</time>
      </trkpt>
      <trkpt lat="43.6829" lon="5.90829">
        <ele>542</ele>
        <time>2015-10-31T09:10:53.286Z</time>
      </trkpt>
      <trkpt lat="43.68282" lon="5.90828">
        <ele>542</ele>
        <time>2015-10-31T09:10:54.308Z</time>
      </trkpt>
      <trkpt lat="43.68276" lon="5.90826">
        <ele>542</ele>
        <time>2015-10-31T09:10:55.276Z</time>
      </trkpt>
      <trkpt lat="43.68269" lon="5.90826">
        <ele>542</ele>
        <time>2015-10-31T09:10:56.307Z</time>
      </trkpt>
      <trkpt lat="43.68264" lon="5.90825">
        <ele>542</ele>
        <time>2015-10-31T09:10:57.286Z</time>
      </trkpt>
      <trkpt lat="43.68259" lon="5.90823">
        <ele>542</ele>
        <time>2015-10-31T09:10:58.349Z</time>
      </trkpt>
      <trkpt lat="43.68255" lon="5.90822">
        <ele>542</ele>
        <time>2015-10-31T09:10:59.285Z</time>
      </trkpt>
      <trkpt lat="43.68249" lon="5.90821">
        <ele>542</ele>
        <time>2015-10-31T09:11:01.297Z</time>
      </trkpt>
      <trkpt lat="43.68245" lon="5.90821">
        <ele>542</ele>
        <time>2015-10-31T09:11:02.285Z</time>
      </trkpt>
      <trkpt lat="43.68241" lon="5.90823">
        <ele>543</ele>
        <time>2015-10-31T09:11:03.307Z</time>
      </trkpt>
      <trkpt lat="43.68236" lon="5.90825">
        <ele>542</ele>
        <time>2015-10-31T09:11:04.285Z</time>
      </trkpt>
      <trkpt lat="43.68231" lon="5.90828">
        <ele>543</ele>
        <time>2015-10-31T09:11:05.306Z</time>
      </trkpt>
      <trkpt lat="43.68227" lon="5.90831">
        <ele>543</ele>
        <time>2015-10-31T09:11:06.283Z</time>
      </trkpt>
      <trkpt lat="43.68222" lon="5.90833">
        <ele>542</ele>
        <time>2015-10-31T09:11:07.307Z</time>
      </trkpt>
      <trkpt lat="43.68217" lon="5.90835">
        <ele>542</ele>
        <time>2015-10-31T09:11:08.284Z</time>
      </trkpt>
      <trkpt lat="43.68212" lon="5.90837">
        <ele>542</ele>
        <time>2015-10-31T09:11:09.306Z</time>
      </trkpt>
      <trkpt lat="43.68206" lon="5.90838">
        <ele>541</ele>
        <time>2015-10-31T09:11:10.285Z</time>
      </trkpt>
      <trkpt lat="43.68201" lon="5.9084">
        <ele>541</ele>
        <time>2015-10-31T09:11:11.307Z</time>
      </trkpt>
      <trkpt lat="43.68195" lon="5.90842">
        <ele>541</ele>
        <time>2015-10-31T09:11:12.285Z</time>
      </trkpt>
      <trkpt lat="43.6819" lon="5.90843">
        <ele>541</ele>
        <time>2015-10-31T09:11:13.306Z</time>
      </trkpt>
      <trkpt lat="43.68184" lon="5.90845">
        <ele>540</ele>
        <time>2015-10-31T09:11:14.285Z</time>
      </trkpt>
      <trkpt lat="43.68178" lon="5.90846">
        <ele>540</ele>
        <time>2015-10-31T09:11:15.306Z</time>
      </trkpt>
      <trkpt lat="43.68174" lon="5.90847">
        <ele>541</ele>
        <time>2015-10-31T09:11:16.285Z</time>
      </trkpt>
      <trkpt lat="43.68166" lon="5.90849">
        <ele>540</ele>
        <time>2015-10-31T09:11:18.318Z</time>
      </trkpt>
      <trkpt lat="43.68163" lon="5.9085">
        <ele>539</ele>
        <time>2015-10-31T09:11:19.309Z</time>
      </trkpt>
      <trkpt lat="43.68159" lon="5.90856">
        <ele>539</ele>
        <time>2015-10-31T09:11:21.318Z</time>
      </trkpt>
      <trkpt lat="43.68157" lon="5.9086">
        <ele>539</ele>
        <time>2015-10-31T09:11:22.285Z</time>
      </trkpt>
      <trkpt lat="43.68154" lon="5.90872">
        <ele>539</ele>
        <time>2015-10-31T09:11:24.307Z</time>
      </trkpt>
      <trkpt lat="43.68153" lon="5.90879">
        <ele>539</ele>
        <time>2015-10-31T09:11:25.278Z</time>
      </trkpt>
      <trkpt lat="43.68152" lon="5.90885">
        <ele>539</ele>
        <time>2015-10-31T09:11:26.323Z</time>
      </trkpt>
      <trkpt lat="43.68151" lon="5.90892">
        <ele>539</ele>
        <time>2015-10-31T09:11:27.284Z</time>
      </trkpt>
      <trkpt lat="43.68151" lon="5.909">
        <ele>539</ele>
        <time>2015-10-31T09:11:28.306Z</time>
      </trkpt>
      <trkpt lat="43.68151" lon="5.90907">
        <ele>539</ele>
        <time>2015-10-31T09:11:29.283Z</time>
      </trkpt>
      <trkpt lat="43.68151" lon="5.90915">
        <ele>539</ele>
        <time>2015-10-31T09:11:30.306Z</time>
      </trkpt>
      <trkpt lat="43.6815" lon="5.90923">
        <ele>539</ele>
        <time>2015-10-31T09:11:31.295Z</time>
      </trkpt>
      <trkpt lat="43.68149" lon="5.9093">
        <ele>539</ele>
        <time>2015-10-31T09:11:32.307Z</time>
      </trkpt>
      <trkpt lat="43.68149" lon="5.90937">
        <ele>539</ele>
        <time>2015-10-31T09:11:33.285Z</time>
      </trkpt>
      <trkpt lat="43.68149" lon="5.90949">
        <ele>539</ele>
        <time>2015-10-31T09:11:35.334Z</time>
      </trkpt>
      <trkpt lat="43.68148" lon="5.90954">
        <ele>539</ele>
        <time>2015-10-31T09:11:36.295Z</time>
      </trkpt>
      <trkpt lat="43.68146" lon="5.90963">
        <ele>540</ele>
        <time>2015-10-31T09:11:38.314Z</time>
      </trkpt>
      <trkpt lat="43.68144" lon="5.90968">
        <ele>540</ele>
        <time>2015-10-31T09:11:39.285Z</time>
      </trkpt>
      <trkpt lat="43.68139" lon="5.90978">
        <ele>541</ele>
        <time>2015-10-31T09:11:42.319Z</time>
      </trkpt>
      <trkpt lat="43.68137" lon="5.9098">
        <ele>541</ele>
        <time>2015-10-31T09:11:43.286Z</time>
      </trkpt>
      <trkpt lat="43.68131" lon="5.90984">
        <ele>541</ele>
        <time>2015-10-31T09:11:45.308Z</time>
      </trkpt>
      <trkpt lat="43.68128" lon="5.90985">
        <ele>541</ele>
        <time>2015-10-31T09:11:46.285Z</time>
      </trkpt>
      <trkpt lat="43.68122" lon="5.90989">
        <ele>541</ele>
        <time>2015-10-31T09:11:48.428Z</time>
      </trkpt>
      <trkpt lat="43.68119" lon="5.9099">
        <ele>541</ele>
        <time>2015-10-31T09:11:49.286Z</time>
      </trkpt>
      <trkpt lat="43.68113" lon="5.90993">
        <ele>542</ele>
        <time>2015-10-31T09:11:51.335Z</time>
      </trkpt>
      <trkpt lat="43.68109" lon="5.90995">
        <ele>542</ele>
        <time>2015-10-31T09:11:52.296Z</time>
      </trkpt>
      <trkpt lat="43.68103" lon="5.90998">
        <ele>544</ele>
        <time>2015-10-31T09:11:54.307Z</time>
      </trkpt>
      <trkpt lat="43.681" lon="5.90999">
        <ele>544</ele>
        <time>2015-10-31T09:11:55.286Z</time>
      </trkpt>
      <trkpt lat="43.68092" lon="5.91005">
        <ele>544</ele>
        <time>2015-10-31T09:11:58.321Z</time>
      </trkpt>
      <trkpt lat="43.6809" lon="5.91006">
        <ele>544</ele>
        <time>2015-10-31T09:11:59.285Z</time>
      </trkpt>
      <trkpt lat="43.68082" lon="5.91012">
        <ele>544</ele>
        <time>2015-10-31T09:12:02.307Z</time>
      </trkpt>
      <trkpt lat="43.68079" lon="5.91014">
        <ele>545</ele>
        <time>2015-10-31T09:12:03.304Z</time>
      </trkpt>
      <trkpt lat="43.68072" lon="5.9102">
        <ele>545</ele>
        <time>2015-10-31T09:12:06.308Z</time>
      </trkpt>
      <trkpt lat="43.68069" lon="5.91023">
        <ele>545</ele>
        <time>2015-10-31T09:12:07.314Z</time>
      </trkpt>
      <trkpt lat="43.68063" lon="5.91031">
        <ele>545</ele>
        <time>2015-10-31T09:12:10.309Z</time>
      </trkpt>
      <trkpt lat="43.6806" lon="5.91033">
        <ele>545</ele>
        <time>2015-10-31T09:12:11.285Z</time>
      </trkpt>
      <trkpt lat="43.68054" lon="5.91041">
        <ele>545</ele>
        <time>2015-10-31T09:12:14.306Z</time>
      </trkpt>
      <trkpt lat="43.68051" lon="5.91043">
        <ele>545</ele>
        <time>2015-10-31T09:12:15.290Z</time>
      </trkpt>
      <trkpt lat="43.68044" lon="5.9105">
        <ele>545</ele>
        <time>2015-10-31T09:12:18.307Z</time>
      </trkpt>
      <trkpt lat="43.68041" lon="5.91052">
        <ele>545</ele>
        <time>2015-10-31T09:12:19.284Z</time>
      </trkpt>
      <trkpt lat="43.68036" lon="5.91057">
        <ele>546</ele>
        <time>2015-10-31T09:12:21.543Z</time>
      </trkpt>
      <trkpt lat="43.68033" lon="5.9106">
        <ele>546</ele>
        <time>2015-10-31T09:12:22.285Z</time>
      </trkpt>
      <trkpt lat="43.68027" lon="5.91066">
        <ele>546</ele>
        <time>2015-10-31T09:12:24.305Z</time>
      </trkpt>
      <trkpt lat="43.68025" lon="5.91069">
        <ele>546</ele>
        <time>2015-10-31T09:12:25.284Z</time>
      </trkpt>
      <trkpt lat="43.68019" lon="5.91076">
        <ele>545</ele>
        <time>2015-10-31T09:12:27.308Z</time>
      </trkpt>
      <trkpt lat="43.68017" lon="5.91079">
        <ele>545</ele>
        <time>2015-10-31T09:12:28.284Z</time>
      </trkpt>
      <trkpt lat="43.68012" lon="5.91087">
        <ele>545</ele>
        <time>2015-10-31T09:12:30.308Z</time>
      </trkpt>
      <trkpt lat="43.68009" lon="5.91091">
        <ele>545</ele>
        <time>2015-10-31T09:12:31.278Z</time>
      </trkpt>
      <trkpt lat="43.68004" lon="5.91098">
        <ele>545</ele>
        <time>2015-10-31T09:12:33.321Z</time>
      </trkpt>
      <trkpt lat="43.68001" lon="5.91102">
        <ele>545</ele>
        <time>2015-10-31T09:12:34.310Z</time>
      </trkpt>
      <trkpt lat="43.67995" lon="5.91109">
        <ele>544</ele>
        <time>2015-10-31T09:12:36.309Z</time>
      </trkpt>
      <trkpt lat="43.67992" lon="5.91114">
        <ele>544</ele>
        <time>2015-10-31T09:12:37.284Z</time>
      </trkpt>
      <trkpt lat="43.67987" lon="5.91123">
        <ele>543</ele>
        <time>2015-10-31T09:12:39.309Z</time>
      </trkpt>
      <trkpt lat="43.67984" lon="5.91128">
        <ele>543</ele>
        <time>2015-10-31T09:12:40.284Z</time>
      </trkpt>
      <trkpt lat="43.67979" lon="5.91138">
        <ele>543</ele>
        <time>2015-10-31T09:12:42.312Z</time>
      </trkpt>
      <trkpt lat="43.67976" lon="5.91143">
        <ele>543</ele>
        <time>2015-10-31T09:12:43.285Z</time>
      </trkpt>
      <trkpt lat="43.67972" lon="5.91153">
        <ele>543</ele>
        <time>2015-10-31T09:12:45.308Z</time>
      </trkpt>
      <trkpt lat="43.6797" lon="5.91158">
        <ele>542</ele>
        <time>2015-10-31T09:12:46.295Z</time>
      </trkpt>
      <trkpt lat="43.67966" lon="5.91169">
        <ele>542</ele>
        <time>2015-10-31T09:12:48.309Z</time>
      </trkpt>
      <trkpt lat="43.67964" lon="5.91174">
        <ele>542</ele>
        <time>2015-10-31T09:12:49.285Z</time>
      </trkpt>
      <trkpt lat="43.6796" lon="5.91185">
        <ele>542</ele>
        <time>2015-10-31T09:12:51.320Z</time>
      </trkpt>
      <trkpt lat="43.67958" lon="5.91191">
        <ele>542</ele>
        <time>2015-10-31T09:12:52.285Z</time>
      </trkpt>
      <trkpt lat="43.67956" lon="5.91197">
        <ele>542</ele>
        <time>2015-10-31T09:12:53.309Z</time>
      </trkpt>
      <trkpt lat="43.67954" lon="5.91202">
        <ele>541</ele>
        <time>2015-10-31T09:12:54.295Z</time>
      </trkpt>
      <trkpt lat="43.67951" lon="5.91209">
        <ele>541</ele>
        <time>2015-10-31T09:12:55.553Z</time>
      </trkpt>
      <trkpt lat="43.67949" lon="5.91215">
        <ele>541</ele>
        <time>2015-10-31T09:12:56.285Z</time>
      </trkpt>
      <trkpt lat="43.67946" lon="5.91226">
        <ele>541</ele>
        <time>2015-10-31T09:12:58.309Z</time>
      </trkpt>
      <trkpt lat="43.67944" lon="5.91231">
        <ele>541</ele>
        <time>2015-10-31T09:12:59.284Z</time>
      </trkpt>
      <trkpt lat="43.67941" lon="5.91241">
        <ele>541</ele>
        <time>2015-10-31T09:13:01.318Z</time>
      </trkpt>
      <trkpt lat="43.67939" lon="5.91245">
        <ele>540</ele>
        <time>2015-10-31T09:13:02.285Z</time>
      </trkpt>
      <trkpt lat="43.67935" lon="5.91255">
        <ele>540</ele>
        <time>2015-10-31T09:13:04.326Z</time>
      </trkpt>
      <trkpt lat="43.67933" lon="5.9126">
        <ele>540</ele>
        <time>2015-10-31T09:13:05.285Z</time>
      </trkpt>
      <trkpt lat="43.6793" lon="5.91269">
        <ele>540</ele>
        <time>2015-10-31T09:13:07.306Z</time>
      </trkpt>
      <trkpt lat="43.67928" lon="5.91274">
        <ele>540</ele>
        <time>2015-10-31T09:13:08.286Z</time>
      </trkpt>
      <trkpt lat="43.67924" lon="5.91285">
        <ele>539</ele>
        <time>2015-10-31T09:13:10.307Z</time>
      </trkpt>
      <trkpt lat="43.67922" lon="5.9129">
        <ele>539</ele>
        <time>2015-10-31T09:13:11.294Z</time>
      </trkpt>
      <trkpt lat="43.67919" lon="5.91301">
        <ele>539</ele>
        <time>2015-10-31T09:13:13.308Z</time>
      </trkpt>
      <trkpt lat="43.67918" lon="5.91306">
        <ele>539</ele>
        <time>2015-10-31T09:13:14.286Z</time>
      </trkpt>
      <trkpt lat="43.67914" lon="5.91317">
        <ele>538</ele>
        <time>2015-10-31T09:13:16.319Z</time>
      </trkpt>
      <trkpt lat="43.67912" lon="5.91322">
        <ele>538</ele>
        <time>2015-10-31T09:13:17.310Z</time>
      </trkpt>
      <trkpt lat="43.67908" lon="5.91332">
        <ele>538</ele>
        <time>2015-10-31T09:13:19.318Z</time>
      </trkpt>
      <trkpt lat="43.67906" lon="5.91337">
        <ele>538</ele>
        <time>2015-10-31T09:13:20.284Z</time>
      </trkpt>
      <trkpt lat="43.67903" lon="5.91342">
        <ele>538</ele>
        <time>2015-10-31T09:13:21.308Z</time>
      </trkpt>
      <trkpt lat="43.679" lon="5.91348">
        <ele>538</ele>
        <time>2015-10-31T09:13:22.285Z</time>
      </trkpt>
      <trkpt lat="43.67897" lon="5.91353">
        <ele>538</ele>
        <time>2015-10-31T09:13:23.317Z</time>
      </trkpt>
      <trkpt lat="43.67895" lon="5.91358">
        <ele>538</ele>
        <time>2015-10-31T09:13:24.284Z</time>
      </trkpt>
      <trkpt lat="43.67891" lon="5.91369">
        <ele>538</ele>
        <time>2015-10-31T09:13:26.308Z</time>
      </trkpt>
      <trkpt lat="43.67889" lon="5.91374">
        <ele>538</ele>
        <time>2015-10-31T09:13:27.303Z</time>
      </trkpt>
      <trkpt lat="43.67884" lon="5.91383">
        <ele>538</ele>
        <time>2015-10-31T09:13:29.306Z</time>
      </trkpt>
      <trkpt lat="43.67882" lon="5.91388">
        <ele>538</ele>
        <time>2015-10-31T09:13:30.285Z</time>
      </trkpt>
      <trkpt lat="43.67878" lon="5.91398">
        <ele>539</ele>
        <time>2015-10-31T09:13:32.309Z</time>
      </trkpt>
      <trkpt lat="43.67877" lon="5.91403">
        <ele>539</ele>
        <time>2015-10-31T09:13:33.285Z</time>
      </trkpt>
      <trkpt lat="43.67874" lon="5.91412">
        <ele>539</ele>
        <time>2015-10-31T09:13:35.308Z</time>
      </trkpt>
      <trkpt lat="43.67872" lon="5.91417">
        <ele>539</ele>
        <time>2015-10-31T09:13:36.286Z</time>
      </trkpt>
      <trkpt lat="43.67869" lon="5.91426">
        <ele>539</ele>
        <time>2015-10-31T09:13:38.335Z</time>
      </trkpt>
      <trkpt lat="43.67867" lon="5.91431">
        <ele>539</ele>
        <time>2015-10-31T09:13:39.286Z</time>
      </trkpt>
      <trkpt lat="43.67862" lon="5.91439">
        <ele>538</ele>
        <time>2015-10-31T09:13:41.308Z</time>
      </trkpt>
      <trkpt lat="43.6786" lon="5.91443">
        <ele>538</ele>
        <time>2015-10-31T09:13:42.285Z</time>
      </trkpt>
      <trkpt lat="43.67854" lon="5.91452">
        <ele>538</ele>
        <time>2015-10-31T09:13:44.308Z</time>
      </trkpt>
      <trkpt lat="43.67851" lon="5.91456">
        <ele>539</ele>
        <time>2015-10-31T09:13:45.285Z</time>
      </trkpt>
      <trkpt lat="43.67846" lon="5.91466">
        <ele>539</ele>
        <time>2015-10-31T09:13:47.306Z</time>
      </trkpt>
      <trkpt lat="43.67843" lon="5.9147">
        <ele>539</ele>
        <time>2015-10-31T09:13:48.285Z</time>
      </trkpt>
      <trkpt lat="43.67837" lon="5.91477">
        <ele>539</ele>
        <time>2015-10-31T09:13:50.318Z</time>
      </trkpt>
      <trkpt lat="43.67835" lon="5.9148">
        <ele>539</ele>
        <time>2015-10-31T09:13:51.284Z</time>
      </trkpt>
      <trkpt lat="43.67828" lon="5.91484">
        <ele>539</ele>
        <time>2015-10-31T09:13:53.318Z</time>
      </trkpt>
      <trkpt lat="43.67825" lon="5.91485">
        <ele>539</ele>
        <time>2015-10-31T09:13:54.284Z</time>
      </trkpt>
      <trkpt lat="43.67818" lon="5.91482">
        <ele>539</ele>
        <time>2015-10-31T09:13:56.328Z</time>
      </trkpt>
      <trkpt lat="43.67815" lon="5.91478">
        <ele>538</ele>
        <time>2015-10-31T09:13:57.285Z</time>
      </trkpt>
      <trkpt lat="43.67811" lon="5.91469">
        <ele>539</ele>
        <time>2015-10-31T09:13:59.307Z</time>
      </trkpt>
      <trkpt lat="43.67809" lon="5.91464">
        <ele>539</ele>
        <time>2015-10-31T09:14:00.284Z</time>
      </trkpt>
      <trkpt lat="43.67807" lon="5.91453">
        <ele>539</ele>
        <time>2015-10-31T09:14:02.427Z</time>
      </trkpt>
      <trkpt lat="43.67806" lon="5.91447">
        <ele>539</ele>
        <time>2015-10-31T09:14:03.285Z</time>
      </trkpt>
      <trkpt lat="43.67804" lon="5.91436">
        <ele>539</ele>
        <time>2015-10-31T09:14:05.307Z</time>
      </trkpt>
      <trkpt lat="43.67802" lon="5.9143">
        <ele>540</ele>
        <time>2015-10-31T09:14:06.283Z</time>
      </trkpt>
      <trkpt lat="43.67798" lon="5.9142">
        <ele>540</ele>
        <time>2015-10-31T09:14:08.307Z</time>
      </trkpt>
      <trkpt lat="43.67795" lon="5.91415">
        <ele>539</ele>
        <time>2015-10-31T09:14:09.285Z</time>
      </trkpt>
      <trkpt lat="43.67789" lon="5.91407">
        <ele>539</ele>
        <time>2015-10-31T09:14:11.308Z</time>
      </trkpt>
      <trkpt lat="43.67786" lon="5.91403">
        <ele>539</ele>
        <time>2015-10-31T09:14:12.283Z</time>
      </trkpt>
      <trkpt lat="43.67783" lon="5.91399">
        <ele>539</ele>
        <time>2015-10-31T09:14:13.306Z</time>
      </trkpt>
      <trkpt lat="43.67779" lon="5.91393">
        <ele>539</ele>
        <time>2015-10-31T09:14:14.508Z</time>
      </trkpt>
      <trkpt lat="43.67777" lon="5.91388">
        <ele>539</ele>
        <time>2015-10-31T09:14:15.306Z</time>
      </trkpt>
      <trkpt lat="43.67774" lon="5.91382">
        <ele>539</ele>
        <time>2015-10-31T09:14:16.288Z</time>
      </trkpt>
      <trkpt lat="43.67767" lon="5.91374">
        <ele>539</ele>
        <time>2015-10-31T09:14:18.308Z</time>
      </trkpt>
      <trkpt lat="43.67763" lon="5.9137">
        <ele>539</ele>
        <time>2015-10-31T09:14:19.284Z</time>
      </trkpt>
      <trkpt lat="43.67761" lon="5.91365">
        <ele>539</ele>
        <time>2015-10-31T09:14:20.308Z</time>
      </trkpt>
      <trkpt lat="43.67759" lon="5.91359">
        <ele>539</ele>
        <time>2015-10-31T09:14:21.293Z</time>
      </trkpt>
      <trkpt lat="43.67754" lon="5.91352">
        <ele>539</ele>
        <time>2015-10-31T09:14:23.319Z</time>
      </trkpt>
      <trkpt lat="43.67749" lon="5.91351">
        <ele>538</ele>
        <time>2015-10-31T09:14:24.286Z</time>
      </trkpt>
      <trkpt lat="43.67742" lon="5.9135">
        <ele>538</ele>
        <time>2015-10-31T09:14:26.315Z</time>
      </trkpt>
      <trkpt lat="43.67739" lon="5.91347">
        <ele>538</ele>
        <time>2015-10-31T09:14:27.285Z</time>
      </trkpt>
      <trkpt lat="43.67734" lon="5.91344">
        <ele>538</ele>
        <time>2015-10-31T09:14:28.387Z</time>
      </trkpt>
      <trkpt lat="43.67729" lon="5.9134">
        <ele>537</ele>
        <time>2015-10-31T09:14:29.286Z</time>
      </trkpt>
      <trkpt lat="43.67725" lon="5.91334">
        <ele>537</ele>
        <time>2015-10-31T09:14:30.396Z</time>
      </trkpt>
      <trkpt lat="43.67721" lon="5.91329">
        <ele>536</ele>
        <time>2015-10-31T09:14:31.310Z</time>
      </trkpt>
      <trkpt lat="43.67716" lon="5.91325">
        <ele>536</ele>
        <time>2015-10-31T09:14:32.308Z</time>
      </trkpt>
      <trkpt lat="43.67712" lon="5.91321">
        <ele>535</ele>
        <time>2015-10-31T09:14:33.283Z</time>
      </trkpt>
      <trkpt lat="43.67709" lon="5.91317">
        <ele>535</ele>
        <time>2015-10-31T09:14:34.298Z</time>
      </trkpt>
      <trkpt lat="43.67704" lon="5.91313">
        <ele>535</ele>
        <time>2015-10-31T09:14:35.285Z</time>
      </trkpt>
      <trkpt lat="43.677" lon="5.91311">
        <ele>535</ele>
        <time>2015-10-31T09:14:36.417Z</time>
      </trkpt>
      <trkpt lat="43.67695" lon="5.91307">
        <ele>535</ele>
        <time>2015-10-31T09:14:37.285Z</time>
      </trkpt>
      <trkpt lat="43.67691" lon="5.91304">
        <ele>534</ele>
        <time>2015-10-31T09:14:38.309Z</time>
      </trkpt>
      <trkpt lat="43.67686" lon="5.91298">
        <ele>534</ele>
        <time>2015-10-31T09:14:39.285Z</time>
      </trkpt>
      <trkpt lat="43.67681" lon="5.91292">
        <ele>534</ele>
        <time>2015-10-31T09:14:40.327Z</time>
      </trkpt>
      <trkpt lat="43.67678" lon="5.91286">
        <ele>534</ele>
        <time>2015-10-31T09:14:41.285Z</time>
      </trkpt>
      <trkpt lat="43.67675" lon="5.9128">
        <ele>534</ele>
        <time>2015-10-31T09:14:42.306Z</time>
      </trkpt>
      <trkpt lat="43.67673" lon="5.91274">
        <ele>534</ele>
        <time>2015-10-31T09:14:43.307Z</time>
      </trkpt>
      <trkpt lat="43.6767" lon="5.91263">
        <ele>534</ele>
        <time>2015-10-31T09:14:45.310Z</time>
      </trkpt>
      <trkpt lat="43.67669" lon="5.91258">
        <ele>534</ele>
        <time>2015-10-31T09:14:46.287Z</time>
      </trkpt>
      <trkpt lat="43.6767" lon="5.91248">
        <ele>534</ele>
        <time>2015-10-31T09:14:48.302Z</time>
      </trkpt>
      <trkpt lat="43.67669" lon="5.91244">
        <ele>534</ele>
        <time>2015-10-31T09:14:49.285Z</time>
      </trkpt>
      <trkpt lat="43.67664" lon="5.91237">
        <ele>535</ele>
        <time>2015-10-31T09:14:51.309Z</time>
      </trkpt>
      <trkpt lat="43.67662" lon="5.91233">
        <ele>536</ele>
        <time>2015-10-31T09:14:52.285Z</time>
      </trkpt>
      <trkpt lat="43.67659" lon="5.91222">
        <ele>536</ele>
        <time>2015-10-31T09:14:55.308Z</time>
      </trkpt>
      <trkpt lat="43.67656" lon="5.91219">
        <ele>536</ele>
        <time>2015-10-31T09:14:56.285Z</time>
      </trkpt>
      <trkpt lat="43.67648" lon="5.91213">
        <ele>535</ele>
        <time>2015-10-31T09:14:59.309Z</time>
      </trkpt>
      <trkpt lat="43.67646" lon="5.91212">
        <ele>535</ele>
        <time>2015-10-31T09:15:00.286Z</time>
      </trkpt>
      <trkpt lat="43.6764" lon="5.91219">
        <ele>536</ele>
        <time>2015-10-31T09:15:03.319Z</time>
      </trkpt>
      <trkpt lat="43.67639" lon="5.91223">
        <ele>535</ele>
        <time>2015-10-31T09:15:04.296Z</time>
      </trkpt>
      <trkpt lat="43.67634" lon="5.91233">
        <ele>533</ele>
        <time>2015-10-31T09:15:07.306Z</time>
      </trkpt>
      <trkpt lat="43.67631" lon="5.91233">
        <ele>534</ele>
        <time>2015-10-31T09:15:08.285Z</time>
      </trkpt>
      <trkpt lat="43.67624" lon="5.9123">
        <ele>533</ele>
        <time>2015-10-31T09:15:10.307Z</time>
      </trkpt>
      <trkpt lat="43.67619" lon="5.91228">
        <ele>534</ele>
        <time>2015-10-31T09:15:11.285Z</time>
      </trkpt>
      <trkpt lat="43.67611" lon="5.91224">
        <ele>534</ele>
        <time>2015-10-31T09:15:13.318Z</time>
      </trkpt>
      <trkpt lat="43.67607" lon="5.91222">
        <ele>534</ele>
        <time>2015-10-31T09:15:14.285Z</time>
      </trkpt>
      <trkpt lat="43.67599" lon="5.9122">
        <ele>533</ele>
        <time>2015-10-31T09:15:16.301Z</time>
      </trkpt>
      <trkpt lat="43.67595" lon="5.9122">
        <ele>532</ele>
        <time>2015-10-31T09:15:17.285Z</time>
      </trkpt>
      <trkpt lat="43.67588" lon="5.91227">
        <ele>531</ele>
        <time>2015-10-31T09:15:26.307Z</time>
      </trkpt>
      <trkpt lat="43.67586" lon="5.91229">
        <ele>531</ele>
        <time>2015-10-31T09:15:27.285Z</time>
      </trkpt>
      <trkpt lat="43.6758" lon="5.91236">
        <ele>530</ele>
        <time>2015-10-31T09:15:30.309Z</time>
      </trkpt>
      <trkpt lat="43.67576" lon="5.9124">
        <ele>530</ele>
        <time>2015-10-31T09:15:31.288Z</time>
      </trkpt>
      <trkpt lat="43.67572" lon="5.91242">
        <ele>529</ele>
        <time>2015-10-31T09:15:32.289Z</time>
      </trkpt>
      <trkpt lat="43.67568" lon="5.91245">
        <ele>528</ele>
        <time>2015-10-31T09:15:33.284Z</time>
      </trkpt>
      <trkpt lat="43.67563" lon="5.91253">
        <ele>527</ele>
        <time>2015-10-31T09:15:35.323Z</time>
      </trkpt>
      <trkpt lat="43.67561" lon="5.91259">
        <ele>527</ele>
        <time>2015-10-31T09:15:36.279Z</time>
      </trkpt>
      <trkpt lat="43.6756" lon="5.91269">
        <ele>525</ele>
        <time>2015-10-31T09:15:38.307Z</time>
      </trkpt>
      <trkpt lat="43.6756" lon="5.91274">
        <ele>525</ele>
        <time>2015-10-31T09:15:39.286Z</time>
      </trkpt>
      <trkpt lat="43.67555" lon="5.9128">
        <ele>525</ele>
        <time>2015-10-31T09:15:44.309Z</time>
      </trkpt>
      <trkpt lat="43.67551" lon="5.91278">
        <ele>525</ele>
        <time>2015-10-31T09:15:45.286Z</time>
      </trkpt>
      <trkpt lat="43.67543" lon="5.91279">
        <ele>523</ele>
        <time>2015-10-31T09:15:48.318Z</time>
      </trkpt>
      <trkpt lat="43.67539" lon="5.91283">
        <ele>522</ele>
        <time>2015-10-31T09:15:49.286Z</time>
      </trkpt>
      <trkpt lat="43.67532" lon="5.91285">
        <ele>522</ele>
        <time>2015-10-31T09:15:50.309Z</time>
      </trkpt>
      <trkpt lat="43.67527" lon="5.91284">
        <ele>522</ele>
        <time>2015-10-31T09:15:51.288Z</time>
      </trkpt>
      <trkpt lat="43.67519" lon="5.91287">
        <ele>521</ele>
        <time>2015-10-31T09:15:53.310Z</time>
      </trkpt>
      <trkpt lat="43.67517" lon="5.91289">
        <ele>521</ele>
        <time>2015-10-31T09:15:54.283Z</time>
      </trkpt>
      <trkpt lat="43.6751" lon="5.91292">
        <ele>522</ele>
        <time>2015-10-31T09:15:57.318Z</time>
      </trkpt>
      <trkpt lat="43.67507" lon="5.91291">
        <ele>522</ele>
        <time>2015-10-31T09:15:58.286Z</time>
      </trkpt>
      <trkpt lat="43.67499" lon="5.9129">
        <ele>523</ele>
        <time>2015-10-31T09:16:01.308Z</time>
      </trkpt>
      <trkpt lat="43.67496" lon="5.91292">
        <ele>522</ele>
        <time>2015-10-31T09:16:02.286Z</time>
      </trkpt>
      <trkpt lat="43.6749" lon="5.91293">
        <ele>521</ele>
        <time>2015-10-31T09:16:04.316Z</time>
      </trkpt>
      <trkpt lat="43.67487" lon="5.91296">
        <ele>520</ele>
        <time>2015-10-31T09:16:05.285Z</time>
      </trkpt>
      <trkpt lat="43.67483" lon="5.91305">
        <ele>519</ele>
        <time>2015-10-31T09:16:07.307Z</time>
      </trkpt>
      <trkpt lat="43.67481" lon="5.91309">
        <ele>519</ele>
        <time>2015-10-31T09:16:08.311Z</time>
      </trkpt>
      <trkpt lat="43.67475" lon="5.91313">
        <ele>518</ele>
        <time>2015-10-31T09:16:10.305Z</time>
      </trkpt>
      <trkpt lat="43.67472" lon="5.91312">
        <ele>518</ele>
        <time>2015-10-31T09:16:11.289Z</time>
      </trkpt>
      <trkpt lat="43.67468" lon="5.91305">
        <ele>519</ele>
        <time>2015-10-31T09:16:13.306Z</time>
      </trkpt>
      <trkpt lat="43.67466" lon="5.91301">
        <ele>519</ele>
        <time>2015-10-31T09:16:14.297Z</time>
      </trkpt>
      <trkpt lat="43.67463" lon="5.91293">
        <ele>519</ele>
        <time>2015-10-31T09:16:16.316Z</time>
      </trkpt>
      <trkpt lat="43.6746" lon="5.9129">
        <ele>518</ele>
        <time>2015-10-31T09:16:17.286Z</time>
      </trkpt>
      <trkpt lat="43.67452" lon="5.91287">
        <ele>518</ele>
        <time>2015-10-31T09:16:19.338Z</time>
      </trkpt>
      <trkpt lat="43.67447" lon="5.91287">
        <ele>518</ele>
        <time>2015-10-31T09:16:20.284Z</time>
      </trkpt>
      <trkpt lat="43.67442" lon="5.91284">
        <ele>517</ele>
        <time>2015-10-31T09:16:21.318Z</time>
      </trkpt>
      <trkpt lat="43.67438" lon="5.91281">
        <ele>517</ele>
        <time>2015-10-31T09:16:22.285Z</time>
      </trkpt>
      <trkpt lat="43.6743" lon="5.91282">
        <ele>516</ele>
        <time>2015-10-31T09:16:24.333Z</time>
      </trkpt>
      <trkpt lat="43.67427" lon="5.91286">
        <ele>516</ele>
        <time>2015-10-31T09:16:25.286Z</time>
      </trkpt>
      <trkpt lat="43.67423" lon="5.91296">
        <ele>515</ele>
        <time>2015-10-31T09:16:27.377Z</time>
      </trkpt>
      <trkpt lat="43.67422" lon="5.91302">
        <ele>515</ele>
        <time>2015-10-31T09:16:28.297Z</time>
      </trkpt>
      <trkpt lat="43.67419" lon="5.91308">
        <ele>515</ele>
        <time>2015-10-31T09:16:29.308Z</time>
      </trkpt>
      <trkpt lat="43.67417" lon="5.91312">
        <ele>515</ele>
        <time>2015-10-31T09:16:30.286Z</time>
      </trkpt>
      <trkpt lat="43.67412" lon="5.91321">
        <ele>515</ele>
        <time>2015-10-31T09:16:32.309Z</time>
      </trkpt>
      <trkpt lat="43.6741" lon="5.91325">
        <ele>515</ele>
        <time>2015-10-31T09:16:33.285Z</time>
      </trkpt>
      <trkpt lat="43.67404" lon="5.91331">
        <ele>515</ele>
        <time>2015-10-31T09:16:35.320Z</time>
      </trkpt>
      <trkpt lat="43.67401" lon="5.91333">
        <ele>516</ele>
        <time>2015-10-31T09:16:36.295Z</time>
      </trkpt>
      <trkpt lat="43.67395" lon="5.91338">
        <ele>516</ele>
        <time>2015-10-31T09:16:38.308Z</time>
      </trkpt>
      <trkpt lat="43.67392" lon="5.91341">
        <ele>517</ele>
        <time>2015-10-31T09:16:39.286Z</time>
      </trkpt>
      <trkpt lat="43.67385" lon="5.91347">
        <ele>517</ele>
        <time>2015-10-31T09:16:42.307Z</time>
      </trkpt>
      <trkpt lat="43.67382" lon="5.91349">
        <ele>517</ele>
        <time>2015-10-31T09:16:43.284Z</time>
      </trkpt>
      <trkpt lat="43.6738" lon="5.91359">
        <ele>517</ele>
        <time>2015-10-31T09:16:46.308Z</time>
      </trkpt>
      <trkpt lat="43.67381" lon="5.91363">
        <ele>517</ele>
        <time>2015-10-31T09:16:47.286Z</time>
      </trkpt>
      <trkpt lat="43.67382" lon="5.91372">
        <ele>518</ele>
        <time>2015-10-31T09:16:49.308Z</time>
      </trkpt>
      <trkpt lat="43.67383" lon="5.91376">
        <ele>518</ele>
        <time>2015-10-31T09:16:50.287Z</time>
      </trkpt>
      <trkpt lat="43.67383" lon="5.91388">
        <ele>518</ele>
        <time>2015-10-31T09:16:53.309Z</time>
      </trkpt>
      <trkpt lat="43.67383" lon="5.91392">
        <ele>518</ele>
        <time>2015-10-31T09:16:54.281Z</time>
      </trkpt>
      <trkpt lat="43.67384" lon="5.91403">
        <ele>519</ele>
        <time>2015-10-31T09:16:57.309Z</time>
      </trkpt>
      <trkpt lat="43.67384" lon="5.91406">
        <ele>519</ele>
        <time>2015-10-31T09:16:58.296Z</time>
      </trkpt>
      <trkpt lat="43.67384" lon="5.91419">
        <ele>520</ele>
        <time>2015-10-31T09:17:02.320Z</time>
      </trkpt>
      <trkpt lat="43.67383" lon="5.91421">
        <ele>520</ele>
        <time>2015-10-31T09:17:03.285Z</time>
      </trkpt>
      <trkpt lat="43.67378" lon="5.91432">
        <ele>521</ele>
        <time>2015-10-31T09:17:09.309Z</time>
      </trkpt>
      <trkpt lat="43.67378" lon="5.91435">
        <ele>521</ele>
        <time>2015-10-31T09:17:10.286Z</time>
      </trkpt>
      <trkpt lat="43.6738" lon="5.91446">
        <ele>522</ele>
        <time>2015-10-31T09:17:13.307Z</time>
      </trkpt>
      <trkpt lat="43.6738" lon="5.91449">
        <ele>522</ele>
        <time>2015-10-31T09:17:14.284Z</time>
      </trkpt>
      <trkpt lat="43.67379" lon="5.9146">
        <ele>522</ele>
        <time>2015-10-31T09:17:17.308Z</time>
      </trkpt>
      <trkpt lat="43.67376" lon="5.91462">
        <ele>522</ele>
        <time>2015-10-31T09:17:18.285Z</time>
      </trkpt>
      <trkpt lat="43.67369" lon="5.91458">
        <ele>523</ele>
        <time>2015-10-31T09:17:22.308Z</time>
      </trkpt>
      <trkpt lat="43.67367" lon="5.91457">
        <ele>524</ele>
        <time>2015-10-31T09:17:23.310Z</time>
      </trkpt>
      <trkpt lat="43.67359" lon="5.91454">
        <ele>525</ele>
        <time>2015-10-31T09:17:27.308Z</time>
      </trkpt>
      <trkpt lat="43.67357" lon="5.91453">
        <ele>525</ele>
        <time>2015-10-31T09:17:28.287Z</time>
      </trkpt>
      <trkpt lat="43.67349" lon="5.91456">
        <ele>526</ele>
        <time>2015-10-31T09:17:33.308Z</time>
      </trkpt>
      <trkpt lat="43.67349" lon="5.91459">
        <ele>526</ele>
        <time>2015-10-31T09:17:34.310Z</time>
      </trkpt>
      <trkpt lat="43.67345" lon="5.9147">
        <ele>528</ele>
        <time>2015-10-31T09:17:39.308Z</time>
      </trkpt>
      <trkpt lat="43.67343" lon="5.9147">
        <ele>528</ele>
        <time>2015-10-31T09:17:40.285Z</time>
      </trkpt>
      <trkpt lat="43.67336" lon="5.91471">
        <ele>528</ele>
        <time>2015-10-31T09:17:44.308Z</time>
      </trkpt>
      <trkpt lat="43.67334" lon="5.91472">
        <ele>528</ele>
        <time>2015-10-31T09:17:45.311Z</time>
      </trkpt>
      <trkpt lat="43.67327" lon="5.91478">
        <ele>529</ele>
        <time>2015-10-31T09:17:49.307Z</time>
      </trkpt>
      <trkpt lat="43.67326" lon="5.91479">
        <ele>530</ele>
        <time>2015-10-31T09:17:50.285Z</time>
      </trkpt>
      <trkpt lat="43.67323" lon="5.91489">
        <ele>530</ele>
        <time>2015-10-31T09:17:54.312Z</time>
      </trkpt>
      <trkpt lat="43.67323" lon="5.91491">
        <ele>531</ele>
        <time>2015-10-31T09:17:55.285Z</time>
      </trkpt>
      <trkpt lat="43.67324" lon="5.91502">
        <ele>531</ele>
        <time>2015-10-31T09:17:59.393Z</time>
      </trkpt>
      <trkpt lat="43.67324" lon="5.91505">
        <ele>531</ele>
        <time>2015-10-31T09:18:00.285Z</time>
      </trkpt>
      <trkpt lat="43.67317" lon="5.91511">
        <ele>532</ele>
        <time>2015-10-31T09:18:05.307Z</time>
      </trkpt>
      <trkpt lat="43.67315" lon="5.91511">
        <ele>533</ele>
        <time>2015-10-31T09:18:06.286Z</time>
      </trkpt>
      <trkpt lat="43.67306" lon="5.91511">
        <ele>534</ele>
        <time>2015-10-31T09:18:11.318Z</time>
      </trkpt>
      <trkpt lat="43.67305" lon="5.91511">
        <ele>533</ele>
        <time>2015-10-31T09:18:12.311Z</time>
      </trkpt>
      <trkpt lat="43.67296" lon="5.91511">
        <ele>534</ele>
        <time>2015-10-31T09:18:17.383Z</time>
      </trkpt>
      <trkpt lat="43.67294" lon="5.91511">
        <ele>534</ele>
        <time>2015-10-31T09:18:18.283Z</time>
      </trkpt>
      <trkpt lat="43.67286" lon="5.91511">
        <ele>535</ele>
        <time>2015-10-31T09:18:22.320Z</time>
      </trkpt>
      <trkpt lat="43.67284" lon="5.91511">
        <ele>534</ele>
        <time>2015-10-31T09:18:23.297Z</time>
      </trkpt>
      <trkpt lat="43.67276" lon="5.91511">
        <ele>535</ele>
        <time>2015-10-31T09:18:28.338Z</time>
      </trkpt>
      <trkpt lat="43.67273" lon="5.9151">
        <ele>535</ele>
        <time>2015-10-31T09:18:29.286Z</time>
      </trkpt>
      <trkpt lat="43.67266" lon="5.91509">
        <ele>535</ele>
        <time>2015-10-31T09:18:33.320Z</time>
      </trkpt>
      <trkpt lat="43.67263" lon="5.91508">
        <ele>535</ele>
        <time>2015-10-31T09:18:34.287Z</time>
      </trkpt>
      <trkpt lat="43.67256" lon="5.91503">
        <ele>534</ele>
        <time>2015-10-31T09:18:37.309Z</time>
      </trkpt>
      <trkpt lat="43.67253" lon="5.91501">
        <ele>534</ele>
        <time>2015-10-31T09:18:38.297Z</time>
      </trkpt>
      <trkpt lat="43.67245" lon="5.91498">
        <ele>533</ele>
        <time>2015-10-31T09:18:41.308Z</time>
      </trkpt>
      <trkpt lat="43.67242" lon="5.91497">
        <ele>532</ele>
        <time>2015-10-31T09:18:42.285Z</time>
      </trkpt>
      <trkpt lat="43.67235" lon="5.91495">
        <ele>532</ele>
        <time>2015-10-31T09:18:44.308Z</time>
      </trkpt>
      <trkpt lat="43.67231" lon="5.91494">
        <ele>532</ele>
        <time>2015-10-31T09:18:45.286Z</time>
      </trkpt>
      <trkpt lat="43.67224" lon="5.91493">
        <ele>531</ele>
        <time>2015-10-31T09:18:47.308Z</time>
      </trkpt>
      <trkpt lat="43.6722" lon="5.91492">
        <ele>531</ele>
        <time>2015-10-31T09:18:48.277Z</time>
      </trkpt>
      <trkpt lat="43.67214" lon="5.9149">
        <ele>532</ele>
        <time>2015-10-31T09:18:50.334Z</time>
      </trkpt>
      <trkpt lat="43.6721" lon="5.91489">
        <ele>531</ele>
        <time>2015-10-31T09:18:51.286Z</time>
      </trkpt>
      <trkpt lat="43.67201" lon="5.91489">
        <ele>530</ele>
        <time>2015-10-31T09:18:54.320Z</time>
      </trkpt>
      <trkpt lat="43.67198" lon="5.9149">
        <ele>529</ele>
        <time>2015-10-31T09:18:55.287Z</time>
      </trkpt>
      <trkpt lat="43.67192" lon="5.91496">
        <ele>529</ele>
        <time>2015-10-31T09:18:57.313Z</time>
      </trkpt>
      <trkpt lat="43.67189" lon="5.915">
        <ele>528</ele>
        <time>2015-10-31T09:18:58.286Z</time>
      </trkpt>
      <trkpt lat="43.67183" lon="5.91508">
        <ele>529</ele>
        <time>2015-10-31T09:19:01.309Z</time>
      </trkpt>
      <trkpt lat="43.67181" lon="5.91507">
        <ele>528</ele>
        <time>2015-10-31T09:19:02.286Z</time>
      </trkpt>
      <trkpt lat="43.67175" lon="5.91507">
        <ele>528</ele>
        <time>2015-10-31T09:19:04.321Z</time>
      </trkpt>
      <trkpt lat="43.67172" lon="5.91506">
        <ele>528</ele>
        <time>2015-10-31T09:19:05.286Z</time>
      </trkpt>
      <trkpt lat="43.67165" lon="5.91505">
        <ele>527</ele>
        <time>2015-10-31T09:19:07.309Z</time>
      </trkpt>
      <trkpt lat="43.67162" lon="5.91506">
        <ele>527</ele>
        <time>2015-10-31T09:19:08.286Z</time>
      </trkpt>
      <trkpt lat="43.67155" lon="5.91506">
        <ele>526</ele>
        <time>2015-10-31T09:19:10.308Z</time>
      </trkpt>
      <trkpt lat="43.67151" lon="5.91506">
        <ele>526</ele>
        <time>2015-10-31T09:19:11.287Z</time>
      </trkpt>
      <trkpt lat="43.67143" lon="5.91508">
        <ele>526</ele>
        <time>2015-10-31T09:19:14.309Z</time>
      </trkpt>
      <trkpt lat="43.67142" lon="5.9151">
        <ele>526</ele>
        <time>2015-10-31T09:19:15.286Z</time>
      </trkpt>
      <trkpt lat="43.67136" lon="5.91516">
        <ele>525</ele>
        <time>2015-10-31T09:19:18.308Z</time>
      </trkpt>
      <trkpt lat="43.67132" lon="5.91516">
        <ele>525</ele>
        <time>2015-10-31T09:19:19.295Z</time>
      </trkpt>
      <trkpt lat="43.67124" lon="5.91515">
        <ele>525</ele>
        <time>2015-10-31T09:19:21.308Z</time>
      </trkpt>
      <trkpt lat="43.6712" lon="5.91515">
        <ele>524</ele>
        <time>2015-10-31T09:19:22.311Z</time>
      </trkpt>
      <trkpt lat="43.67113" lon="5.91517">
        <ele>524</ele>
        <time>2015-10-31T09:19:24.308Z</time>
      </trkpt>
      <trkpt lat="43.6711" lon="5.91518">
        <ele>524</ele>
        <time>2015-10-31T09:19:25.285Z</time>
      </trkpt>
      <trkpt lat="43.67102" lon="5.91524">
        <ele>525</ele>
        <time>2015-10-31T09:19:29.307Z</time>
      </trkpt>
      <trkpt lat="43.67101" lon="5.91525">
        <ele>525</ele>
        <time>2015-10-31T09:19:30.295Z</time>
      </trkpt>
      <trkpt lat="43.67099" lon="5.91536">
        <ele>526</ele>
        <time>2015-10-31T09:19:35.319Z</time>
      </trkpt>
      <trkpt lat="43.67098" lon="5.91538">
        <ele>526</ele>
        <time>2015-10-31T09:19:36.294Z</time>
      </trkpt>
      <trkpt lat="43.6709" lon="5.91541">
        <ele>526</ele>
        <time>2015-10-31T09:19:40.309Z</time>
      </trkpt>
      <trkpt lat="43.67088" lon="5.91543">
        <ele>526</ele>
        <time>2015-10-31T09:19:41.286Z</time>
      </trkpt>
      <trkpt lat="43.67084" lon="5.91551">
        <ele>527</ele>
        <time>2015-10-31T09:19:44.320Z</time>
      </trkpt>
      <trkpt lat="43.67083" lon="5.91555">
        <ele>527</ele>
        <time>2015-10-31T09:19:45.295Z</time>
      </trkpt>
      <trkpt lat="43.67079" lon="5.91564">
        <ele>528</ele>
        <time>2015-10-31T09:19:48.309Z</time>
      </trkpt>
      <trkpt lat="43.67079" lon="5.91567">
        <ele>528</ele>
        <time>2015-10-31T09:19:49.286Z</time>
      </trkpt>
      <trkpt lat="43.67079" lon="5.91577">
        <ele>528</ele>
        <time>2015-10-31T09:19:52.311Z</time>
      </trkpt>
      <trkpt lat="43.6708" lon="5.9158">
        <ele>528</ele>
        <time>2015-10-31T09:19:53.286Z</time>
      </trkpt>
      <trkpt lat="43.67077" lon="5.91591">
        <ele>529</ele>
        <time>2015-10-31T09:19:57.321Z</time>
      </trkpt>
      <trkpt lat="43.67076" lon="5.91593">
        <ele>529</ele>
        <time>2015-10-31T09:19:58.286Z</time>
      </trkpt>
      <trkpt lat="43.67068" lon="5.91595">
        <ele>529</ele>
        <time>2015-10-31T09:20:02.321Z</time>
      </trkpt>
      <trkpt lat="43.67066" lon="5.91595">
        <ele>529</ele>
        <time>2015-10-31T09:20:03.287Z</time>
      </trkpt>
      <trkpt lat="43.67057" lon="5.91596">
        <ele>529</ele>
        <time>2015-10-31T09:20:07.358Z</time>
      </trkpt>
      <trkpt lat="43.67055" lon="5.91596">
        <ele>529</ele>
        <time>2015-10-31T09:20:08.286Z</time>
      </trkpt>
      <trkpt lat="43.67048" lon="5.91597">
        <ele>528</ele>
        <time>2015-10-31T09:20:11.310Z</time>
      </trkpt>
      <trkpt lat="43.67046" lon="5.91598">
        <ele>529</ele>
        <time>2015-10-31T09:20:12.287Z</time>
      </trkpt>
      <trkpt lat="43.67042" lon="5.91607">
        <ele>529</ele>
        <time>2015-10-31T09:20:16.322Z</time>
      </trkpt>
      <trkpt lat="43.6704" lon="5.91608">
        <ele>529</ele>
        <time>2015-10-31T09:20:17.286Z</time>
      </trkpt>
      <trkpt lat="43.67031" lon="5.91607">
        <ele>528</ele>
        <time>2015-10-31T09:20:20.308Z</time>
      </trkpt>
      <trkpt lat="43.67028" lon="5.91607">
        <ele>528</ele>
        <time>2015-10-31T09:20:21.286Z</time>
      </trkpt>
      <trkpt lat="43.67019" lon="5.91605">
        <ele>528</ele>
        <time>2015-10-31T09:20:24.341Z</time>
      </trkpt>
      <trkpt lat="43.67017" lon="5.91607">
        <ele>528</ele>
        <time>2015-10-31T09:20:25.284Z</time>
      </trkpt>
      <trkpt lat="43.67016" lon="5.91617">
        <ele>528</ele>
        <time>2015-10-31T09:20:28.307Z</time>
      </trkpt>
      <trkpt lat="43.67016" lon="5.91621">
        <ele>528</ele>
        <time>2015-10-31T09:20:29.287Z</time>
      </trkpt>
      <trkpt lat="43.67017" lon="5.91631">
        <ele>528</ele>
        <time>2015-10-31T09:20:32.321Z</time>
      </trkpt>
      <trkpt lat="43.67018" lon="5.91634">
        <ele>528</ele>
        <time>2015-10-31T09:20:33.285Z</time>
      </trkpt>
      <trkpt lat="43.6702" lon="5.91644">
        <ele>528</ele>
        <time>2015-10-31T09:20:36.336Z</time>
      </trkpt>
      <trkpt lat="43.6702" lon="5.91648">
        <ele>528</ele>
        <time>2015-10-31T09:20:37.286Z</time>
      </trkpt>
      <trkpt lat="43.6702" lon="5.91659">
        <ele>529</ele>
        <time>2015-10-31T09:20:40.526Z</time>
      </trkpt>
      <trkpt lat="43.67019" lon="5.91662">
        <ele>529</ele>
        <time>2015-10-31T09:20:41.286Z</time>
      </trkpt>
      <trkpt lat="43.67018" lon="5.91672">
        <ele>529</ele>
        <time>2015-10-31T09:20:44.321Z</time>
      </trkpt>
      <trkpt lat="43.67017" lon="5.91675">
        <ele>529</ele>
        <time>2015-10-31T09:20:45.298Z</time>
      </trkpt>
      <trkpt lat="43.67011" lon="5.91683">
        <ele>529</ele>
        <time>2015-10-31T09:20:48.309Z</time>
      </trkpt>
      <trkpt lat="43.67009" lon="5.91686">
        <ele>529</ele>
        <time>2015-10-31T09:20:49.282Z</time>
      </trkpt>
      <trkpt lat="43.67007" lon="5.91696">
        <ele>529</ele>
        <time>2015-10-31T09:20:52.567Z</time>
      </trkpt>
      <trkpt lat="43.67006" lon="5.91699">
        <ele>529</ele>
        <time>2015-10-31T09:20:53.297Z</time>
      </trkpt>
      <trkpt lat="43.66999" lon="5.91705">
        <ele>529</ele>
        <time>2015-10-31T09:20:56.313Z</time>
      </trkpt>
      <trkpt lat="43.66996" lon="5.91704">
        <ele>529</ele>
        <time>2015-10-31T09:20:57.291Z</time>
      </trkpt>
      <trkpt lat="43.66991" lon="5.91701">
        <ele>529</ele>
        <time>2015-10-31T09:20:59.309Z</time>
      </trkpt>
      <trkpt lat="43.66989" lon="5.91697">
        <ele>528</ele>
        <time>2015-10-31T09:21:00.287Z</time>
      </trkpt>
      <trkpt lat="43.66987" lon="5.91687">
        <ele>528</ele>
        <time>2015-10-31T09:21:02.329Z</time>
      </trkpt>
      <trkpt lat="43.66987" lon="5.91682">
        <ele>528</ele>
        <time>2015-10-31T09:21:03.311Z</time>
      </trkpt>
      <trkpt lat="43.66984" lon="5.91672">
        <ele>529</ele>
        <time>2015-10-31T09:21:10.333Z</time>
      </trkpt>
      <trkpt lat="43.66982" lon="5.91671">
        <ele>529</ele>
        <time>2015-10-31T09:21:11.286Z</time>
      </trkpt>
      <trkpt lat="43.66976" lon="5.91664">
        <ele>528</ele>
        <time>2015-10-31T09:21:14.334Z</time>
      </trkpt>
      <trkpt lat="43.66972" lon="5.91663">
        <ele>528</ele>
        <time>2015-10-31T09:21:15.286Z</time>
      </trkpt>
      <trkpt lat="43.66966" lon="5.91672">
        <ele>528</ele>
        <time>2015-10-31T09:21:19.310Z</time>
      </trkpt>
      <trkpt lat="43.66966" lon="5.91674">
        <ele>528</ele>
        <time>2015-10-31T09:21:20.287Z</time>
      </trkpt>
      <trkpt lat="43.66957" lon="5.91671">
        <ele>527</ele>
        <time>2015-10-31T09:21:25.335Z</time>
      </trkpt>
      <trkpt lat="43.66955" lon="5.91669">
        <ele>526</ele>
        <time>2015-10-31T09:21:26.286Z</time>
      </trkpt>
      <trkpt lat="43.66951" lon="5.91658">
        <ele>526</ele>
        <time>2015-10-31T09:21:29.309Z</time>
      </trkpt>
      <trkpt lat="43.6695" lon="5.91655">
        <ele>526</ele>
        <time>2015-10-31T09:21:30.287Z</time>
      </trkpt>
      <trkpt lat="43.66942" lon="5.91655">
        <ele>526</ele>
        <time>2015-10-31T09:21:33.323Z</time>
      </trkpt>
      <trkpt lat="43.6694" lon="5.91657">
        <ele>526</ele>
        <time>2015-10-31T09:21:34.287Z</time>
      </trkpt>
      <trkpt lat="43.66932" lon="5.91658">
        <ele>525</ele>
        <time>2015-10-31T09:21:37.362Z</time>
      </trkpt>
      <trkpt lat="43.66929" lon="5.91656">
        <ele>525</ele>
        <time>2015-10-31T09:21:38.284Z</time>
      </trkpt>
      <trkpt lat="43.66923" lon="5.91649">
        <ele>524</ele>
        <time>2015-10-31T09:21:40.308Z</time>
      </trkpt>
      <trkpt lat="43.6692" lon="5.91645">
        <ele>524</ele>
        <time>2015-10-31T09:21:41.310Z</time>
      </trkpt>
      <trkpt lat="43.66912" lon="5.91642">
        <ele>524</ele>
        <time>2015-10-31T09:21:43.311Z</time>
      </trkpt>
      <trkpt lat="43.66908" lon="5.91641">
        <ele>524</ele>
        <time>2015-10-31T09:21:44.298Z</time>
      </trkpt>
      <trkpt lat="43.66903" lon="5.91635">
        <ele>523</ele>
        <time>2015-10-31T09:21:46.309Z</time>
      </trkpt>
      <trkpt lat="43.66902" lon="5.9163">
        <ele>523</ele>
        <time>2015-10-31T09:21:47.292Z</time>
      </trkpt>
      <trkpt lat="43.66893" lon="5.9163">
        <ele>525</ele>
        <time>2015-10-31T09:21:54.309Z</time>
      </trkpt>
      <trkpt lat="43.66892" lon="5.91634">
        <ele>524</ele>
        <time>2015-10-31T09:21:55.286Z</time>
      </trkpt>
      <trkpt lat="43.66886" lon="5.91644">
        <ele>525</ele>
        <time>2015-10-31T09:21:58.309Z</time>
      </trkpt>
      <trkpt lat="43.66884" lon="5.91646">
        <ele>525</ele>
        <time>2015-10-31T09:21:59.285Z</time>
      </trkpt>
      <trkpt lat="43.66881" lon="5.91654">
        <ele>526</ele>
        <time>2015-10-31T09:22:02.310Z</time>
      </trkpt>
      <trkpt lat="43.66879" lon="5.91657">
        <ele>526</ele>
        <time>2015-10-31T09:22:03.288Z</time>
      </trkpt>
      <trkpt lat="43.66872" lon="5.91659">
        <ele>526</ele>
        <time>2015-10-31T09:22:06.310Z</time>
      </trkpt>
      <trkpt lat="43.6687" lon="5.9166">
        <ele>525</ele>
        <time>2015-10-31T09:22:07.286Z</time>
      </trkpt>
      <trkpt lat="43.66864" lon="5.91665">
        <ele>525</ele>
        <time>2015-10-31T09:22:09.310Z</time>
      </trkpt>
      <trkpt lat="43.6686" lon="5.91666">
        <ele>525</ele>
        <time>2015-10-31T09:22:10.287Z</time>
      </trkpt>
      <trkpt lat="43.66852" lon="5.91667">
        <ele>526</ele>
        <time>2015-10-31T09:22:12.309Z</time>
      </trkpt>
      <trkpt lat="43.66847" lon="5.91667">
        <ele>525</ele>
        <time>2015-10-31T09:22:13.311Z</time>
      </trkpt>
      <trkpt lat="43.6684" lon="5.91664">
        <ele>524</ele>
        <time>2015-10-31T09:22:15.320Z</time>
      </trkpt>
      <trkpt lat="43.66838" lon="5.91663">
        <ele>523</ele>
        <time>2015-10-31T09:22:16.287Z</time>
      </trkpt>
      <trkpt lat="43.6683" lon="5.91661">
        <ele>523</ele>
        <time>2015-10-31T09:23:00.354Z</time>
      </trkpt>
      <trkpt lat="43.66828" lon="5.9166">
        <ele>523</ele>
        <time>2015-10-31T09:23:01.315Z</time>
      </trkpt>
      <trkpt lat="43.6682" lon="5.9166">
        <ele>522</ele>
        <time>2015-10-31T09:23:04.321Z</time>
      </trkpt>
      <trkpt lat="43.66818" lon="5.91658">
        <ele>522</ele>
        <time>2015-10-31T09:23:05.288Z</time>
      </trkpt>
      <trkpt lat="43.66813" lon="5.91653">
        <ele>522</ele>
        <time>2015-10-31T09:23:08.311Z</time>
      </trkpt>
      <trkpt lat="43.66809" lon="5.91653">
        <ele>521</ele>
        <time>2015-10-31T09:23:09.287Z</time>
      </trkpt>
      <trkpt lat="43.66805" lon="5.91654">
        <ele>522</ele>
        <time>2015-10-31T09:23:10.310Z</time>
      </trkpt>
      <trkpt lat="43.668" lon="5.91654">
        <ele>522</ele>
        <time>2015-10-31T09:23:11.287Z</time>
      </trkpt>
      <trkpt lat="43.66792" lon="5.91654">
        <ele>521</ele>
        <time>2015-10-31T09:23:13.309Z</time>
      </trkpt>
      <trkpt lat="43.66789" lon="5.91652">
        <ele>520</ele>
        <time>2015-10-31T09:23:14.287Z</time>
      </trkpt>
      <trkpt lat="43.66784" lon="5.91646">
        <ele>519</ele>
        <time>2015-10-31T09:23:16.309Z</time>
      </trkpt>
      <trkpt lat="43.66782" lon="5.91642">
        <ele>520</ele>
        <time>2015-10-31T09:23:17.288Z</time>
      </trkpt>
      <trkpt lat="43.6678" lon="5.91632">
        <ele>520</ele>
        <time>2015-10-31T09:23:20.325Z</time>
      </trkpt>
      <trkpt lat="43.6678" lon="5.91629">
        <ele>520</ele>
        <time>2015-10-31T09:23:21.286Z</time>
      </trkpt>
      <trkpt lat="43.66778" lon="5.9162">
        <ele>520</ele>
        <time>2015-10-31T09:23:24.309Z</time>
      </trkpt>
      <trkpt lat="43.66775" lon="5.91619">
        <ele>519</ele>
        <time>2015-10-31T09:23:25.287Z</time>
      </trkpt>
      <trkpt lat="43.66768" lon="5.91619">
        <ele>520</ele>
        <time>2015-10-31T09:23:33.308Z</time>
      </trkpt>
      <trkpt lat="43.66766" lon="5.91617">
        <ele>520</ele>
        <time>2015-10-31T09:23:34.287Z</time>
      </trkpt>
      <trkpt lat="43.66758" lon="5.91615">
        <ele>519</ele>
        <time>2015-10-31T09:23:37.309Z</time>
      </trkpt>
      <trkpt lat="43.66756" lon="5.91616">
        <ele>519</ele>
        <time>2015-10-31T09:23:38.323Z</time>
      </trkpt>
      <trkpt lat="43.66749" lon="5.91623">
        <ele>517</ele>
        <time>2015-10-31T09:23:41.319Z</time>
      </trkpt>
      <trkpt lat="43.66748" lon="5.91624">
        <ele>517</ele>
        <time>2015-10-31T09:23:42.287Z</time>
      </trkpt>
      <trkpt lat="43.6674" lon="5.91628">
        <ele>514</ele>
        <time>2015-10-31T09:23:46.310Z</time>
      </trkpt>
      <trkpt lat="43.66738" lon="5.91629">
        <ele>513</ele>
        <time>2015-10-31T09:23:47.293Z</time>
      </trkpt>
      <trkpt lat="43.66729" lon="5.91627">
        <ele>514</ele>
        <time>2015-10-31T09:23:50.309Z</time>
      </trkpt>
      <trkpt lat="43.66726" lon="5.91627">
        <ele>514</ele>
        <time>2015-10-31T09:23:51.506Z</time>
      </trkpt>
      <trkpt lat="43.6672" lon="5.91629">
        <ele>514</ele>
        <time>2015-10-31T09:23:53.311Z</time>
      </trkpt>
      <trkpt lat="43.66718" lon="5.91631">
        <ele>513</ele>
        <time>2015-10-31T09:23:54.289Z</time>
      </trkpt>
      <trkpt lat="43.66711" lon="5.91632">
        <ele>513</ele>
        <time>2015-10-31T09:23:56.310Z</time>
      </trkpt>
      <trkpt lat="43.66708" lon="5.91631">
        <ele>513</ele>
        <time>2015-10-31T09:23:57.300Z</time>
      </trkpt>
      <trkpt lat="43.66701" lon="5.91634">
        <ele>514</ele>
        <time>2015-10-31T09:24:00.311Z</time>
      </trkpt>
      <trkpt lat="43.66699" lon="5.91637">
        <ele>514</ele>
        <time>2015-10-31T09:24:01.287Z</time>
      </trkpt>
      <trkpt lat="43.66694" lon="5.91645">
        <ele>515</ele>
        <time>2015-10-31T09:24:04.308Z</time>
      </trkpt>
      <trkpt lat="43.66692" lon="5.91647">
        <ele>516</ele>
        <time>2015-10-31T09:24:05.287Z</time>
      </trkpt>
      <trkpt lat="43.66687" lon="5.91655">
        <ele>516</ele>
        <time>2015-10-31T09:24:09.322Z</time>
      </trkpt>
      <trkpt lat="43.66686" lon="5.91657">
        <ele>516</ele>
        <time>2015-10-31T09:24:10.287Z</time>
      </trkpt>
      <trkpt lat="43.6668" lon="5.91664">
        <ele>517</ele>
        <time>2015-10-31T09:24:14.309Z</time>
      </trkpt>
      <trkpt lat="43.66679" lon="5.91666">
        <ele>517</ele>
        <time>2015-10-31T09:24:15.312Z</time>
      </trkpt>
      <trkpt lat="43.66674" lon="5.91673">
        <ele>517</ele>
        <time>2015-10-31T09:24:19.311Z</time>
      </trkpt>
      <trkpt lat="43.66672" lon="5.91675">
        <ele>517</ele>
        <time>2015-10-31T09:24:20.288Z</time>
      </trkpt>
      <trkpt lat="43.66666" lon="5.91683">
        <ele>516</ele>
        <time>2015-10-31T09:24:24.320Z</time>
      </trkpt>
      <trkpt lat="43.66665" lon="5.91684">
        <ele>516</ele>
        <time>2015-10-31T09:24:25.286Z</time>
      </trkpt>
      <trkpt lat="43.66657" lon="5.91689">
        <ele>518</ele>
        <time>2015-10-31T09:24:57.309Z</time>
      </trkpt>
      <trkpt lat="43.66655" lon="5.91689">
        <ele>518</ele>
        <time>2015-10-31T09:24:58.301Z</time>
      </trkpt>
      <trkpt lat="43.66649" lon="5.91685">
        <ele>517</ele>
        <time>2015-10-31T09:25:00.310Z</time>
      </trkpt>
      <trkpt lat="43.66647" lon="5.91682">
        <ele>517</ele>
        <time>2015-10-31T09:25:01.288Z</time>
      </trkpt>
      <trkpt lat="43.66642" lon="5.91675">
        <ele>517</ele>
        <time>2015-10-31T09:25:03.320Z</time>
      </trkpt>
      <trkpt lat="43.66639" lon="5.91672">
        <ele>516</ele>
        <time>2015-10-31T09:25:04.287Z</time>
      </trkpt>
      <trkpt lat="43.66635" lon="5.91667">
        <ele>516</ele>
        <time>2015-10-31T09:25:05.309Z</time>
      </trkpt>
      <trkpt lat="43.66628" lon="5.91662">
        <ele>515</ele>
        <time>2015-10-31T09:25:06.287Z</time>
      </trkpt>
      <trkpt lat="43.66623" lon="5.91659">
        <ele>514</ele>
        <time>2015-10-31T09:25:07.392Z</time>
      </trkpt>
      <trkpt lat="43.66618" lon="5.91658">
        <ele>514</ele>
        <time>2015-10-31T09:25:08.288Z</time>
      </trkpt>
      <trkpt lat="43.66613" lon="5.9166">
        <ele>514</ele>
        <time>2015-10-31T09:25:09.327Z</time>
      </trkpt>
      <trkpt lat="43.66609" lon="5.91664">
        <ele>514</ele>
        <time>2015-10-31T09:25:10.287Z</time>
      </trkpt>
      <trkpt lat="43.66603" lon="5.91671">
        <ele>514</ele>
        <time>2015-10-31T09:25:12.325Z</time>
      </trkpt>
      <trkpt lat="43.666" lon="5.91674">
        <ele>514</ele>
        <time>2015-10-31T09:25:13.286Z</time>
      </trkpt>
      <trkpt lat="43.66594" lon="5.91682">
        <ele>514</ele>
        <time>2015-10-31T09:25:15.299Z</time>
      </trkpt>
      <trkpt lat="43.66592" lon="5.91685">
        <ele>514</ele>
        <time>2015-10-31T09:25:16.287Z</time>
      </trkpt>
      <trkpt lat="43.66587" lon="5.91695">
        <ele>514</ele>
        <time>2015-10-31T09:25:19.348Z</time>
      </trkpt>
      <trkpt lat="43.66585" lon="5.91697">
        <ele>514</ele>
        <time>2015-10-31T09:25:20.289Z</time>
      </trkpt>
      <trkpt lat="43.66579" lon="5.91704">
        <ele>515</ele>
        <time>2015-10-31T09:25:23.309Z</time>
      </trkpt>
      <trkpt lat="43.66577" lon="5.91707">
        <ele>515</ele>
        <time>2015-10-31T09:25:24.287Z</time>
      </trkpt>
      <trkpt lat="43.6657" lon="5.91714">
        <ele>515</ele>
        <time>2015-10-31T09:25:27.309Z</time>
      </trkpt>
      <trkpt lat="43.66567" lon="5.91715">
        <ele>515</ele>
        <time>2015-10-31T09:25:28.287Z</time>
      </trkpt>
      <trkpt lat="43.66558" lon="5.91715">
        <ele>516</ele>
        <time>2015-10-31T09:25:31.316Z</time>
      </trkpt>
      <trkpt lat="43.66556" lon="5.91716">
        <ele>516</ele>
        <time>2015-10-31T09:25:32.283Z</time>
      </trkpt>
      <trkpt lat="43.66548" lon="5.9172">
        <ele>516</ele>
        <time>2015-10-31T09:25:35.310Z</time>
      </trkpt>
      <trkpt lat="43.66545" lon="5.91722">
        <ele>516</ele>
        <time>2015-10-31T09:25:36.287Z</time>
      </trkpt>
      <trkpt lat="43.66539" lon="5.9173">
        <ele>517</ele>
        <time>2015-10-31T09:25:39.310Z</time>
      </trkpt>
      <trkpt lat="43.66537" lon="5.91733">
        <ele>517</ele>
        <time>2015-10-31T09:25:40.287Z</time>
      </trkpt>
      <trkpt lat="43.66529" lon="5.9174">
        <ele>516</ele>
        <time>2015-10-31T09:25:43.310Z</time>
      </trkpt>
      <trkpt lat="43.66526" lon="5.91742">
        <ele>516</ele>
        <time>2015-10-31T09:25:44.287Z</time>
      </trkpt>
      <trkpt lat="43.66521" lon="5.91745">
        <ele>516</ele>
        <time>2015-10-31T09:25:46.312Z</time>
      </trkpt>
      <trkpt lat="43.66518" lon="5.91746">
        <ele>516</ele>
        <time>2015-10-31T09:25:47.287Z</time>
      </trkpt>
      <trkpt lat="43.6651" lon="5.9175">
        <ele>516</ele>
        <time>2015-10-31T09:25:50.358Z</time>
      </trkpt>
      <trkpt lat="43.66507" lon="5.91751">
        <ele>516</ele>
        <time>2015-10-31T09:25:51.288Z</time>
      </trkpt>
      <trkpt lat="43.66499" lon="5.91755">
        <ele>516</ele>
        <time>2015-10-31T09:25:54.310Z</time>
      </trkpt>
      <trkpt lat="43.66497" lon="5.91757">
        <ele>516</ele>
        <time>2015-10-31T09:25:55.288Z</time>
      </trkpt>
      <trkpt lat="43.66489" lon="5.91762">
        <ele>515</ele>
        <time>2015-10-31T09:25:58.333Z</time>
      </trkpt>
      <trkpt lat="43.66487" lon="5.91765">
        <ele>515</ele>
        <time>2015-10-31T09:25:59.288Z</time>
      </trkpt>
      <trkpt lat="43.66483" lon="5.91771">
        <ele>515</ele>
        <time>2015-10-31T09:26:01.302Z</time>
      </trkpt>
      <trkpt lat="43.66482" lon="5.91775">
        <ele>515</ele>
        <time>2015-10-31T09:26:02.287Z</time>
      </trkpt>
      <trkpt lat="43.66478" lon="5.91781">
        <ele>516</ele>
        <time>2015-10-31T09:26:04.335Z</time>
      </trkpt>
      <trkpt lat="43.66476" lon="5.91785">
        <ele>516</ele>
        <time>2015-10-31T09:26:05.286Z</time>
      </trkpt>
      <trkpt lat="43.66468" lon="5.91789">
        <ele>517</ele>
        <time>2015-10-31T09:26:08.337Z</time>
      </trkpt>
      <trkpt lat="43.66465" lon="5.9179">
        <ele>517</ele>
        <time>2015-10-31T09:26:09.287Z</time>
      </trkpt>
      <trkpt lat="43.66459" lon="5.91791">
        <ele>517</ele>
        <time>2015-10-31T09:26:11.309Z</time>
      </trkpt>
      <trkpt lat="43.66456" lon="5.91792">
        <ele>517</ele>
        <time>2015-10-31T09:26:12.288Z</time>
      </trkpt>
      <trkpt lat="43.6645" lon="5.91795">
        <ele>517</ele>
        <time>2015-10-31T09:26:14.304Z</time>
      </trkpt>
      <trkpt lat="43.66448" lon="5.91798">
        <ele>517</ele>
        <time>2015-10-31T09:26:15.284Z</time>
      </trkpt>
      <trkpt lat="43.66443" lon="5.91803">
        <ele>517</ele>
        <time>2015-10-31T09:26:17.306Z</time>
      </trkpt>
      <trkpt lat="43.6644" lon="5.91805">
        <ele>517</ele>
        <time>2015-10-31T09:26:18.285Z</time>
      </trkpt>
      <trkpt lat="43.66434" lon="5.91807">
        <ele>517</ele>
        <time>2015-10-31T09:26:20.299Z</time>
      </trkpt>
      <trkpt lat="43.66431" lon="5.91808">
        <ele>517</ele>
        <time>2015-10-31T09:26:21.293Z</time>
      </trkpt>
      <trkpt lat="43.66425" lon="5.91811">
        <ele>517</ele>
        <time>2015-10-31T09:26:23.311Z</time>
      </trkpt>
      <trkpt lat="43.66422" lon="5.91813">
        <ele>517</ele>
        <time>2015-10-31T09:26:24.306Z</time>
      </trkpt>
      <trkpt lat="43.66417" lon="5.91818">
        <ele>517</ele>
        <time>2015-10-31T09:26:26.303Z</time>
      </trkpt>
      <trkpt lat="43.66414" lon="5.91821">
        <ele>518</ele>
        <time>2015-10-31T09:26:27.285Z</time>
      </trkpt>
      <trkpt lat="43.66409" lon="5.91827">
        <ele>518</ele>
        <time>2015-10-31T09:26:29.303Z</time>
      </trkpt>
      <trkpt lat="43.66407" lon="5.91829">
        <ele>519</ele>
        <time>2015-10-31T09:26:30.284Z</time>
      </trkpt>
      <trkpt lat="43.66401" lon="5.91834">
        <ele>518</ele>
        <time>2015-10-31T09:26:32.312Z</time>
      </trkpt>
      <trkpt lat="43.66399" lon="5.91837">
        <ele>518</ele>
        <time>2015-10-31T09:26:33.284Z</time>
      </trkpt>
      <trkpt lat="43.66392" lon="5.91844">
        <ele>518</ele>
        <time>2015-10-31T09:26:36.304Z</time>
      </trkpt>
      <trkpt lat="43.6639" lon="5.91847">
        <ele>518</ele>
        <time>2015-10-31T09:26:37.302Z</time>
      </trkpt>
      <trkpt lat="43.66385" lon="5.91851">
        <ele>518</ele>
        <time>2015-10-31T09:26:39.309Z</time>
      </trkpt>
      <trkpt lat="43.66382" lon="5.91853">
        <ele>518</ele>
        <time>2015-10-31T09:26:40.310Z</time>
      </trkpt>
      <trkpt lat="43.66375" lon="5.91861">
        <ele>518</ele>
        <time>2015-10-31T09:26:43.333Z</time>
      </trkpt>
      <trkpt lat="43.66372" lon="5.91864">
        <ele>518</ele>
        <time>2015-10-31T09:26:44.286Z</time>
      </trkpt>
      <trkpt lat="43.66367" lon="5.91869">
        <ele>518</ele>
        <time>2015-10-31T09:26:46.321Z</time>
      </trkpt>
      <trkpt lat="43.66365" lon="5.91872">
        <ele>518</ele>
        <time>2015-10-31T09:26:47.300Z</time>
      </trkpt>
      <trkpt lat="43.6636" lon="5.91877">
        <ele>518</ele>
        <time>2015-10-31T09:26:49.332Z</time>
      </trkpt>
      <trkpt lat="43.66357" lon="5.9188">
        <ele>518</ele>
        <time>2015-10-31T09:26:50.288Z</time>
      </trkpt>
      <trkpt lat="43.66352" lon="5.91886">
        <ele>518</ele>
        <time>2015-10-31T09:26:52.308Z</time>
      </trkpt>
      <trkpt lat="43.6635" lon="5.91889">
        <ele>518</ele>
        <time>2015-10-31T09:26:53.288Z</time>
      </trkpt>
      <trkpt lat="43.66344" lon="5.91894">
        <ele>519</ele>
        <time>2015-10-31T09:26:55.320Z</time>
      </trkpt>
      <trkpt lat="43.66342" lon="5.91897">
        <ele>518</ele>
        <time>2015-10-31T09:26:56.288Z</time>
      </trkpt>
      <trkpt lat="43.66337" lon="5.91903">
        <ele>519</ele>
        <time>2015-10-31T09:26:58.299Z</time>
      </trkpt>
      <trkpt lat="43.66335" lon="5.91905">
        <ele>519</ele>
        <time>2015-10-31T09:26:59.285Z</time>
      </trkpt>
      <trkpt lat="43.66327" lon="5.91912">
        <ele>519</ele>
        <time>2015-10-31T09:27:02.321Z</time>
      </trkpt>
      <trkpt lat="43.66325" lon="5.91914">
        <ele>519</ele>
        <time>2015-10-31T09:27:03.286Z</time>
      </trkpt>
      <trkpt lat="43.66321" lon="5.91921">
        <ele>519</ele>
        <time>2015-10-31T09:27:06.321Z</time>
      </trkpt>
      <trkpt lat="43.66319" lon="5.91924">
        <ele>519</ele>
        <time>2015-10-31T09:27:07.287Z</time>
      </trkpt>
      <trkpt lat="43.66315" lon="5.91932">
        <ele>518</ele>
        <time>2015-10-31T09:27:10.309Z</time>
      </trkpt>
      <trkpt lat="43.66313" lon="5.91934">
        <ele>518</ele>
        <time>2015-10-31T09:27:11.280Z</time>
      </trkpt>
      <trkpt lat="43.66307" lon="5.91943">
        <ele>518</ele>
        <time>2015-10-31T09:27:14.310Z</time>
      </trkpt>
      <trkpt lat="43.66304" lon="5.91946">
        <ele>518</ele>
        <time>2015-10-31T09:27:15.288Z</time>
      </trkpt>
      <trkpt lat="43.663" lon="5.91953">
        <ele>518</ele>
        <time>2015-10-31T09:27:17.324Z</time>
      </trkpt>
      <trkpt lat="43.66299" lon="5.91957">
        <ele>518</ele>
        <time>2015-10-31T09:27:18.286Z</time>
      </trkpt>
      <trkpt lat="43.66296" lon="5.91965">
        <ele>518</ele>
        <time>2015-10-31T09:27:20.318Z</time>
      </trkpt>
      <trkpt lat="43.66295" lon="5.91968">
        <ele>518</ele>
        <time>2015-10-31T09:27:21.287Z</time>
      </trkpt>
      <trkpt lat="43.66286" lon="5.91972">
        <ele>518</ele>
        <time>2015-10-31T09:27:24.311Z</time>
      </trkpt>
      <trkpt lat="43.66283" lon="5.91974">
        <ele>518</ele>
        <time>2015-10-31T09:27:25.287Z</time>
      </trkpt>
      <trkpt lat="43.66279" lon="5.9198">
        <ele>517</ele>
        <time>2015-10-31T09:27:27.321Z</time>
      </trkpt>
      <trkpt lat="43.66276" lon="5.91983">
        <ele>517</ele>
        <time>2015-10-31T09:27:28.287Z</time>
      </trkpt>
      <trkpt lat="43.66272" lon="5.91989">
        <ele>518</ele>
        <time>2015-10-31T09:27:30.309Z</time>
      </trkpt>
      <trkpt lat="43.6627" lon="5.91993">
        <ele>518</ele>
        <time>2015-10-31T09:27:31.287Z</time>
      </trkpt>
      <trkpt lat="43.66265" lon="5.92">
        <ele>519</ele>
        <time>2015-10-31T09:27:33.321Z</time>
      </trkpt>
      <trkpt lat="43.66263" lon="5.92003">
        <ele>519</ele>
        <time>2015-10-31T09:27:34.298Z</time>
      </trkpt>
      <trkpt lat="43.66257" lon="5.92007">
        <ele>520</ele>
        <time>2015-10-31T09:27:36.310Z</time>
      </trkpt>
      <trkpt lat="43.66254" lon="5.92009">
        <ele>520</ele>
        <time>2015-10-31T09:27:37.287Z</time>
      </trkpt>
      <trkpt lat="43.66248" lon="5.92015">
        <ele>520</ele>
        <time>2015-10-31T09:27:39.317Z</time>
      </trkpt>
      <trkpt lat="43.66246" lon="5.92018">
        <ele>520</ele>
        <time>2015-10-31T09:27:40.288Z</time>
      </trkpt>
      <trkpt lat="43.66241" lon="5.92024">
        <ele>519</ele>
        <time>2015-10-31T09:27:42.315Z</time>
      </trkpt>
      <trkpt lat="43.66239" lon="5.92027">
        <ele>519</ele>
        <time>2015-10-31T09:27:43.288Z</time>
      </trkpt>
      <trkpt lat="43.66234" lon="5.92034">
        <ele>520</ele>
        <time>2015-10-31T09:27:45.340Z</time>
      </trkpt>
      <trkpt lat="43.66232" lon="5.92037">
        <ele>520</ele>
        <time>2015-10-31T09:27:46.288Z</time>
      </trkpt>
      <trkpt lat="43.66226" lon="5.92041">
        <ele>520</ele>
        <time>2015-10-31T09:27:48.310Z</time>
      </trkpt>
      <trkpt lat="43.66222" lon="5.92044">
        <ele>520</ele>
        <time>2015-10-31T09:27:49.296Z</time>
      </trkpt>
      <trkpt lat="43.66216" lon="5.92049">
        <ele>520</ele>
        <time>2015-10-31T09:27:51.310Z</time>
      </trkpt>
      <trkpt lat="43.66213" lon="5.92053">
        <ele>520</ele>
        <time>2015-10-31T09:27:52.288Z</time>
      </trkpt>
      <trkpt lat="43.66208" lon="5.92059">
        <ele>520</ele>
        <time>2015-10-31T09:27:54.311Z</time>
      </trkpt>
      <trkpt lat="43.66205" lon="5.92061">
        <ele>520</ele>
        <time>2015-10-31T09:27:55.300Z</time>
      </trkpt>
      <trkpt lat="43.66199" lon="5.92066">
        <ele>520</ele>
        <time>2015-10-31T09:27:57.312Z</time>
      </trkpt>
      <trkpt lat="43.66195" lon="5.92067">
        <ele>520</ele>
        <time>2015-10-31T09:27:58.288Z</time>
      </trkpt>
      <trkpt lat="43.66189" lon="5.9207">
        <ele>520</ele>
        <time>2015-10-31T09:28:00.309Z</time>
      </trkpt>
      <trkpt lat="43.66186" lon="5.92071">
        <ele>520</ele>
        <time>2015-10-31T09:28:01.311Z</time>
      </trkpt>
      <trkpt lat="43.6618" lon="5.92071">
        <ele>520</ele>
        <time>2015-10-31T09:28:03.310Z</time>
      </trkpt>
      <trkpt lat="43.66177" lon="5.92071">
        <ele>520</ele>
        <time>2015-10-31T09:28:04.299Z</time>
      </trkpt>
      <trkpt lat="43.6617" lon="5.92072">
        <ele>520</ele>
        <time>2015-10-31T09:28:06.309Z</time>
      </trkpt>
      <trkpt lat="43.66167" lon="5.92073">
        <ele>520</ele>
        <time>2015-10-31T09:28:07.287Z</time>
      </trkpt>
      <trkpt lat="43.6616" lon="5.92074">
        <ele>520</ele>
        <time>2015-10-31T09:28:09.311Z</time>
      </trkpt>
      <trkpt lat="43.66157" lon="5.92074">
        <ele>520</ele>
        <time>2015-10-31T09:28:10.287Z</time>
      </trkpt>
      <trkpt lat="43.6615" lon="5.92074">
        <ele>520</ele>
        <time>2015-10-31T09:28:12.310Z</time>
      </trkpt>
      <trkpt lat="43.66146" lon="5.92074">
        <ele>520</ele>
        <time>2015-10-31T09:28:13.288Z</time>
      </trkpt>
      <trkpt lat="43.6614" lon="5.92076">
        <ele>520</ele>
        <time>2015-10-31T09:28:15.309Z</time>
      </trkpt>
      <trkpt lat="43.66136" lon="5.92077">
        <ele>520</ele>
        <time>2015-10-31T09:28:16.325Z</time>
      </trkpt>
      <trkpt lat="43.6613" lon="5.92081">
        <ele>520</ele>
        <time>2015-10-31T09:28:18.309Z</time>
      </trkpt>
      <trkpt lat="43.66127" lon="5.92084">
        <ele>521</ele>
        <time>2015-10-31T09:28:19.287Z</time>
      </trkpt>
      <trkpt lat="43.66121" lon="5.92087">
        <ele>521</ele>
        <time>2015-10-31T09:28:21.310Z</time>
      </trkpt>
      <trkpt lat="43.66118" lon="5.92088">
        <ele>521</ele>
        <time>2015-10-31T09:28:22.288Z</time>
      </trkpt>
      <trkpt lat="43.66111" lon="5.9209">
        <ele>521</ele>
        <time>2015-10-31T09:28:24.326Z</time>
      </trkpt>
      <trkpt lat="43.66108" lon="5.92091">
        <ele>522</ele>
        <time>2015-10-31T09:28:25.289Z</time>
      </trkpt>
      <trkpt lat="43.66099" lon="5.9209">
        <ele>521</ele>
        <time>2015-10-31T09:28:28.312Z</time>
      </trkpt>
      <trkpt lat="43.66096" lon="5.92091">
        <ele>521</ele>
        <time>2015-10-31T09:28:29.299Z</time>
      </trkpt>
      <trkpt lat="43.66089" lon="5.92099">
        <ele>521</ele>
        <time>2015-10-31T09:28:32.311Z</time>
      </trkpt>
      <trkpt lat="43.66087" lon="5.92101">
        <ele>521</ele>
        <time>2015-10-31T09:28:33.313Z</time>
      </trkpt>
      <trkpt lat="43.66082" lon="5.92107">
        <ele>521</ele>
        <time>2015-10-31T09:28:35.312Z</time>
      </trkpt>
      <trkpt lat="43.6608" lon="5.92109">
        <ele>521</ele>
        <time>2015-10-31T09:28:36.287Z</time>
      </trkpt>
      <trkpt lat="43.66075" lon="5.92114">
        <ele>522</ele>
        <time>2015-10-31T09:28:38.310Z</time>
      </trkpt>
      <trkpt lat="43.66072" lon="5.92117">
        <ele>522</ele>
        <time>2015-10-31T09:28:39.293Z</time>
      </trkpt>
      <trkpt lat="43.66068" lon="5.92122">
        <ele>522</ele>
        <time>2015-10-31T09:28:41.313Z</time>
      </trkpt>
      <trkpt lat="43.66065" lon="5.92125">
        <ele>522</ele>
        <time>2015-10-31T09:28:42.285Z</time>
      </trkpt>
      <trkpt lat="43.6606" lon="5.92131">
        <ele>522</ele>
        <time>2015-10-31T09:28:44.333Z</time>
      </trkpt>
      <trkpt lat="43.66058" lon="5.92133">
        <ele>523</ele>
        <time>2015-10-31T09:28:45.287Z</time>
      </trkpt>
      <trkpt lat="43.66053" lon="5.92138">
        <ele>523</ele>
        <time>2015-10-31T09:28:47.312Z</time>
      </trkpt>
      <trkpt lat="43.6605" lon="5.92141">
        <ele>523</ele>
        <time>2015-10-31T09:28:48.290Z</time>
      </trkpt>
      <trkpt lat="43.66043" lon="5.92149">
        <ele>523</ele>
        <time>2015-10-31T09:28:52.312Z</time>
      </trkpt>
      <trkpt lat="43.66041" lon="5.92151">
        <ele>523</ele>
        <time>2015-10-31T09:28:53.288Z</time>
      </trkpt>
      <trkpt lat="43.66033" lon="5.92155">
        <ele>523</ele>
        <time>2015-10-31T09:28:56.322Z</time>
      </trkpt>
      <trkpt lat="43.66031" lon="5.92156">
        <ele>524</ele>
        <time>2015-10-31T09:28:57.288Z</time>
      </trkpt>
      <trkpt lat="43.66029" lon="5.92166">
        <ele>525</ele>
        <time>2015-10-31T09:38:04.312Z</time>
      </trkpt>
      <trkpt lat="43.66026" lon="5.92169">
        <ele>526</ele>
        <time>2015-10-31T09:38:05.290Z</time>
      </trkpt>
      <trkpt lat="43.66019" lon="5.92175">
        <ele>526</ele>
        <time>2015-10-31T09:38:07.314Z</time>
      </trkpt>
      <trkpt lat="43.66016" lon="5.92178">
        <ele>526</ele>
        <time>2015-10-31T09:38:08.294Z</time>
      </trkpt>
      <trkpt lat="43.66009" lon="5.92184">
        <ele>526</ele>
        <time>2015-10-31T09:38:10.295Z</time>
      </trkpt>
      <trkpt lat="43.66005" lon="5.92188">
        <ele>526</ele>
        <time>2015-10-31T09:38:11.278Z</time>
      </trkpt>
      <trkpt lat="43.65998" lon="5.92194">
        <ele>526</ele>
        <time>2015-10-31T09:38:13.312Z</time>
      </trkpt>
      <trkpt lat="43.65995" lon="5.92197">
        <ele>526</ele>
        <time>2015-10-31T09:38:14.289Z</time>
      </trkpt>
      <trkpt lat="43.65989" lon="5.92203">
        <ele>526</ele>
        <time>2015-10-31T09:38:16.299Z</time>
      </trkpt>
      <trkpt lat="43.65987" lon="5.92206">
        <ele>526</ele>
        <time>2015-10-31T09:38:17.283Z</time>
      </trkpt>
      <trkpt lat="43.65982" lon="5.92212">
        <ele>526</ele>
        <time>2015-10-31T09:38:20.326Z</time>
      </trkpt>
      <trkpt lat="43.6598" lon="5.92214">
        <ele>526</ele>
        <time>2015-10-31T09:38:21.292Z</time>
      </trkpt>
      <trkpt lat="43.65973" lon="5.92221">
        <ele>527</ele>
        <time>2015-10-31T09:38:25.314Z</time>
      </trkpt>
      <trkpt lat="43.65972" lon="5.92223">
        <ele>527</ele>
        <time>2015-10-31T09:38:26.289Z</time>
      </trkpt>
      <trkpt lat="43.65965" lon="5.9223">
        <ele>527</ele>
        <time>2015-10-31T09:38:30.325Z</time>
      </trkpt>
      <trkpt lat="43.65963" lon="5.92232">
        <ele>527</ele>
        <time>2015-10-31T09:38:31.289Z</time>
      </trkpt>
      <trkpt lat="43.65957" lon="5.92239">
        <ele>527</ele>
        <time>2015-10-31T09:38:35.312Z</time>
      </trkpt>
      <trkpt lat="43.65956" lon="5.92241">
        <ele>527</ele>
        <time>2015-10-31T09:38:36.289Z</time>
      </trkpt>
      <trkpt lat="43.65951" lon="5.92248">
        <ele>527</ele>
        <time>2015-10-31T09:38:39.302Z</time>
      </trkpt>
      <trkpt lat="43.65949" lon="5.9225">
        <ele>527</ele>
        <time>2015-10-31T09:38:40.290Z</time>
      </trkpt>
      <trkpt lat="43.65945" lon="5.92258">
        <ele>527</ele>
        <time>2015-10-31T09:38:43.320Z</time>
      </trkpt>
      <trkpt lat="43.65943" lon="5.9226">
        <ele>527</ele>
        <time>2015-10-31T09:38:44.290Z</time>
      </trkpt>
      <trkpt lat="43.65939" lon="5.92268">
        <ele>527</ele>
        <time>2015-10-31T09:38:47.315Z</time>
      </trkpt>
      <trkpt lat="43.65937" lon="5.9227">
        <ele>527</ele>
        <time>2015-10-31T09:38:48.291Z</time>
      </trkpt>
      <trkpt lat="43.65933" lon="5.92278">
        <ele>527</ele>
        <time>2015-10-31T09:38:51.494Z</time>
      </trkpt>
      <trkpt lat="43.65932" lon="5.92281">
        <ele>527</ele>
        <time>2015-10-31T09:38:52.289Z</time>
      </trkpt>
      <trkpt lat="43.65929" lon="5.9229">
        <ele>527</ele>
        <time>2015-10-31T09:38:55.316Z</time>
      </trkpt>
      <trkpt lat="43.65928" lon="5.92294">
        <ele>527</ele>
        <time>2015-10-31T09:38:56.291Z</time>
      </trkpt>
      <trkpt lat="43.65927" lon="5.92303">
        <ele>528</ele>
        <time>2015-10-31T09:38:59.303Z</time>
      </trkpt>
      <trkpt lat="43.65926" lon="5.92306">
        <ele>528</ele>
        <time>2015-10-31T09:39:00.291Z</time>
      </trkpt>
      <trkpt lat="43.65924" lon="5.92316">
        <ele>528</ele>
        <time>2015-10-31T09:39:03.316Z</time>
      </trkpt>
      <trkpt lat="43.65923" lon="5.9232">
        <ele>528</ele>
        <time>2015-10-31T09:39:04.309Z</time>
      </trkpt>
      <trkpt lat="43.65921" lon="5.92331">
        <ele>527</ele>
        <time>2015-10-31T09:39:07.314Z</time>
      </trkpt>
      <trkpt lat="43.6592" lon="5.92335">
        <ele>528</ele>
        <time>2015-10-31T09:39:08.290Z</time>
      </trkpt>
      <trkpt lat="43.65918" lon="5.92346">
        <ele>527</ele>
        <time>2015-10-31T09:39:11.313Z</time>
      </trkpt>
      <trkpt lat="43.65917" lon="5.92349">
        <ele>528</ele>
        <time>2015-10-31T09:39:12.284Z</time>
      </trkpt>
      <trkpt lat="43.65911" lon="5.92357">
        <ele>528</ele>
        <time>2015-10-31T09:39:16.313Z</time>
      </trkpt>
      <trkpt lat="43.65908" lon="5.92358">
        <ele>528</ele>
        <time>2015-10-31T09:39:17.290Z</time>
      </trkpt>
      <trkpt lat="43.659" lon="5.92357">
        <ele>528</ele>
        <time>2015-10-31T09:39:21.345Z</time>
      </trkpt>
      <trkpt lat="43.65897" lon="5.92356">
        <ele>528</ele>
        <time>2015-10-31T09:39:22.289Z</time>
      </trkpt>
      <trkpt lat="43.6589" lon="5.92352">
        <ele>528</ele>
        <time>2015-10-31T09:39:25.313Z</time>
      </trkpt>
      <trkpt lat="43.65887" lon="5.92351">
        <ele>528</ele>
        <time>2015-10-31T09:39:26.290Z</time>
      </trkpt>
      <trkpt lat="43.65879" lon="5.92348">
        <ele>528</ele>
        <time>2015-10-31T09:39:29.306Z</time>
      </trkpt>
      <trkpt lat="43.65876" lon="5.92347">
        <ele>528</ele>
        <time>2015-10-31T09:39:30.287Z</time>
      </trkpt>
      <trkpt lat="43.65868" lon="5.92349">
        <ele>528</ele>
        <time>2015-10-31T09:39:33.307Z</time>
      </trkpt>
      <trkpt lat="43.65865" lon="5.9235">
        <ele>528</ele>
        <time>2015-10-31T09:39:34.288Z</time>
      </trkpt>
      <trkpt lat="43.65858" lon="5.92353">
        <ele>528</ele>
        <time>2015-10-31T09:39:37.332Z</time>
      </trkpt>
      <trkpt lat="43.65856" lon="5.92355">
        <ele>528</ele>
        <time>2015-10-31T09:39:38.288Z</time>
      </trkpt>
      <trkpt lat="43.65851" lon="5.92362">
        <ele>528</ele>
        <time>2015-10-31T09:39:41.307Z</time>
      </trkpt>
      <trkpt lat="43.65849" lon="5.92364">
        <ele>528</ele>
        <time>2015-10-31T09:39:42.288Z</time>
      </trkpt>
      <trkpt lat="43.65843" lon="5.92368">
        <ele>528</ele>
        <time>2015-10-31T09:39:45.307Z</time>
      </trkpt>
      <trkpt lat="43.65841" lon="5.92368">
        <ele>529</ele>
        <time>2015-10-31T09:39:46.288Z</time>
      </trkpt>
      <trkpt lat="43.65834" lon="5.92367">
        <ele>529</ele>
        <time>2015-10-31T09:39:49.306Z</time>
      </trkpt>
      <trkpt lat="43.65832" lon="5.92368">
        <ele>529</ele>
        <time>2015-10-31T09:39:50.296Z</time>
      </trkpt>
      <trkpt lat="43.65823" lon="5.92369">
        <ele>529</ele>
        <time>2015-10-31T09:39:54.313Z</time>
      </trkpt>
      <trkpt lat="43.65821" lon="5.92367">
        <ele>529</ele>
        <time>2015-10-31T09:39:55.292Z</time>
      </trkpt>
      <trkpt lat="43.65814" lon="5.92359">
        <ele>530</ele>
        <time>2015-10-31T09:39:59.396Z</time>
      </trkpt>
      <trkpt lat="43.65812" lon="5.92357">
        <ele>530</ele>
        <time>2015-10-31T09:40:00.289Z</time>
      </trkpt>
      <trkpt lat="43.65805" lon="5.92355">
        <ele>528</ele>
        <time>2015-10-31T09:40:03.324Z</time>
      </trkpt>
      <trkpt lat="43.65802" lon="5.92354">
        <ele>528</ele>
        <time>2015-10-31T09:40:04.290Z</time>
      </trkpt>
      <trkpt lat="43.65794" lon="5.92356">
        <ele>529</ele>
        <time>2015-10-31T09:40:07.314Z</time>
      </trkpt>
      <trkpt lat="43.65791" lon="5.92357">
        <ele>528</ele>
        <time>2015-10-31T09:40:08.290Z</time>
      </trkpt>
      <trkpt lat="43.65783" lon="5.9236">
        <ele>528</ele>
        <time>2015-10-31T09:40:11.320Z</time>
      </trkpt>
      <trkpt lat="43.65781" lon="5.92361">
        <ele>528</ele>
        <time>2015-10-31T09:40:12.290Z</time>
      </trkpt>
      <trkpt lat="43.65773" lon="5.92361">
        <ele>529</ele>
        <time>2015-10-31T09:40:15.312Z</time>
      </trkpt>
      <trkpt lat="43.6577" lon="5.9236">
        <ele>529</ele>
        <time>2015-10-31T09:40:16.290Z</time>
      </trkpt>
      <trkpt lat="43.65764" lon="5.92353">
        <ele>529</ele>
        <time>2015-10-31T09:40:19.313Z</time>
      </trkpt>
      <trkpt lat="43.65763" lon="5.92351">
        <ele>529</ele>
        <time>2015-10-31T09:40:20.289Z</time>
      </trkpt>
      <trkpt lat="43.65756" lon="5.92347">
        <ele>529</ele>
        <time>2015-10-31T09:40:23.313Z</time>
      </trkpt>
      <trkpt lat="43.65753" lon="5.92346">
        <ele>529</ele>
        <time>2015-10-31T09:40:24.291Z</time>
      </trkpt>
      <trkpt lat="43.65747" lon="5.9234">
        <ele>530</ele>
        <time>2015-10-31T09:40:27.526Z</time>
      </trkpt>
      <trkpt lat="43.65744" lon="5.92339">
        <ele>530</ele>
        <time>2015-10-31T09:40:28.290Z</time>
      </trkpt>
      <trkpt lat="43.65736" lon="5.9234">
        <ele>530</ele>
        <time>2015-10-31T09:40:31.313Z</time>
      </trkpt>
      <trkpt lat="43.65732" lon="5.92341">
        <ele>530</ele>
        <time>2015-10-31T09:40:32.290Z</time>
      </trkpt>
      <trkpt lat="43.65725" lon="5.92347">
        <ele>529</ele>
        <time>2015-10-31T09:40:35.313Z</time>
      </trkpt>
      <trkpt lat="43.65723" lon="5.9235">
        <ele>529</ele>
        <time>2015-10-31T09:40:36.290Z</time>
      </trkpt>
      <trkpt lat="43.65717" lon="5.9236">
        <ele>530</ele>
        <time>2015-10-31T09:40:40.325Z</time>
      </trkpt>
      <trkpt lat="43.65716" lon="5.92361">
        <ele>530</ele>
        <time>2015-10-31T09:40:41.315Z</time>
      </trkpt>
      <trkpt lat="43.65707" lon="5.92363">
        <ele>530</ele>
        <time>2015-10-31T09:40:45.311Z</time>
      </trkpt>
      <trkpt lat="43.65706" lon="5.92364">
        <ele>530</ele>
        <time>2015-10-31T09:40:46.282Z</time>
      </trkpt>
      <trkpt lat="43.65699" lon="5.92371">
        <ele>529</ele>
        <time>2015-10-31T09:40:50.458Z</time>
      </trkpt>
      <trkpt lat="43.65697" lon="5.92373">
        <ele>529</ele>
        <time>2015-10-31T09:40:51.283Z</time>
      </trkpt>
      <trkpt lat="43.65691" lon="5.9238">
        <ele>529</ele>
        <time>2015-10-31T09:40:54.312Z</time>
      </trkpt>
      <trkpt lat="43.65689" lon="5.92382">
        <ele>529</ele>
        <time>2015-10-31T09:40:55.288Z</time>
      </trkpt>
      <trkpt lat="43.65682" lon="5.9239">
        <ele>529</ele>
        <time>2015-10-31T09:40:58.312Z</time>
      </trkpt>
      <trkpt lat="43.6568" lon="5.92393">
        <ele>529</ele>
        <time>2015-10-31T09:40:59.287Z</time>
      </trkpt>
      <trkpt lat="43.65677" lon="5.92403">
        <ele>529</ele>
        <time>2015-10-31T09:41:02.340Z</time>
      </trkpt>
      <trkpt lat="43.65676" lon="5.92407">
        <ele>529</ele>
        <time>2015-10-31T09:41:03.289Z</time>
      </trkpt>
      <trkpt lat="43.65668" lon="5.92401">
        <ele>529</ele>
        <time>2015-10-31T09:41:10.328Z</time>
      </trkpt>
      <trkpt lat="43.65667" lon="5.92399">
        <ele>529</ele>
        <time>2015-10-31T09:41:11.289Z</time>
      </trkpt>
      <trkpt lat="43.65661" lon="5.92394">
        <ele>530</ele>
        <time>2015-10-31T09:41:13.326Z</time>
      </trkpt>
      <trkpt lat="43.65658" lon="5.92393">
        <ele>530</ele>
        <time>2015-10-31T09:41:14.289Z</time>
      </trkpt>
      <trkpt lat="43.6565" lon="5.92389">
        <ele>530</ele>
        <time>2015-10-31T09:41:17.313Z</time>
      </trkpt>
      <trkpt lat="43.65647" lon="5.92389">
        <ele>530</ele>
        <time>2015-10-31T09:41:18.317Z</time>
      </trkpt>
      <trkpt lat="43.6564" lon="5.92395">
        <ele>530</ele>
        <time>2015-10-31T09:41:21.368Z</time>
      </trkpt>
      <trkpt lat="43.65638" lon="5.92397">
        <ele>531</ele>
        <time>2015-10-31T09:41:22.289Z</time>
      </trkpt>
      <trkpt lat="43.6563" lon="5.92403">
        <ele>531</ele>
        <time>2015-10-31T09:41:25.313Z</time>
      </trkpt>
      <trkpt lat="43.65628" lon="5.92402">
        <ele>531</ele>
        <time>2015-10-31T09:41:26.288Z</time>
      </trkpt>
      <trkpt lat="43.65621" lon="5.92395">
        <ele>531</ele>
        <time>2015-10-31T09:41:29.325Z</time>
      </trkpt>
      <trkpt lat="43.65619" lon="5.92392">
        <ele>531</ele>
        <time>2015-10-31T09:41:30.290Z</time>
      </trkpt>
      <trkpt lat="43.65613" lon="5.92384">
        <ele>532</ele>
        <time>2015-10-31T09:41:33.314Z</time>
      </trkpt>
      <trkpt lat="43.65612" lon="5.92382">
        <ele>532</ele>
        <time>2015-10-31T09:41:34.290Z</time>
      </trkpt>
      <trkpt lat="43.65606" lon="5.92373">
        <ele>532</ele>
        <time>2015-10-31T09:41:38.312Z</time>
      </trkpt>
      <trkpt lat="43.65604" lon="5.92371">
        <ele>532</ele>
        <time>2015-10-31T09:41:39.289Z</time>
      </trkpt>
      <trkpt lat="43.65597" lon="5.92364">
        <ele>533</ele>
        <time>2015-10-31T09:41:43.315Z</time>
      </trkpt>
      <trkpt lat="43.65596" lon="5.92362">
        <ele>533</ele>
        <time>2015-10-31T09:41:44.290Z</time>
      </trkpt>
      <trkpt lat="43.65588" lon="5.92355">
        <ele>533</ele>
        <time>2015-10-31T09:41:48.316Z</time>
      </trkpt>
      <trkpt lat="43.65587" lon="5.92353">
        <ele>533</ele>
        <time>2015-10-31T09:41:49.291Z</time>
      </trkpt>
      <trkpt lat="43.6558" lon="5.92346">
        <ele>534</ele>
        <time>2015-10-31T09:41:53.315Z</time>
      </trkpt>
      <trkpt lat="43.65578" lon="5.92344">
        <ele>534</ele>
        <time>2015-10-31T09:41:54.289Z</time>
      </trkpt>
      <trkpt lat="43.65572" lon="5.92338">
        <ele>534</ele>
        <time>2015-10-31T09:41:57.313Z</time>
      </trkpt>
      <trkpt lat="43.6557" lon="5.92336">
        <ele>534</ele>
        <time>2015-10-31T09:41:58.300Z</time>
      </trkpt>
      <trkpt lat="43.65565" lon="5.9233">
        <ele>535</ele>
        <time>2015-10-31T09:42:01.313Z</time>
      </trkpt>
      <trkpt lat="43.65563" lon="5.92328">
        <ele>535</ele>
        <time>2015-10-31T09:42:02.283Z</time>
      </trkpt>
      <trkpt lat="43.65558" lon="5.92322">
        <ele>535</ele>
        <time>2015-10-31T09:42:05.312Z</time>
      </trkpt>
      <trkpt lat="43.65556" lon="5.9232">
        <ele>535</ele>
        <time>2015-10-31T09:42:06.289Z</time>
      </trkpt>
      <trkpt lat="43.6555" lon="5.92314">
        <ele>536</ele>
        <time>2015-10-31T09:42:09.349Z</time>
      </trkpt>
      <trkpt lat="43.65548" lon="5.92312">
        <ele>536</ele>
        <time>2015-10-31T09:42:10.290Z</time>
      </trkpt>
      <trkpt lat="43.65542" lon="5.92306">
        <ele>536</ele>
        <time>2015-10-31T09:42:13.314Z</time>
      </trkpt>
      <trkpt lat="43.65541" lon="5.92304">
        <ele>536</ele>
        <time>2015-10-31T09:42:14.289Z</time>
      </trkpt>
      <trkpt lat="43.65535" lon="5.92298">
        <ele>536</ele>
        <time>2015-10-31T09:42:17.313Z</time>
      </trkpt>
      <trkpt lat="43.65534" lon="5.92296">
        <ele>536</ele>
        <time>2015-10-31T09:42:18.290Z</time>
      </trkpt>
      <trkpt lat="43.65528" lon="5.9229">
        <ele>537</ele>
        <time>2015-10-31T09:42:21.312Z</time>
      </trkpt>
      <trkpt lat="43.65526" lon="5.92288">
        <ele>538</ele>
        <time>2015-10-31T09:42:22.328Z</time>
      </trkpt>
      <trkpt lat="43.65521" lon="5.92281">
        <ele>538</ele>
        <time>2015-10-31T09:42:25.312Z</time>
      </trkpt>
      <trkpt lat="43.65519" lon="5.92279">
        <ele>538</ele>
        <time>2015-10-31T09:42:26.289Z</time>
      </trkpt>
      <trkpt lat="43.65514" lon="5.92272">
        <ele>539</ele>
        <time>2015-10-31T09:42:29.328Z</time>
      </trkpt>
      <trkpt lat="43.65512" lon="5.92269">
        <ele>539</ele>
        <time>2015-10-31T09:42:30.288Z</time>
      </trkpt>
      <trkpt lat="43.65507" lon="5.92261">
        <ele>539</ele>
        <time>2015-10-31T09:42:33.341Z</time>
      </trkpt>
      <trkpt lat="43.65505" lon="5.92259">
        <ele>539</ele>
        <time>2015-10-31T09:42:34.301Z</time>
      </trkpt>
      <trkpt lat="43.655" lon="5.92252">
        <ele>539</ele>
        <time>2015-10-31T09:42:37.313Z</time>
      </trkpt>
      <trkpt lat="43.65498" lon="5.92249">
        <ele>540</ele>
        <time>2015-10-31T09:42:38.282Z</time>
      </trkpt>
      <trkpt lat="43.65493" lon="5.92242">
        <ele>540</ele>
        <time>2015-10-31T09:42:41.315Z</time>
      </trkpt>
      <trkpt lat="43.65491" lon="5.92239">
        <ele>540</ele>
        <time>2015-10-31T09:42:42.288Z</time>
      </trkpt>
      <trkpt lat="43.65486" lon="5.92232">
        <ele>541</ele>
        <time>2015-10-31T09:42:45.312Z</time>
      </trkpt>
      <trkpt lat="43.65484" lon="5.9223">
        <ele>541</ele>
        <time>2015-10-31T09:42:46.290Z</time>
      </trkpt>
      <trkpt lat="43.65478" lon="5.92223">
        <ele>541</ele>
        <time>2015-10-31T09:42:49.325Z</time>
      </trkpt>
      <trkpt lat="43.65477" lon="5.9222">
        <ele>541</ele>
        <time>2015-10-31T09:42:50.289Z</time>
      </trkpt>
      <trkpt lat="43.65472" lon="5.92213">
        <ele>541</ele>
        <time>2015-10-31T09:42:53.317Z</time>
      </trkpt>
      <trkpt lat="43.6547" lon="5.9221">
        <ele>541</ele>
        <time>2015-10-31T09:42:54.290Z</time>
      </trkpt>
      <trkpt lat="43.65465" lon="5.92203">
        <ele>541</ele>
        <time>2015-10-31T09:42:57.314Z</time>
      </trkpt>
      <trkpt lat="43.65463" lon="5.922">
        <ele>542</ele>
        <time>2015-10-31T09:42:58.289Z</time>
      </trkpt>
      <trkpt lat="43.65458" lon="5.92193">
        <ele>541</ele>
        <time>2015-10-31T09:43:01.324Z</time>
      </trkpt>
      <trkpt lat="43.65456" lon="5.92191">
        <ele>542</ele>
        <time>2015-10-31T09:43:02.290Z</time>
      </trkpt>
      <trkpt lat="43.65451" lon="5.92183">
        <ele>542</ele>
        <time>2015-10-31T09:43:05.322Z</time>
      </trkpt>
      <trkpt lat="43.65449" lon="5.9218">
        <ele>542</ele>
        <time>2015-10-31T09:43:06.301Z</time>
      </trkpt>
      <trkpt lat="43.65444" lon="5.92172">
        <ele>542</ele>
        <time>2015-10-31T09:43:09.293Z</time>
      </trkpt>
      <trkpt lat="43.65442" lon="5.9217">
        <ele>542</ele>
        <time>2015-10-31T09:43:10.289Z</time>
      </trkpt>
      <trkpt lat="43.65436" lon="5.92161">
        <ele>542</ele>
        <time>2015-10-31T09:43:13.313Z</time>
      </trkpt>
      <trkpt lat="43.65434" lon="5.92159">
        <ele>542</ele>
        <time>2015-10-31T09:43:14.289Z</time>
      </trkpt>
      <trkpt lat="43.65428" lon="5.92149">
        <ele>541</ele>
        <time>2015-10-31T09:43:17.323Z</time>
      </trkpt>
      <trkpt lat="43.65427" lon="5.92147">
        <ele>542</ele>
        <time>2015-10-31T09:43:18.289Z</time>
      </trkpt>
      <trkpt lat="43.65421" lon="5.92138">
        <ele>542</ele>
        <time>2015-10-31T09:43:21.313Z</time>
      </trkpt>
      <trkpt lat="43.65419" lon="5.92135">
        <ele>542</ele>
        <time>2015-10-31T09:43:22.291Z</time>
      </trkpt>
      <trkpt lat="43.65413" lon="5.92126">
        <ele>542</ele>
        <time>2015-10-31T09:43:25.313Z</time>
      </trkpt>
      <trkpt lat="43.65412" lon="5.92123">
        <ele>543</ele>
        <time>2015-10-31T09:43:26.303Z</time>
      </trkpt>
      <trkpt lat="43.65406" lon="5.92113">
        <ele>543</ele>
        <time>2015-10-31T09:43:29.313Z</time>
      </trkpt>
      <trkpt lat="43.65404" lon="5.92109">
        <ele>543</ele>
        <time>2015-10-31T09:43:30.290Z</time>
      </trkpt>
      <trkpt lat="43.65401" lon="5.92102">
        <ele>542</ele>
        <time>2015-10-31T09:43:32.313Z</time>
      </trkpt>
      <trkpt lat="43.65399" lon="5.92098">
        <ele>542</ele>
        <time>2015-10-31T09:43:33.291Z</time>
      </trkpt>
      <trkpt lat="43.65395" lon="5.92091">
        <ele>542</ele>
        <time>2015-10-31T09:43:35.319Z</time>
      </trkpt>
      <trkpt lat="43.65393" lon="5.92087">
        <ele>542</ele>
        <time>2015-10-31T09:43:36.291Z</time>
      </trkpt>
      <trkpt lat="43.6539" lon="5.9208">
        <ele>542</ele>
        <time>2015-10-31T09:43:38.314Z</time>
      </trkpt>
      <trkpt lat="43.65388" lon="5.92076">
        <ele>542</ele>
        <time>2015-10-31T09:43:39.292Z</time>
      </trkpt>
      <trkpt lat="43.65385" lon="5.92068">
        <ele>542</ele>
        <time>2015-10-31T09:43:41.315Z</time>
      </trkpt>
      <trkpt lat="43.65383" lon="5.92065">
        <ele>542</ele>
        <time>2015-10-31T09:43:42.518Z</time>
      </trkpt>
      <trkpt lat="43.65379" lon="5.92057">
        <ele>541</ele>
        <time>2015-10-31T09:43:44.325Z</time>
      </trkpt>
      <trkpt lat="43.65377" lon="5.92054">
        <ele>542</ele>
        <time>2015-10-31T09:43:45.290Z</time>
      </trkpt>
      <trkpt lat="43.65374" lon="5.92047">
        <ele>542</ele>
        <time>2015-10-31T09:43:47.316Z</time>
      </trkpt>
      <trkpt lat="43.65372" lon="5.92044">
        <ele>542</ele>
        <time>2015-10-31T09:43:48.290Z</time>
      </trkpt>
      <trkpt lat="43.65368" lon="5.92033">
        <ele>542</ele>
        <time>2015-10-31T09:43:51.314Z</time>
      </trkpt>
      <trkpt lat="43.65367" lon="5.92029">
        <ele>542</ele>
        <time>2015-10-31T09:43:52.292Z</time>
      </trkpt>
      <trkpt lat="43.65367" lon="5.92019">
        <ele>541</ele>
        <time>2015-10-31T09:43:55.348Z</time>
      </trkpt>
      <trkpt lat="43.65368" lon="5.92016">
        <ele>541</ele>
        <time>2015-10-31T09:43:56.290Z</time>
      </trkpt>
      <trkpt lat="43.65371" lon="5.92005">
        <ele>541</ele>
        <time>2015-10-31T09:43:59.315Z</time>
      </trkpt>
      <trkpt lat="43.65373" lon="5.92">
        <ele>541</ele>
        <time>2015-10-31T09:44:00.290Z</time>
      </trkpt>
      <trkpt lat="43.65377" lon="5.91992">
        <ele>540</ele>
        <time>2015-10-31T09:44:02.312Z</time>
      </trkpt>
      <trkpt lat="43.6538" lon="5.91988">
        <ele>540</ele>
        <time>2015-10-31T09:44:03.291Z</time>
      </trkpt>
      <trkpt lat="43.65388" lon="5.91986">
        <ele>540</ele>
        <time>2015-10-31T09:44:05.324Z</time>
      </trkpt>
      <trkpt lat="43.65392" lon="5.91987">
        <ele>540</ele>
        <time>2015-10-31T09:44:06.292Z</time>
      </trkpt>
      <trkpt lat="43.65397" lon="5.9199">
        <ele>539</ele>
        <time>2015-10-31T09:44:07.312Z</time>
      </trkpt>
      <trkpt lat="43.65401" lon="5.91993">
        <ele>539</ele>
        <time>2015-10-31T09:44:08.289Z</time>
      </trkpt>
      <trkpt lat="43.65407" lon="5.92">
        <ele>539</ele>
        <time>2015-10-31T09:44:09.357Z</time>
      </trkpt>
      <trkpt lat="43.65411" lon="5.92002">
        <ele>539</ele>
        <time>2015-10-31T09:44:10.291Z</time>
      </trkpt>
      <trkpt lat="43.65419" lon="5.92004">
        <ele>538</ele>
        <time>2015-10-31T09:44:12.324Z</time>
      </trkpt>
      <trkpt lat="43.65424" lon="5.92003">
        <ele>538</ele>
        <time>2015-10-31T09:44:13.291Z</time>
      </trkpt>
      <trkpt lat="43.6543" lon="5.91996">
        <ele>538</ele>
        <time>2015-10-31T09:44:16.314Z</time>
      </trkpt>
      <trkpt lat="43.65429" lon="5.91992">
        <ele>537</ele>
        <time>2015-10-31T09:44:17.289Z</time>
      </trkpt>
      <trkpt lat="43.65427" lon="5.91982">
        <ele>537</ele>
        <time>2015-10-31T09:44:19.314Z</time>
      </trkpt>
      <trkpt lat="43.65426" lon="5.91978">
        <ele>537</ele>
        <time>2015-10-31T09:44:20.328Z</time>
      </trkpt>
      <trkpt lat="43.65424" lon="5.91968">
        <ele>536</ele>
        <time>2015-10-31T09:44:22.324Z</time>
      </trkpt>
      <trkpt lat="43.65423" lon="5.9196">
        <ele>536</ele>
        <time>2015-10-31T09:44:23.286Z</time>
      </trkpt>
      <trkpt lat="43.65421" lon="5.91952">
        <ele>536</ele>
        <time>2015-10-31T09:44:24.308Z</time>
      </trkpt>
      <trkpt lat="43.65419" lon="5.91949">
        <ele>536</ele>
        <time>2015-10-31T09:44:25.289Z</time>
      </trkpt>
      <trkpt lat="43.65413" lon="5.91942">
        <ele>535</ele>
        <time>2015-10-31T09:44:27.322Z</time>
      </trkpt>
      <trkpt lat="43.65411" lon="5.91938">
        <ele>535</ele>
        <time>2015-10-31T09:44:28.290Z</time>
      </trkpt>
      <trkpt lat="43.65405" lon="5.91931">
        <ele>535</ele>
        <time>2015-10-31T09:44:30.313Z</time>
      </trkpt>
      <trkpt lat="43.65401" lon="5.91927">
        <ele>534</ele>
        <time>2015-10-31T09:44:31.290Z</time>
      </trkpt>
      <trkpt lat="43.65394" lon="5.91921">
        <ele>533</ele>
        <time>2015-10-31T09:44:33.325Z</time>
      </trkpt>
      <trkpt lat="43.6539" lon="5.91918">
        <ele>533</ele>
        <time>2015-10-31T09:44:34.291Z</time>
      </trkpt>
      <trkpt lat="43.65386" lon="5.91915">
        <ele>533</ele>
        <time>2015-10-31T09:44:35.312Z</time>
      </trkpt>
      <trkpt lat="43.65381" lon="5.91913">
        <ele>533</ele>
        <time>2015-10-31T09:44:36.294Z</time>
      </trkpt>
      <trkpt lat="43.65376" lon="5.9191">
        <ele>533</ele>
        <time>2015-10-31T09:44:37.351Z</time>
      </trkpt>
      <trkpt lat="43.6537" lon="5.9191">
        <ele>533</ele>
        <time>2015-10-31T09:44:38.292Z</time>
      </trkpt>
      <trkpt lat="43.65365" lon="5.91909">
        <ele>532</ele>
        <time>2015-10-31T09:44:39.314Z</time>
      </trkpt>
      <trkpt lat="43.65359" lon="5.91909">
        <ele>532</ele>
        <time>2015-10-31T09:44:40.291Z</time>
      </trkpt>
      <trkpt lat="43.65352" lon="5.91911">
        <ele>532</ele>
        <time>2015-10-31T09:44:41.314Z</time>
      </trkpt>
      <trkpt lat="43.65346" lon="5.91914">
        <ele>531</ele>
        <time>2015-10-31T09:44:42.290Z</time>
      </trkpt>
      <trkpt lat="43.65339" lon="5.91917">
        <ele>531</ele>
        <time>2015-10-31T09:44:43.326Z</time>
      </trkpt>
      <trkpt lat="43.65333" lon="5.91922">
        <ele>531</ele>
        <time>2015-10-31T09:44:44.290Z</time>
      </trkpt>
      <trkpt lat="43.65327" lon="5.91927">
        <ele>530</ele>
        <time>2015-10-31T09:44:45.313Z</time>
      </trkpt>
      <trkpt lat="43.65321" lon="5.91931">
        <ele>530</ele>
        <time>2015-10-31T09:44:46.290Z</time>
      </trkpt>
      <trkpt lat="43.65315" lon="5.91936">
        <ele>530</ele>
        <time>2015-10-31T09:44:47.314Z</time>
      </trkpt>
      <trkpt lat="43.65309" lon="5.91942">
        <ele>530</ele>
        <time>2015-10-31T09:44:48.316Z</time>
      </trkpt>
      <trkpt lat="43.65305" lon="5.91946">
        <ele>530</ele>
        <time>2015-10-31T09:44:49.313Z</time>
      </trkpt>
      <trkpt lat="43.653" lon="5.91951">
        <ele>529</ele>
        <time>2015-10-31T09:44:50.291Z</time>
      </trkpt>
      <trkpt lat="43.65295" lon="5.91954">
        <ele>529</ele>
        <time>2015-10-31T09:44:51.312Z</time>
      </trkpt>
      <trkpt lat="43.6529" lon="5.91959">
        <ele>529</ele>
        <time>2015-10-31T09:44:52.291Z</time>
      </trkpt>
      <trkpt lat="43.65285" lon="5.91963">
        <ele>529</ele>
        <time>2015-10-31T09:44:53.315Z</time>
      </trkpt>
      <trkpt lat="43.6528" lon="5.91968">
        <ele>528</ele>
        <time>2015-10-31T09:44:54.290Z</time>
      </trkpt>
      <trkpt lat="43.65275" lon="5.91971">
        <ele>528</ele>
        <time>2015-10-31T09:44:55.314Z</time>
      </trkpt>
      <trkpt lat="43.65268" lon="5.91975">
        <ele>528</ele>
        <time>2015-10-31T09:44:56.289Z</time>
      </trkpt>
      <trkpt lat="43.65262" lon="5.91976">
        <ele>527</ele>
        <time>2015-10-31T09:44:57.313Z</time>
      </trkpt>
      <trkpt lat="43.65255" lon="5.91974">
        <ele>526</ele>
        <time>2015-10-31T09:44:58.291Z</time>
      </trkpt>
      <trkpt lat="43.65247" lon="5.91972">
        <ele>525</ele>
        <time>2015-10-31T09:44:59.333Z</time>
      </trkpt>
      <trkpt lat="43.65241" lon="5.91971">
        <ele>525</ele>
        <time>2015-10-31T09:45:00.284Z</time>
      </trkpt>
      <trkpt lat="43.65233" lon="5.9197">
        <ele>524</ele>
        <time>2015-10-31T09:45:01.320Z</time>
      </trkpt>
      <trkpt lat="43.65225" lon="5.91971">
        <ele>524</ele>
        <time>2015-10-31T09:45:02.291Z</time>
      </trkpt>
      <trkpt lat="43.65217" lon="5.91972">
        <ele>523</ele>
        <time>2015-10-31T09:45:03.314Z</time>
      </trkpt>
      <trkpt lat="43.6521" lon="5.91975">
        <ele>522</ele>
        <time>2015-10-31T09:45:04.290Z</time>
      </trkpt>
      <trkpt lat="43.65203" lon="5.91981">
        <ele>522</ele>
        <time>2015-10-31T09:45:05.323Z</time>
      </trkpt>
      <trkpt lat="43.65197" lon="5.91988">
        <ele>522</ele>
        <time>2015-10-31T09:45:06.293Z</time>
      </trkpt>
      <trkpt lat="43.65192" lon="5.91996">
        <ele>521</ele>
        <time>2015-10-31T09:45:07.315Z</time>
      </trkpt>
      <trkpt lat="43.65187" lon="5.92005">
        <ele>520</ele>
        <time>2015-10-31T09:45:08.291Z</time>
      </trkpt>
      <trkpt lat="43.65182" lon="5.92013">
        <ele>520</ele>
        <time>2015-10-31T09:45:09.568Z</time>
      </trkpt>
      <trkpt lat="43.65178" lon="5.9202">
        <ele>520</ele>
        <time>2015-10-31T09:45:10.292Z</time>
      </trkpt>
      <trkpt lat="43.65172" lon="5.92027">
        <ele>518</ele>
        <time>2015-10-31T09:45:12.322Z</time>
      </trkpt>
      <trkpt lat="43.65169" lon="5.92028">
        <ele>518</ele>
        <time>2015-10-31T09:45:13.290Z</time>
      </trkpt>
      <trkpt lat="43.65163" lon="5.92022">
        <ele>517</ele>
        <time>2015-10-31T09:45:16.350Z</time>
      </trkpt>
      <trkpt lat="43.65159" lon="5.92024">
        <ele>516</ele>
        <time>2015-10-31T09:45:17.290Z</time>
      </trkpt>
      <trkpt lat="43.65154" lon="5.92029">
        <ele>516</ele>
        <time>2015-10-31T09:45:19.315Z</time>
      </trkpt>
      <trkpt lat="43.65149" lon="5.92029">
        <ele>515</ele>
        <time>2015-10-31T09:45:20.361Z</time>
      </trkpt>
      <trkpt lat="43.65143" lon="5.92027">
        <ele>514</ele>
        <time>2015-10-31T09:45:22.313Z</time>
      </trkpt>
      <trkpt lat="43.6514" lon="5.92026">
        <ele>514</ele>
        <time>2015-10-31T09:45:23.290Z</time>
      </trkpt>
      <trkpt lat="43.65134" lon="5.9202">
        <ele>514</ele>
        <time>2015-10-31T09:45:26.305Z</time>
      </trkpt>
      <trkpt lat="43.65134" lon="5.92016">
        <ele>514</ele>
        <time>2015-10-31T09:45:27.291Z</time>
      </trkpt>
      <trkpt lat="43.65137" lon="5.92008">
        <ele>514</ele>
        <time>2015-10-31T09:45:29.314Z</time>
      </trkpt>
      <trkpt lat="43.65138" lon="5.92004">
        <ele>514</ele>
        <time>2015-10-31T09:45:30.291Z</time>
      </trkpt>
      <trkpt lat="43.65143" lon="5.91994">
        <ele>515</ele>
        <time>2015-10-31T09:45:33.324Z</time>
      </trkpt>
      <trkpt lat="43.65144" lon="5.9199">
        <ele>515</ele>
        <time>2015-10-31T09:45:34.290Z</time>
      </trkpt>
      <trkpt lat="43.65147" lon="5.91979">
        <ele>515</ele>
        <time>2015-10-31T09:45:37.315Z</time>
      </trkpt>
      <trkpt lat="43.65148" lon="5.91975">
        <ele>515</ele>
        <time>2015-10-31T09:45:38.290Z</time>
      </trkpt>
      <trkpt lat="43.65148" lon="5.91963">
        <ele>515</ele>
        <time>2015-10-31T09:45:41.314Z</time>
      </trkpt>
      <trkpt lat="43.65146" lon="5.9196">
        <ele>515</ele>
        <time>2015-10-31T09:45:42.289Z</time>
      </trkpt>
      <trkpt lat="43.6514" lon="5.91955">
        <ele>515</ele>
        <time>2015-10-31T09:45:44.315Z</time>
      </trkpt>
      <trkpt lat="43.65137" lon="5.91952">
        <ele>516</ele>
        <time>2015-10-31T09:45:45.291Z</time>
      </trkpt>
      <trkpt lat="43.6513" lon="5.91946">
        <ele>515</ele>
        <time>2015-10-31T09:45:47.343Z</time>
      </trkpt>
      <trkpt lat="43.65126" lon="5.91943">
        <ele>515</ele>
        <time>2015-10-31T09:45:48.302Z</time>
      </trkpt>
      <trkpt lat="43.65119" lon="5.91937">
        <ele>516</ele>
        <time>2015-10-31T09:45:50.314Z</time>
      </trkpt>
      <trkpt lat="43.65115" lon="5.91935">
        <ele>516</ele>
        <time>2015-10-31T09:45:51.292Z</time>
      </trkpt>
      <trkpt lat="43.65108" lon="5.91932">
        <ele>515</ele>
        <time>2015-10-31T09:45:53.311Z</time>
      </trkpt>
      <trkpt lat="43.65104" lon="5.91929">
        <ele>515</ele>
        <time>2015-10-31T09:45:54.289Z</time>
      </trkpt>
      <trkpt lat="43.65098" lon="5.91923">
        <ele>514</ele>
        <time>2015-10-31T09:45:56.314Z</time>
      </trkpt>
      <trkpt lat="43.65095" lon="5.91918">
        <ele>513</ele>
        <time>2015-10-31T09:45:57.290Z</time>
      </trkpt>
      <trkpt lat="43.65096" lon="5.91908">
        <ele>514</ele>
        <time>2015-10-31T09:45:59.313Z</time>
      </trkpt>
      <trkpt lat="43.65098" lon="5.91903">
        <ele>514</ele>
        <time>2015-10-31T09:46:00.289Z</time>
      </trkpt>
      <trkpt lat="43.65105" lon="5.91896">
        <ele>513</ele>
        <time>2015-10-31T09:46:02.313Z</time>
      </trkpt>
      <trkpt lat="43.65108" lon="5.91892">
        <ele>513</ele>
        <time>2015-10-31T09:46:03.318Z</time>
      </trkpt>
      <trkpt lat="43.65114" lon="5.91886">
        <ele>514</ele>
        <time>2015-10-31T09:46:05.314Z</time>
      </trkpt>
      <trkpt lat="43.65116" lon="5.91883">
        <ele>514</ele>
        <time>2015-10-31T09:46:06.292Z</time>
      </trkpt>
      <trkpt lat="43.65121" lon="5.91877">
        <ele>514</ele>
        <time>2015-10-31T09:46:08.316Z</time>
      </trkpt>
      <trkpt lat="43.65122" lon="5.91874">
        <ele>514</ele>
        <time>2015-10-31T09:46:09.291Z</time>
      </trkpt>
      <trkpt lat="43.65128" lon="5.91864">
        <ele>514</ele>
        <time>2015-10-31T09:46:12.313Z</time>
      </trkpt>
      <trkpt lat="43.6513" lon="5.91861">
        <ele>514</ele>
        <time>2015-10-31T09:46:13.291Z</time>
      </trkpt>
      <trkpt lat="43.65136" lon="5.91851">
        <ele>515</ele>
        <time>2015-10-31T09:46:16.315Z</time>
      </trkpt>
      <trkpt lat="43.65137" lon="5.91848">
        <ele>515</ele>
        <time>2015-10-31T09:46:17.291Z</time>
      </trkpt>
      <trkpt lat="43.65142" lon="5.9184">
        <ele>514</ele>
        <time>2015-10-31T09:46:20.315Z</time>
      </trkpt>
      <trkpt lat="43.65143" lon="5.91837">
        <ele>514</ele>
        <time>2015-10-31T09:46:21.287Z</time>
      </trkpt>
      <trkpt lat="43.65147" lon="5.91827">
        <ele>514</ele>
        <time>2015-10-31T09:46:24.367Z</time>
      </trkpt>
      <trkpt lat="43.65148" lon="5.91824">
        <ele>514</ele>
        <time>2015-10-31T09:46:25.288Z</time>
      </trkpt>
      <trkpt lat="43.65152" lon="5.91818">
        <ele>513</ele>
        <time>2015-10-31T09:46:27.318Z</time>
      </trkpt>
      <trkpt lat="43.65155" lon="5.91815">
        <ele>513</ele>
        <time>2015-10-31T09:46:28.303Z</time>
      </trkpt>
      <trkpt lat="43.6516" lon="5.91807">
        <ele>513</ele>
        <time>2015-10-31T09:46:30.315Z</time>
      </trkpt>
      <trkpt lat="43.65163" lon="5.91804">
        <ele>512</ele>
        <time>2015-10-31T09:46:31.288Z</time>
      </trkpt>
      <trkpt lat="43.65169" lon="5.91797">
        <ele>512</ele>
        <time>2015-10-31T09:46:33.314Z</time>
      </trkpt>
      <trkpt lat="43.65172" lon="5.91794">
        <ele>513</ele>
        <time>2015-10-31T09:46:34.291Z</time>
      </trkpt>
      <trkpt lat="43.65176" lon="5.9179">
        <ele>512</ele>
        <time>2015-10-31T09:46:35.352Z</time>
      </trkpt>
      <trkpt lat="43.65179" lon="5.91786">
        <ele>512</ele>
        <time>2015-10-31T09:46:36.290Z</time>
      </trkpt>
      <trkpt lat="43.65183" lon="5.91781">
        <ele>512</ele>
        <time>2015-10-31T09:46:37.315Z</time>
      </trkpt>
      <trkpt lat="43.65188" lon="5.91775">
        <ele>512</ele>
        <time>2015-10-31T09:46:38.291Z</time>
      </trkpt>
      <trkpt lat="43.65192" lon="5.91771">
        <ele>511</ele>
        <time>2015-10-31T09:46:39.318Z</time>
      </trkpt>
      <trkpt lat="43.65197" lon="5.91766">
        <ele>510</ele>
        <time>2015-10-31T09:46:40.305Z</time>
      </trkpt>
      <trkpt lat="43.65201" lon="5.91762">
        <ele>510</ele>
        <time>2015-10-31T09:46:41.314Z</time>
      </trkpt>
      <trkpt lat="43.65206" lon="5.91757">
        <ele>510</ele>
        <time>2015-10-31T09:46:42.290Z</time>
      </trkpt>
      <trkpt lat="43.65211" lon="5.91754">
        <ele>510</ele>
        <time>2015-10-31T09:46:43.314Z</time>
      </trkpt>
      <trkpt lat="43.65215" lon="5.9175">
        <ele>510</ele>
        <time>2015-10-31T09:46:44.290Z</time>
      </trkpt>
      <trkpt lat="43.65222" lon="5.91747">
        <ele>510</ele>
        <time>2015-10-31T09:46:45.314Z</time>
      </trkpt>
      <trkpt lat="43.65226" lon="5.91744">
        <ele>510</ele>
        <time>2015-10-31T09:46:46.294Z</time>
      </trkpt>
      <trkpt lat="43.65234" lon="5.91738">
        <ele>508</ele>
        <time>2015-10-31T09:46:48.549Z</time>
      </trkpt>
      <trkpt lat="43.65238" lon="5.91735">
        <ele>507</ele>
        <time>2015-10-31T09:46:49.291Z</time>
      </trkpt>
      <trkpt lat="43.65244" lon="5.91731">
        <ele>507</ele>
        <time>2015-10-31T09:46:50.313Z</time>
      </trkpt>
      <trkpt lat="43.65249" lon="5.91727">
        <ele>507</ele>
        <time>2015-10-31T09:46:51.330Z</time>
      </trkpt>
      <trkpt lat="43.65252" lon="5.91724">
        <ele>507</ele>
        <time>2015-10-31T09:46:52.314Z</time>
      </trkpt>
      <trkpt lat="43.65258" lon="5.91722">
        <ele>506</ele>
        <time>2015-10-31T09:46:53.290Z</time>
      </trkpt>
      <trkpt lat="43.65264" lon="5.9172">
        <ele>506</ele>
        <time>2015-10-31T09:46:54.315Z</time>
      </trkpt>
      <trkpt lat="43.65271" lon="5.91716">
        <ele>505</ele>
        <time>2015-10-31T09:46:55.291Z</time>
      </trkpt>
      <trkpt lat="43.65278" lon="5.91712">
        <ele>504</ele>
        <time>2015-10-31T09:46:56.314Z</time>
      </trkpt>
      <trkpt lat="43.65284" lon="5.91706">
        <ele>503</ele>
        <time>2015-10-31T09:46:57.291Z</time>
      </trkpt>
      <trkpt lat="43.6529" lon="5.91702">
        <ele>503</ele>
        <time>2015-10-31T09:46:58.313Z</time>
      </trkpt>
      <trkpt lat="43.65294" lon="5.91699">
        <ele>502</ele>
        <time>2015-10-31T09:46:59.290Z</time>
      </trkpt>
      <trkpt lat="43.65299" lon="5.91698">
        <ele>502</ele>
        <time>2015-10-31T09:47:00.313Z</time>
      </trkpt>
      <trkpt lat="43.65304" lon="5.91699">
        <ele>501</ele>
        <time>2015-10-31T09:47:01.291Z</time>
      </trkpt>
      <trkpt lat="43.65307" lon="5.91702">
        <ele>501</ele>
        <time>2015-10-31T09:47:02.313Z</time>
      </trkpt>
      <trkpt lat="43.65312" lon="5.91707">
        <ele>501</ele>
        <time>2015-10-31T09:47:03.301Z</time>
      </trkpt>
      <trkpt lat="43.65317" lon="5.91711">
        <ele>501</ele>
        <time>2015-10-31T09:47:04.313Z</time>
      </trkpt>
      <trkpt lat="43.65321" lon="5.91711">
        <ele>500</ele>
        <time>2015-10-31T09:47:05.292Z</time>
      </trkpt>
      <trkpt lat="43.65327" lon="5.91709">
        <ele>500</ele>
        <time>2015-10-31T09:47:06.356Z</time>
      </trkpt>
      <trkpt lat="43.65331" lon="5.91703">
        <ele>500</ele>
        <time>2015-10-31T09:47:07.316Z</time>
      </trkpt>
      <trkpt lat="43.65336" lon="5.91697">
        <ele>499</ele>
        <time>2015-10-31T09:47:08.314Z</time>
      </trkpt>
      <trkpt lat="43.65342" lon="5.91689">
        <ele>499</ele>
        <time>2015-10-31T09:47:09.290Z</time>
      </trkpt>
      <trkpt lat="43.65347" lon="5.91683">
        <ele>498</ele>
        <time>2015-10-31T09:47:10.311Z</time>
      </trkpt>
      <trkpt lat="43.65351" lon="5.91676">
        <ele>498</ele>
        <time>2015-10-31T09:47:11.290Z</time>
      </trkpt>
      <trkpt lat="43.65356" lon="5.91669">
        <ele>498</ele>
        <time>2015-10-31T09:47:12.312Z</time>
      </trkpt>
      <trkpt lat="43.65361" lon="5.91663">
        <ele>497</ele>
        <time>2015-10-31T09:47:13.290Z</time>
      </trkpt>
      <trkpt lat="43.65365" lon="5.91656">
        <ele>497</ele>
        <time>2015-10-31T09:47:14.324Z</time>
      </trkpt>
      <trkpt lat="43.65369" lon="5.9165">
        <ele>497</ele>
        <time>2015-10-31T09:47:15.290Z</time>
      </trkpt>
      <trkpt lat="43.65374" lon="5.91643">
        <ele>496</ele>
        <time>2015-10-31T09:47:16.314Z</time>
      </trkpt>
      <trkpt lat="43.65379" lon="5.91637">
        <ele>496</ele>
        <time>2015-10-31T09:47:17.289Z</time>
      </trkpt>
      <trkpt lat="43.65383" lon="5.91631">
        <ele>495</ele>
        <time>2015-10-31T09:47:18.328Z</time>
      </trkpt>
      <trkpt lat="43.65387" lon="5.91624">
        <ele>495</ele>
        <time>2015-10-31T09:47:19.289Z</time>
      </trkpt>
      <trkpt lat="43.65391" lon="5.91618">
        <ele>495</ele>
        <time>2015-10-31T09:47:20.387Z</time>
      </trkpt>
      <trkpt lat="43.65396" lon="5.91612">
        <ele>494</ele>
        <time>2015-10-31T09:47:21.287Z</time>
      </trkpt>
      <trkpt lat="43.65401" lon="5.91606">
        <ele>493</ele>
        <time>2015-10-31T09:47:22.308Z</time>
      </trkpt>
      <trkpt lat="43.65406" lon="5.916">
        <ele>493</ele>
        <time>2015-10-31T09:47:23.323Z</time>
      </trkpt>
      <trkpt lat="43.6541" lon="5.91594">
        <ele>492</ele>
        <time>2015-10-31T09:47:24.308Z</time>
      </trkpt>
      <trkpt lat="43.65414" lon="5.91587">
        <ele>493</ele>
        <time>2015-10-31T09:47:25.288Z</time>
      </trkpt>
      <trkpt lat="43.65418" lon="5.91581">
        <ele>492</ele>
        <time>2015-10-31T09:47:26.309Z</time>
      </trkpt>
      <trkpt lat="43.65423" lon="5.91575">
        <ele>491</ele>
        <time>2015-10-31T09:47:27.288Z</time>
      </trkpt>
      <trkpt lat="43.65428" lon="5.91568">
        <ele>492</ele>
        <time>2015-10-31T09:47:28.501Z</time>
      </trkpt>
      <trkpt lat="43.65432" lon="5.91564">
        <ele>492</ele>
        <time>2015-10-31T09:47:29.288Z</time>
      </trkpt>
      <trkpt lat="43.65435" lon="5.91559">
        <ele>491</ele>
        <time>2015-10-31T09:47:30.307Z</time>
      </trkpt>
      <trkpt lat="43.65439" lon="5.91555">
        <ele>490</ele>
        <time>2015-10-31T09:47:31.288Z</time>
      </trkpt>
      <trkpt lat="43.65443" lon="5.91551">
        <ele>490</ele>
        <time>2015-10-31T09:47:32.308Z</time>
      </trkpt>
      <trkpt lat="43.65446" lon="5.91546">
        <ele>490</ele>
        <time>2015-10-31T09:47:33.288Z</time>
      </trkpt>
      <trkpt lat="43.65452" lon="5.91538">
        <ele>489</ele>
        <time>2015-10-31T09:47:36.309Z</time>
      </trkpt>
      <trkpt lat="43.65454" lon="5.91535">
        <ele>489</ele>
        <time>2015-10-31T09:47:37.280Z</time>
      </trkpt>
      <trkpt lat="43.65459" lon="5.91527">
        <ele>488</ele>
        <time>2015-10-31T09:47:40.307Z</time>
      </trkpt>
      <trkpt lat="43.65461" lon="5.91525">
        <ele>488</ele>
        <time>2015-10-31T09:47:41.283Z</time>
      </trkpt>
      <trkpt lat="43.65466" lon="5.91515">
        <ele>488</ele>
        <time>2015-10-31T09:47:44.315Z</time>
      </trkpt>
      <trkpt lat="43.65468" lon="5.91512">
        <ele>488</ele>
        <time>2015-10-31T09:47:45.305Z</time>
      </trkpt>
      <trkpt lat="43.65472" lon="5.91504">
        <ele>487</ele>
        <time>2015-10-31T09:47:47.326Z</time>
      </trkpt>
      <trkpt lat="43.65475" lon="5.915">
        <ele>487</ele>
        <time>2015-10-31T09:47:48.302Z</time>
      </trkpt>
      <trkpt lat="43.6548" lon="5.9149">
        <ele>487</ele>
        <time>2015-10-31T09:47:50.315Z</time>
      </trkpt>
      <trkpt lat="43.65483" lon="5.91486">
        <ele>487</ele>
        <time>2015-10-31T09:47:51.350Z</time>
      </trkpt>
      <trkpt lat="43.65486" lon="5.91481">
        <ele>487</ele>
        <time>2015-10-31T09:47:52.326Z</time>
      </trkpt>
      <trkpt lat="43.6549" lon="5.91476">
        <ele>486</ele>
        <time>2015-10-31T09:47:53.307Z</time>
      </trkpt>
      <trkpt lat="43.65493" lon="5.91471">
        <ele>486</ele>
        <time>2015-10-31T09:47:54.316Z</time>
      </trkpt>
      <trkpt lat="43.65497" lon="5.91466">
        <ele>486</ele>
        <time>2015-10-31T09:47:55.318Z</time>
      </trkpt>
      <trkpt lat="43.655" lon="5.91462">
        <ele>486</ele>
        <time>2015-10-31T09:47:56.319Z</time>
      </trkpt>
      <trkpt lat="43.65504" lon="5.91457">
        <ele>486</ele>
        <time>2015-10-31T09:47:57.291Z</time>
      </trkpt>
      <trkpt lat="43.65511" lon="5.9145">
        <ele>486</ele>
        <time>2015-10-31T09:47:59.317Z</time>
      </trkpt>
      <trkpt lat="43.65514" lon="5.91447">
        <ele>486</ele>
        <time>2015-10-31T09:48:00.290Z</time>
      </trkpt>
      <trkpt lat="43.65522" lon="5.9144">
        <ele>486</ele>
        <time>2015-10-31T09:48:02.319Z</time>
      </trkpt>
      <trkpt lat="43.65525" lon="5.91436">
        <ele>486</ele>
        <time>2015-10-31T09:48:03.291Z</time>
      </trkpt>
      <trkpt lat="43.65529" lon="5.91433">
        <ele>486</ele>
        <time>2015-10-31T09:48:04.314Z</time>
      </trkpt>
      <trkpt lat="43.65534" lon="5.9143">
        <ele>485</ele>
        <time>2015-10-31T09:48:05.292Z</time>
      </trkpt>
      <trkpt lat="43.65541" lon="5.91423">
        <ele>485</ele>
        <time>2015-10-31T09:48:07.315Z</time>
      </trkpt>
      <trkpt lat="43.65545" lon="5.91418">
        <ele>485</ele>
        <time>2015-10-31T09:48:08.291Z</time>
      </trkpt>
      <trkpt lat="43.65549" lon="5.91415">
        <ele>485</ele>
        <time>2015-10-31T09:48:09.315Z</time>
      </trkpt>
      <trkpt lat="43.65553" lon="5.9141">
        <ele>485</ele>
        <time>2015-10-31T09:48:10.291Z</time>
      </trkpt>
      <trkpt lat="43.65558" lon="5.91406">
        <ele>485</ele>
        <time>2015-10-31T09:48:11.344Z</time>
      </trkpt>
      <trkpt lat="43.65562" lon="5.91402">
        <ele>484</ele>
        <time>2015-10-31T09:48:12.291Z</time>
      </trkpt>
      <trkpt lat="43.65566" lon="5.91397">
        <ele>484</ele>
        <time>2015-10-31T09:48:13.315Z</time>
      </trkpt>
      <trkpt lat="43.65569" lon="5.91392">
        <ele>484</ele>
        <time>2015-10-31T09:48:14.302Z</time>
      </trkpt>
      <trkpt lat="43.65573" lon="5.91387">
        <ele>484</ele>
        <time>2015-10-31T09:48:15.316Z</time>
      </trkpt>
      <trkpt lat="43.65576" lon="5.91381">
        <ele>484</ele>
        <time>2015-10-31T09:48:16.290Z</time>
      </trkpt>
      <trkpt lat="43.65579" lon="5.91375">
        <ele>483</ele>
        <time>2015-10-31T09:48:17.325Z</time>
      </trkpt>
      <trkpt lat="43.65581" lon="5.91369">
        <ele>483</ele>
        <time>2015-10-31T09:48:18.308Z</time>
      </trkpt>
      <trkpt lat="43.65583" lon="5.91363">
        <ele>483</ele>
        <time>2015-10-31T09:48:19.315Z</time>
      </trkpt>
      <trkpt lat="43.65585" lon="5.91357">
        <ele>483</ele>
        <time>2015-10-31T09:48:20.303Z</time>
      </trkpt>
      <trkpt lat="43.65587" lon="5.91349">
        <ele>483</ele>
        <time>2015-10-31T09:48:21.315Z</time>
      </trkpt>
      <trkpt lat="43.65589" lon="5.91342">
        <ele>483</ele>
        <time>2015-10-31T09:48:22.308Z</time>
      </trkpt>
      <trkpt lat="43.65591" lon="5.91334">
        <ele>483</ele>
        <time>2015-10-31T09:48:23.315Z</time>
      </trkpt>
      <trkpt lat="43.65593" lon="5.91325">
        <ele>483</ele>
        <time>2015-10-31T09:48:24.290Z</time>
      </trkpt>
      <trkpt lat="43.65595" lon="5.91317">
        <ele>483</ele>
        <time>2015-10-31T09:48:25.316Z</time>
      </trkpt>
      <trkpt lat="43.65598" lon="5.91308">
        <ele>482</ele>
        <time>2015-10-31T09:48:26.291Z</time>
      </trkpt>
      <trkpt lat="43.656" lon="5.91298">
        <ele>482</ele>
        <time>2015-10-31T09:48:27.314Z</time>
      </trkpt>
      <trkpt lat="43.65602" lon="5.9129">
        <ele>481</ele>
        <time>2015-10-31T09:48:28.289Z</time>
      </trkpt>
      <trkpt lat="43.65603" lon="5.91281">
        <ele>482</ele>
        <time>2015-10-31T09:48:29.314Z</time>
      </trkpt>
      <trkpt lat="43.65605" lon="5.91273">
        <ele>482</ele>
        <time>2015-10-31T09:48:30.289Z</time>
      </trkpt>
      <trkpt lat="43.65606" lon="5.91264">
        <ele>482</ele>
        <time>2015-10-31T09:48:31.316Z</time>
      </trkpt>
      <trkpt lat="43.65607" lon="5.91254">
        <ele>481</ele>
        <time>2015-10-31T09:48:32.291Z</time>
      </trkpt>
      <trkpt lat="43.65608" lon="5.91246">
        <ele>481</ele>
        <time>2015-10-31T09:48:33.316Z</time>
      </trkpt>
      <trkpt lat="43.65611" lon="5.91238">
        <ele>481</ele>
        <time>2015-10-31T09:48:34.291Z</time>
      </trkpt>
      <trkpt lat="43.65612" lon="5.9123">
        <ele>480</ele>
        <time>2015-10-31T09:48:35.315Z</time>
      </trkpt>
      <trkpt lat="43.65614" lon="5.91223">
        <ele>480</ele>
        <time>2015-10-31T09:48:36.291Z</time>
      </trkpt>
      <trkpt lat="43.65617" lon="5.91215">
        <ele>480</ele>
        <time>2015-10-31T09:48:37.315Z</time>
      </trkpt>
      <trkpt lat="43.65618" lon="5.91208">
        <ele>480</ele>
        <time>2015-10-31T09:48:38.317Z</time>
      </trkpt>
      <trkpt lat="43.65621" lon="5.91202">
        <ele>480</ele>
        <time>2015-10-31T09:48:39.315Z</time>
      </trkpt>
      <trkpt lat="43.65623" lon="5.91195">
        <ele>480</ele>
        <time>2015-10-31T09:48:40.303Z</time>
      </trkpt>
      <trkpt lat="43.65624" lon="5.91188">
        <ele>480</ele>
        <time>2015-10-31T09:48:41.326Z</time>
      </trkpt>
      <trkpt lat="43.65626" lon="5.91181">
        <ele>480</ele>
        <time>2015-10-31T09:48:42.292Z</time>
      </trkpt>
      <trkpt lat="43.65629" lon="5.91173">
        <ele>479</ele>
        <time>2015-10-31T09:48:43.316Z</time>
      </trkpt>
      <trkpt lat="43.65631" lon="5.91166">
        <ele>479</ele>
        <time>2015-10-31T09:48:44.289Z</time>
      </trkpt>
      <trkpt lat="43.65632" lon="5.91159">
        <ele>479</ele>
        <time>2015-10-31T09:48:45.316Z</time>
      </trkpt>
      <trkpt lat="43.65632" lon="5.91152">
        <ele>479</ele>
        <time>2015-10-31T09:48:46.289Z</time>
      </trkpt>
      <trkpt lat="43.65632" lon="5.91146">
        <ele>479</ele>
        <time>2015-10-31T09:48:47.326Z</time>
      </trkpt>
      <trkpt lat="43.6563" lon="5.91139">
        <ele>478</ele>
        <time>2015-10-31T09:48:48.290Z</time>
      </trkpt>
      <trkpt lat="43.65628" lon="5.91134">
        <ele>479</ele>
        <time>2015-10-31T09:48:49.313Z</time>
      </trkpt>
      <trkpt lat="43.65625" lon="5.91127">
        <ele>479</ele>
        <time>2015-10-31T09:48:50.301Z</time>
      </trkpt>
      <trkpt lat="43.65624" lon="5.91119">
        <ele>479</ele>
        <time>2015-10-31T09:48:51.309Z</time>
      </trkpt>
      <trkpt lat="43.65624" lon="5.91112">
        <ele>479</ele>
        <time>2015-10-31T09:48:52.289Z</time>
      </trkpt>
      <trkpt lat="43.65624" lon="5.91104">
        <ele>479</ele>
        <time>2015-10-31T09:48:53.305Z</time>
      </trkpt>
      <trkpt lat="43.65625" lon="5.91097">
        <ele>479</ele>
        <time>2015-10-31T09:48:54.323Z</time>
      </trkpt>
      <trkpt lat="43.65626" lon="5.9109">
        <ele>478</ele>
        <time>2015-10-31T09:48:55.306Z</time>
      </trkpt>
      <trkpt lat="43.65628" lon="5.91084">
        <ele>479</ele>
        <time>2015-10-31T09:48:56.322Z</time>
      </trkpt>
      <trkpt lat="43.65628" lon="5.91078">
        <ele>478</ele>
        <time>2015-10-31T09:48:57.311Z</time>
      </trkpt>
      <trkpt lat="43.6563" lon="5.91072">
        <ele>479</ele>
        <time>2015-10-31T09:48:58.288Z</time>
      </trkpt>
      <trkpt lat="43.65632" lon="5.91064">
        <ele>479</ele>
        <time>2015-10-31T09:48:59.510Z</time>
      </trkpt>
      <trkpt lat="43.65633" lon="5.91058">
        <ele>479</ele>
        <time>2015-10-31T09:49:00.288Z</time>
      </trkpt>
      <trkpt lat="43.65635" lon="5.91051">
        <ele>478</ele>
        <time>2015-10-31T09:49:01.308Z</time>
      </trkpt>
      <trkpt lat="43.65636" lon="5.91045">
        <ele>478</ele>
        <time>2015-10-31T09:49:02.285Z</time>
      </trkpt>
      <trkpt lat="43.65638" lon="5.91038">
        <ele>478</ele>
        <time>2015-10-31T09:49:03.307Z</time>
      </trkpt>
      <trkpt lat="43.65641" lon="5.91031">
        <ele>478</ele>
        <time>2015-10-31T09:49:04.295Z</time>
      </trkpt>
      <trkpt lat="43.65643" lon="5.91026">
        <ele>478</ele>
        <time>2015-10-31T09:49:05.307Z</time>
      </trkpt>
      <trkpt lat="43.65646" lon="5.9102">
        <ele>478</ele>
        <time>2015-10-31T09:49:06.289Z</time>
      </trkpt>
      <trkpt lat="43.65648" lon="5.91014">
        <ele>478</ele>
        <time>2015-10-31T09:49:07.310Z</time>
      </trkpt>
      <trkpt lat="43.65651" lon="5.91008">
        <ele>478</ele>
        <time>2015-10-31T09:49:08.279Z</time>
      </trkpt>
      <trkpt lat="43.65654" lon="5.91002">
        <ele>478</ele>
        <time>2015-10-31T09:49:09.307Z</time>
      </trkpt>
      <trkpt lat="43.65656" lon="5.90996">
        <ele>478</ele>
        <time>2015-10-31T09:49:10.285Z</time>
      </trkpt>
      <trkpt lat="43.65659" lon="5.90991">
        <ele>478</ele>
        <time>2015-10-31T09:49:11.307Z</time>
      </trkpt>
      <trkpt lat="43.65662" lon="5.90984">
        <ele>478</ele>
        <time>2015-10-31T09:49:12.289Z</time>
      </trkpt>
      <trkpt lat="43.65664" lon="5.90978">
        <ele>478</ele>
        <time>2015-10-31T09:49:13.310Z</time>
      </trkpt>
      <trkpt lat="43.65666" lon="5.90972">
        <ele>478</ele>
        <time>2015-10-31T09:49:14.288Z</time>
      </trkpt>
      <trkpt lat="43.65669" lon="5.90966">
        <ele>478</ele>
        <time>2015-10-31T09:49:15.304Z</time>
      </trkpt>
      <trkpt lat="43.65672" lon="5.90959">
        <ele>478</ele>
        <time>2015-10-31T09:49:16.282Z</time>
      </trkpt>
      <trkpt lat="43.65675" lon="5.90953">
        <ele>478</ele>
        <time>2015-10-31T09:49:17.296Z</time>
      </trkpt>
      <trkpt lat="43.65677" lon="5.90948">
        <ele>477</ele>
        <time>2015-10-31T09:49:18.290Z</time>
      </trkpt>
      <trkpt lat="43.65678" lon="5.90942">
        <ele>477</ele>
        <time>2015-10-31T09:49:19.311Z</time>
      </trkpt>
      <trkpt lat="43.65679" lon="5.90935">
        <ele>477</ele>
        <time>2015-10-31T09:49:20.290Z</time>
      </trkpt>
      <trkpt lat="43.65681" lon="5.90923">
        <ele>478</ele>
        <time>2015-10-31T09:49:22.308Z</time>
      </trkpt>
      <trkpt lat="43.65682" lon="5.90917">
        <ele>477</ele>
        <time>2015-10-31T09:49:23.290Z</time>
      </trkpt>
      <trkpt lat="43.65683" lon="5.90911">
        <ele>477</ele>
        <time>2015-10-31T09:49:24.312Z</time>
      </trkpt>
      <trkpt lat="43.65684" lon="5.90904">
        <ele>477</ele>
        <time>2015-10-31T09:49:25.290Z</time>
      </trkpt>
      <trkpt lat="43.65687" lon="5.90894">
        <ele>477</ele>
        <time>2015-10-31T09:49:27.308Z</time>
      </trkpt>
      <trkpt lat="43.65688" lon="5.9089">
        <ele>477</ele>
        <time>2015-10-31T09:49:28.288Z</time>
      </trkpt>
      <trkpt lat="43.65691" lon="5.90881">
        <ele>477</ele>
        <time>2015-10-31T09:49:31.334Z</time>
      </trkpt>
      <trkpt lat="43.65691" lon="5.90877">
        <ele>477</ele>
        <time>2015-10-31T09:49:32.288Z</time>
      </trkpt>
      <trkpt lat="43.65694" lon="5.90866">
        <ele>477</ele>
        <time>2015-10-31T09:49:35.317Z</time>
      </trkpt>
      <trkpt lat="43.65695" lon="5.90861">
        <ele>477</ele>
        <time>2015-10-31T09:49:36.289Z</time>
      </trkpt>
      <trkpt lat="43.65698" lon="5.90853">
        <ele>477</ele>
        <time>2015-10-31T09:49:38.308Z</time>
      </trkpt>
      <trkpt lat="43.65699" lon="5.90849">
        <ele>477</ele>
        <time>2015-10-31T09:49:39.289Z</time>
      </trkpt>
      <trkpt lat="43.657" lon="5.90837">
        <ele>477</ele>
        <time>2015-10-31T09:49:42.344Z</time>
      </trkpt>
      <trkpt lat="43.65699" lon="5.90833">
        <ele>477</ele>
        <time>2015-10-31T09:49:43.289Z</time>
      </trkpt>
      <trkpt lat="43.65698" lon="5.90821">
        <ele>477</ele>
        <time>2015-10-31T09:49:46.309Z</time>
      </trkpt>
      <trkpt lat="43.65696" lon="5.90818">
        <ele>477</ele>
        <time>2015-10-31T09:49:47.289Z</time>
      </trkpt>
      <trkpt lat="43.65687" lon="5.90818">
        <ele>476</ele>
        <time>2015-10-31T09:49:50.310Z</time>
      </trkpt>
      <trkpt lat="43.65684" lon="5.9082">
        <ele>476</ele>
        <time>2015-10-31T09:49:51.289Z</time>
      </trkpt>
      <trkpt lat="43.65678" lon="5.90823">
        <ele>476</ele>
        <time>2015-10-31T09:49:53.308Z</time>
      </trkpt>
      <trkpt lat="43.65675" lon="5.90825">
        <ele>476</ele>
        <time>2015-10-31T09:49:54.289Z</time>
      </trkpt>
      <trkpt lat="43.65669" lon="5.9083">
        <ele>476</ele>
        <time>2015-10-31T09:49:57.310Z</time>
      </trkpt>
      <trkpt lat="43.65667" lon="5.90832">
        <ele>476</ele>
        <time>2015-10-31T09:49:58.313Z</time>
      </trkpt>
      <trkpt lat="43.65662" lon="5.9084">
        <ele>476</ele>
        <time>2015-10-31T09:50:01.530Z</time>
      </trkpt>
      <trkpt lat="43.6566" lon="5.90843">
        <ele>475</ele>
        <time>2015-10-31T09:50:02.293Z</time>
      </trkpt>
      <trkpt lat="43.65653" lon="5.90848">
        <ele>475</ele>
        <time>2015-10-31T09:50:04.333Z</time>
      </trkpt>
      <trkpt lat="43.65648" lon="5.90849">
        <ele>475</ele>
        <time>2015-10-31T09:50:05.293Z</time>
      </trkpt>
      <trkpt lat="43.65641" lon="5.90851">
        <ele>475</ele>
        <time>2015-10-31T09:50:07.336Z</time>
      </trkpt>
      <trkpt lat="43.65637" lon="5.90851">
        <ele>475</ele>
        <time>2015-10-31T09:50:08.290Z</time>
      </trkpt>
      <trkpt lat="43.65629" lon="5.90851">
        <ele>474</ele>
        <time>2015-10-31T09:50:11.313Z</time>
      </trkpt>
      <trkpt lat="43.65626" lon="5.90851">
        <ele>474</ele>
        <time>2015-10-31T09:50:12.290Z</time>
      </trkpt>
      <trkpt lat="43.65617" lon="5.9085">
        <ele>474</ele>
        <time>2015-10-31T09:50:15.326Z</time>
      </trkpt>
      <trkpt lat="43.65614" lon="5.9085">
        <ele>474</ele>
        <time>2015-10-31T09:50:16.316Z</time>
      </trkpt>
      <trkpt lat="43.65606" lon="5.9085">
        <ele>474</ele>
        <time>2015-10-31T09:50:19.314Z</time>
      </trkpt>
      <trkpt lat="43.65603" lon="5.9085">
        <ele>474</ele>
        <time>2015-10-31T09:50:20.302Z</time>
      </trkpt>
      <trkpt lat="43.65594" lon="5.9085">
        <ele>474</ele>
        <time>2015-10-31T09:50:23.322Z</time>
      </trkpt>
      <trkpt lat="43.65591" lon="5.9085">
        <ele>474</ele>
        <time>2015-10-31T09:50:24.290Z</time>
      </trkpt>
      <trkpt lat="43.65585" lon="5.90851">
        <ele>474</ele>
        <time>2015-10-31T09:50:26.338Z</time>
      </trkpt>
      <trkpt lat="43.65582" lon="5.90852">
        <ele>474</ele>
        <time>2015-10-31T09:50:27.291Z</time>
      </trkpt>
      <trkpt lat="43.65575" lon="5.90852">
        <ele>474</ele>
        <time>2015-10-31T09:50:29.315Z</time>
      </trkpt>
      <trkpt lat="43.65572" lon="5.90853">
        <ele>474</ele>
        <time>2015-10-31T09:50:30.318Z</time>
      </trkpt>
      <trkpt lat="43.65564" lon="5.90854">
        <ele>474</ele>
        <time>2015-10-31T09:50:32.325Z</time>
      </trkpt>
      <trkpt lat="43.65561" lon="5.90854">
        <ele>474</ele>
        <time>2015-10-31T09:50:33.291Z</time>
      </trkpt>
      <trkpt lat="43.65553" lon="5.90855">
        <ele>474</ele>
        <time>2015-10-31T09:50:35.313Z</time>
      </trkpt>
      <trkpt lat="43.6555" lon="5.90856">
        <ele>474</ele>
        <time>2015-10-31T09:50:36.295Z</time>
      </trkpt>
      <trkpt lat="43.65542" lon="5.90857">
        <ele>473</ele>
        <time>2015-10-31T09:50:38.315Z</time>
      </trkpt>
      <trkpt lat="43.65539" lon="5.90858">
        <ele>473</ele>
        <time>2015-10-31T09:50:39.293Z</time>
      </trkpt>
      <trkpt lat="43.65531" lon="5.90859">
        <ele>473</ele>
        <time>2015-10-31T09:50:41.315Z</time>
      </trkpt>
      <trkpt lat="43.65527" lon="5.9086">
        <ele>473</ele>
        <time>2015-10-31T09:50:42.294Z</time>
      </trkpt>
      <trkpt lat="43.6552" lon="5.90862">
        <ele>473</ele>
        <time>2015-10-31T09:50:44.315Z</time>
      </trkpt>
      <trkpt lat="43.65516" lon="5.90863">
        <ele>473</ele>
        <time>2015-10-31T09:50:45.293Z</time>
      </trkpt>
      <trkpt lat="43.65509" lon="5.90865">
        <ele>473</ele>
        <time>2015-10-31T09:50:47.348Z</time>
      </trkpt>
      <trkpt lat="43.65505" lon="5.90867">
        <ele>473</ele>
        <time>2015-10-31T09:50:48.292Z</time>
      </trkpt>
      <trkpt lat="43.65498" lon="5.9087">
        <ele>474</ele>
        <time>2015-10-31T09:50:50.315Z</time>
      </trkpt>
      <trkpt lat="43.65494" lon="5.90872">
        <ele>474</ele>
        <time>2015-10-31T09:50:51.949Z</time>
      </trkpt>
      <trkpt lat="43.65487" lon="5.90875">
        <ele>474</ele>
        <time>2015-10-31T09:50:53.325Z</time>
      </trkpt>
      <trkpt lat="43.65484" lon="5.90876">
        <ele>474</ele>
        <time>2015-10-31T09:50:54.292Z</time>
      </trkpt>
      <trkpt lat="43.65476" lon="5.90878">
        <ele>474</ele>
        <time>2015-10-31T09:50:56.314Z</time>
      </trkpt>
      <trkpt lat="43.65473" lon="5.90879">
        <ele>474</ele>
        <time>2015-10-31T09:50:57.302Z</time>
      </trkpt>
      <trkpt lat="43.65466" lon="5.90882">
        <ele>474</ele>
        <time>2015-10-31T09:50:59.325Z</time>
      </trkpt>
      <trkpt lat="43.65462" lon="5.90882">
        <ele>474</ele>
        <time>2015-10-31T09:51:00.290Z</time>
      </trkpt>
      <trkpt lat="43.65454" lon="5.90883">
        <ele>474</ele>
        <time>2015-10-31T09:51:02.360Z</time>
      </trkpt>
      <trkpt lat="43.6545" lon="5.90883">
        <ele>474</ele>
        <time>2015-10-31T09:51:03.291Z</time>
      </trkpt>
      <trkpt lat="43.65443" lon="5.90883">
        <ele>474</ele>
        <time>2015-10-31T09:51:05.329Z</time>
      </trkpt>
      <trkpt lat="43.65439" lon="5.90883">
        <ele>474</ele>
        <time>2015-10-31T09:51:06.294Z</time>
      </trkpt>
      <trkpt lat="43.6543" lon="5.90883">
        <ele>474</ele>
        <time>2015-10-31T09:51:08.316Z</time>
      </trkpt>
      <trkpt lat="43.65425" lon="5.90883">
        <ele>474</ele>
        <time>2015-10-31T09:51:09.293Z</time>
      </trkpt>
      <trkpt lat="43.65416" lon="5.90884">
        <ele>474</ele>
        <time>2015-10-31T09:51:11.315Z</time>
      </trkpt>
      <trkpt lat="43.65412" lon="5.90883">
        <ele>474</ele>
        <time>2015-10-31T09:51:12.292Z</time>
      </trkpt>
      <trkpt lat="43.65404" lon="5.90882">
        <ele>474</ele>
        <time>2015-10-31T09:51:14.316Z</time>
      </trkpt>
      <trkpt lat="43.654" lon="5.90882">
        <ele>474</ele>
        <time>2015-10-31T09:51:15.292Z</time>
      </trkpt>
      <trkpt lat="43.65392" lon="5.90882">
        <ele>474</ele>
        <time>2015-10-31T09:51:17.348Z</time>
      </trkpt>
      <trkpt lat="43.65389" lon="5.90881">
        <ele>474</ele>
        <time>2015-10-31T09:51:18.304Z</time>
      </trkpt>
      <trkpt lat="43.65382" lon="5.9088">
        <ele>474</ele>
        <time>2015-10-31T09:51:20.314Z</time>
      </trkpt>
      <trkpt lat="43.65379" lon="5.9088">
        <ele>474</ele>
        <time>2015-10-31T09:51:21.291Z</time>
      </trkpt>
      <trkpt lat="43.65371" lon="5.9088">
        <ele>474</ele>
        <time>2015-10-31T09:51:23.315Z</time>
      </trkpt>
      <trkpt lat="43.65368" lon="5.9088">
        <ele>474</ele>
        <time>2015-10-31T09:51:24.316Z</time>
      </trkpt>
      <trkpt lat="43.6536" lon="5.9088">
        <ele>474</ele>
        <time>2015-10-31T09:51:26.326Z</time>
      </trkpt>
      <trkpt lat="43.65357" lon="5.90879">
        <ele>474</ele>
        <time>2015-10-31T09:51:27.301Z</time>
      </trkpt>
      <trkpt lat="43.65349" lon="5.90879">
        <ele>474</ele>
        <time>2015-10-31T09:51:29.313Z</time>
      </trkpt>
      <trkpt lat="43.65345" lon="5.90878">
        <ele>475</ele>
        <time>2015-10-31T09:51:30.292Z</time>
      </trkpt>
      <trkpt lat="43.65337" lon="5.90877">
        <ele>475</ele>
        <time>2015-10-31T09:51:32.336Z</time>
      </trkpt>
      <trkpt lat="43.65333" lon="5.90877">
        <ele>475</ele>
        <time>2015-10-31T09:51:33.291Z</time>
      </trkpt>
      <trkpt lat="43.65326" lon="5.90876">
        <ele>475</ele>
        <time>2015-10-31T09:51:35.326Z</time>
      </trkpt>
      <trkpt lat="43.65322" lon="5.90876">
        <ele>475</ele>
        <time>2015-10-31T09:51:36.291Z</time>
      </trkpt>
      <trkpt lat="43.65314" lon="5.90875">
        <ele>476</ele>
        <time>2015-10-31T09:51:38.325Z</time>
      </trkpt>
      <trkpt lat="43.65311" lon="5.90875">
        <ele>476</ele>
        <time>2015-10-31T09:51:39.291Z</time>
      </trkpt>
      <trkpt lat="43.65303" lon="5.90875">
        <ele>476</ele>
        <time>2015-10-31T09:51:41.317Z</time>
      </trkpt>
      <trkpt lat="43.65299" lon="5.90875">
        <ele>476</ele>
        <time>2015-10-31T09:51:42.290Z</time>
      </trkpt>
      <trkpt lat="43.65292" lon="5.90874">
        <ele>476</ele>
        <time>2015-10-31T09:51:44.315Z</time>
      </trkpt>
      <trkpt lat="43.65288" lon="5.90874">
        <ele>477</ele>
        <time>2015-10-31T09:51:45.291Z</time>
      </trkpt>
      <trkpt lat="43.65281" lon="5.90874">
        <ele>477</ele>
        <time>2015-10-31T09:51:47.314Z</time>
      </trkpt>
      <trkpt lat="43.65278" lon="5.90874">
        <ele>477</ele>
        <time>2015-10-31T09:51:48.291Z</time>
      </trkpt>
      <trkpt lat="43.6527" lon="5.90873">
        <ele>477</ele>
        <time>2015-10-31T09:51:51.350Z</time>
      </trkpt>
      <trkpt lat="43.65268" lon="5.90871">
        <ele>477</ele>
        <time>2015-10-31T09:51:52.289Z</time>
      </trkpt>
      <trkpt lat="43.65265" lon="5.90861">
        <ele>478</ele>
        <time>2015-10-31T09:51:55.314Z</time>
      </trkpt>
      <trkpt lat="43.65266" lon="5.90857">
        <ele>478</ele>
        <time>2015-10-31T09:51:56.291Z</time>
      </trkpt>
      <trkpt lat="43.65266" lon="5.90848">
        <ele>478</ele>
        <time>2015-10-31T09:51:58.315Z</time>
      </trkpt>
      <trkpt lat="43.65267" lon="5.90843">
        <ele>478</ele>
        <time>2015-10-31T09:51:59.292Z</time>
      </trkpt>
      <trkpt lat="43.65268" lon="5.90834">
        <ele>479</ele>
        <time>2015-10-31T09:52:01.314Z</time>
      </trkpt>
      <trkpt lat="43.65269" lon="5.90829">
        <ele>479</ele>
        <time>2015-10-31T09:52:02.330Z</time>
      </trkpt>
      <trkpt lat="43.6527" lon="5.9082">
        <ele>479</ele>
        <time>2015-10-31T09:52:04.328Z</time>
      </trkpt>
      <trkpt lat="43.6527" lon="5.90815">
        <ele>479</ele>
        <time>2015-10-31T09:52:05.290Z</time>
      </trkpt>
      <trkpt lat="43.65271" lon="5.90805">
        <ele>479</ele>
        <time>2015-10-31T09:52:07.334Z</time>
      </trkpt>
      <trkpt lat="43.65271" lon="5.908">
        <ele>479</ele>
        <time>2015-10-31T09:52:08.290Z</time>
      </trkpt>
      <trkpt lat="43.65272" lon="5.9079">
        <ele>479</ele>
        <time>2015-10-31T09:52:10.325Z</time>
      </trkpt>
      <trkpt lat="43.65273" lon="5.90785">
        <ele>479</ele>
        <time>2015-10-31T09:52:11.291Z</time>
      </trkpt>
      <trkpt lat="43.65274" lon="5.90775">
        <ele>479</ele>
        <time>2015-10-31T09:52:13.342Z</time>
      </trkpt>
      <trkpt lat="43.65274" lon="5.90771">
        <ele>478</ele>
        <time>2015-10-31T09:52:14.292Z</time>
      </trkpt>
      <trkpt lat="43.65276" lon="5.90761">
        <ele>478</ele>
        <time>2015-10-31T09:52:16.324Z</time>
      </trkpt>
      <trkpt lat="43.65277" lon="5.90756">
        <ele>478</ele>
        <time>2015-10-31T09:52:17.292Z</time>
      </trkpt>
      <trkpt lat="43.65279" lon="5.90745">
        <ele>478</ele>
        <time>2015-10-31T09:52:19.315Z</time>
      </trkpt>
      <trkpt lat="43.65279" lon="5.9074">
        <ele>478</ele>
        <time>2015-10-31T09:52:20.292Z</time>
      </trkpt>
      <trkpt lat="43.65281" lon="5.90728">
        <ele>477</ele>
        <time>2015-10-31T09:52:22.327Z</time>
      </trkpt>
      <trkpt lat="43.65281" lon="5.90722">
        <ele>477</ele>
        <time>2015-10-31T09:52:23.291Z</time>
      </trkpt>
      <trkpt lat="43.65282" lon="5.90715">
        <ele>476</ele>
        <time>2015-10-31T09:52:24.314Z</time>
      </trkpt>
      <trkpt lat="43.65284" lon="5.9071">
        <ele>476</ele>
        <time>2015-10-31T09:52:25.303Z</time>
      </trkpt>
      <trkpt lat="43.6529" lon="5.90707">
        <ele>476</ele>
        <time>2015-10-31T09:52:26.314Z</time>
      </trkpt>
      <trkpt lat="43.65295" lon="5.90704">
        <ele>476</ele>
        <time>2015-10-31T09:52:27.291Z</time>
      </trkpt>
      <trkpt lat="43.65299" lon="5.907">
        <ele>475</ele>
        <time>2015-10-31T09:52:28.325Z</time>
      </trkpt>
      <trkpt lat="43.65302" lon="5.90696">
        <ele>476</ele>
        <time>2015-10-31T09:52:29.319Z</time>
      </trkpt>
      <trkpt lat="43.65308" lon="5.90688">
        <ele>475</ele>
        <time>2015-10-31T09:52:31.326Z</time>
      </trkpt>
      <trkpt lat="43.65313" lon="5.90684">
        <ele>475</ele>
        <time>2015-10-31T09:52:32.292Z</time>
      </trkpt>
      <trkpt lat="43.65318" lon="5.90681">
        <ele>474</ele>
        <time>2015-10-31T09:52:33.326Z</time>
      </trkpt>
      <trkpt lat="43.65323" lon="5.90677">
        <ele>473</ele>
        <time>2015-10-31T09:52:34.291Z</time>
      </trkpt>
      <trkpt lat="43.65327" lon="5.90672">
        <ele>472</ele>
        <time>2015-10-31T09:52:35.315Z</time>
      </trkpt>
      <trkpt lat="43.6533" lon="5.90668">
        <ele>472</ele>
        <time>2015-10-31T09:52:36.303Z</time>
      </trkpt>
      <trkpt lat="43.65336" lon="5.90659">
        <ele>471</ele>
        <time>2015-10-31T09:52:39.325Z</time>
      </trkpt>
      <trkpt lat="43.65337" lon="5.90658">
        <ele>472</ele>
        <time>2015-10-31T09:52:40.318Z</time>
      </trkpt>
      <trkpt lat="43.65342" lon="5.9065">
        <ele>471</ele>
        <time>2015-10-31T09:52:46.315Z</time>
      </trkpt>
      <trkpt lat="43.65343" lon="5.90648">
        <ele>471</ele>
        <time>2015-10-31T09:52:47.302Z</time>
      </trkpt>
      <trkpt lat="43.65345" lon="5.90638">
        <ele>472</ele>
        <time>2015-10-31T09:52:51.342Z</time>
      </trkpt>
      <trkpt lat="43.65346" lon="5.90636">
        <ele>472</ele>
        <time>2015-10-31T09:52:52.302Z</time>
      </trkpt>
      <trkpt lat="43.65348" lon="5.90626">
        <ele>472</ele>
        <time>2015-10-31T09:52:56.315Z</time>
      </trkpt>
      <trkpt lat="43.65349" lon="5.90623">
        <ele>471</ele>
        <time>2015-10-31T09:52:57.291Z</time>
      </trkpt>
      <trkpt lat="43.6535" lon="5.90613">
        <ele>472</ele>
        <time>2015-10-31T09:53:01.564Z</time>
      </trkpt>
      <trkpt lat="43.6535" lon="5.9061">
        <ele>473</ele>
        <time>2015-10-31T09:53:02.293Z</time>
      </trkpt>
      <trkpt lat="43.65351" lon="5.90601">
        <ele>473</ele>
        <time>2015-10-31T09:53:06.304Z</time>
      </trkpt>
      <trkpt lat="43.65352" lon="5.90598">
        <ele>474</ele>
        <time>2015-10-31T09:53:07.292Z</time>
      </trkpt>
      <trkpt lat="43.65354" lon="5.90587">
        <ele>474</ele>
        <time>2015-10-31T09:53:11.316Z</time>
      </trkpt>
      <trkpt lat="43.65355" lon="5.90584">
        <ele>474</ele>
        <time>2015-10-31T09:53:12.291Z</time>
      </trkpt>
      <trkpt lat="43.65358" lon="5.90574">
        <ele>476</ele>
        <time>2015-10-31T09:53:15.315Z</time>
      </trkpt>
      <trkpt lat="43.65359" lon="5.90571">
        <ele>476</ele>
        <time>2015-10-31T09:53:16.291Z</time>
      </trkpt>
      <trkpt lat="43.65361" lon="5.90562">
        <ele>475</ele>
        <time>2015-10-31T09:53:19.315Z</time>
      </trkpt>
      <trkpt lat="43.65362" lon="5.90558">
        <ele>475</ele>
        <time>2015-10-31T09:53:20.292Z</time>
      </trkpt>
      <trkpt lat="43.65365" lon="5.90549">
        <ele>476</ele>
        <time>2015-10-31T09:53:23.315Z</time>
      </trkpt>
      <trkpt lat="43.65366" lon="5.90546">
        <ele>476</ele>
        <time>2015-10-31T09:53:24.290Z</time>
      </trkpt>
      <trkpt lat="43.65369" lon="5.90536">
        <ele>476</ele>
        <time>2015-10-31T09:53:27.314Z</time>
      </trkpt>
      <trkpt lat="43.65369" lon="5.90533">
        <ele>476</ele>
        <time>2015-10-31T09:53:28.318Z</time>
      </trkpt>
      <trkpt lat="43.65372" lon="5.90523">
        <ele>477</ele>
        <time>2015-10-31T09:53:31.315Z</time>
      </trkpt>
      <trkpt lat="43.65372" lon="5.9052">
        <ele>478</ele>
        <time>2015-10-31T09:53:32.292Z</time>
      </trkpt>
      <trkpt lat="43.65374" lon="5.90509">
        <ele>478</ele>
        <time>2015-10-31T09:53:35.314Z</time>
      </trkpt>
      <trkpt lat="43.65375" lon="5.90505">
        <ele>478</ele>
        <time>2015-10-31T09:53:36.292Z</time>
      </trkpt>
      <trkpt lat="43.65377" lon="5.90493">
        <ele>478</ele>
        <time>2015-10-31T09:53:39.315Z</time>
      </trkpt>
      <trkpt lat="43.65378" lon="5.90489">
        <ele>477</ele>
        <time>2015-10-31T09:53:40.291Z</time>
      </trkpt>
      <trkpt lat="43.65381" lon="5.90478">
        <ele>477</ele>
        <time>2015-10-31T09:53:43.315Z</time>
      </trkpt>
      <trkpt lat="43.65382" lon="5.90474">
        <ele>477</ele>
        <time>2015-10-31T09:53:44.329Z</time>
      </trkpt>
      <trkpt lat="43.65383" lon="5.90463">
        <ele>476</ele>
        <time>2015-10-31T09:53:47.315Z</time>
      </trkpt>
      <trkpt lat="43.65383" lon="5.90459">
        <ele>476</ele>
        <time>2015-10-31T09:53:48.293Z</time>
      </trkpt>
      <trkpt lat="43.65386" lon="5.90447">
        <ele>475</ele>
        <time>2015-10-31T09:53:52.315Z</time>
      </trkpt>
      <trkpt lat="43.65386" lon="5.90444">
        <ele>474</ele>
        <time>2015-10-31T09:53:53.292Z</time>
      </trkpt>
      <trkpt lat="43.65388" lon="5.90435">
        <ele>475</ele>
        <time>2015-10-31T09:53:56.327Z</time>
      </trkpt>
      <trkpt lat="43.65389" lon="5.90432">
        <ele>475</ele>
        <time>2015-10-31T09:53:57.292Z</time>
      </trkpt>
      <trkpt lat="43.65391" lon="5.90424">
        <ele>475</ele>
        <time>2015-10-31T09:53:59.326Z</time>
      </trkpt>
      <trkpt lat="43.65393" lon="5.90419">
        <ele>475</ele>
        <time>2015-10-31T09:54:00.291Z</time>
      </trkpt>
      <trkpt lat="43.65397" lon="5.90411">
        <ele>474</ele>
        <time>2015-10-31T09:54:02.326Z</time>
      </trkpt>
      <trkpt lat="43.65399" lon="5.90407">
        <ele>474</ele>
        <time>2015-10-31T09:54:03.295Z</time>
      </trkpt>
      <trkpt lat="43.65401" lon="5.90398">
        <ele>474</ele>
        <time>2015-10-31T09:54:05.300Z</time>
      </trkpt>
      <trkpt lat="43.65402" lon="5.90394">
        <ele>474</ele>
        <time>2015-10-31T09:54:06.319Z</time>
      </trkpt>
      <trkpt lat="43.65403" lon="5.90385">
        <ele>474</ele>
        <time>2015-10-31T09:54:08.316Z</time>
      </trkpt>
      <trkpt lat="43.65403" lon="5.9038">
        <ele>474</ele>
        <time>2015-10-31T09:54:09.294Z</time>
      </trkpt>
      <trkpt lat="43.65404" lon="5.90371">
        <ele>473</ele>
        <time>2015-10-31T09:54:11.313Z</time>
      </trkpt>
      <trkpt lat="43.65404" lon="5.90366">
        <ele>473</ele>
        <time>2015-10-31T09:54:12.284Z</time>
      </trkpt>
      <trkpt lat="43.65405" lon="5.90356">
        <ele>473</ele>
        <time>2015-10-31T09:54:14.314Z</time>
      </trkpt>
      <trkpt lat="43.65405" lon="5.90352">
        <ele>473</ele>
        <time>2015-10-31T09:54:15.291Z</time>
      </trkpt>
      <trkpt lat="43.65406" lon="5.90342">
        <ele>473</ele>
        <time>2015-10-31T09:54:17.326Z</time>
      </trkpt>
      <trkpt lat="43.65406" lon="5.90338">
        <ele>473</ele>
        <time>2015-10-31T09:54:18.306Z</time>
      </trkpt>
      <trkpt lat="43.65407" lon="5.90328">
        <ele>473</ele>
        <time>2015-10-31T09:54:20.329Z</time>
      </trkpt>
      <trkpt lat="43.65407" lon="5.90323">
        <ele>473</ele>
        <time>2015-10-31T09:54:21.290Z</time>
      </trkpt>
      <trkpt lat="43.65409" lon="5.90314">
        <ele>474</ele>
        <time>2015-10-31T09:54:23.325Z</time>
      </trkpt>
      <trkpt lat="43.65409" lon="5.9031">
        <ele>474</ele>
        <time>2015-10-31T09:54:24.310Z</time>
      </trkpt>
      <trkpt lat="43.6541" lon="5.90301">
        <ele>474</ele>
        <time>2015-10-31T09:54:26.315Z</time>
      </trkpt>
      <trkpt lat="43.6541" lon="5.90296">
        <ele>473</ele>
        <time>2015-10-31T09:54:27.305Z</time>
      </trkpt>
      <trkpt lat="43.6541" lon="5.90287">
        <ele>474</ele>
        <time>2015-10-31T09:54:29.326Z</time>
      </trkpt>
      <trkpt lat="43.65411" lon="5.90282">
        <ele>474</ele>
        <time>2015-10-31T09:54:30.291Z</time>
      </trkpt>
      <trkpt lat="43.65412" lon="5.90272">
        <ele>475</ele>
        <time>2015-10-31T09:54:32.315Z</time>
      </trkpt>
      <trkpt lat="43.65412" lon="5.90268">
        <ele>475</ele>
        <time>2015-10-31T09:54:33.292Z</time>
      </trkpt>
      <trkpt lat="43.65414" lon="5.90259">
        <ele>475</ele>
        <time>2015-10-31T09:54:35.545Z</time>
      </trkpt>
      <trkpt lat="43.65415" lon="5.90255">
        <ele>475</ele>
        <time>2015-10-31T09:54:36.291Z</time>
      </trkpt>
      <trkpt lat="43.65417" lon="5.90246">
        <ele>475</ele>
        <time>2015-10-31T09:54:38.340Z</time>
      </trkpt>
      <trkpt lat="43.65417" lon="5.90242">
        <ele>476</ele>
        <time>2015-10-31T09:54:39.289Z</time>
      </trkpt>
      <trkpt lat="43.65418" lon="5.9023">
        <ele>476</ele>
        <time>2015-10-31T09:54:42.313Z</time>
      </trkpt>
      <trkpt lat="43.65418" lon="5.90226">
        <ele>475</ele>
        <time>2015-10-31T09:54:43.292Z</time>
      </trkpt>
      <trkpt lat="43.65416" lon="5.90217">
        <ele>476</ele>
        <time>2015-10-31T09:54:45.316Z</time>
      </trkpt>
      <trkpt lat="43.65415" lon="5.90213">
        <ele>475</ele>
        <time>2015-10-31T09:54:46.295Z</time>
      </trkpt>
      <trkpt lat="43.65412" lon="5.90204">
        <ele>475</ele>
        <time>2015-10-31T09:54:48.324Z</time>
      </trkpt>
      <trkpt lat="43.65411" lon="5.902">
        <ele>475</ele>
        <time>2015-10-31T09:54:49.318Z</time>
      </trkpt>
      <trkpt lat="43.65407" lon="5.90192">
        <ele>475</ele>
        <time>2015-10-31T09:54:51.314Z</time>
      </trkpt>
      <trkpt lat="43.65404" lon="5.90188">
        <ele>476</ele>
        <time>2015-10-31T09:54:52.292Z</time>
      </trkpt>
      <trkpt lat="43.65401" lon="5.90182">
        <ele>475</ele>
        <time>2015-10-31T09:54:53.315Z</time>
      </trkpt>
      <trkpt lat="43.65396" lon="5.90177">
        <ele>475</ele>
        <time>2015-10-31T09:54:54.291Z</time>
      </trkpt>
      <trkpt lat="43.65394" lon="5.90171">
        <ele>475</ele>
        <time>2015-10-31T09:54:55.315Z</time>
      </trkpt>
      <trkpt lat="43.65393" lon="5.90165">
        <ele>475</ele>
        <time>2015-10-31T09:54:56.292Z</time>
      </trkpt>
      <trkpt lat="43.6539" lon="5.90155">
        <ele>475</ele>
        <time>2015-10-31T09:54:58.314Z</time>
      </trkpt>
      <trkpt lat="43.65388" lon="5.90149">
        <ele>474</ele>
        <time>2015-10-31T09:54:59.291Z</time>
      </trkpt>
      <trkpt lat="43.65387" lon="5.90137">
        <ele>474</ele>
        <time>2015-10-31T09:55:01.315Z</time>
      </trkpt>
      <trkpt lat="43.65386" lon="5.90132">
        <ele>474</ele>
        <time>2015-10-31T09:55:02.291Z</time>
      </trkpt>
      <trkpt lat="43.65383" lon="5.90122">
        <ele>474</ele>
        <time>2015-10-31T09:55:04.316Z</time>
      </trkpt>
      <trkpt lat="43.65381" lon="5.90117">
        <ele>473</ele>
        <time>2015-10-31T09:55:05.293Z</time>
      </trkpt>
      <trkpt lat="43.65378" lon="5.90112">
        <ele>473</ele>
        <time>2015-10-31T09:55:06.311Z</time>
      </trkpt>
      <trkpt lat="43.65374" lon="5.90108">
        <ele>472</ele>
        <time>2015-10-31T09:55:07.291Z</time>
      </trkpt>
      <trkpt lat="43.65369" lon="5.90106">
        <ele>472</ele>
        <time>2015-10-31T09:55:08.315Z</time>
      </trkpt>
      <trkpt lat="43.65365" lon="5.90104">
        <ele>471</ele>
        <time>2015-10-31T09:55:09.291Z</time>
      </trkpt>
      <trkpt lat="43.65361" lon="5.90094">
        <ele>470</ele>
        <time>2015-10-31T09:55:11.320Z</time>
      </trkpt>
      <trkpt lat="43.65361" lon="5.90087">
        <ele>470</ele>
        <time>2015-10-31T09:55:12.290Z</time>
      </trkpt>
      <trkpt lat="43.65362" lon="5.90076">
        <ele>471</ele>
        <time>2015-10-31T09:55:14.315Z</time>
      </trkpt>
      <trkpt lat="43.65362" lon="5.90071">
        <ele>470</ele>
        <time>2015-10-31T09:55:15.292Z</time>
      </trkpt>
      <trkpt lat="43.65365" lon="5.9006">
        <ele>470</ele>
        <time>2015-10-31T09:55:17.327Z</time>
      </trkpt>
      <trkpt lat="43.65366" lon="5.90055">
        <ele>471</ele>
        <time>2015-10-31T09:55:18.292Z</time>
      </trkpt>
      <trkpt lat="43.65369" lon="5.90044">
        <ele>471</ele>
        <time>2015-10-31T09:55:20.327Z</time>
      </trkpt>
      <trkpt lat="43.6537" lon="5.9004">
        <ele>471</ele>
        <time>2015-10-31T09:55:21.292Z</time>
      </trkpt>
      <trkpt lat="43.65373" lon="5.9003">
        <ele>471</ele>
        <time>2015-10-31T09:55:23.326Z</time>
      </trkpt>
      <trkpt lat="43.65374" lon="5.90026">
        <ele>471</ele>
        <time>2015-10-31T09:55:24.293Z</time>
      </trkpt>
      <trkpt lat="43.65376" lon="5.90016">
        <ele>470</ele>
        <time>2015-10-31T09:55:26.328Z</time>
      </trkpt>
      <trkpt lat="43.65377" lon="5.90012">
        <ele>471</ele>
        <time>2015-10-31T09:55:27.328Z</time>
      </trkpt>
      <trkpt lat="43.65379" lon="5.90002">
        <ele>470</ele>
        <time>2015-10-31T09:55:29.312Z</time>
      </trkpt>
      <trkpt lat="43.65381" lon="5.89998">
        <ele>470</ele>
        <time>2015-10-31T09:55:30.294Z</time>
      </trkpt>
      <trkpt lat="43.65384" lon="5.8999">
        <ele>471</ele>
        <time>2015-10-31T09:55:32.314Z</time>
      </trkpt>
      <trkpt lat="43.65386" lon="5.89985">
        <ele>471</ele>
        <time>2015-10-31T09:55:33.295Z</time>
      </trkpt>
      <trkpt lat="43.65388" lon="5.89977">
        <ele>472</ele>
        <time>2015-10-31T09:55:35.313Z</time>
      </trkpt>
      <trkpt lat="43.65388" lon="5.89972">
        <ele>472</ele>
        <time>2015-10-31T09:55:36.291Z</time>
      </trkpt>
      <trkpt lat="43.65388" lon="5.89963">
        <ele>471</ele>
        <time>2015-10-31T09:55:38.336Z</time>
      </trkpt>
      <trkpt lat="43.65387" lon="5.89957">
        <ele>471</ele>
        <time>2015-10-31T09:55:39.293Z</time>
      </trkpt>
      <trkpt lat="43.65385" lon="5.89948">
        <ele>472</ele>
        <time>2015-10-31T09:55:41.326Z</time>
      </trkpt>
      <trkpt lat="43.65385" lon="5.89943">
        <ele>471</ele>
        <time>2015-10-31T09:55:42.292Z</time>
      </trkpt>
      <trkpt lat="43.65384" lon="5.89933">
        <ele>472</ele>
        <time>2015-10-31T09:55:44.314Z</time>
      </trkpt>
      <trkpt lat="43.65384" lon="5.89929">
        <ele>472</ele>
        <time>2015-10-31T09:55:45.291Z</time>
      </trkpt>
      <trkpt lat="43.65385" lon="5.8992">
        <ele>472</ele>
        <time>2015-10-31T09:55:47.314Z</time>
      </trkpt>
      <trkpt lat="43.65387" lon="5.89916">
        <ele>472</ele>
        <time>2015-10-31T09:55:48.291Z</time>
      </trkpt>
      <trkpt lat="43.6539" lon="5.89908">
        <ele>473</ele>
        <time>2015-10-31T09:55:50.315Z</time>
      </trkpt>
      <trkpt lat="43.65391" lon="5.89904">
        <ele>473</ele>
        <time>2015-10-31T09:55:51.292Z</time>
      </trkpt>
      <trkpt lat="43.65392" lon="5.89892">
        <ele>473</ele>
        <time>2015-10-31T09:55:54.313Z</time>
      </trkpt>
      <trkpt lat="43.65391" lon="5.89888">
        <ele>473</ele>
        <time>2015-10-31T09:55:55.289Z</time>
      </trkpt>
      <trkpt lat="43.65389" lon="5.89879">
        <ele>473</ele>
        <time>2015-10-31T09:55:57.337Z</time>
      </trkpt>
      <trkpt lat="43.65388" lon="5.89874">
        <ele>473</ele>
        <time>2015-10-31T09:55:58.293Z</time>
      </trkpt>
      <trkpt lat="43.65386" lon="5.89863">
        <ele>472</ele>
        <time>2015-10-31T09:56:00.315Z</time>
      </trkpt>
      <trkpt lat="43.65385" lon="5.89858">
        <ele>472</ele>
        <time>2015-10-31T09:56:01.292Z</time>
      </trkpt>
      <trkpt lat="43.65383" lon="5.89847">
        <ele>472</ele>
        <time>2015-10-31T09:56:03.325Z</time>
      </trkpt>
      <trkpt lat="43.65382" lon="5.89842">
        <ele>472</ele>
        <time>2015-10-31T09:56:04.292Z</time>
      </trkpt>
      <trkpt lat="43.6538" lon="5.89833">
        <ele>472</ele>
        <time>2015-10-31T09:56:06.315Z</time>
      </trkpt>
      <trkpt lat="43.65379" lon="5.89828">
        <ele>472</ele>
        <time>2015-10-31T09:56:07.291Z</time>
      </trkpt>
      <trkpt lat="43.65378" lon="5.89818">
        <ele>471</ele>
        <time>2015-10-31T09:56:09.314Z</time>
      </trkpt>
      <trkpt lat="43.65378" lon="5.89813">
        <ele>471</ele>
        <time>2015-10-31T09:56:10.331Z</time>
      </trkpt>
      <trkpt lat="43.65376" lon="5.89803">
        <ele>471</ele>
        <time>2015-10-31T09:56:12.315Z</time>
      </trkpt>
      <trkpt lat="43.65375" lon="5.89797">
        <ele>471</ele>
        <time>2015-10-31T09:56:13.295Z</time>
      </trkpt>
      <trkpt lat="43.65374" lon="5.89785">
        <ele>471</ele>
        <time>2015-10-31T09:56:15.315Z</time>
      </trkpt>
      <trkpt lat="43.65374" lon="5.89779">
        <ele>471</ele>
        <time>2015-10-31T09:56:16.303Z</time>
      </trkpt>
      <trkpt lat="43.65375" lon="5.89768">
        <ele>471</ele>
        <time>2015-10-31T09:56:18.315Z</time>
      </trkpt>
      <trkpt lat="43.65376" lon="5.89762">
        <ele>471</ele>
        <time>2015-10-31T09:56:19.303Z</time>
      </trkpt>
      <trkpt lat="43.65376" lon="5.8975">
        <ele>471</ele>
        <time>2015-10-31T09:56:21.342Z</time>
      </trkpt>
      <trkpt lat="43.65375" lon="5.89745">
        <ele>470</ele>
        <time>2015-10-31T09:56:22.293Z</time>
      </trkpt>
      <trkpt lat="43.6537" lon="5.89735">
        <ele>470</ele>
        <time>2015-10-31T09:56:24.315Z</time>
      </trkpt>
      <trkpt lat="43.65364" lon="5.89732">
        <ele>470</ele>
        <time>2015-10-31T09:56:25.291Z</time>
      </trkpt>
      <trkpt lat="43.6536" lon="5.89728">
        <ele>470</ele>
        <time>2015-10-31T09:56:26.326Z</time>
      </trkpt>
      <trkpt lat="43.65357" lon="5.89723">
        <ele>469</ele>
        <time>2015-10-31T09:56:27.292Z</time>
      </trkpt>
      <trkpt lat="43.65355" lon="5.89719">
        <ele>469</ele>
        <time>2015-10-31T09:56:28.314Z</time>
      </trkpt>
      <trkpt lat="43.65353" lon="5.89713">
        <ele>469</ele>
        <time>2015-10-31T09:56:29.303Z</time>
      </trkpt>
      <trkpt lat="43.65347" lon="5.89703">
        <ele>468</ele>
        <time>2015-10-31T09:56:31.338Z</time>
      </trkpt>
      <trkpt lat="43.65343" lon="5.897">
        <ele>468</ele>
        <time>2015-10-31T09:56:32.292Z</time>
      </trkpt>
      <trkpt lat="43.65337" lon="5.89692">
        <ele>467</ele>
        <time>2015-10-31T09:56:35.314Z</time>
      </trkpt>
      <trkpt lat="43.65336" lon="5.8969">
        <ele>467</ele>
        <time>2015-10-31T09:56:36.292Z</time>
      </trkpt>
      <trkpt lat="43.65336" lon="5.89681">
        <ele>466</ele>
        <time>2015-10-31T09:56:39.368Z</time>
      </trkpt>
      <trkpt lat="43.65338" lon="5.89677">
        <ele>466</ele>
        <time>2015-10-31T09:56:40.288Z</time>
      </trkpt>
      <trkpt lat="43.65343" lon="5.89669">
        <ele>466</ele>
        <time>2015-10-31T09:56:43.326Z</time>
      </trkpt>
      <trkpt lat="43.65345" lon="5.89667">
        <ele>466</ele>
        <time>2015-10-31T09:56:44.292Z</time>
      </trkpt>
      <trkpt lat="43.65352" lon="5.8966">
        <ele>466</ele>
        <time>2015-10-31T09:56:49.315Z</time>
      </trkpt>
      <trkpt lat="43.65354" lon="5.89658">
        <ele>466</ele>
        <time>2015-10-31T09:56:50.291Z</time>
      </trkpt>
      <trkpt lat="43.65359" lon="5.89649">
        <ele>465</ele>
        <time>2015-10-31T09:56:54.314Z</time>
      </trkpt>
      <trkpt lat="43.6536" lon="5.89646">
        <ele>465</ele>
        <time>2015-10-31T09:56:55.291Z</time>
      </trkpt>
      <trkpt lat="43.65361" lon="5.89637">
        <ele>465</ele>
        <time>2015-10-31T09:56:58.316Z</time>
      </trkpt>
      <trkpt lat="43.65362" lon="5.89634">
        <ele>465</ele>
        <time>2015-10-31T09:56:59.292Z</time>
      </trkpt>
      <trkpt lat="43.65362" lon="5.89621">
        <ele>465</ele>
        <time>2015-10-31T09:57:03.323Z</time>
      </trkpt>
      <trkpt lat="43.65362" lon="5.89618">
        <ele>465</ele>
        <time>2015-10-31T09:57:04.292Z</time>
      </trkpt>
      <trkpt lat="43.65361" lon="5.89609">
        <ele>465</ele>
        <time>2015-10-31T09:57:07.314Z</time>
      </trkpt>
      <trkpt lat="43.6536" lon="5.89605">
        <ele>465</ele>
        <time>2015-10-31T09:57:08.293Z</time>
      </trkpt>
      <trkpt lat="43.65361" lon="5.89595">
        <ele>466</ele>
        <time>2015-10-31T09:57:11.315Z</time>
      </trkpt>
      <trkpt lat="43.65363" lon="5.89591">
        <ele>466</ele>
        <time>2015-10-31T09:57:12.291Z</time>
      </trkpt>
      <trkpt lat="43.65366" lon="5.89582">
        <ele>467</ele>
        <time>2015-10-31T09:57:14.315Z</time>
      </trkpt>
      <trkpt lat="43.65368" lon="5.89578">
        <ele>467</ele>
        <time>2015-10-31T09:57:15.292Z</time>
      </trkpt>
      <trkpt lat="43.6537" lon="5.89569">
        <ele>467</ele>
        <time>2015-10-31T09:57:17.312Z</time>
      </trkpt>
      <trkpt lat="43.65371" lon="5.89564">
        <ele>467</ele>
        <time>2015-10-31T09:57:18.293Z</time>
      </trkpt>
      <trkpt lat="43.65373" lon="5.89555">
        <ele>467</ele>
        <time>2015-10-31T09:57:20.314Z</time>
      </trkpt>
      <trkpt lat="43.65373" lon="5.89551">
        <ele>467</ele>
        <time>2015-10-31T09:57:21.291Z</time>
      </trkpt>
      <trkpt lat="43.65375" lon="5.89542">
        <ele>468</ele>
        <time>2015-10-31T09:57:23.314Z</time>
      </trkpt>
      <trkpt lat="43.65376" lon="5.89537">
        <ele>468</ele>
        <time>2015-10-31T09:57:24.291Z</time>
      </trkpt>
      <trkpt lat="43.65377" lon="5.89527">
        <ele>468</ele>
        <time>2015-10-31T09:57:26.333Z</time>
      </trkpt>
      <trkpt lat="43.65378" lon="5.89522">
        <ele>468</ele>
        <time>2015-10-31T09:57:27.292Z</time>
      </trkpt>
      <trkpt lat="43.65378" lon="5.89512">
        <ele>467</ele>
        <time>2015-10-31T09:57:29.314Z</time>
      </trkpt>
      <trkpt lat="43.65378" lon="5.89506">
        <ele>467</ele>
        <time>2015-10-31T09:57:30.293Z</time>
      </trkpt>
      <trkpt lat="43.65378" lon="5.89496">
        <ele>468</ele>
        <time>2015-10-31T09:57:32.315Z</time>
      </trkpt>
      <trkpt lat="43.65377" lon="5.8949">
        <ele>468</ele>
        <time>2015-10-31T09:57:33.292Z</time>
      </trkpt>
      <trkpt lat="43.65376" lon="5.89482">
        <ele>467</ele>
        <time>2015-10-31T09:57:35.344Z</time>
      </trkpt>
      <trkpt lat="43.65375" lon="5.89477">
        <ele>467</ele>
        <time>2015-10-31T09:57:36.291Z</time>
      </trkpt>
      <trkpt lat="43.65375" lon="5.89469">
        <ele>467</ele>
        <time>2015-10-31T09:57:38.316Z</time>
      </trkpt>
      <trkpt lat="43.65374" lon="5.89465">
        <ele>467</ele>
        <time>2015-10-31T09:57:39.292Z</time>
      </trkpt>
      <trkpt lat="43.65373" lon="5.89456">
        <ele>467</ele>
        <time>2015-10-31T09:57:41.314Z</time>
      </trkpt>
      <trkpt lat="43.65373" lon="5.89452">
        <ele>467</ele>
        <time>2015-10-31T09:57:42.293Z</time>
      </trkpt>
      <trkpt lat="43.65372" lon="5.89443">
        <ele>467</ele>
        <time>2015-10-31T09:57:44.315Z</time>
      </trkpt>
      <trkpt lat="43.65372" lon="5.89439">
        <ele>467</ele>
        <time>2015-10-31T09:57:45.292Z</time>
      </trkpt>
      <trkpt lat="43.65371" lon="5.8943">
        <ele>467</ele>
        <time>2015-10-31T09:57:47.355Z</time>
      </trkpt>
      <trkpt lat="43.6537" lon="5.89426">
        <ele>467</ele>
        <time>2015-10-31T09:57:48.304Z</time>
      </trkpt>
      <trkpt lat="43.65368" lon="5.89418">
        <ele>467</ele>
        <time>2015-10-31T09:57:50.315Z</time>
      </trkpt>
      <trkpt lat="43.65367" lon="5.89413">
        <ele>468</ele>
        <time>2015-10-31T09:57:51.292Z</time>
      </trkpt>
      <trkpt lat="43.65367" lon="5.89404">
        <ele>467</ele>
        <time>2015-10-31T09:57:53.375Z</time>
      </trkpt>
      <trkpt lat="43.65367" lon="5.89399">
        <ele>467</ele>
        <time>2015-10-31T09:57:54.304Z</time>
      </trkpt>
      <trkpt lat="43.65366" lon="5.89389">
        <ele>467</ele>
        <time>2015-10-31T09:57:56.358Z</time>
      </trkpt>
      <trkpt lat="43.65365" lon="5.89384">
        <ele>467</ele>
        <time>2015-10-31T09:57:57.329Z</time>
      </trkpt>
      <trkpt lat="43.65362" lon="5.89373">
        <ele>467</ele>
        <time>2015-10-31T09:57:59.314Z</time>
      </trkpt>
      <trkpt lat="43.65361" lon="5.89368">
        <ele>467</ele>
        <time>2015-10-31T09:58:00.291Z</time>
      </trkpt>
      <trkpt lat="43.65357" lon="5.89357">
        <ele>467</ele>
        <time>2015-10-31T09:58:02.315Z</time>
      </trkpt>
      <trkpt lat="43.65355" lon="5.89352">
        <ele>467</ele>
        <time>2015-10-31T09:58:03.293Z</time>
      </trkpt>
      <trkpt lat="43.65352" lon="5.89341">
        <ele>467</ele>
        <time>2015-10-31T09:58:05.315Z</time>
      </trkpt>
      <trkpt lat="43.6535" lon="5.89336">
        <ele>467</ele>
        <time>2015-10-31T09:58:06.291Z</time>
      </trkpt>
      <trkpt lat="43.65346" lon="5.89325">
        <ele>467</ele>
        <time>2015-10-31T09:58:08.316Z</time>
      </trkpt>
      <trkpt lat="43.65345" lon="5.89319">
        <ele>467</ele>
        <time>2015-10-31T09:58:09.293Z</time>
      </trkpt>
      <trkpt lat="43.65342" lon="5.89308">
        <ele>467</ele>
        <time>2015-10-31T09:58:11.314Z</time>
      </trkpt>
      <trkpt lat="43.6534" lon="5.89302">
        <ele>467</ele>
        <time>2015-10-31T09:58:12.302Z</time>
      </trkpt>
      <trkpt lat="43.65337" lon="5.89291">
        <ele>467</ele>
        <time>2015-10-31T09:58:14.315Z</time>
      </trkpt>
      <trkpt lat="43.65335" lon="5.89286">
        <ele>467</ele>
        <time>2015-10-31T09:58:15.293Z</time>
      </trkpt>
      <trkpt lat="43.65333" lon="5.89275">
        <ele>468</ele>
        <time>2015-10-31T09:58:17.327Z</time>
      </trkpt>
      <trkpt lat="43.65332" lon="5.8927">
        <ele>468</ele>
        <time>2015-10-31T09:58:18.291Z</time>
      </trkpt>
      <trkpt lat="43.65329" lon="5.89259">
        <ele>468</ele>
        <time>2015-10-31T09:58:20.328Z</time>
      </trkpt>
      <trkpt lat="43.65328" lon="5.89253">
        <ele>468</ele>
        <time>2015-10-31T09:58:21.292Z</time>
      </trkpt>
      <trkpt lat="43.65326" lon="5.89243">
        <ele>468</ele>
        <time>2015-10-31T09:58:23.326Z</time>
      </trkpt>
      <trkpt lat="43.65325" lon="5.89238">
        <ele>468</ele>
        <time>2015-10-31T09:58:24.321Z</time>
      </trkpt>
      <trkpt lat="43.65324" lon="5.89228">
        <ele>468</ele>
        <time>2015-10-31T09:58:26.312Z</time>
      </trkpt>
      <trkpt lat="43.65323" lon="5.89223">
        <ele>468</ele>
        <time>2015-10-31T09:58:27.294Z</time>
      </trkpt>
      <trkpt lat="43.65321" lon="5.89212">
        <ele>468</ele>
        <time>2015-10-31T09:58:29.316Z</time>
      </trkpt>
      <trkpt lat="43.6532" lon="5.89207">
        <ele>468</ele>
        <time>2015-10-31T09:58:30.294Z</time>
      </trkpt>
      <trkpt lat="43.65318" lon="5.89196">
        <ele>468</ele>
        <time>2015-10-31T09:58:32.316Z</time>
      </trkpt>
      <trkpt lat="43.65317" lon="5.8919">
        <ele>467</ele>
        <time>2015-10-31T09:58:33.291Z</time>
      </trkpt>
      <trkpt lat="43.65316" lon="5.89184">
        <ele>467</ele>
        <time>2015-10-31T09:58:34.315Z</time>
      </trkpt>
      <trkpt lat="43.65315" lon="5.89177">
        <ele>467</ele>
        <time>2015-10-31T09:58:35.319Z</time>
      </trkpt>
      <trkpt lat="43.65313" lon="5.89165">
        <ele>467</ele>
        <time>2015-10-31T09:58:37.315Z</time>
      </trkpt>
      <trkpt lat="43.65312" lon="5.8916">
        <ele>467</ele>
        <time>2015-10-31T09:58:38.292Z</time>
      </trkpt>
      <trkpt lat="43.65309" lon="5.8915">
        <ele>467</ele>
        <time>2015-10-31T09:58:40.314Z</time>
      </trkpt>
      <trkpt lat="43.65308" lon="5.89148">
        <ele>468</ele>
        <time>2015-10-31T09:58:41.291Z</time>
      </trkpt>
      <trkpt lat="43.65314" lon="5.89141">
        <ele>468</ele>
        <time>2015-10-31T09:58:47.316Z</time>
      </trkpt>
      <trkpt lat="43.65315" lon="5.8914">
        <ele>468</ele>
        <time>2015-10-31T09:58:48.293Z</time>
      </trkpt>
      <trkpt lat="43.65321" lon="5.89132">
        <ele>468</ele>
        <time>2015-10-31T09:58:53.315Z</time>
      </trkpt>
      <trkpt lat="43.65322" lon="5.8913">
        <ele>468</ele>
        <time>2015-10-31T09:58:54.293Z</time>
      </trkpt>
      <trkpt lat="43.65328" lon="5.89123">
        <ele>468</ele>
        <time>2015-10-31T09:58:59.318Z</time>
      </trkpt>
      <trkpt lat="43.65329" lon="5.89122">
        <ele>468</ele>
        <time>2015-10-31T09:59:00.286Z</time>
      </trkpt>
      <trkpt lat="43.65335" lon="5.89114">
        <ele>468</ele>
        <time>2015-10-31T09:59:06.331Z</time>
      </trkpt>
      <trkpt lat="43.65336" lon="5.89113">
        <ele>468</ele>
        <time>2015-10-31T09:59:07.320Z</time>
      </trkpt>
      <trkpt lat="43.65342" lon="5.89106">
        <ele>469</ele>
        <time>2015-10-31T09:59:12.317Z</time>
      </trkpt>
      <trkpt lat="43.65343" lon="5.89105">
        <ele>469</ele>
        <time>2015-10-31T09:59:13.293Z</time>
      </trkpt>
      <trkpt lat="43.6535" lon="5.891">
        <ele>471</ele>
        <time>2015-10-31T09:59:19.327Z</time>
      </trkpt>
      <trkpt lat="43.65351" lon="5.891">
        <ele>471</ele>
        <time>2015-10-31T09:59:20.293Z</time>
      </trkpt>
      <trkpt lat="43.6536" lon="5.89101">
        <ele>472</ele>
        <time>2015-10-31T09:59:26.330Z</time>
      </trkpt>
      <trkpt lat="43.65361" lon="5.89101">
        <ele>472</ele>
        <time>2015-10-31T09:59:27.292Z</time>
      </trkpt>
      <trkpt lat="43.65369" lon="5.89102">
        <ele>476</ele>
        <time>2015-10-31T09:59:33.326Z</time>
      </trkpt>
      <trkpt lat="43.6537" lon="5.89103">
        <ele>476</ele>
        <time>2015-10-31T09:59:34.292Z</time>
      </trkpt>
      <trkpt lat="43.65378" lon="5.89102">
        <ele>477</ele>
        <time>2015-10-31T09:59:40.315Z</time>
      </trkpt>
      <trkpt lat="43.65379" lon="5.89101">
        <ele>478</ele>
        <time>2015-10-31T09:59:41.293Z</time>
      </trkpt>
      <trkpt lat="43.65387" lon="5.891">
        <ele>480</ele>
        <time>2015-10-31T09:59:47.315Z</time>
      </trkpt>
      <trkpt lat="43.65388" lon="5.891">
        <ele>480</ele>
        <time>2015-10-31T09:59:48.292Z</time>
      </trkpt>
      <trkpt lat="43.65397" lon="5.89101">
        <ele>481</ele>
        <time>2015-10-31T09:59:55.342Z</time>
      </trkpt>
      <trkpt lat="43.65398" lon="5.89101">
        <ele>482</ele>
        <time>2015-10-31T09:59:56.304Z</time>
      </trkpt>
      <trkpt lat="43.65406" lon="5.89107">
        <ele>484</ele>
        <time>2015-10-31T10:00:03.326Z</time>
      </trkpt>
      <trkpt lat="43.65407" lon="5.89107">
        <ele>484</ele>
        <time>2015-10-31T10:00:04.293Z</time>
      </trkpt>
      <trkpt lat="43.65414" lon="5.89109">
        <ele>485</ele>
        <time>2015-10-31T10:00:10.314Z</time>
      </trkpt>
      <trkpt lat="43.65416" lon="5.89109">
        <ele>485</ele>
        <time>2015-10-31T10:00:11.292Z</time>
      </trkpt>
      <trkpt lat="43.65424" lon="5.8911">
        <ele>487</ele>
        <time>2015-10-31T10:00:17.314Z</time>
      </trkpt>
      <trkpt lat="43.65426" lon="5.8911">
        <ele>487</ele>
        <time>2015-10-31T10:00:18.304Z</time>
      </trkpt>
      <trkpt lat="43.65431" lon="5.89101">
        <ele>488</ele>
        <time>2015-10-31T10:00:24.327Z</time>
      </trkpt>
      <trkpt lat="43.65431" lon="5.89099">
        <ele>488</ele>
        <time>2015-10-31T10:00:25.292Z</time>
      </trkpt>
      <trkpt lat="43.65436" lon="5.8909">
        <ele>489</ele>
        <time>2015-10-31T10:00:31.314Z</time>
      </trkpt>
      <trkpt lat="43.65437" lon="5.89089">
        <ele>489</ele>
        <time>2015-10-31T10:00:32.510Z</time>
      </trkpt>
      <trkpt lat="43.65445" lon="5.89085">
        <ele>490</ele>
        <time>2015-10-31T10:00:38.313Z</time>
      </trkpt>
      <trkpt lat="43.65446" lon="5.89084">
        <ele>490</ele>
        <time>2015-10-31T10:00:39.293Z</time>
      </trkpt>
      <trkpt lat="43.65452" lon="5.89076">
        <ele>492</ele>
        <time>2015-10-31T10:00:46.316Z</time>
      </trkpt>
      <trkpt lat="43.65453" lon="5.89075">
        <ele>492</ele>
        <time>2015-10-31T10:00:47.291Z</time>
      </trkpt>
      <trkpt lat="43.6546" lon="5.89072">
        <ele>493</ele>
        <time>2015-10-31T10:00:52.316Z</time>
      </trkpt>
      <trkpt lat="43.65462" lon="5.89071">
        <ele>493</ele>
        <time>2015-10-31T10:00:53.293Z</time>
      </trkpt>
      <trkpt lat="43.6547" lon="5.89067">
        <ele>492</ele>
        <time>2015-10-31T10:00:57.326Z</time>
      </trkpt>
      <trkpt lat="43.65472" lon="5.89066">
        <ele>492</ele>
        <time>2015-10-31T10:00:58.293Z</time>
      </trkpt>
      <trkpt lat="43.6548" lon="5.89062">
        <ele>494</ele>
        <time>2015-10-31T10:01:02.346Z</time>
      </trkpt>
      <trkpt lat="43.65482" lon="5.8906">
        <ele>494</ele>
        <time>2015-10-31T10:01:03.291Z</time>
      </trkpt>
      <trkpt lat="43.65489" lon="5.89055">
        <ele>495</ele>
        <time>2015-10-31T10:01:07.314Z</time>
      </trkpt>
      <trkpt lat="43.65491" lon="5.89054">
        <ele>495</ele>
        <time>2015-10-31T10:01:08.293Z</time>
      </trkpt>
      <trkpt lat="43.65499" lon="5.89049">
        <ele>496</ele>
        <time>2015-10-31T10:01:12.315Z</time>
      </trkpt>
      <trkpt lat="43.65501" lon="5.89048">
        <ele>496</ele>
        <time>2015-10-31T10:01:13.304Z</time>
      </trkpt>
      <trkpt lat="43.65507" lon="5.89043">
        <ele>496</ele>
        <time>2015-10-31T10:01:16.313Z</time>
      </trkpt>
      <trkpt lat="43.65508" lon="5.8904">
        <ele>496</ele>
        <time>2015-10-31T10:01:17.292Z</time>
      </trkpt>
      <trkpt lat="43.65514" lon="5.89032">
        <ele>497</ele>
        <time>2015-10-31T10:01:21.315Z</time>
      </trkpt>
      <trkpt lat="43.65516" lon="5.8903">
        <ele>497</ele>
        <time>2015-10-31T10:01:22.291Z</time>
      </trkpt>
      <trkpt lat="43.65524" lon="5.89025">
        <ele>498</ele>
        <time>2015-10-31T10:01:26.315Z</time>
      </trkpt>
      <trkpt lat="43.65525" lon="5.89024">
        <ele>498</ele>
        <time>2015-10-31T10:01:27.304Z</time>
      </trkpt>
      <trkpt lat="43.6553" lon="5.89014">
        <ele>498</ele>
        <time>2015-10-31T10:01:31.342Z</time>
      </trkpt>
      <trkpt lat="43.65531" lon="5.89012">
        <ele>498</ele>
        <time>2015-10-31T10:01:32.305Z</time>
      </trkpt>
      <trkpt lat="43.65535" lon="5.89003">
        <ele>498</ele>
        <time>2015-10-31T10:01:36.316Z</time>
      </trkpt>
      <trkpt lat="43.65537" lon="5.89002">
        <ele>498</ele>
        <time>2015-10-31T10:01:37.293Z</time>
      </trkpt>
      <trkpt lat="43.65542" lon="5.88993">
        <ele>499</ele>
        <time>2015-10-31T10:01:41.326Z</time>
      </trkpt>
      <trkpt lat="43.65544" lon="5.8899">
        <ele>499</ele>
        <time>2015-10-31T10:01:42.293Z</time>
      </trkpt>
      <trkpt lat="43.6555" lon="5.88983">
        <ele>499</ele>
        <time>2015-10-31T10:01:45.316Z</time>
      </trkpt>
      <trkpt lat="43.65552" lon="5.8898">
        <ele>499</ele>
        <time>2015-10-31T10:01:46.291Z</time>
      </trkpt>
      <trkpt lat="43.65555" lon="5.88969">
        <ele>500</ele>
        <time>2015-10-31T10:01:52.316Z</time>
      </trkpt>
      <trkpt lat="43.65556" lon="5.88968">
        <ele>500</ele>
        <time>2015-10-31T10:01:53.303Z</time>
      </trkpt>
      <trkpt lat="43.65561" lon="5.88959">
        <ele>499</ele>
        <time>2015-10-31T10:02:05.371Z</time>
      </trkpt>
      <trkpt lat="43.65561" lon="5.88957">
        <ele>499</ele>
        <time>2015-10-31T10:02:06.514Z</time>
      </trkpt>
      <trkpt lat="43.65562" lon="5.88945">
        <ele>499</ele>
        <time>2015-10-31T10:02:10.316Z</time>
      </trkpt>
      <trkpt lat="43.65562" lon="5.88941">
        <ele>498</ele>
        <time>2015-10-31T10:02:11.292Z</time>
      </trkpt>
      <trkpt lat="43.65564" lon="5.88932">
        <ele>498</ele>
        <time>2015-10-31T10:02:14.344Z</time>
      </trkpt>
      <trkpt lat="43.65565" lon="5.88929">
        <ele>497</ele>
        <time>2015-10-31T10:02:15.293Z</time>
      </trkpt>
      <trkpt lat="43.65566" lon="5.88918">
        <ele>497</ele>
        <time>2015-10-31T10:02:18.314Z</time>
      </trkpt>
      <trkpt lat="43.65566" lon="5.88914">
        <ele>497</ele>
        <time>2015-10-31T10:02:19.291Z</time>
      </trkpt>
      <trkpt lat="43.65567" lon="5.88902">
        <ele>496</ele>
        <time>2015-10-31T10:02:22.315Z</time>
      </trkpt>
      <trkpt lat="43.65567" lon="5.88898">
        <ele>496</ele>
        <time>2015-10-31T10:02:23.293Z</time>
      </trkpt>
      <trkpt lat="43.6557" lon="5.88886">
        <ele>497</ele>
        <time>2015-10-31T10:02:26.315Z</time>
      </trkpt>
      <trkpt lat="43.6557" lon="5.88882">
        <ele>496</ele>
        <time>2015-10-31T10:02:27.292Z</time>
      </trkpt>
      <trkpt lat="43.65574" lon="5.88871">
        <ele>496</ele>
        <time>2015-10-31T10:02:30.314Z</time>
      </trkpt>
      <trkpt lat="43.65576" lon="5.88867">
        <ele>496</ele>
        <time>2015-10-31T10:02:31.293Z</time>
      </trkpt>
      <trkpt lat="43.65582" lon="5.88859">
        <ele>496</ele>
        <time>2015-10-31T10:02:34.328Z</time>
      </trkpt>
      <trkpt lat="43.65584" lon="5.88856">
        <ele>496</ele>
        <time>2015-10-31T10:02:35.294Z</time>
      </trkpt>
      <trkpt lat="43.65588" lon="5.88847">
        <ele>497</ele>
        <time>2015-10-31T10:02:38.316Z</time>
      </trkpt>
      <trkpt lat="43.6559" lon="5.88844">
        <ele>497</ele>
        <time>2015-10-31T10:02:39.287Z</time>
      </trkpt>
      <trkpt lat="43.65595" lon="5.88837">
        <ele>497</ele>
        <time>2015-10-31T10:02:41.573Z</time>
      </trkpt>
      <trkpt lat="43.65597" lon="5.88835">
        <ele>497</ele>
        <time>2015-10-31T10:02:42.292Z</time>
      </trkpt>
      <trkpt lat="43.65605" lon="5.8883">
        <ele>497</ele>
        <time>2015-10-31T10:02:45.315Z</time>
      </trkpt>
      <trkpt lat="43.65607" lon="5.88828">
        <ele>497</ele>
        <time>2015-10-31T10:02:46.288Z</time>
      </trkpt>
      <trkpt lat="43.65614" lon="5.8882">
        <ele>498</ele>
        <time>2015-10-31T10:05:10.363Z</time>
      </trkpt>
      <trkpt lat="43.65616" lon="5.88819">
        <ele>498</ele>
        <time>2015-10-31T10:05:11.293Z</time>
      </trkpt>
      <trkpt lat="43.65624" lon="5.88815">
        <ele>499</ele>
        <time>2015-10-31T10:05:17.315Z</time>
      </trkpt>
      <trkpt lat="43.65625" lon="5.88814">
        <ele>499</ele>
        <time>2015-10-31T10:05:18.291Z</time>
      </trkpt>
      <trkpt lat="43.65632" lon="5.8881">
        <ele>498</ele>
        <time>2015-10-31T10:05:23.315Z</time>
      </trkpt>
      <trkpt lat="43.65634" lon="5.8881">
        <ele>498</ele>
        <time>2015-10-31T10:05:24.294Z</time>
      </trkpt>
      <trkpt lat="43.65641" lon="5.88807">
        <ele>499</ele>
        <time>2015-10-31T10:05:28.316Z</time>
      </trkpt>
      <trkpt lat="43.65642" lon="5.88805">
        <ele>499</ele>
        <time>2015-10-31T10:05:29.293Z</time>
      </trkpt>
      <trkpt lat="43.6565" lon="5.888">
        <ele>499</ele>
        <time>2015-10-31T10:05:33.317Z</time>
      </trkpt>
      <trkpt lat="43.65652" lon="5.88799">
        <ele>498</ele>
        <time>2015-10-31T10:05:34.304Z</time>
      </trkpt>
      <trkpt lat="43.6566" lon="5.88793">
        <ele>499</ele>
        <time>2015-10-31T10:05:38.315Z</time>
      </trkpt>
      <trkpt lat="43.65662" lon="5.88792">
        <ele>499</ele>
        <time>2015-10-31T10:05:39.290Z</time>
      </trkpt>
      <trkpt lat="43.65668" lon="5.8879">
        <ele>500</ele>
        <time>2015-10-31T10:05:42.318Z</time>
      </trkpt>
      <trkpt lat="43.65671" lon="5.8879">
        <ele>499</ele>
        <time>2015-10-31T10:05:43.293Z</time>
      </trkpt>
      <trkpt lat="43.65678" lon="5.88783">
        <ele>499</ele>
        <time>2015-10-31T10:05:47.361Z</time>
      </trkpt>
      <trkpt lat="43.6568" lon="5.88781">
        <ele>499</ele>
        <time>2015-10-31T10:05:48.293Z</time>
      </trkpt>
      <trkpt lat="43.65686" lon="5.88777">
        <ele>499</ele>
        <time>2015-10-31T10:05:51.368Z</time>
      </trkpt>
      <trkpt lat="43.65688" lon="5.88775">
        <ele>499</ele>
        <time>2015-10-31T10:05:52.295Z</time>
      </trkpt>
      <trkpt lat="43.65696" lon="5.8877">
        <ele>500</ele>
        <time>2015-10-31T10:05:56.329Z</time>
      </trkpt>
      <trkpt lat="43.65698" lon="5.88768">
        <ele>500</ele>
        <time>2015-10-31T10:05:57.999Z</time>
      </trkpt>
      <trkpt lat="43.65702" lon="5.8876">
        <ele>501</ele>
        <time>2015-10-31T10:06:00.315Z</time>
      </trkpt>
      <trkpt lat="43.65703" lon="5.88757">
        <ele>501</ele>
        <time>2015-10-31T10:06:01.292Z</time>
      </trkpt>
      <trkpt lat="43.65707" lon="5.88748">
        <ele>500</ele>
        <time>2015-10-31T10:06:04.317Z</time>
      </trkpt>
      <trkpt lat="43.65708" lon="5.88744">
        <ele>500</ele>
        <time>2015-10-31T10:06:05.292Z</time>
      </trkpt>
      <trkpt lat="43.65706" lon="5.88734">
        <ele>500</ele>
        <time>2015-10-31T10:06:08.319Z</time>
      </trkpt>
      <trkpt lat="43.65705" lon="5.8873">
        <ele>500</ele>
        <time>2015-10-31T10:06:09.292Z</time>
      </trkpt>
      <trkpt lat="43.65701" lon="5.8872">
        <ele>500</ele>
        <time>2015-10-31T10:06:12.316Z</time>
      </trkpt>
      <trkpt lat="43.657" lon="5.88716">
        <ele>500</ele>
        <time>2015-10-31T10:06:13.291Z</time>
      </trkpt>
      <trkpt lat="43.65692" lon="5.88712">
        <ele>500</ele>
        <time>2015-10-31T10:06:17.314Z</time>
      </trkpt>
      <trkpt lat="43.6569" lon="5.88711">
        <ele>501</ele>
        <time>2015-10-31T10:06:18.293Z</time>
      </trkpt>
      <trkpt lat="43.65682" lon="5.88706">
        <ele>501</ele>
        <time>2015-10-31T10:06:21.316Z</time>
      </trkpt>
      <trkpt lat="43.6568" lon="5.88705">
        <ele>501</ele>
        <time>2015-10-31T10:06:22.293Z</time>
      </trkpt>
      <trkpt lat="43.65674" lon="5.88697">
        <ele>501</ele>
        <time>2015-10-31T10:06:25.316Z</time>
      </trkpt>
      <trkpt lat="43.65671" lon="5.88695">
        <ele>501</ele>
        <time>2015-10-31T10:06:26.305Z</time>
      </trkpt>
      <trkpt lat="43.65664" lon="5.88689">
        <ele>501</ele>
        <time>2015-10-31T10:06:29.317Z</time>
      </trkpt>
      <trkpt lat="43.65663" lon="5.88687">
        <ele>501</ele>
        <time>2015-10-31T10:06:30.321Z</time>
      </trkpt>
      <trkpt lat="43.65658" lon="5.88678">
        <ele>502</ele>
        <time>2015-10-31T10:06:33.368Z</time>
      </trkpt>
      <trkpt lat="43.65657" lon="5.88674">
        <ele>502</ele>
        <time>2015-10-31T10:06:34.293Z</time>
      </trkpt>
      <trkpt lat="43.65656" lon="5.88665">
        <ele>502</ele>
        <time>2015-10-31T10:06:37.314Z</time>
      </trkpt>
      <trkpt lat="43.65655" lon="5.88662">
        <ele>502</ele>
        <time>2015-10-31T10:06:38.293Z</time>
      </trkpt>
      <trkpt lat="43.65651" lon="5.88652">
        <ele>501</ele>
        <time>2015-10-31T10:06:41.316Z</time>
      </trkpt>
      <trkpt lat="43.65649" lon="5.8865">
        <ele>502</ele>
        <time>2015-10-31T10:06:42.293Z</time>
      </trkpt>
      <trkpt lat="43.65642" lon="5.88644">
        <ele>502</ele>
        <time>2015-10-31T10:06:46.358Z</time>
      </trkpt>
      <trkpt lat="43.65641" lon="5.88642">
        <ele>502</ele>
        <time>2015-10-31T10:06:47.292Z</time>
      </trkpt>
      <trkpt lat="43.65637" lon="5.88634">
        <ele>501</ele>
        <time>2015-10-31T10:06:50.318Z</time>
      </trkpt>
      <trkpt lat="43.65637" lon="5.8863">
        <ele>501</ele>
        <time>2015-10-31T10:06:51.293Z</time>
      </trkpt>
      <trkpt lat="43.65643" lon="5.88625">
        <ele>502</ele>
        <time>2015-10-31T10:06:54.317Z</time>
      </trkpt>
      <trkpt lat="43.65646" lon="5.88625">
        <ele>502</ele>
        <time>2015-10-31T10:06:55.287Z</time>
      </trkpt>
      <trkpt lat="43.65653" lon="5.88628">
        <ele>501</ele>
        <time>2015-10-31T10:06:58.328Z</time>
      </trkpt>
      <trkpt lat="43.65655" lon="5.88629">
        <ele>501</ele>
        <time>2015-10-31T10:06:59.293Z</time>
      </trkpt>
      <trkpt lat="43.65662" lon="5.88629">
        <ele>501</ele>
        <time>2015-10-31T10:07:02.324Z</time>
      </trkpt>
      <trkpt lat="43.65665" lon="5.88628">
        <ele>501</ele>
        <time>2015-10-31T10:07:03.293Z</time>
      </trkpt>
      <trkpt lat="43.65672" lon="5.88627">
        <ele>501</ele>
        <time>2015-10-31T10:07:06.316Z</time>
      </trkpt>
      <trkpt lat="43.65675" lon="5.88626">
        <ele>501</ele>
        <time>2015-10-31T10:07:07.292Z</time>
      </trkpt>
      <trkpt lat="43.65682" lon="5.88622">
        <ele>501</ele>
        <time>2015-10-31T10:07:10.316Z</time>
      </trkpt>
      <trkpt lat="43.65684" lon="5.88621">
        <ele>501</ele>
        <time>2015-10-31T10:07:11.296Z</time>
      </trkpt>
      <trkpt lat="43.6569" lon="5.88618">
        <ele>502</ele>
        <time>2015-10-31T10:07:14.315Z</time>
      </trkpt>
      <trkpt lat="43.65693" lon="5.88617">
        <ele>502</ele>
        <time>2015-10-31T10:07:15.293Z</time>
      </trkpt>
      <trkpt lat="43.657" lon="5.88615">
        <ele>502</ele>
        <time>2015-10-31T10:07:18.318Z</time>
      </trkpt>
      <trkpt lat="43.65702" lon="5.88614">
        <ele>502</ele>
        <time>2015-10-31T10:07:19.293Z</time>
      </trkpt>
      <trkpt lat="43.65708" lon="5.88607">
        <ele>502</ele>
        <time>2015-10-31T10:07:22.326Z</time>
      </trkpt>
      <trkpt lat="43.6571" lon="5.88605">
        <ele>502</ele>
        <time>2015-10-31T10:07:23.292Z</time>
      </trkpt>
      <trkpt lat="43.65715" lon="5.88598">
        <ele>502</ele>
        <time>2015-10-31T10:07:26.325Z</time>
      </trkpt>
      <trkpt lat="43.65717" lon="5.88595">
        <ele>502</ele>
        <time>2015-10-31T10:07:27.294Z</time>
      </trkpt>
      <trkpt lat="43.65721" lon="5.88587">
        <ele>502</ele>
        <time>2015-10-31T10:07:30.327Z</time>
      </trkpt>
      <trkpt lat="43.65722" lon="5.88583">
        <ele>502</ele>
        <time>2015-10-31T10:07:31.293Z</time>
      </trkpt>
      <trkpt lat="43.65726" lon="5.88573">
        <ele>502</ele>
        <time>2015-10-31T10:07:34.316Z</time>
      </trkpt>
      <trkpt lat="43.65728" lon="5.8857">
        <ele>502</ele>
        <time>2015-10-31T10:07:35.319Z</time>
      </trkpt>
      <trkpt lat="43.65732" lon="5.88561">
        <ele>501</ele>
        <time>2015-10-31T10:07:38.326Z</time>
      </trkpt>
      <trkpt lat="43.65734" lon="5.88559">
        <ele>501</ele>
        <time>2015-10-31T10:07:39.293Z</time>
      </trkpt>
      <trkpt lat="43.65739" lon="5.8855">
        <ele>502</ele>
        <time>2015-10-31T10:07:43.325Z</time>
      </trkpt>
      <trkpt lat="43.65739" lon="5.88547">
        <ele>502</ele>
        <time>2015-10-31T10:07:44.296Z</time>
      </trkpt>
      <trkpt lat="43.65745" lon="5.88539">
        <ele>502</ele>
        <time>2015-10-31T10:07:47.316Z</time>
      </trkpt>
      <trkpt lat="43.65748" lon="5.88539">
        <ele>502</ele>
        <time>2015-10-31T10:07:48.293Z</time>
      </trkpt>
      <trkpt lat="43.65754" lon="5.88542">
        <ele>502</ele>
        <time>2015-10-31T10:07:50.317Z</time>
      </trkpt>
      <trkpt lat="43.65757" lon="5.88544">
        <ele>502</ele>
        <time>2015-10-31T10:07:51.319Z</time>
      </trkpt>
      <trkpt lat="43.65764" lon="5.88551">
        <ele>503</ele>
        <time>2015-10-31T10:07:54.327Z</time>
      </trkpt>
      <trkpt lat="43.65766" lon="5.88552">
        <ele>503</ele>
        <time>2015-10-31T10:07:55.293Z</time>
      </trkpt>
      <trkpt lat="43.65773" lon="5.88549">
        <ele>504</ele>
        <time>2015-10-31T10:07:58.316Z</time>
      </trkpt>
      <trkpt lat="43.65774" lon="5.88545">
        <ele>505</ele>
        <time>2015-10-31T10:07:59.295Z</time>
      </trkpt>
      <trkpt lat="43.65775" lon="5.88533">
        <ele>506</ele>
        <time>2015-10-31T10:08:02.315Z</time>
      </trkpt>
      <trkpt lat="43.65775" lon="5.88529">
        <ele>505</ele>
        <time>2015-10-31T10:08:03.293Z</time>
      </trkpt>
      <trkpt lat="43.65777" lon="5.8852">
        <ele>505</ele>
        <time>2015-10-31T10:08:05.326Z</time>
      </trkpt>
      <trkpt lat="43.65779" lon="5.88516">
        <ele>505</ele>
        <time>2015-10-31T10:08:06.294Z</time>
      </trkpt>
      <trkpt lat="43.6578" lon="5.88504">
        <ele>505</ele>
        <time>2015-10-31T10:08:09.315Z</time>
      </trkpt>
      <trkpt lat="43.6578" lon="5.885">
        <ele>506</ele>
        <time>2015-10-31T10:08:10.291Z</time>
      </trkpt>
      <trkpt lat="43.65781" lon="5.88489">
        <ele>505</ele>
        <time>2015-10-31T10:08:13.315Z</time>
      </trkpt>
      <trkpt lat="43.65782" lon="5.88485">
        <ele>505</ele>
        <time>2015-10-31T10:08:14.293Z</time>
      </trkpt>
      <trkpt lat="43.65784" lon="5.88474">
        <ele>505</ele>
        <time>2015-10-31T10:08:17.317Z</time>
      </trkpt>
      <trkpt lat="43.65786" lon="5.88471">
        <ele>505</ele>
        <time>2015-10-31T10:08:18.293Z</time>
      </trkpt>
      <trkpt lat="43.65794" lon="5.88466">
        <ele>505</ele>
        <time>2015-10-31T10:08:21.326Z</time>
      </trkpt>
      <trkpt lat="43.65797" lon="5.88466">
        <ele>505</ele>
        <time>2015-10-31T10:08:22.293Z</time>
      </trkpt>
      <trkpt lat="43.65804" lon="5.88466">
        <ele>506</ele>
        <time>2015-10-31T10:08:25.316Z</time>
      </trkpt>
      <trkpt lat="43.65807" lon="5.88466">
        <ele>506</ele>
        <time>2015-10-31T10:08:26.293Z</time>
      </trkpt>
      <trkpt lat="43.65814" lon="5.88467">
        <ele>506</ele>
        <time>2015-10-31T10:08:29.317Z</time>
      </trkpt>
      <trkpt lat="43.65817" lon="5.88467">
        <ele>506</ele>
        <time>2015-10-31T10:08:30.294Z</time>
      </trkpt>
      <trkpt lat="43.65824" lon="5.88467">
        <ele>507</ele>
        <time>2015-10-31T10:08:33.315Z</time>
      </trkpt>
      <trkpt lat="43.65826" lon="5.88465">
        <ele>507</ele>
        <time>2015-10-31T10:08:34.293Z</time>
      </trkpt>
      <trkpt lat="43.65831" lon="5.88457">
        <ele>508</ele>
        <time>2015-10-31T10:08:37.315Z</time>
      </trkpt>
      <trkpt lat="43.65832" lon="5.88454">
        <ele>508</ele>
        <time>2015-10-31T10:08:38.292Z</time>
      </trkpt>
      <trkpt lat="43.65831" lon="5.88443">
        <ele>508</ele>
        <time>2015-10-31T10:08:41.315Z</time>
      </trkpt>
      <trkpt lat="43.65831" lon="5.88439">
        <ele>509</ele>
        <time>2015-10-31T10:08:42.293Z</time>
      </trkpt>
      <trkpt lat="43.65829" lon="5.88429">
        <ele>508</ele>
        <time>2015-10-31T10:08:45.317Z</time>
      </trkpt>
      <trkpt lat="43.65829" lon="5.88426">
        <ele>508</ele>
        <time>2015-10-31T10:08:46.292Z</time>
      </trkpt>
      <trkpt lat="43.65827" lon="5.88416">
        <ele>508</ele>
        <time>2015-10-31T10:08:49.314Z</time>
      </trkpt>
      <trkpt lat="43.65826" lon="5.88413">
        <ele>508</ele>
        <time>2015-10-31T10:08:50.319Z</time>
      </trkpt>
      <trkpt lat="43.65823" lon="5.88403">
        <ele>508</ele>
        <time>2015-10-31T10:08:53.328Z</time>
      </trkpt>
      <trkpt lat="43.65822" lon="5.884">
        <ele>508</ele>
        <time>2015-10-31T10:08:54.293Z</time>
      </trkpt>
      <trkpt lat="43.65819" lon="5.88389">
        <ele>508</ele>
        <time>2015-10-31T10:08:57.321Z</time>
      </trkpt>
      <trkpt lat="43.65817" lon="5.88386">
        <ele>508</ele>
        <time>2015-10-31T10:08:58.292Z</time>
      </trkpt>
      <trkpt lat="43.65815" lon="5.88375">
        <ele>509</ele>
        <time>2015-10-31T10:09:01.316Z</time>
      </trkpt>
      <trkpt lat="43.65814" lon="5.88371">
        <ele>509</ele>
        <time>2015-10-31T10:09:02.296Z</time>
      </trkpt>
      <trkpt lat="43.65813" lon="5.88361">
        <ele>509</ele>
        <time>2015-10-31T10:09:05.328Z</time>
      </trkpt>
      <trkpt lat="43.65813" lon="5.88357">
        <ele>510</ele>
        <time>2015-10-31T10:09:06.320Z</time>
      </trkpt>
      <trkpt lat="43.65817" lon="5.88348">
        <ele>510</ele>
        <time>2015-10-31T10:09:09.316Z</time>
      </trkpt>
      <trkpt lat="43.65819" lon="5.88345">
        <ele>510</ele>
        <time>2015-10-31T10:09:10.295Z</time>
      </trkpt>
      <trkpt lat="43.65827" lon="5.88341">
        <ele>510</ele>
        <time>2015-10-31T10:09:13.318Z</time>
      </trkpt>
      <trkpt lat="43.65829" lon="5.88339">
        <ele>510</ele>
        <time>2015-10-31T10:09:14.293Z</time>
      </trkpt>
      <trkpt lat="43.65835" lon="5.88333">
        <ele>510</ele>
        <time>2015-10-31T10:09:17.317Z</time>
      </trkpt>
      <trkpt lat="43.65836" lon="5.88331">
        <ele>510</ele>
        <time>2015-10-31T10:09:18.293Z</time>
      </trkpt>
      <trkpt lat="43.6584" lon="5.88322">
        <ele>510</ele>
        <time>2015-10-31T10:09:21.317Z</time>
      </trkpt>
      <trkpt lat="43.65841" lon="5.88318">
        <ele>510</ele>
        <time>2015-10-31T10:09:22.320Z</time>
      </trkpt>
      <trkpt lat="43.65845" lon="5.88309">
        <ele>510</ele>
        <time>2015-10-31T10:09:25.315Z</time>
      </trkpt>
      <trkpt lat="43.65846" lon="5.88307">
        <ele>510</ele>
        <time>2015-10-31T10:09:26.292Z</time>
      </trkpt>
      <trkpt lat="43.65854" lon="5.883">
        <ele>510</ele>
        <time>2015-10-31T10:09:30.317Z</time>
      </trkpt>
      <trkpt lat="43.65855" lon="5.88298">
        <ele>510</ele>
        <time>2015-10-31T10:09:31.293Z</time>
      </trkpt>
      <trkpt lat="43.65861" lon="5.8829">
        <ele>510</ele>
        <time>2015-10-31T10:09:34.318Z</time>
      </trkpt>
      <trkpt lat="43.65862" lon="5.88286">
        <ele>510</ele>
        <time>2015-10-31T10:09:35.292Z</time>
      </trkpt>
      <trkpt lat="43.65865" lon="5.88275">
        <ele>511</ele>
        <time>2015-10-31T10:09:38.317Z</time>
      </trkpt>
      <trkpt lat="43.65866" lon="5.88272">
        <ele>511</ele>
        <time>2015-10-31T10:09:39.294Z</time>
      </trkpt>
      <trkpt lat="43.65869" lon="5.88261">
        <ele>511</ele>
        <time>2015-10-31T10:09:42.320Z</time>
      </trkpt>
      <trkpt lat="43.6587" lon="5.88258">
        <ele>511</ele>
        <time>2015-10-31T10:09:43.294Z</time>
      </trkpt>
      <trkpt lat="43.65875" lon="5.88249">
        <ele>512</ele>
        <time>2015-10-31T10:09:46.316Z</time>
      </trkpt>
      <trkpt lat="43.65876" lon="5.88245">
        <ele>512</ele>
        <time>2015-10-31T10:09:47.293Z</time>
      </trkpt>
      <trkpt lat="43.6588" lon="5.88235">
        <ele>511</ele>
        <time>2015-10-31T10:09:50.316Z</time>
      </trkpt>
      <trkpt lat="43.65882" lon="5.88233">
        <ele>511</ele>
        <time>2015-10-31T10:09:51.327Z</time>
      </trkpt>
      <trkpt lat="43.65889" lon="5.88227">
        <ele>512</ele>
        <time>2015-10-31T10:09:54.318Z</time>
      </trkpt>
      <trkpt lat="43.65891" lon="5.88224">
        <ele>512</ele>
        <time>2015-10-31T10:09:55.292Z</time>
      </trkpt>
      <trkpt lat="43.65895" lon="5.88214">
        <ele>512</ele>
        <time>2015-10-31T10:09:58.317Z</time>
      </trkpt>
      <trkpt lat="43.65896" lon="5.8821">
        <ele>513</ele>
        <time>2015-10-31T10:09:59.292Z</time>
      </trkpt>
      <trkpt lat="43.65898" lon="5.88199">
        <ele>512</ele>
        <time>2015-10-31T10:10:02.316Z</time>
      </trkpt>
      <trkpt lat="43.65898" lon="5.88194">
        <ele>512</ele>
        <time>2015-10-31T10:10:03.294Z</time>
      </trkpt>
      <trkpt lat="43.65901" lon="5.88183">
        <ele>513</ele>
        <time>2015-10-31T10:10:06.316Z</time>
      </trkpt>
      <trkpt lat="43.65903" lon="5.8818">
        <ele>512</ele>
        <time>2015-10-31T10:10:07.515Z</time>
      </trkpt>
      <trkpt lat="43.65908" lon="5.88174">
        <ele>513</ele>
        <time>2015-10-31T10:10:09.315Z</time>
      </trkpt>
      <trkpt lat="43.6591" lon="5.88171">
        <ele>513</ele>
        <time>2015-10-31T10:10:10.293Z</time>
      </trkpt>
      <trkpt lat="43.65913" lon="5.88164">
        <ele>513</ele>
        <time>2015-10-31T10:10:12.301Z</time>
      </trkpt>
      <trkpt lat="43.65914" lon="5.8816">
        <ele>514</ele>
        <time>2015-10-31T10:10:13.289Z</time>
      </trkpt>
      <trkpt lat="43.65918" lon="5.88149">
        <ele>513</ele>
        <time>2015-10-31T10:10:16.307Z</time>
      </trkpt>
      <trkpt lat="43.65919" lon="5.88145">
        <ele>513</ele>
        <time>2015-10-31T10:10:17.291Z</time>
      </trkpt>
      <trkpt lat="43.65922" lon="5.88138">
        <ele>512</ele>
        <time>2015-10-31T10:10:19.360Z</time>
      </trkpt>
      <trkpt lat="43.65924" lon="5.88132">
        <ele>514</ele>
        <time>2015-10-31T10:10:22.053Z</time>
      </trkpt>
      <trkpt lat="43.65929" lon="5.88124">
        <ele>512</ele>
        <time>2015-10-31T10:10:24.310Z</time>
      </trkpt>
      <trkpt lat="43.65931" lon="5.88122">
        <ele>512</ele>
        <time>2015-10-31T10:10:25.294Z</time>
      </trkpt>
      <trkpt lat="43.65936" lon="5.88118">
        <ele>512</ele>
        <time>2015-10-31T10:10:27.317Z</time>
      </trkpt>
      <trkpt lat="43.65939" lon="5.88117">
        <ele>512</ele>
        <time>2015-10-31T10:10:28.282Z</time>
      </trkpt>
      <trkpt lat="43.65946" lon="5.88117">
        <ele>512</ele>
        <time>2015-10-31T10:10:30.315Z</time>
      </trkpt>
      <trkpt lat="43.65948" lon="5.88116">
        <ele>512</ele>
        <time>2015-10-31T10:10:31.292Z</time>
      </trkpt>
      <trkpt lat="43.65957" lon="5.88115">
        <ele>512</ele>
        <time>2015-10-31T10:10:34.315Z</time>
      </trkpt>
      <trkpt lat="43.6596" lon="5.88114">
        <ele>513</ele>
        <time>2015-10-31T10:10:35.292Z</time>
      </trkpt>
      <trkpt lat="43.65967" lon="5.88109">
        <ele>514</ele>
        <time>2015-10-31T10:10:38.305Z</time>
      </trkpt>
      <trkpt lat="43.6597" lon="5.88107">
        <ele>514</ele>
        <time>2015-10-31T10:10:39.293Z</time>
      </trkpt>
      <trkpt lat="43.65975" lon="5.88102">
        <ele>515</ele>
        <time>2015-10-31T10:10:41.959Z</time>
      </trkpt>
      <trkpt lat="43.65978" lon="5.881">
        <ele>514</ele>
        <time>2015-10-31T10:10:42.284Z</time>
      </trkpt>
      <trkpt lat="43.65982" lon="5.88094">
        <ele>514</ele>
        <time>2015-10-31T10:10:44.317Z</time>
      </trkpt>
      <trkpt lat="43.65985" lon="5.88092">
        <ele>514</ele>
        <time>2015-10-31T10:10:45.292Z</time>
      </trkpt>
      <trkpt lat="43.65989" lon="5.88087">
        <ele>514</ele>
        <time>2015-10-31T10:10:47.313Z</time>
      </trkpt>
      <trkpt lat="43.65992" lon="5.88085">
        <ele>514</ele>
        <time>2015-10-31T10:10:48.294Z</time>
      </trkpt>
      <trkpt lat="43.65998" lon="5.88081">
        <ele>515</ele>
        <time>2015-10-31T10:10:50.311Z</time>
      </trkpt>
      <trkpt lat="43.66" lon="5.88079">
        <ele>515</ele>
        <time>2015-10-31T10:10:51.291Z</time>
      </trkpt>
      <trkpt lat="43.66005" lon="5.88073">
        <ele>516</ele>
        <time>2015-10-31T10:10:53.321Z</time>
      </trkpt>
      <trkpt lat="43.66007" lon="5.88071">
        <ele>516</ele>
        <time>2015-10-31T10:10:54.291Z</time>
      </trkpt>
      <trkpt lat="43.66012" lon="5.88065">
        <ele>518</ele>
        <time>2015-10-31T10:10:56.310Z</time>
      </trkpt>
      <trkpt lat="43.66014" lon="5.88062">
        <ele>518</ele>
        <time>2015-10-31T10:10:57.293Z</time>
      </trkpt>
      <trkpt lat="43.6602" lon="5.88053">
        <ele>516</ele>
        <time>2015-10-31T10:11:00.308Z</time>
      </trkpt>
      <trkpt lat="43.66023" lon="5.8805">
        <ele>516</ele>
        <time>2015-10-31T10:11:01.292Z</time>
      </trkpt>
      <trkpt lat="43.66027" lon="5.88045">
        <ele>518</ele>
        <time>2015-10-31T10:11:03.318Z</time>
      </trkpt>
      <trkpt lat="43.6603" lon="5.88043">
        <ele>518</ele>
        <time>2015-10-31T10:11:04.291Z</time>
      </trkpt>
      <trkpt lat="43.66036" lon="5.88037">
        <ele>518</ele>
        <time>2015-10-31T10:11:06.314Z</time>
      </trkpt>
      <trkpt lat="43.6604" lon="5.88035">
        <ele>518</ele>
        <time>2015-10-31T10:11:07.291Z</time>
      </trkpt>
      <trkpt lat="43.66048" lon="5.8803">
        <ele>517</ele>
        <time>2015-10-31T10:11:09.337Z</time>
      </trkpt>
      <trkpt lat="43.66051" lon="5.88028">
        <ele>517</ele>
        <time>2015-10-31T10:11:10.290Z</time>
      </trkpt>
      <trkpt lat="43.66058" lon="5.88023">
        <ele>517</ele>
        <time>2015-10-31T10:11:12.313Z</time>
      </trkpt>
      <trkpt lat="43.66062" lon="5.88021">
        <ele>517</ele>
        <time>2015-10-31T10:11:13.291Z</time>
      </trkpt>
      <trkpt lat="43.66068" lon="5.88018">
        <ele>517</ele>
        <time>2015-10-31T10:11:15.315Z</time>
      </trkpt>
      <trkpt lat="43.66071" lon="5.88016">
        <ele>517</ele>
        <time>2015-10-31T10:11:16.290Z</time>
      </trkpt>
      <trkpt lat="43.66077" lon="5.8801">
        <ele>517</ele>
        <time>2015-10-31T10:11:18.315Z</time>
      </trkpt>
      <trkpt lat="43.66079" lon="5.88008">
        <ele>517</ele>
        <time>2015-10-31T10:11:19.289Z</time>
      </trkpt>
      <trkpt lat="43.66087" lon="5.88003">
        <ele>516</ele>
        <time>2015-10-31T10:11:22.319Z</time>
      </trkpt>
      <trkpt lat="43.66088" lon="5.88001">
        <ele>516</ele>
        <time>2015-10-31T10:11:23.368Z</time>
      </trkpt>
      <trkpt lat="43.66082" lon="5.87993">
        <ele>516</ele>
        <time>2015-10-31T10:11:27.316Z</time>
      </trkpt>
      <trkpt lat="43.66079" lon="5.87993">
        <ele>516</ele>
        <time>2015-10-31T10:11:28.291Z</time>
      </trkpt>
      <trkpt lat="43.66072" lon="5.87993">
        <ele>515</ele>
        <time>2015-10-31T10:11:30.338Z</time>
      </trkpt>
      <trkpt lat="43.66068" lon="5.87993">
        <ele>515</ele>
        <time>2015-10-31T10:11:31.336Z</time>
      </trkpt>
      <trkpt lat="43.6606" lon="5.87991">
        <ele>515</ele>
        <time>2015-10-31T10:11:33.311Z</time>
      </trkpt>
      <trkpt lat="43.66056" lon="5.87989">
        <ele>515</ele>
        <time>2015-10-31T10:11:34.292Z</time>
      </trkpt>
      <trkpt lat="43.66049" lon="5.87984">
        <ele>514</ele>
        <time>2015-10-31T10:11:36.313Z</time>
      </trkpt>
      <trkpt lat="43.66046" lon="5.87982">
        <ele>514</ele>
        <time>2015-10-31T10:11:37.288Z</time>
      </trkpt>
      <trkpt lat="43.66038" lon="5.87981">
        <ele>514</ele>
        <time>2015-10-31T10:11:39.497Z</time>
      </trkpt>
      <trkpt lat="43.66034" lon="5.87982">
        <ele>514</ele>
        <time>2015-10-31T10:11:40.292Z</time>
      </trkpt>
      <trkpt lat="43.66027" lon="5.87982">
        <ele>514</ele>
        <time>2015-10-31T10:11:42.338Z</time>
      </trkpt>
      <trkpt lat="43.66024" lon="5.87981">
        <ele>514</ele>
        <time>2015-10-31T10:11:43.290Z</time>
      </trkpt>
      <trkpt lat="43.66018" lon="5.87975">
        <ele>513</ele>
        <time>2015-10-31T10:11:45.315Z</time>
      </trkpt>
      <trkpt lat="43.66015" lon="5.87972">
        <ele>514</ele>
        <time>2015-10-31T10:11:46.292Z</time>
      </trkpt>
      <trkpt lat="43.66008" lon="5.87966">
        <ele>514</ele>
        <time>2015-10-31T10:11:48.333Z</time>
      </trkpt>
      <trkpt lat="43.66004" lon="5.87963">
        <ele>514</ele>
        <time>2015-10-31T10:11:49.356Z</time>
      </trkpt>
      <trkpt lat="43.65995" lon="5.87959">
        <ele>511</ele>
        <time>2015-10-31T10:11:51.312Z</time>
      </trkpt>
      <trkpt lat="43.65989" lon="5.87956">
        <ele>511</ele>
        <time>2015-10-31T10:11:52.292Z</time>
      </trkpt>
      <trkpt lat="43.65984" lon="5.87952">
        <ele>511</ele>
        <time>2015-10-31T10:11:53.331Z</time>
      </trkpt>
      <trkpt lat="43.65978" lon="5.8795">
        <ele>511</ele>
        <time>2015-10-31T10:11:54.293Z</time>
      </trkpt>
      <trkpt lat="43.65973" lon="5.87946">
        <ele>511</ele>
        <time>2015-10-31T10:11:55.317Z</time>
      </trkpt>
      <trkpt lat="43.65968" lon="5.87944">
        <ele>511</ele>
        <time>2015-10-31T10:11:56.293Z</time>
      </trkpt>
      <trkpt lat="43.65962" lon="5.87941">
        <ele>509</ele>
        <time>2015-10-31T10:11:57.369Z</time>
      </trkpt>
      <trkpt lat="43.65957" lon="5.87937">
        <ele>509</ele>
        <time>2015-10-31T10:11:58.320Z</time>
      </trkpt>
      <trkpt lat="43.65953" lon="5.87933">
        <ele>510</ele>
        <time>2015-10-31T10:11:59.316Z</time>
      </trkpt>
      <trkpt lat="43.65947" lon="5.87929">
        <ele>510</ele>
        <time>2015-10-31T10:12:00.293Z</time>
      </trkpt>
      <trkpt lat="43.65943" lon="5.87925">
        <ele>509</ele>
        <time>2015-10-31T10:12:01.316Z</time>
      </trkpt>
      <trkpt lat="43.65937" lon="5.87922">
        <ele>508</ele>
        <time>2015-10-31T10:12:02.293Z</time>
      </trkpt>
      <trkpt lat="43.65932" lon="5.8792">
        <ele>507</ele>
        <time>2015-10-31T10:12:03.318Z</time>
      </trkpt>
      <trkpt lat="43.65926" lon="5.87918">
        <ele>506</ele>
        <time>2015-10-31T10:12:04.293Z</time>
      </trkpt>
      <trkpt lat="43.65921" lon="5.87916">
        <ele>507</ele>
        <time>2015-10-31T10:12:05.316Z</time>
      </trkpt>
      <trkpt lat="43.65916" lon="5.87914">
        <ele>506</ele>
        <time>2015-10-31T10:12:06.292Z</time>
      </trkpt>
      <trkpt lat="43.65909" lon="5.87907">
        <ele>504</ele>
        <time>2015-10-31T10:12:08.316Z</time>
      </trkpt>
      <trkpt lat="43.65904" lon="5.87904">
        <ele>504</ele>
        <time>2015-10-31T10:12:09.299Z</time>
      </trkpt>
      <trkpt lat="43.65898" lon="5.87903">
        <ele>505</ele>
        <time>2015-10-31T10:12:10.547Z</time>
      </trkpt>
      <trkpt lat="43.65893" lon="5.87902">
        <ele>505</ele>
        <time>2015-10-31T10:12:11.294Z</time>
      </trkpt>
      <trkpt lat="43.65887" lon="5.87901">
        <ele>504</ele>
        <time>2015-10-31T10:12:12.318Z</time>
      </trkpt>
      <trkpt lat="43.65882" lon="5.87897">
        <ele>504</ele>
        <time>2015-10-31T10:12:13.294Z</time>
      </trkpt>
      <trkpt lat="43.65877" lon="5.87893">
        <ele>504</ele>
        <time>2015-10-31T10:12:14.357Z</time>
      </trkpt>
      <trkpt lat="43.65872" lon="5.87889">
        <ele>504</ele>
        <time>2015-10-31T10:12:15.305Z</time>
      </trkpt>
      <trkpt lat="43.65866" lon="5.87886">
        <ele>502</ele>
        <time>2015-10-31T10:12:16.318Z</time>
      </trkpt>
      <trkpt lat="43.65862" lon="5.87884">
        <ele>503</ele>
        <time>2015-10-31T10:12:17.294Z</time>
      </trkpt>
      <trkpt lat="43.65856" lon="5.87883">
        <ele>503</ele>
        <time>2015-10-31T10:12:18.329Z</time>
      </trkpt>
      <trkpt lat="43.65851" lon="5.87882">
        <ele>502</ele>
        <time>2015-10-31T10:12:19.292Z</time>
      </trkpt>
      <trkpt lat="43.65845" lon="5.87881">
        <ele>503</ele>
        <time>2015-10-31T10:12:20.326Z</time>
      </trkpt>
      <trkpt lat="43.65839" lon="5.87882">
        <ele>503</ele>
        <time>2015-10-31T10:12:21.409Z</time>
      </trkpt>
      <trkpt lat="43.65834" lon="5.87883">
        <ele>502</ele>
        <time>2015-10-31T10:12:22.318Z</time>
      </trkpt>
      <trkpt lat="43.65829" lon="5.87882">
        <ele>502</ele>
        <time>2015-10-31T10:12:23.292Z</time>
      </trkpt>
      <trkpt lat="43.65825" lon="5.8788">
        <ele>502</ele>
        <time>2015-10-31T10:12:24.316Z</time>
      </trkpt>
      <trkpt lat="43.6582" lon="5.87879">
        <ele>502</ele>
        <time>2015-10-31T10:12:25.320Z</time>
      </trkpt>
      <trkpt lat="43.65815" lon="5.87878">
        <ele>502</ele>
        <time>2015-10-31T10:12:26.319Z</time>
      </trkpt>
      <trkpt lat="43.65811" lon="5.87877">
        <ele>502</ele>
        <time>2015-10-31T10:12:27.296Z</time>
      </trkpt>
      <trkpt lat="43.65806" lon="5.87876">
        <ele>502</ele>
        <time>2015-10-31T10:12:28.319Z</time>
      </trkpt>
      <trkpt lat="43.65801" lon="5.87875">
        <ele>501</ele>
        <time>2015-10-31T10:12:29.294Z</time>
      </trkpt>
      <trkpt lat="43.65794" lon="5.87869">
        <ele>501</ele>
        <time>2015-10-31T10:12:31.329Z</time>
      </trkpt>
      <trkpt lat="43.6579" lon="5.87865">
        <ele>500</ele>
        <time>2015-10-31T10:12:32.293Z</time>
      </trkpt>
      <trkpt lat="43.65782" lon="5.87859">
        <ele>499</ele>
        <time>2015-10-31T10:12:34.316Z</time>
      </trkpt>
      <trkpt lat="43.65779" lon="5.87855">
        <ele>499</ele>
        <time>2015-10-31T10:12:35.304Z</time>
      </trkpt>
      <trkpt lat="43.65774" lon="5.87852">
        <ele>498</ele>
        <time>2015-10-31T10:12:36.322Z</time>
      </trkpt>
      <trkpt lat="43.6577" lon="5.87848">
        <ele>498</ele>
        <time>2015-10-31T10:12:37.294Z</time>
      </trkpt>
      <trkpt lat="43.65766" lon="5.87843">
        <ele>499</ele>
        <time>2015-10-31T10:12:38.316Z</time>
      </trkpt>
      <trkpt lat="43.65762" lon="5.87838">
        <ele>499</ele>
        <time>2015-10-31T10:12:39.293Z</time>
      </trkpt>
      <trkpt lat="43.65758" lon="5.87832">
        <ele>498</ele>
        <time>2015-10-31T10:12:40.316Z</time>
      </trkpt>
      <trkpt lat="43.65754" lon="5.87827">
        <ele>498</ele>
        <time>2015-10-31T10:12:41.294Z</time>
      </trkpt>
      <trkpt lat="43.65749" lon="5.87822">
        <ele>497</ele>
        <time>2015-10-31T10:12:42.563Z</time>
      </trkpt>
      <trkpt lat="43.65744" lon="5.87817">
        <ele>498</ele>
        <time>2015-10-31T10:12:43.292Z</time>
      </trkpt>
      <trkpt lat="43.65741" lon="5.87813">
        <ele>497</ele>
        <time>2015-10-31T10:12:44.327Z</time>
      </trkpt>
      <trkpt lat="43.65737" lon="5.87808">
        <ele>498</ele>
        <time>2015-10-31T10:12:45.296Z</time>
      </trkpt>
      <trkpt lat="43.65732" lon="5.878">
        <ele>497</ele>
        <time>2015-10-31T10:12:47.330Z</time>
      </trkpt>
      <trkpt lat="43.65729" lon="5.87796">
        <ele>498</ele>
        <time>2015-10-31T10:12:48.292Z</time>
      </trkpt>
      <trkpt lat="43.65723" lon="5.8779">
        <ele>498</ele>
        <time>2015-10-31T10:12:51.318Z</time>
      </trkpt>
      <trkpt lat="43.65721" lon="5.87786">
        <ele>499</ele>
        <time>2015-10-31T10:12:52.292Z</time>
      </trkpt>
      <trkpt lat="43.65718" lon="5.87778">
        <ele>499</ele>
        <time>2015-10-31T10:12:54.317Z</time>
      </trkpt>
      <trkpt lat="43.65716" lon="5.87775">
        <ele>499</ele>
        <time>2015-10-31T10:12:55.343Z</time>
      </trkpt>
      <trkpt lat="43.65709" lon="5.87767">
        <ele>500</ele>
        <time>2015-10-31T10:12:58.317Z</time>
      </trkpt>
      <trkpt lat="43.65707" lon="5.87765">
        <ele>500</ele>
        <time>2015-10-31T10:12:59.305Z</time>
      </trkpt>
      <trkpt lat="43.65704" lon="5.87756">
        <ele>502</ele>
        <time>2015-10-31T10:13:14.318Z</time>
      </trkpt>
      <trkpt lat="43.65702" lon="5.87754">
        <ele>502</ele>
        <time>2015-10-31T10:13:15.305Z</time>
      </trkpt>
      <trkpt lat="43.65696" lon="5.87746">
        <ele>502</ele>
        <time>2015-10-31T10:13:18.317Z</time>
      </trkpt>
      <trkpt lat="43.65694" lon="5.87743">
        <ele>502</ele>
        <time>2015-10-31T10:13:19.293Z</time>
      </trkpt>
      <trkpt lat="43.65688" lon="5.8774">
        <ele>502</ele>
        <time>2015-10-31T10:13:21.318Z</time>
      </trkpt>
      <trkpt lat="43.65686" lon="5.87737">
        <ele>502</ele>
        <time>2015-10-31T10:13:22.292Z</time>
      </trkpt>
      <trkpt lat="43.6568" lon="5.87732">
        <ele>502</ele>
        <time>2015-10-31T10:13:24.330Z</time>
      </trkpt>
      <trkpt lat="43.65678" lon="5.87729">
        <ele>502</ele>
        <time>2015-10-31T10:13:25.293Z</time>
      </trkpt>
      <trkpt lat="43.65674" lon="5.87718">
        <ele>503</ele>
        <time>2015-10-31T10:13:28.317Z</time>
      </trkpt>
      <trkpt lat="43.65673" lon="5.87715">
        <ele>503</ele>
        <time>2015-10-31T10:13:29.320Z</time>
      </trkpt>
      <trkpt lat="43.65667" lon="5.87706">
        <ele>503</ele>
        <time>2015-10-31T10:13:32.328Z</time>
      </trkpt>
      <trkpt lat="43.65663" lon="5.87704">
        <ele>503</ele>
        <time>2015-10-31T10:13:33.293Z</time>
      </trkpt>
      <trkpt lat="43.65657" lon="5.87696">
        <ele>503</ele>
        <time>2015-10-31T10:13:36.316Z</time>
      </trkpt>
      <trkpt lat="43.65655" lon="5.87694">
        <ele>503</ele>
        <time>2015-10-31T10:13:37.294Z</time>
      </trkpt>
      <trkpt lat="43.65649" lon="5.87686">
        <ele>503</ele>
        <time>2015-10-31T10:13:40.344Z</time>
      </trkpt>
      <trkpt lat="43.65647" lon="5.87683">
        <ele>504</ele>
        <time>2015-10-31T10:13:41.294Z</time>
      </trkpt>
      <trkpt lat="43.65643" lon="5.87674">
        <ele>504</ele>
        <time>2015-10-31T10:13:44.317Z</time>
      </trkpt>
      <trkpt lat="43.65641" lon="5.87672">
        <ele>504</ele>
        <time>2015-10-31T10:13:45.295Z</time>
      </trkpt>
      <trkpt lat="43.65635" lon="5.87665">
        <ele>504</ele>
        <time>2015-10-31T10:13:48.330Z</time>
      </trkpt>
      <trkpt lat="43.65633" lon="5.87662">
        <ele>504</ele>
        <time>2015-10-31T10:13:49.293Z</time>
      </trkpt>
      <trkpt lat="43.65625" lon="5.87656">
        <ele>504</ele>
        <time>2015-10-31T10:13:53.317Z</time>
      </trkpt>
      <trkpt lat="43.65623" lon="5.87653">
        <ele>504</ele>
        <time>2015-10-31T10:13:54.293Z</time>
      </trkpt>
      <trkpt lat="43.65618" lon="5.87644">
        <ele>504</ele>
        <time>2015-10-31T10:13:57.316Z</time>
      </trkpt>
      <trkpt lat="43.65616" lon="5.87641">
        <ele>505</ele>
        <time>2015-10-31T10:13:58.294Z</time>
      </trkpt>
      <trkpt lat="43.6561" lon="5.87633">
        <ele>504</ele>
        <time>2015-10-31T10:14:01.345Z</time>
      </trkpt>
      <trkpt lat="43.65607" lon="5.87631">
        <ele>504</ele>
        <time>2015-10-31T10:14:02.292Z</time>
      </trkpt>
      <trkpt lat="43.65601" lon="5.87624">
        <ele>505</ele>
        <time>2015-10-31T10:14:05.327Z</time>
      </trkpt>
      <trkpt lat="43.65599" lon="5.87623">
        <ele>505</ele>
        <time>2015-10-31T10:14:06.293Z</time>
      </trkpt>
      <trkpt lat="43.65591" lon="5.87618">
        <ele>504</ele>
        <time>2015-10-31T10:14:10.318Z</time>
      </trkpt>
      <trkpt lat="43.65589" lon="5.87615">
        <ele>505</ele>
        <time>2015-10-31T10:14:11.296Z</time>
      </trkpt>
      <trkpt lat="43.65585" lon="5.87607">
        <ele>504</ele>
        <time>2015-10-31T10:14:14.368Z</time>
      </trkpt>
      <trkpt lat="43.65584" lon="5.87604">
        <ele>505</ele>
        <time>2015-10-31T10:14:15.294Z</time>
      </trkpt>
      <trkpt lat="43.65578" lon="5.87595">
        <ele>505</ele>
        <time>2015-10-31T10:14:19.316Z</time>
      </trkpt>
      <trkpt lat="43.65576" lon="5.87593">
        <ele>505</ele>
        <time>2015-10-31T10:14:20.293Z</time>
      </trkpt>
      <trkpt lat="43.65569" lon="5.87586">
        <ele>505</ele>
        <time>2015-10-31T10:14:24.318Z</time>
      </trkpt>
      <trkpt lat="43.65567" lon="5.87586">
        <ele>505</ele>
        <time>2015-10-31T10:14:25.294Z</time>
      </trkpt>
      <trkpt lat="43.65559" lon="5.87579">
        <ele>506</ele>
        <time>2015-10-31T10:14:29.328Z</time>
      </trkpt>
      <trkpt lat="43.65558" lon="5.87576">
        <ele>506</ele>
        <time>2015-10-31T10:14:30.292Z</time>
      </trkpt>
      <trkpt lat="43.65554" lon="5.87567">
        <ele>507</ele>
        <time>2015-10-31T10:14:34.318Z</time>
      </trkpt>
      <trkpt lat="43.65553" lon="5.87565">
        <ele>507</ele>
        <time>2015-10-31T10:14:35.296Z</time>
      </trkpt>
      <trkpt lat="43.65547" lon="5.87558">
        <ele>507</ele>
        <time>2015-10-31T10:14:39.368Z</time>
      </trkpt>
      <trkpt lat="43.65545" lon="5.87556">
        <ele>507</ele>
        <time>2015-10-31T10:14:40.293Z</time>
      </trkpt>
      <trkpt lat="43.65538" lon="5.8755">
        <ele>507</ele>
        <time>2015-10-31T10:14:44.345Z</time>
      </trkpt>
      <trkpt lat="43.65536" lon="5.87548">
        <ele>508</ele>
        <time>2015-10-31T10:14:45.293Z</time>
      </trkpt>
      <trkpt lat="43.6553" lon="5.87542">
        <ele>507</ele>
        <time>2015-10-31T10:14:48.317Z</time>
      </trkpt>
      <trkpt lat="43.65528" lon="5.87541">
        <ele>507</ele>
        <time>2015-10-31T10:14:49.294Z</time>
      </trkpt>
      <trkpt lat="43.65521" lon="5.87537">
        <ele>506</ele>
        <time>2015-10-31T10:14:52.377Z</time>
      </trkpt>
      <trkpt lat="43.65519" lon="5.87536">
        <ele>506</ele>
        <time>2015-10-31T10:14:53.294Z</time>
      </trkpt>
      <trkpt lat="43.65511" lon="5.87532">
        <ele>506</ele>
        <time>2015-10-31T10:14:56.316Z</time>
      </trkpt>
      <trkpt lat="43.65509" lon="5.8753">
        <ele>506</ele>
        <time>2015-10-31T10:14:57.292Z</time>
      </trkpt>
      <trkpt lat="43.65503" lon="5.87525">
        <ele>505</ele>
        <time>2015-10-31T10:15:00.344Z</time>
      </trkpt>
      <trkpt lat="43.655" lon="5.87524">
        <ele>505</ele>
        <time>2015-10-31T10:15:01.285Z</time>
      </trkpt>
      <trkpt lat="43.65492" lon="5.87527">
        <ele>505</ele>
        <time>2015-10-31T10:15:05.318Z</time>
      </trkpt>
      <trkpt lat="43.6549" lon="5.87529">
        <ele>504</ele>
        <time>2015-10-31T10:15:06.294Z</time>
      </trkpt>
      <trkpt lat="43.65483" lon="5.87528">
        <ele>504</ele>
        <time>2015-10-31T10:15:08.401Z</time>
      </trkpt>
      <trkpt lat="43.65479" lon="5.87526">
        <ele>503</ele>
        <time>2015-10-31T10:15:09.294Z</time>
      </trkpt>
      <trkpt lat="43.65472" lon="5.87523">
        <ele>503</ele>
        <time>2015-10-31T10:15:11.346Z</time>
      </trkpt>
      <trkpt lat="43.65468" lon="5.87522">
        <ele>503</ele>
        <time>2015-10-31T10:15:12.491Z</time>
      </trkpt>
      <trkpt lat="43.65461" lon="5.87518">
        <ele>502</ele>
        <time>2015-10-31T10:15:14.311Z</time>
      </trkpt>
      <trkpt lat="43.65458" lon="5.87516">
        <ele>502</ele>
        <time>2015-10-31T10:15:15.289Z</time>
      </trkpt>
      <trkpt lat="43.65451" lon="5.87515">
        <ele>500</ele>
        <time>2015-10-31T10:15:17.317Z</time>
      </trkpt>
      <trkpt lat="43.65448" lon="5.87516">
        <ele>500</ele>
        <time>2015-10-31T10:15:18.293Z</time>
      </trkpt>
      <trkpt lat="43.65441" lon="5.87515">
        <ele>499</ele>
        <time>2015-10-31T10:15:20.304Z</time>
      </trkpt>
      <trkpt lat="43.65438" lon="5.87513">
        <ele>499</ele>
        <time>2015-10-31T10:15:21.293Z</time>
      </trkpt>
      <trkpt lat="43.65431" lon="5.87509">
        <ele>498</ele>
        <time>2015-10-31T10:15:23.536Z</time>
      </trkpt>
      <trkpt lat="43.65428" lon="5.87508">
        <ele>498</ele>
        <time>2015-10-31T10:15:24.294Z</time>
      </trkpt>
      <trkpt lat="43.65421" lon="5.87504">
        <ele>496</ele>
        <time>2015-10-31T10:15:28.328Z</time>
      </trkpt>
      <trkpt lat="43.6542" lon="5.87501">
        <ele>496</ele>
        <time>2015-10-31T10:15:29.293Z</time>
      </trkpt>
      <trkpt lat="43.65415" lon="5.87492">
        <ele>495</ele>
        <time>2015-10-31T10:15:32.316Z</time>
      </trkpt>
      <trkpt lat="43.65413" lon="5.87489">
        <ele>495</ele>
        <time>2015-10-31T10:15:33.305Z</time>
      </trkpt>
      <trkpt lat="43.65418" lon="5.87498">
        <ele>494</ele>
        <time>2015-10-31T10:19:27.319Z</time>
      </trkpt>
      <trkpt lat="43.65418" lon="5.875">
        <ele>494</ele>
        <time>2015-10-31T10:19:28.293Z</time>
      </trkpt>
      <trkpt lat="43.65411" lon="5.87505">
        <ele>494</ele>
        <time>2015-10-31T10:19:33.327Z</time>
      </trkpt>
      <trkpt lat="43.65409" lon="5.87504">
        <ele>494</ele>
        <time>2015-10-31T10:19:34.320Z</time>
      </trkpt>
      <trkpt lat="43.65403" lon="5.875">
        <ele>493</ele>
        <time>2015-10-31T10:19:36.345Z</time>
      </trkpt>
      <trkpt lat="43.654" lon="5.87499">
        <ele>492</ele>
        <time>2015-10-31T10:19:37.294Z</time>
      </trkpt>
      <trkpt lat="43.65392" lon="5.87492">
        <ele>491</ele>
        <time>2015-10-31T10:19:40.315Z</time>
      </trkpt>
      <trkpt lat="43.6539" lon="5.8749">
        <ele>491</ele>
        <time>2015-10-31T10:19:41.304Z</time>
      </trkpt>
      <trkpt lat="43.65383" lon="5.87487">
        <ele>489</ele>
        <time>2015-10-31T10:19:43.544Z</time>
      </trkpt>
      <trkpt lat="43.65378" lon="5.87486">
        <ele>488</ele>
        <time>2015-10-31T10:19:44.301Z</time>
      </trkpt>
      <trkpt lat="43.65371" lon="5.87485">
        <ele>487</ele>
        <time>2015-10-31T10:19:46.340Z</time>
      </trkpt>
      <trkpt lat="43.65368" lon="5.87485">
        <ele>487</ele>
        <time>2015-10-31T10:19:47.294Z</time>
      </trkpt>
      <trkpt lat="43.65363" lon="5.87492">
        <ele>487</ele>
        <time>2015-10-31T10:19:49.328Z</time>
      </trkpt>
      <trkpt lat="43.65361" lon="5.87495">
        <ele>486</ele>
        <time>2015-10-31T10:19:50.292Z</time>
      </trkpt>
      <trkpt lat="43.65353" lon="5.875">
        <ele>484</ele>
        <time>2015-10-31T10:19:53.314Z</time>
      </trkpt>
      <trkpt lat="43.6535" lon="5.87499">
        <ele>484</ele>
        <time>2015-10-31T10:19:54.287Z</time>
      </trkpt>
      <trkpt lat="43.65344" lon="5.87498">
        <ele>483</ele>
        <time>2015-10-31T10:19:56.318Z</time>
      </trkpt>
      <trkpt lat="43.65341" lon="5.87498">
        <ele>483</ele>
        <time>2015-10-31T10:19:57.293Z</time>
      </trkpt>
      <trkpt lat="43.65332" lon="5.87494">
        <ele>481</ele>
        <time>2015-10-31T10:20:01.347Z</time>
      </trkpt>
      <trkpt lat="43.6533" lon="5.87491">
        <ele>481</ele>
        <time>2015-10-31T10:20:02.294Z</time>
      </trkpt>
      <trkpt lat="43.65325" lon="5.87485">
        <ele>480</ele>
        <time>2015-10-31T10:20:04.317Z</time>
      </trkpt>
      <trkpt lat="43.65323" lon="5.87483">
        <ele>480</ele>
        <time>2015-10-31T10:20:05.293Z</time>
      </trkpt>
      <trkpt lat="43.65322" lon="5.87472">
        <ele>480</ele>
        <time>2015-10-31T10:20:22.316Z</time>
      </trkpt>
      <trkpt lat="43.65321" lon="5.8747">
        <ele>480</ele>
        <time>2015-10-31T10:20:23.305Z</time>
      </trkpt>
      <trkpt lat="43.65317" lon="5.8746">
        <ele>478</ele>
        <time>2015-10-31T10:20:44.316Z</time>
      </trkpt>
      <trkpt lat="43.65313" lon="5.87458">
        <ele>477</ele>
        <time>2015-10-31T10:20:45.293Z</time>
      </trkpt>
      <trkpt lat="43.65309" lon="5.87457">
        <ele>476</ele>
        <time>2015-10-31T10:20:46.315Z</time>
      </trkpt>
      <trkpt lat="43.65302" lon="5.87455">
        <ele>475</ele>
        <time>2015-10-31T10:20:47.296Z</time>
      </trkpt>
      <trkpt lat="43.65297" lon="5.87453">
        <ele>474</ele>
        <time>2015-10-31T10:20:48.317Z</time>
      </trkpt>
      <trkpt lat="43.65294" lon="5.87448">
        <ele>474</ele>
        <time>2015-10-31T10:20:49.294Z</time>
      </trkpt>
      <trkpt lat="43.6529" lon="5.87442">
        <ele>473</ele>
        <time>2015-10-31T10:20:50.316Z</time>
      </trkpt>
      <trkpt lat="43.65287" lon="5.87435">
        <ele>472</ele>
        <time>2015-10-31T10:20:51.294Z</time>
      </trkpt>
      <trkpt lat="43.65284" lon="5.87427">
        <ele>472</ele>
        <time>2015-10-31T10:20:52.316Z</time>
      </trkpt>
      <trkpt lat="43.65282" lon="5.87417">
        <ele>471</ele>
        <time>2015-10-31T10:20:53.304Z</time>
      </trkpt>
      <trkpt lat="43.6528" lon="5.87409">
        <ele>471</ele>
        <time>2015-10-31T10:20:54.345Z</time>
      </trkpt>
      <trkpt lat="43.65278" lon="5.87401">
        <ele>471</ele>
        <time>2015-10-31T10:20:55.293Z</time>
      </trkpt>
      <trkpt lat="43.65277" lon="5.87392">
        <ele>470</ele>
        <time>2015-10-31T10:20:56.327Z</time>
      </trkpt>
      <trkpt lat="43.65275" lon="5.87385">
        <ele>470</ele>
        <time>2015-10-31T10:20:57.293Z</time>
      </trkpt>
      <trkpt lat="43.65275" lon="5.87377">
        <ele>470</ele>
        <time>2015-10-31T10:20:58.319Z</time>
      </trkpt>
      <trkpt lat="43.65276" lon="5.8737">
        <ele>470</ele>
        <time>2015-10-31T10:20:59.306Z</time>
      </trkpt>
      <trkpt lat="43.65273" lon="5.8736">
        <ele>470</ele>
        <time>2015-10-31T10:21:02.327Z</time>
      </trkpt>
      <trkpt lat="43.65269" lon="5.87358">
        <ele>469</ele>
        <time>2015-10-31T10:21:03.930Z</time>
      </trkpt>
      <trkpt lat="43.65261" lon="5.87354">
        <ele>468</ele>
        <time>2015-10-31T10:21:05.316Z</time>
      </trkpt>
      <trkpt lat="43.65255" lon="5.87351">
        <ele>467</ele>
        <time>2015-10-31T10:21:06.294Z</time>
      </trkpt>
      <trkpt lat="43.65249" lon="5.87351">
        <ele>467</ele>
        <time>2015-10-31T10:21:07.316Z</time>
      </trkpt>
      <trkpt lat="43.65243" lon="5.87352">
        <ele>466</ele>
        <time>2015-10-31T10:21:08.294Z</time>
      </trkpt>
      <trkpt lat="43.65236" lon="5.8735">
        <ele>465</ele>
        <time>2015-10-31T10:21:09.315Z</time>
      </trkpt>
      <trkpt lat="43.65231" lon="5.87349">
        <ele>464</ele>
        <time>2015-10-31T10:21:10.321Z</time>
      </trkpt>
      <trkpt lat="43.65225" lon="5.87348">
        <ele>464</ele>
        <time>2015-10-31T10:21:11.316Z</time>
      </trkpt>
      <trkpt lat="43.6522" lon="5.8735">
        <ele>463</ele>
        <time>2015-10-31T10:21:12.293Z</time>
      </trkpt>
      <trkpt lat="43.65215" lon="5.8734">
        <ele>462</ele>
        <time>2015-10-31T10:21:15.316Z</time>
      </trkpt>
      <trkpt lat="43.65216" lon="5.87337">
        <ele>461</ele>
        <time>2015-10-31T10:21:16.303Z</time>
      </trkpt>
      <trkpt lat="43.65217" lon="5.87328">
        <ele>461</ele>
        <time>2015-10-31T10:22:58.316Z</time>
      </trkpt>
      <trkpt lat="43.65218" lon="5.87325">
        <ele>462</ele>
        <time>2015-10-31T10:22:59.304Z</time>
      </trkpt>
      <trkpt lat="43.65222" lon="5.87315">
        <ele>462</ele>
        <time>2015-10-31T10:23:02.319Z</time>
      </trkpt>
      <trkpt lat="43.65223" lon="5.87311">
        <ele>462</ele>
        <time>2015-10-31T10:23:03.321Z</time>
      </trkpt>
      <trkpt lat="43.65225" lon="5.87301">
        <ele>462</ele>
        <time>2015-10-31T10:23:06.317Z</time>
      </trkpt>
      <trkpt lat="43.65226" lon="5.87299">
        <ele>463</ele>
        <time>2015-10-31T10:23:07.293Z</time>
      </trkpt>
      <trkpt lat="43.65229" lon="5.87288">
        <ele>463</ele>
        <time>2015-10-31T10:23:12.317Z</time>
      </trkpt>
      <trkpt lat="43.6523" lon="5.87286">
        <ele>463</ele>
        <time>2015-10-31T10:23:13.293Z</time>
      </trkpt>
      <trkpt lat="43.65235" lon="5.87277">
        <ele>463</ele>
        <time>2015-10-31T10:23:17.317Z</time>
      </trkpt>
      <trkpt lat="43.65236" lon="5.87275">
        <ele>463</ele>
        <time>2015-10-31T10:23:18.293Z</time>
      </trkpt>
      <trkpt lat="43.65242" lon="5.87268">
        <ele>463</ele>
        <time>2015-10-31T10:23:22.310Z</time>
      </trkpt>
      <trkpt lat="43.65244" lon="5.87266">
        <ele>463</ele>
        <time>2015-10-31T10:23:23.294Z</time>
      </trkpt>
      <trkpt lat="43.6525" lon="5.87259">
        <ele>464</ele>
        <time>2015-10-31T10:23:27.317Z</time>
      </trkpt>
      <trkpt lat="43.65251" lon="5.87257">
        <ele>464</ele>
        <time>2015-10-31T10:23:28.294Z</time>
      </trkpt>
      <trkpt lat="43.65257" lon="5.8725">
        <ele>465</ele>
        <time>2015-10-31T10:23:32.303Z</time>
      </trkpt>
      <trkpt lat="43.65259" lon="5.87248">
        <ele>465</ele>
        <time>2015-10-31T10:23:33.293Z</time>
      </trkpt>
      <trkpt lat="43.65263" lon="5.87237">
        <ele>466</ele>
        <time>2015-10-31T10:23:37.317Z</time>
      </trkpt>
      <trkpt lat="43.65264" lon="5.87235">
        <ele>466</ele>
        <time>2015-10-31T10:23:38.294Z</time>
      </trkpt>
      <trkpt lat="43.65268" lon="5.87224">
        <ele>467</ele>
        <time>2015-10-31T10:23:42.317Z</time>
      </trkpt>
      <trkpt lat="43.6527" lon="5.87222">
        <ele>468</ele>
        <time>2015-10-31T10:23:43.292Z</time>
      </trkpt>
      <trkpt lat="43.65276" lon="5.87214">
        <ele>468</ele>
        <time>2015-10-31T10:23:47.318Z</time>
      </trkpt>
      <trkpt lat="43.65278" lon="5.87211">
        <ele>468</ele>
        <time>2015-10-31T10:23:48.321Z</time>
      </trkpt>
      <trkpt lat="43.65284" lon="5.87206">
        <ele>468</ele>
        <time>2015-10-31T10:23:51.347Z</time>
      </trkpt>
      <trkpt lat="43.65286" lon="5.87204">
        <ele>469</ele>
        <time>2015-10-31T10:23:52.292Z</time>
      </trkpt>
      <trkpt lat="43.65292" lon="5.87199">
        <ele>469</ele>
        <time>2015-10-31T10:23:55.318Z</time>
      </trkpt>
      <trkpt lat="43.65293" lon="5.87196">
        <ele>469</ele>
        <time>2015-10-31T10:23:56.293Z</time>
      </trkpt>
      <trkpt lat="43.65296" lon="5.87188">
        <ele>470</ele>
        <time>2015-10-31T10:23:59.316Z</time>
      </trkpt>
      <trkpt lat="43.65297" lon="5.87185">
        <ele>470</ele>
        <time>2015-10-31T10:24:00.295Z</time>
      </trkpt>
      <trkpt lat="43.65302" lon="5.87174">
        <ele>470</ele>
        <time>2015-10-31T10:24:04.316Z</time>
      </trkpt>
      <trkpt lat="43.65303" lon="5.87171">
        <ele>470</ele>
        <time>2015-10-31T10:24:05.294Z</time>
      </trkpt>
      <trkpt lat="43.65307" lon="5.87164">
        <ele>470</ele>
        <time>2015-10-31T10:24:08.327Z</time>
      </trkpt>
      <trkpt lat="43.65308" lon="5.87161">
        <ele>470</ele>
        <time>2015-10-31T10:24:09.294Z</time>
      </trkpt>
      <trkpt lat="43.65314" lon="5.87152">
        <ele>470</ele>
        <time>2015-10-31T10:24:14.318Z</time>
      </trkpt>
      <trkpt lat="43.65315" lon="5.8715">
        <ele>470</ele>
        <time>2015-10-31T10:24:15.294Z</time>
      </trkpt>
      <trkpt lat="43.65319" lon="5.87142">
        <ele>471</ele>
        <time>2015-10-31T10:24:19.318Z</time>
      </trkpt>
      <trkpt lat="43.65321" lon="5.87139">
        <ele>471</ele>
        <time>2015-10-31T10:24:20.304Z</time>
      </trkpt>
      <trkpt lat="43.65326" lon="5.87131">
        <ele>471</ele>
        <time>2015-10-31T10:24:24.316Z</time>
      </trkpt>
      <trkpt lat="43.65327" lon="5.87128">
        <ele>472</ele>
        <time>2015-10-31T10:24:25.293Z</time>
      </trkpt>
      <trkpt lat="43.65332" lon="5.8712">
        <ele>472</ele>
        <time>2015-10-31T10:24:28.317Z</time>
      </trkpt>
      <trkpt lat="43.65334" lon="5.87117">
        <ele>472</ele>
        <time>2015-10-31T10:24:29.294Z</time>
      </trkpt>
      <trkpt lat="43.65338" lon="5.87109">
        <ele>472</ele>
        <time>2015-10-31T10:24:32.550Z</time>
      </trkpt>
      <trkpt lat="43.6534" lon="5.87107">
        <ele>472</ele>
        <time>2015-10-31T10:24:33.293Z</time>
      </trkpt>
      <trkpt lat="43.65346" lon="5.87101">
        <ele>472</ele>
        <time>2015-10-31T10:24:36.318Z</time>
      </trkpt>
      <trkpt lat="43.65347" lon="5.87098">
        <ele>472</ele>
        <time>2015-10-31T10:24:37.295Z</time>
      </trkpt>
      <trkpt lat="43.65352" lon="5.8709">
        <ele>472</ele>
        <time>2015-10-31T10:24:40.325Z</time>
      </trkpt>
      <trkpt lat="43.65354" lon="5.87088">
        <ele>473</ele>
        <time>2015-10-31T10:24:41.294Z</time>
      </trkpt>
      <trkpt lat="43.6536" lon="5.87082">
        <ele>473</ele>
        <time>2015-10-31T10:24:44.317Z</time>
      </trkpt>
      <trkpt lat="43.65362" lon="5.8708">
        <ele>473</ele>
        <time>2015-10-31T10:24:45.295Z</time>
      </trkpt>
      <trkpt lat="43.65368" lon="5.87077">
        <ele>473</ele>
        <time>2015-10-31T10:24:48.321Z</time>
      </trkpt>
      <trkpt lat="43.6537" lon="5.87075">
        <ele>474</ele>
        <time>2015-10-31T10:24:49.294Z</time>
      </trkpt>
      <trkpt lat="43.65378" lon="5.87069">
        <ele>474</ele>
        <time>2015-10-31T10:24:53.320Z</time>
      </trkpt>
      <trkpt lat="43.65379" lon="5.87067">
        <ele>475</ele>
        <time>2015-10-31T10:24:54.294Z</time>
      </trkpt>
      <trkpt lat="43.65385" lon="5.87063">
        <ele>475</ele>
        <time>2015-10-31T10:24:57.317Z</time>
      </trkpt>
      <trkpt lat="43.65387" lon="5.87061">
        <ele>476</ele>
        <time>2015-10-31T10:24:58.293Z</time>
      </trkpt>
      <trkpt lat="43.65393" lon="5.87056">
        <ele>476</ele>
        <time>2015-10-31T10:25:01.319Z</time>
      </trkpt>
      <trkpt lat="43.65396" lon="5.87056">
        <ele>476</ele>
        <time>2015-10-31T10:25:02.295Z</time>
      </trkpt>
      <trkpt lat="43.65404" lon="5.8705">
        <ele>476</ele>
        <time>2015-10-31T10:25:06.309Z</time>
      </trkpt>
      <trkpt lat="43.65406" lon="5.87049">
        <ele>476</ele>
        <time>2015-10-31T10:25:07.294Z</time>
      </trkpt>
      <trkpt lat="43.65412" lon="5.87044">
        <ele>477</ele>
        <time>2015-10-31T10:25:10.317Z</time>
      </trkpt>
      <trkpt lat="43.65414" lon="5.87042">
        <ele>477</ele>
        <time>2015-10-31T10:25:11.333Z</time>
      </trkpt>
      <trkpt lat="43.6542" lon="5.87036">
        <ele>477</ele>
        <time>2015-10-31T10:25:14.317Z</time>
      </trkpt>
      <trkpt lat="43.65422" lon="5.87034">
        <ele>477</ele>
        <time>2015-10-31T10:25:15.293Z</time>
      </trkpt>
      <trkpt lat="43.65428" lon="5.8703">
        <ele>478</ele>
        <time>2015-10-31T10:25:18.315Z</time>
      </trkpt>
      <trkpt lat="43.6543" lon="5.87029">
        <ele>478</ele>
        <time>2015-10-31T10:25:19.294Z</time>
      </trkpt>
      <trkpt lat="43.65436" lon="5.87024">
        <ele>478</ele>
        <time>2015-10-31T10:25:22.344Z</time>
      </trkpt>
      <trkpt lat="43.65438" lon="5.87022">
        <ele>478</ele>
        <time>2015-10-31T10:25:23.296Z</time>
      </trkpt>
      <trkpt lat="43.65444" lon="5.87017">
        <ele>478</ele>
        <time>2015-10-31T10:25:26.317Z</time>
      </trkpt>
      <trkpt lat="43.65446" lon="5.87015">
        <ele>478</ele>
        <time>2015-10-31T10:25:27.293Z</time>
      </trkpt>
      <trkpt lat="43.65452" lon="5.87009">
        <ele>478</ele>
        <time>2015-10-31T10:25:30.331Z</time>
      </trkpt>
      <trkpt lat="43.65454" lon="5.87006">
        <ele>478</ele>
        <time>2015-10-31T10:25:31.294Z</time>
      </trkpt>
      <trkpt lat="43.65459" lon="5.86999">
        <ele>478</ele>
        <time>2015-10-31T10:25:34.316Z</time>
      </trkpt>
      <trkpt lat="43.65461" lon="5.86997">
        <ele>478</ele>
        <time>2015-10-31T10:25:35.303Z</time>
      </trkpt>
      <trkpt lat="43.65467" lon="5.86991">
        <ele>479</ele>
        <time>2015-10-31T10:25:38.314Z</time>
      </trkpt>
      <trkpt lat="43.65469" lon="5.86989">
        <ele>479</ele>
        <time>2015-10-31T10:25:39.294Z</time>
      </trkpt>
      <trkpt lat="43.65475" lon="5.86983">
        <ele>479</ele>
        <time>2015-10-31T10:25:42.319Z</time>
      </trkpt>
      <trkpt lat="43.65477" lon="5.86981">
        <ele>479</ele>
        <time>2015-10-31T10:25:43.294Z</time>
      </trkpt>
      <trkpt lat="43.65483" lon="5.86974">
        <ele>479</ele>
        <time>2015-10-31T10:25:46.316Z</time>
      </trkpt>
      <trkpt lat="43.65485" lon="5.86971">
        <ele>479</ele>
        <time>2015-10-31T10:25:47.293Z</time>
      </trkpt>
      <trkpt lat="43.6549" lon="5.86964">
        <ele>480</ele>
        <time>2015-10-31T10:25:50.329Z</time>
      </trkpt>
      <trkpt lat="43.65492" lon="5.86962">
        <ele>480</ele>
        <time>2015-10-31T10:25:51.294Z</time>
      </trkpt>
      <trkpt lat="43.65498" lon="5.86955">
        <ele>481</ele>
        <time>2015-10-31T10:25:54.316Z</time>
      </trkpt>
      <trkpt lat="43.655" lon="5.86954">
        <ele>481</ele>
        <time>2015-10-31T10:25:55.293Z</time>
      </trkpt>
      <trkpt lat="43.65507" lon="5.86949">
        <ele>480</ele>
        <time>2015-10-31T10:25:58.316Z</time>
      </trkpt>
      <trkpt lat="43.65509" lon="5.86947">
        <ele>480</ele>
        <time>2015-10-31T10:25:59.295Z</time>
      </trkpt>
      <trkpt lat="43.65515" lon="5.86942">
        <ele>481</ele>
        <time>2015-10-31T10:26:02.318Z</time>
      </trkpt>
      <trkpt lat="43.65517" lon="5.8694">
        <ele>481</ele>
        <time>2015-10-31T10:26:03.304Z</time>
      </trkpt>
      <trkpt lat="43.65523" lon="5.86933">
        <ele>480</ele>
        <time>2015-10-31T10:26:06.328Z</time>
      </trkpt>
      <trkpt lat="43.65524" lon="5.86931">
        <ele>480</ele>
        <time>2015-10-31T10:26:07.293Z</time>
      </trkpt>
      <trkpt lat="43.6553" lon="5.86924">
        <ele>480</ele>
        <time>2015-10-31T10:26:10.328Z</time>
      </trkpt>
      <trkpt lat="43.65532" lon="5.86921">
        <ele>481</ele>
        <time>2015-10-31T10:26:11.294Z</time>
      </trkpt>
      <trkpt lat="43.65538" lon="5.86915">
        <ele>481</ele>
        <time>2015-10-31T10:26:14.317Z</time>
      </trkpt>
      <trkpt lat="43.6554" lon="5.86913">
        <ele>481</ele>
        <time>2015-10-31T10:26:15.293Z</time>
      </trkpt>
      <trkpt lat="43.65545" lon="5.86907">
        <ele>482</ele>
        <time>2015-10-31T10:26:18.317Z</time>
      </trkpt>
      <trkpt lat="43.65548" lon="5.86905">
        <ele>482</ele>
        <time>2015-10-31T10:26:19.293Z</time>
      </trkpt>
      <trkpt lat="43.65554" lon="5.86901">
        <ele>483</ele>
        <time>2015-10-31T10:26:22.316Z</time>
      </trkpt>
      <trkpt lat="43.65557" lon="5.869">
        <ele>483</ele>
        <time>2015-10-31T10:26:23.296Z</time>
      </trkpt>
      <trkpt lat="43.65564" lon="5.86897">
        <ele>483</ele>
        <time>2015-10-31T10:26:26.317Z</time>
      </trkpt>
      <trkpt lat="43.65566" lon="5.86896">
        <ele>483</ele>
        <time>2015-10-31T10:26:27.319Z</time>
      </trkpt>
      <trkpt lat="43.65573" lon="5.86892">
        <ele>484</ele>
        <time>2015-10-31T10:26:30.318Z</time>
      </trkpt>
      <trkpt lat="43.65576" lon="5.8689">
        <ele>484</ele>
        <time>2015-10-31T10:26:31.293Z</time>
      </trkpt>
      <trkpt lat="43.65582" lon="5.86884">
        <ele>484</ele>
        <time>2015-10-31T10:26:34.315Z</time>
      </trkpt>
      <trkpt lat="43.65584" lon="5.86881">
        <ele>484</ele>
        <time>2015-10-31T10:26:35.294Z</time>
      </trkpt>
      <trkpt lat="43.65589" lon="5.86873">
        <ele>484</ele>
        <time>2015-10-31T10:26:38.345Z</time>
      </trkpt>
      <trkpt lat="43.65592" lon="5.86871">
        <ele>484</ele>
        <time>2015-10-31T10:26:39.294Z</time>
      </trkpt>
      <trkpt lat="43.65598" lon="5.86863">
        <ele>483</ele>
        <time>2015-10-31T10:26:42.317Z</time>
      </trkpt>
      <trkpt lat="43.656" lon="5.8686">
        <ele>483</ele>
        <time>2015-10-31T10:26:43.293Z</time>
      </trkpt>
      <trkpt lat="43.65604" lon="5.86855">
        <ele>483</ele>
        <time>2015-10-31T10:26:45.312Z</time>
      </trkpt>
      <trkpt lat="43.65607" lon="5.86852">
        <ele>483</ele>
        <time>2015-10-31T10:26:46.291Z</time>
      </trkpt>
      <trkpt lat="43.65613" lon="5.86846">
        <ele>483</ele>
        <time>2015-10-31T10:26:48.327Z</time>
      </trkpt>
      <trkpt lat="43.65616" lon="5.86842">
        <ele>483</ele>
        <time>2015-10-31T10:26:49.320Z</time>
      </trkpt>
      <trkpt lat="43.6562" lon="5.86833">
        <ele>483</ele>
        <time>2015-10-31T10:26:51.317Z</time>
      </trkpt>
      <trkpt lat="43.65622" lon="5.86829">
        <ele>483</ele>
        <time>2015-10-31T10:26:52.294Z</time>
      </trkpt>
      <trkpt lat="43.65625" lon="5.86821">
        <ele>483</ele>
        <time>2015-10-31T10:26:54.317Z</time>
      </trkpt>
      <trkpt lat="43.65626" lon="5.86818">
        <ele>482</ele>
        <time>2015-10-31T10:26:55.294Z</time>
      </trkpt>
      <trkpt lat="43.65631" lon="5.86808">
        <ele>482</ele>
        <time>2015-10-31T10:27:00.316Z</time>
      </trkpt>
      <trkpt lat="43.65632" lon="5.86807">
        <ele>482</ele>
        <time>2015-10-31T10:27:01.293Z</time>
      </trkpt>
      <trkpt lat="43.65637" lon="5.86797">
        <ele>485</ele>
        <time>2015-10-31T10:27:25.319Z</time>
      </trkpt>
      <trkpt lat="43.65638" lon="5.86797">
        <ele>484</ele>
        <time>2015-10-31T10:27:26.293Z</time>
      </trkpt>
      <trkpt lat="43.65647" lon="5.86798">
        <ele>485</ele>
        <time>2015-10-31T10:27:32.317Z</time>
      </trkpt>
      <trkpt lat="43.65648" lon="5.86797">
        <ele>485</ele>
        <time>2015-10-31T10:27:33.294Z</time>
      </trkpt>
      <trkpt lat="43.65655" lon="5.86789">
        <ele>484</ele>
        <time>2015-10-31T10:27:43.330Z</time>
      </trkpt>
      <trkpt lat="43.65655" lon="5.86786">
        <ele>484</ele>
        <time>2015-10-31T10:27:44.305Z</time>
      </trkpt>
      <trkpt lat="43.65657" lon="5.86777">
        <ele>484</ele>
        <time>2015-10-31T10:27:47.318Z</time>
      </trkpt>
      <trkpt lat="43.65657" lon="5.86773">
        <ele>483</ele>
        <time>2015-10-31T10:27:48.303Z</time>
      </trkpt>
      <trkpt lat="43.65655" lon="5.86762">
        <ele>484</ele>
        <time>2015-10-31T10:27:52.315Z</time>
      </trkpt>
      <trkpt lat="43.65655" lon="5.86759">
        <ele>484</ele>
        <time>2015-10-31T10:27:53.330Z</time>
      </trkpt>
      <trkpt lat="43.65659" lon="5.86749">
        <ele>484</ele>
        <time>2015-10-31T10:27:57.328Z</time>
      </trkpt>
      <trkpt lat="43.65661" lon="5.86747">
        <ele>484</ele>
        <time>2015-10-31T10:27:58.293Z</time>
      </trkpt>
      <trkpt lat="43.65665" lon="5.8674">
        <ele>484</ele>
        <time>2015-10-31T10:28:01.318Z</time>
      </trkpt>
      <trkpt lat="43.65667" lon="5.86738">
        <ele>484</ele>
        <time>2015-10-31T10:28:02.294Z</time>
      </trkpt>
      <trkpt lat="43.65674" lon="5.86732">
        <ele>484</ele>
        <time>2015-10-31T10:28:05.325Z</time>
      </trkpt>
      <trkpt lat="43.65676" lon="5.8673">
        <ele>484</ele>
        <time>2015-10-31T10:28:06.292Z</time>
      </trkpt>
      <trkpt lat="43.65683" lon="5.86726">
        <ele>484</ele>
        <time>2015-10-31T10:28:09.410Z</time>
      </trkpt>
      <trkpt lat="43.65686" lon="5.86724">
        <ele>484</ele>
        <time>2015-10-31T10:28:10.293Z</time>
      </trkpt>
      <trkpt lat="43.65692" lon="5.8672">
        <ele>484</ele>
        <time>2015-10-31T10:28:12.316Z</time>
      </trkpt>
      <trkpt lat="43.65694" lon="5.86717">
        <ele>484</ele>
        <time>2015-10-31T10:28:13.298Z</time>
      </trkpt>
      <trkpt lat="43.65699" lon="5.86712">
        <ele>484</ele>
        <time>2015-10-31T10:28:15.326Z</time>
      </trkpt>
      <trkpt lat="43.65701" lon="5.8671">
        <ele>484</ele>
        <time>2015-10-31T10:28:16.294Z</time>
      </trkpt>
      <trkpt lat="43.65709" lon="5.86703">
        <ele>483</ele>
        <time>2015-10-31T10:28:19.316Z</time>
      </trkpt>
      <trkpt lat="43.65711" lon="5.86701">
        <ele>483</ele>
        <time>2015-10-31T10:28:20.306Z</time>
      </trkpt>
      <trkpt lat="43.65719" lon="5.86695">
        <ele>484</ele>
        <time>2015-10-31T10:28:23.316Z</time>
      </trkpt>
      <trkpt lat="43.65722" lon="5.86693">
        <ele>484</ele>
        <time>2015-10-31T10:28:24.294Z</time>
      </trkpt>
      <trkpt lat="43.65727" lon="5.86689">
        <ele>485</ele>
        <time>2015-10-31T10:28:26.316Z</time>
      </trkpt>
      <trkpt lat="43.6573" lon="5.86687">
        <ele>485</ele>
        <time>2015-10-31T10:28:27.293Z</time>
      </trkpt>
      <trkpt lat="43.65736" lon="5.86684">
        <ele>484</ele>
        <time>2015-10-31T10:28:29.368Z</time>
      </trkpt>
      <trkpt lat="43.65739" lon="5.86683">
        <ele>484</ele>
        <time>2015-10-31T10:28:30.295Z</time>
      </trkpt>
      <trkpt lat="43.65745" lon="5.8668">
        <ele>485</ele>
        <time>2015-10-31T10:28:32.317Z</time>
      </trkpt>
      <trkpt lat="43.65749" lon="5.86679">
        <ele>485</ele>
        <time>2015-10-31T10:28:33.294Z</time>
      </trkpt>
      <trkpt lat="43.65756" lon="5.86677">
        <ele>484</ele>
        <time>2015-10-31T10:28:35.328Z</time>
      </trkpt>
      <trkpt lat="43.6576" lon="5.86675">
        <ele>484</ele>
        <time>2015-10-31T10:28:36.320Z</time>
      </trkpt>
      <trkpt lat="43.65767" lon="5.86674">
        <ele>484</ele>
        <time>2015-10-31T10:28:38.317Z</time>
      </trkpt>
      <trkpt lat="43.65771" lon="5.86674">
        <ele>484</ele>
        <time>2015-10-31T10:28:39.293Z</time>
      </trkpt>
      <trkpt lat="43.65779" lon="5.86673">
        <ele>484</ele>
        <time>2015-10-31T10:28:41.317Z</time>
      </trkpt>
      <trkpt lat="43.65783" lon="5.86672">
        <ele>483</ele>
        <time>2015-10-31T10:28:42.294Z</time>
      </trkpt>
      <trkpt lat="43.65791" lon="5.86671">
        <ele>483</ele>
        <time>2015-10-31T10:28:44.315Z</time>
      </trkpt>
      <trkpt lat="43.65795" lon="5.86671">
        <ele>483</ele>
        <time>2015-10-31T10:28:45.293Z</time>
      </trkpt>
      <trkpt lat="43.65803" lon="5.86669">
        <ele>483</ele>
        <time>2015-10-31T10:28:47.317Z</time>
      </trkpt>
      <trkpt lat="43.65808" lon="5.86668">
        <ele>483</ele>
        <time>2015-10-31T10:28:48.293Z</time>
      </trkpt>
      <trkpt lat="43.65816" lon="5.86667">
        <ele>482</ele>
        <time>2015-10-31T10:28:50.316Z</time>
      </trkpt>
      <trkpt lat="43.65821" lon="5.86666">
        <ele>481</ele>
        <time>2015-10-31T10:28:51.294Z</time>
      </trkpt>
      <trkpt lat="43.65829" lon="5.86663">
        <ele>481</ele>
        <time>2015-10-31T10:28:53.404Z</time>
      </trkpt>
      <trkpt lat="43.65833" lon="5.86662">
        <ele>481</ele>
        <time>2015-10-31T10:28:54.292Z</time>
      </trkpt>
      <trkpt lat="43.65841" lon="5.86659">
        <ele>481</ele>
        <time>2015-10-31T10:28:56.317Z</time>
      </trkpt>
      <trkpt lat="43.65844" lon="5.86658">
        <ele>481</ele>
        <time>2015-10-31T10:28:57.293Z</time>
      </trkpt>
      <trkpt lat="43.65852" lon="5.86656">
        <ele>481</ele>
        <time>2015-10-31T10:28:59.329Z</time>
      </trkpt>
      <trkpt lat="43.65856" lon="5.86656">
        <ele>481</ele>
        <time>2015-10-31T10:29:00.293Z</time>
      </trkpt>
      <trkpt lat="43.65864" lon="5.86657">
        <ele>481</ele>
        <time>2015-10-31T10:29:02.387Z</time>
      </trkpt>
      <trkpt lat="43.65871" lon="5.86658">
        <ele>482</ele>
        <time>2015-10-31T10:29:03.295Z</time>
      </trkpt>
      <trkpt lat="43.65875" lon="5.86657">
        <ele>482</ele>
        <time>2015-10-31T10:29:04.328Z</time>
      </trkpt>
      <trkpt lat="43.6588" lon="5.86656">
        <ele>482</ele>
        <time>2015-10-31T10:29:05.294Z</time>
      </trkpt>
      <trkpt lat="43.65885" lon="5.86655">
        <ele>482</ele>
        <time>2015-10-31T10:29:06.317Z</time>
      </trkpt>
      <trkpt lat="43.6589" lon="5.86654">
        <ele>482</ele>
        <time>2015-10-31T10:29:07.295Z</time>
      </trkpt>
      <trkpt lat="43.65896" lon="5.86653">
        <ele>482</ele>
        <time>2015-10-31T10:29:08.320Z</time>
      </trkpt>
      <trkpt lat="43.65902" lon="5.86653">
        <ele>482</ele>
        <time>2015-10-31T10:29:09.294Z</time>
      </trkpt>
      <trkpt lat="43.65907" lon="5.86653">
        <ele>481</ele>
        <time>2015-10-31T10:29:10.328Z</time>
      </trkpt>
      <trkpt lat="43.65913" lon="5.86653">
        <ele>481</ele>
        <time>2015-10-31T10:29:11.294Z</time>
      </trkpt>
      <trkpt lat="43.6592" lon="5.86652">
        <ele>481</ele>
        <time>2015-10-31T10:29:12.329Z</time>
      </trkpt>
      <trkpt lat="43.65927" lon="5.86651">
        <ele>480</ele>
        <time>2015-10-31T10:29:13.319Z</time>
      </trkpt>
      <trkpt lat="43.65933" lon="5.86651">
        <ele>481</ele>
        <time>2015-10-31T10:29:14.316Z</time>
      </trkpt>
      <trkpt lat="43.6594" lon="5.8665">
        <ele>481</ele>
        <time>2015-10-31T10:29:15.306Z</time>
      </trkpt>
      <trkpt lat="43.65944" lon="5.86649">
        <ele>481</ele>
        <time>2015-10-31T10:29:16.318Z</time>
      </trkpt>
      <trkpt lat="43.6595" lon="5.86648">
        <ele>480</ele>
        <time>2015-10-31T10:29:17.293Z</time>
      </trkpt>
      <trkpt lat="43.65955" lon="5.86647">
        <ele>480</ele>
        <time>2015-10-31T10:29:18.330Z</time>
      </trkpt>
      <trkpt lat="43.65961" lon="5.86646">
        <ele>479</ele>
        <time>2015-10-31T10:29:19.294Z</time>
      </trkpt>
      <trkpt lat="43.65967" lon="5.86645">
        <ele>479</ele>
        <time>2015-10-31T10:29:20.318Z</time>
      </trkpt>
      <trkpt lat="43.65972" lon="5.86645">
        <ele>480</ele>
        <time>2015-10-31T10:29:21.294Z</time>
      </trkpt>
      <trkpt lat="43.65977" lon="5.86645">
        <ele>480</ele>
        <time>2015-10-31T10:29:22.317Z</time>
      </trkpt>
      <trkpt lat="43.65982" lon="5.86645">
        <ele>479</ele>
        <time>2015-10-31T10:29:23.304Z</time>
      </trkpt>
      <trkpt lat="43.65987" lon="5.86644">
        <ele>479</ele>
        <time>2015-10-31T10:29:24.336Z</time>
      </trkpt>
      <trkpt lat="43.65993" lon="5.86642">
        <ele>478</ele>
        <time>2015-10-31T10:29:25.292Z</time>
      </trkpt>
      <trkpt lat="43.65998" lon="5.86638">
        <ele>478</ele>
        <time>2015-10-31T10:29:26.330Z</time>
      </trkpt>
      <trkpt lat="43.66003" lon="5.86637">
        <ele>478</ele>
        <time>2015-10-31T10:29:27.292Z</time>
      </trkpt>
      <trkpt lat="43.66009" lon="5.86636">
        <ele>478</ele>
        <time>2015-10-31T10:29:28.314Z</time>
      </trkpt>
      <trkpt lat="43.66013" lon="5.86634">
        <ele>478</ele>
        <time>2015-10-31T10:29:29.293Z</time>
      </trkpt>
      <trkpt lat="43.66019" lon="5.86633">
        <ele>478</ele>
        <time>2015-10-31T10:29:30.314Z</time>
      </trkpt>
      <trkpt lat="43.66024" lon="5.86632">
        <ele>478</ele>
        <time>2015-10-31T10:29:31.301Z</time>
      </trkpt>
      <trkpt lat="43.66028" lon="5.86631">
        <ele>478</ele>
        <time>2015-10-31T10:29:32.311Z</time>
      </trkpt>
      <trkpt lat="43.66033" lon="5.86629">
        <ele>479</ele>
        <time>2015-10-31T10:29:33.292Z</time>
      </trkpt>
      <trkpt lat="43.66038" lon="5.86627">
        <ele>479</ele>
        <time>2015-10-31T10:29:34.348Z</time>
      </trkpt>
      <trkpt lat="43.66042" lon="5.86625">
        <ele>479</ele>
        <time>2015-10-31T10:29:35.314Z</time>
      </trkpt>
      <trkpt lat="43.66047" lon="5.86623">
        <ele>478</ele>
        <time>2015-10-31T10:29:36.320Z</time>
      </trkpt>
      <trkpt lat="43.66052" lon="5.86621">
        <ele>478</ele>
        <time>2015-10-31T10:29:37.293Z</time>
      </trkpt>
      <trkpt lat="43.6606" lon="5.86616">
        <ele>478</ele>
        <time>2015-10-31T10:29:39.313Z</time>
      </trkpt>
      <trkpt lat="43.66064" lon="5.86613">
        <ele>477</ele>
        <time>2015-10-31T10:29:40.293Z</time>
      </trkpt>
      <trkpt lat="43.66068" lon="5.86608">
        <ele>477</ele>
        <time>2015-10-31T10:29:41.314Z</time>
      </trkpt>
      <trkpt lat="43.66071" lon="5.86604">
        <ele>477</ele>
        <time>2015-10-31T10:29:42.286Z</time>
      </trkpt>
      <trkpt lat="43.66075" lon="5.866">
        <ele>477</ele>
        <time>2015-10-31T10:29:43.313Z</time>
      </trkpt>
      <trkpt lat="43.66079" lon="5.86596">
        <ele>477</ele>
        <time>2015-10-31T10:29:44.293Z</time>
      </trkpt>
      <trkpt lat="43.66083" lon="5.86593">
        <ele>476</ele>
        <time>2015-10-31T10:29:45.320Z</time>
      </trkpt>
      <trkpt lat="43.66088" lon="5.86589">
        <ele>476</ele>
        <time>2015-10-31T10:29:46.292Z</time>
      </trkpt>
      <trkpt lat="43.66092" lon="5.86584">
        <ele>475</ele>
        <time>2015-10-31T10:29:47.313Z</time>
      </trkpt>
      <trkpt lat="43.66097" lon="5.8658">
        <ele>475</ele>
        <time>2015-10-31T10:29:48.300Z</time>
      </trkpt>
      <trkpt lat="43.66101" lon="5.86576">
        <ele>474</ele>
        <time>2015-10-31T10:29:49.315Z</time>
      </trkpt>
      <trkpt lat="43.66105" lon="5.86571">
        <ele>474</ele>
        <time>2015-10-31T10:29:50.291Z</time>
      </trkpt>
      <trkpt lat="43.66109" lon="5.86565">
        <ele>474</ele>
        <time>2015-10-31T10:29:51.297Z</time>
      </trkpt>
      <trkpt lat="43.66113" lon="5.8656">
        <ele>474</ele>
        <time>2015-10-31T10:29:52.287Z</time>
      </trkpt>
      <trkpt lat="43.66117" lon="5.86556">
        <ele>474</ele>
        <time>2015-10-31T10:29:53.304Z</time>
      </trkpt>
      <trkpt lat="43.66121" lon="5.86552">
        <ele>474</ele>
        <time>2015-10-31T10:29:54.286Z</time>
      </trkpt>
      <trkpt lat="43.66126" lon="5.86548">
        <ele>474</ele>
        <time>2015-10-31T10:29:55.317Z</time>
      </trkpt>
      <trkpt lat="43.6613" lon="5.86544">
        <ele>475</ele>
        <time>2015-10-31T10:29:56.295Z</time>
      </trkpt>
      <trkpt lat="43.66135" lon="5.86535">
        <ele>474</ele>
        <time>2015-10-31T10:29:58.317Z</time>
      </trkpt>
      <trkpt lat="43.66139" lon="5.86532">
        <ele>473</ele>
        <time>2015-10-31T10:29:59.294Z</time>
      </trkpt>
      <trkpt lat="43.66143" lon="5.86529">
        <ele>473</ele>
        <time>2015-10-31T10:30:00.315Z</time>
      </trkpt>
      <trkpt lat="43.66147" lon="5.86525">
        <ele>473</ele>
        <time>2015-10-31T10:30:01.293Z</time>
      </trkpt>
      <trkpt lat="43.66151" lon="5.86521">
        <ele>472</ele>
        <time>2015-10-31T10:30:02.328Z</time>
      </trkpt>
      <trkpt lat="43.66155" lon="5.86516">
        <ele>472</ele>
        <time>2015-10-31T10:30:03.294Z</time>
      </trkpt>
      <trkpt lat="43.66159" lon="5.86512">
        <ele>472</ele>
        <time>2015-10-31T10:30:04.316Z</time>
      </trkpt>
      <trkpt lat="43.66163" lon="5.86507">
        <ele>472</ele>
        <time>2015-10-31T10:30:05.305Z</time>
      </trkpt>
      <trkpt lat="43.66166" lon="5.86503">
        <ele>472</ele>
        <time>2015-10-31T10:30:06.328Z</time>
      </trkpt>
      <trkpt lat="43.66171" lon="5.86499">
        <ele>472</ele>
        <time>2015-10-31T10:30:07.294Z</time>
      </trkpt>
      <trkpt lat="43.66175" lon="5.86495">
        <ele>472</ele>
        <time>2015-10-31T10:30:08.317Z</time>
      </trkpt>
      <trkpt lat="43.66179" lon="5.86492">
        <ele>472</ele>
        <time>2015-10-31T10:30:09.294Z</time>
      </trkpt>
      <trkpt lat="43.66183" lon="5.86489">
        <ele>472</ele>
        <time>2015-10-31T10:30:10.313Z</time>
      </trkpt>
      <trkpt lat="43.66187" lon="5.86485">
        <ele>472</ele>
        <time>2015-10-31T10:30:11.304Z</time>
      </trkpt>
      <trkpt lat="43.6619" lon="5.86481">
        <ele>472</ele>
        <time>2015-10-31T10:30:12.322Z</time>
      </trkpt>
      <trkpt lat="43.66194" lon="5.86477">
        <ele>471</ele>
        <time>2015-10-31T10:30:13.294Z</time>
      </trkpt>
      <trkpt lat="43.66198" lon="5.86474">
        <ele>471</ele>
        <time>2015-10-31T10:30:14.328Z</time>
      </trkpt>
      <trkpt lat="43.66202" lon="5.86469">
        <ele>471</ele>
        <time>2015-10-31T10:30:15.294Z</time>
      </trkpt>
      <trkpt lat="43.66206" lon="5.86465">
        <ele>471</ele>
        <time>2015-10-31T10:30:16.317Z</time>
      </trkpt>
      <trkpt lat="43.6621" lon="5.86462">
        <ele>471</ele>
        <time>2015-10-31T10:30:17.294Z</time>
      </trkpt>
      <trkpt lat="43.66214" lon="5.86458">
        <ele>471</ele>
        <time>2015-10-31T10:30:18.343Z</time>
      </trkpt>
      <trkpt lat="43.66218" lon="5.86455">
        <ele>471</ele>
        <time>2015-10-31T10:30:19.304Z</time>
      </trkpt>
      <trkpt lat="43.66221" lon="5.86452">
        <ele>471</ele>
        <time>2015-10-31T10:30:20.316Z</time>
      </trkpt>
      <trkpt lat="43.66226" lon="5.86449">
        <ele>471</ele>
        <time>2015-10-31T10:30:21.294Z</time>
      </trkpt>
      <trkpt lat="43.66233" lon="5.86445">
        <ele>471</ele>
        <time>2015-10-31T10:30:23.318Z</time>
      </trkpt>
      <trkpt lat="43.66236" lon="5.86443">
        <ele>471</ele>
        <time>2015-10-31T10:30:24.294Z</time>
      </trkpt>
      <trkpt lat="43.66244" lon="5.86441">
        <ele>470</ele>
        <time>2015-10-31T10:30:27.317Z</time>
      </trkpt>
      <trkpt lat="43.66247" lon="5.8644">
        <ele>471</ele>
        <time>2015-10-31T10:30:28.292Z</time>
      </trkpt>
      <trkpt lat="43.66253" lon="5.86438">
        <ele>471</ele>
        <time>2015-10-31T10:30:30.329Z</time>
      </trkpt>
      <trkpt lat="43.66256" lon="5.86436">
        <ele>471</ele>
        <time>2015-10-31T10:30:31.294Z</time>
      </trkpt>
      <trkpt lat="43.66264" lon="5.86434">
        <ele>472</ele>
        <time>2015-10-31T10:30:33.318Z</time>
      </trkpt>
      <trkpt lat="43.66267" lon="5.86432">
        <ele>472</ele>
        <time>2015-10-31T10:30:34.321Z</time>
      </trkpt>
      <trkpt lat="43.66274" lon="5.86428">
        <ele>472</ele>
        <time>2015-10-31T10:30:36.317Z</time>
      </trkpt>
      <trkpt lat="43.66278" lon="5.86425">
        <ele>472</ele>
        <time>2015-10-31T10:30:37.293Z</time>
      </trkpt>
      <trkpt lat="43.66282" lon="5.86418">
        <ele>472</ele>
        <time>2015-10-31T10:30:39.318Z</time>
      </trkpt>
      <trkpt lat="43.66284" lon="5.86414">
        <ele>472</ele>
        <time>2015-10-31T10:30:40.298Z</time>
      </trkpt>
      <trkpt lat="43.66289" lon="5.86407">
        <ele>472</ele>
        <time>2015-10-31T10:30:42.805Z</time>
      </trkpt>
      <trkpt lat="43.66291" lon="5.86404">
        <ele>472</ele>
        <time>2015-10-31T10:30:43.293Z</time>
      </trkpt>
      <trkpt lat="43.66295" lon="5.86396">
        <ele>472</ele>
        <time>2015-10-31T10:30:45.318Z</time>
      </trkpt>
      <trkpt lat="43.66297" lon="5.86393">
        <ele>472</ele>
        <time>2015-10-31T10:30:46.305Z</time>
      </trkpt>
      <trkpt lat="43.66303" lon="5.86384">
        <ele>472</ele>
        <time>2015-10-31T10:30:49.329Z</time>
      </trkpt>
      <trkpt lat="43.66304" lon="5.86381">
        <ele>472</ele>
        <time>2015-10-31T10:30:50.334Z</time>
      </trkpt>
      <trkpt lat="43.66308" lon="5.86373">
        <ele>472</ele>
        <time>2015-10-31T10:30:52.329Z</time>
      </trkpt>
      <trkpt lat="43.6631" lon="5.86368">
        <ele>472</ele>
        <time>2015-10-31T10:30:53.293Z</time>
      </trkpt>
      <trkpt lat="43.66316" lon="5.86361">
        <ele>472</ele>
        <time>2015-10-31T10:30:55.328Z</time>
      </trkpt>
      <trkpt lat="43.66319" lon="5.86357">
        <ele>472</ele>
        <time>2015-10-31T10:30:56.294Z</time>
      </trkpt>
      <trkpt lat="43.66325" lon="5.86351">
        <ele>472</ele>
        <time>2015-10-31T10:30:58.315Z</time>
      </trkpt>
      <trkpt lat="43.66327" lon="5.86347">
        <ele>472</ele>
        <time>2015-10-31T10:30:59.294Z</time>
      </trkpt>
      <trkpt lat="43.66331" lon="5.86338">
        <ele>472</ele>
        <time>2015-10-31T10:31:01.574Z</time>
      </trkpt>
      <trkpt lat="43.66331" lon="5.86333">
        <ele>472</ele>
        <time>2015-10-31T10:31:02.295Z</time>
      </trkpt>
      <trkpt lat="43.66334" lon="5.86323">
        <ele>472</ele>
        <time>2015-10-31T10:31:04.318Z</time>
      </trkpt>
      <trkpt lat="43.66336" lon="5.86319">
        <ele>472</ele>
        <time>2015-10-31T10:31:05.302Z</time>
      </trkpt>
      <trkpt lat="43.6634" lon="5.86308">
        <ele>472</ele>
        <time>2015-10-31T10:31:07.955Z</time>
      </trkpt>
      <trkpt lat="43.66341" lon="5.86304">
        <ele>471</ele>
        <time>2015-10-31T10:31:08.293Z</time>
      </trkpt>
      <trkpt lat="43.66344" lon="5.86294">
        <ele>471</ele>
        <time>2015-10-31T10:31:10.329Z</time>
      </trkpt>
      <trkpt lat="43.66345" lon="5.86289">
        <ele>471</ele>
        <time>2015-10-31T10:31:11.293Z</time>
      </trkpt>
      <trkpt lat="43.66348" lon="5.8628">
        <ele>472</ele>
        <time>2015-10-31T10:31:13.396Z</time>
      </trkpt>
      <trkpt lat="43.6635" lon="5.86276">
        <ele>472</ele>
        <time>2015-10-31T10:31:14.294Z</time>
      </trkpt>
      <trkpt lat="43.66353" lon="5.86267">
        <ele>472</ele>
        <time>2015-10-31T10:31:16.317Z</time>
      </trkpt>
      <trkpt lat="43.66355" lon="5.86262">
        <ele>473</ele>
        <time>2015-10-31T10:31:17.321Z</time>
      </trkpt>
      <trkpt lat="43.66358" lon="5.86252">
        <ele>472</ele>
        <time>2015-10-31T10:31:19.318Z</time>
      </trkpt>
      <trkpt lat="43.66359" lon="5.86247">
        <ele>472</ele>
        <time>2015-10-31T10:31:20.294Z</time>
      </trkpt>
      <trkpt lat="43.66363" lon="5.86237">
        <ele>472</ele>
        <time>2015-10-31T10:31:22.317Z</time>
      </trkpt>
      <trkpt lat="43.66365" lon="5.86232">
        <ele>472</ele>
        <time>2015-10-31T10:31:23.293Z</time>
      </trkpt>
      <trkpt lat="43.66368" lon="5.86223">
        <ele>473</ele>
        <time>2015-10-31T10:31:25.328Z</time>
      </trkpt>
      <trkpt lat="43.66369" lon="5.86218">
        <ele>472</ele>
        <time>2015-10-31T10:31:26.293Z</time>
      </trkpt>
      <trkpt lat="43.66371" lon="5.86208">
        <ele>472</ele>
        <time>2015-10-31T10:31:28.317Z</time>
      </trkpt>
      <trkpt lat="43.66373" lon="5.86204">
        <ele>473</ele>
        <time>2015-10-31T10:31:29.293Z</time>
      </trkpt>
      <trkpt lat="43.66377" lon="5.86196">
        <ele>472</ele>
        <time>2015-10-31T10:31:31.318Z</time>
      </trkpt>
      <trkpt lat="43.6638" lon="5.86192">
        <ele>472</ele>
        <time>2015-10-31T10:31:32.293Z</time>
      </trkpt>
      <trkpt lat="43.66387" lon="5.86184">
        <ele>473</ele>
        <time>2015-10-31T10:31:34.307Z</time>
      </trkpt>
      <trkpt lat="43.66391" lon="5.8618">
        <ele>474</ele>
        <time>2015-10-31T10:31:35.293Z</time>
      </trkpt>
      <trkpt lat="43.66397" lon="5.86173">
        <ele>474</ele>
        <time>2015-10-31T10:31:37.317Z</time>
      </trkpt>
      <trkpt lat="43.66401" lon="5.8617">
        <ele>475</ele>
        <time>2015-10-31T10:31:38.293Z</time>
      </trkpt>
      <trkpt lat="43.66407" lon="5.86162">
        <ele>475</ele>
        <time>2015-10-31T10:31:40.309Z</time>
      </trkpt>
      <trkpt lat="43.6641" lon="5.86159">
        <ele>476</ele>
        <time>2015-10-31T10:31:41.294Z</time>
      </trkpt>
      <trkpt lat="43.66414" lon="5.86151">
        <ele>476</ele>
        <time>2015-10-31T10:31:43.318Z</time>
      </trkpt>
      <trkpt lat="43.66416" lon="5.86147">
        <ele>477</ele>
        <time>2015-10-31T10:31:44.321Z</time>
      </trkpt>
      <trkpt lat="43.66418" lon="5.86139">
        <ele>476</ele>
        <time>2015-10-31T10:31:46.317Z</time>
      </trkpt>
      <trkpt lat="43.66419" lon="5.86135">
        <ele>476</ele>
        <time>2015-10-31T10:31:47.292Z</time>
      </trkpt>
      <trkpt lat="43.66423" lon="5.86126">
        <ele>475</ele>
        <time>2015-10-31T10:31:49.319Z</time>
      </trkpt>
      <trkpt lat="43.66425" lon="5.86121">
        <ele>475</ele>
        <time>2015-10-31T10:31:50.294Z</time>
      </trkpt>
      <trkpt lat="43.66429" lon="5.8611">
        <ele>476</ele>
        <time>2015-10-31T10:31:52.317Z</time>
      </trkpt>
      <trkpt lat="43.66433" lon="5.86107">
        <ele>475</ele>
        <time>2015-10-31T10:31:53.291Z</time>
      </trkpt>
      <trkpt lat="43.66437" lon="5.86103">
        <ele>474</ele>
        <time>2015-10-31T10:31:54.328Z</time>
      </trkpt>
      <trkpt lat="43.66444" lon="5.86096">
        <ele>474</ele>
        <time>2015-10-31T10:31:55.293Z</time>
      </trkpt>
      <trkpt lat="43.66448" lon="5.86089">
        <ele>473</ele>
        <time>2015-10-31T10:31:56.555Z</time>
      </trkpt>
      <trkpt lat="43.66452" lon="5.86081">
        <ele>473</ele>
        <time>2015-10-31T10:31:57.305Z</time>
      </trkpt>
      <trkpt lat="43.66453" lon="5.86072">
        <ele>472</ele>
        <time>2015-10-31T10:31:58.317Z</time>
      </trkpt>
      <trkpt lat="43.66454" lon="5.86063">
        <ele>473</ele>
        <time>2015-10-31T10:31:59.295Z</time>
      </trkpt>
      <trkpt lat="43.66456" lon="5.86052">
        <ele>473</ele>
        <time>2015-10-31T10:32:01.330Z</time>
      </trkpt>
      <trkpt lat="43.66456" lon="5.86047">
        <ele>474</ele>
        <time>2015-10-31T10:32:02.294Z</time>
      </trkpt>
      <trkpt lat="43.66456" lon="5.86038">
        <ele>475</ele>
        <time>2015-10-31T10:32:05.314Z</time>
      </trkpt>
      <trkpt lat="43.66455" lon="5.86034">
        <ele>475</ele>
        <time>2015-10-31T10:32:06.315Z</time>
      </trkpt>
      <trkpt lat="43.66455" lon="5.86025">
        <ele>475</ele>
        <time>2015-10-31T10:32:08.316Z</time>
      </trkpt>
      <trkpt lat="43.66454" lon="5.86021">
        <ele>474</ele>
        <time>2015-10-31T10:32:09.295Z</time>
      </trkpt>
      <trkpt lat="43.66453" lon="5.86009">
        <ele>474</ele>
        <time>2015-10-31T10:32:12.326Z</time>
      </trkpt>
      <trkpt lat="43.66452" lon="5.86005">
        <ele>474</ele>
        <time>2015-10-31T10:32:13.294Z</time>
      </trkpt>
      <trkpt lat="43.66455" lon="5.85994">
        <ele>475</ele>
        <time>2015-10-31T10:32:16.346Z</time>
      </trkpt>
      <trkpt lat="43.66455" lon="5.8599">
        <ele>475</ele>
        <time>2015-10-31T10:32:17.294Z</time>
      </trkpt>
      <trkpt lat="43.66458" lon="5.8598">
        <ele>475</ele>
        <time>2015-10-31T10:32:20.316Z</time>
      </trkpt>
      <trkpt lat="43.66459" lon="5.85977">
        <ele>475</ele>
        <time>2015-10-31T10:32:21.293Z</time>
      </trkpt>
      <trkpt lat="43.66462" lon="5.85968">
        <ele>476</ele>
        <time>2015-10-31T10:32:24.318Z</time>
      </trkpt>
      <trkpt lat="43.66463" lon="5.85965">
        <ele>476</ele>
        <time>2015-10-31T10:32:25.294Z</time>
      </trkpt>
      <trkpt lat="43.66467" lon="5.85955">
        <ele>476</ele>
        <time>2015-10-31T10:32:28.318Z</time>
      </trkpt>
      <trkpt lat="43.66468" lon="5.85952">
        <ele>477</ele>
        <time>2015-10-31T10:32:29.294Z</time>
      </trkpt>
      <trkpt lat="43.66472" lon="5.85942">
        <ele>478</ele>
        <time>2015-10-31T10:32:32.354Z</time>
      </trkpt>
      <trkpt lat="43.66473" lon="5.85939">
        <ele>478</ele>
        <time>2015-10-31T10:32:33.305Z</time>
      </trkpt>
      <trkpt lat="43.66475" lon="5.85931">
        <ele>479</ele>
        <time>2015-10-31T10:32:35.318Z</time>
      </trkpt>
      <trkpt lat="43.66477" lon="5.85927">
        <ele>479</ele>
        <time>2015-10-31T10:32:36.294Z</time>
      </trkpt>
      <trkpt lat="43.66479" lon="5.85919">
        <ele>479</ele>
        <time>2015-10-31T10:32:38.345Z</time>
      </trkpt>
      <trkpt lat="43.66481" lon="5.85915">
        <ele>479</ele>
        <time>2015-10-31T10:32:39.296Z</time>
      </trkpt>
      <trkpt lat="43.66485" lon="5.85908">
        <ele>479</ele>
        <time>2015-10-31T10:32:41.318Z</time>
      </trkpt>
      <trkpt lat="43.66487" lon="5.85904">
        <ele>478</ele>
        <time>2015-10-31T10:32:42.294Z</time>
      </trkpt>
      <trkpt lat="43.66489" lon="5.85895">
        <ele>478</ele>
        <time>2015-10-31T10:32:44.316Z</time>
      </trkpt>
      <trkpt lat="43.6649" lon="5.8589">
        <ele>478</ele>
        <time>2015-10-31T10:32:45.295Z</time>
      </trkpt>
      <trkpt lat="43.66492" lon="5.85881">
        <ele>477</ele>
        <time>2015-10-31T10:32:47.320Z</time>
      </trkpt>
      <trkpt lat="43.66493" lon="5.85875">
        <ele>478</ele>
        <time>2015-10-31T10:32:48.286Z</time>
      </trkpt>
      <trkpt lat="43.66495" lon="5.85865">
        <ele>477</ele>
        <time>2015-10-31T10:32:50.325Z</time>
      </trkpt>
      <trkpt lat="43.66496" lon="5.8586">
        <ele>477</ele>
        <time>2015-10-31T10:32:51.293Z</time>
      </trkpt>
      <trkpt lat="43.66499" lon="5.8585">
        <ele>476</ele>
        <time>2015-10-31T10:32:53.317Z</time>
      </trkpt>
      <trkpt lat="43.66501" lon="5.85845">
        <ele>477</ele>
        <time>2015-10-31T10:32:54.292Z</time>
      </trkpt>
      <trkpt lat="43.66504" lon="5.85841">
        <ele>476</ele>
        <time>2015-10-31T10:32:55.325Z</time>
      </trkpt>
      <trkpt lat="43.66508" lon="5.85836">
        <ele>476</ele>
        <time>2015-10-31T10:32:56.294Z</time>
      </trkpt>
      <trkpt lat="43.66514" lon="5.85828">
        <ele>476</ele>
        <time>2015-10-31T10:32:58.317Z</time>
      </trkpt>
      <trkpt lat="43.66518" lon="5.85824">
        <ele>476</ele>
        <time>2015-10-31T10:32:59.319Z</time>
      </trkpt>
      <trkpt lat="43.66523" lon="5.85816">
        <ele>476</ele>
        <time>2015-10-31T10:33:01.318Z</time>
      </trkpt>
      <trkpt lat="43.66526" lon="5.85812">
        <ele>476</ele>
        <time>2015-10-31T10:33:02.293Z</time>
      </trkpt>
      <trkpt lat="43.66531" lon="5.85804">
        <ele>475</ele>
        <time>2015-10-31T10:33:04.318Z</time>
      </trkpt>
      <trkpt lat="43.66534" lon="5.858">
        <ele>475</ele>
        <time>2015-10-31T10:33:05.295Z</time>
      </trkpt>
      <trkpt lat="43.66541" lon="5.85793">
        <ele>475</ele>
        <time>2015-10-31T10:33:07.316Z</time>
      </trkpt>
      <trkpt lat="43.66544" lon="5.8579">
        <ele>475</ele>
        <time>2015-10-31T10:33:08.293Z</time>
      </trkpt>
      <trkpt lat="43.66551" lon="5.85783">
        <ele>475</ele>
        <time>2015-10-31T10:33:10.317Z</time>
      </trkpt>
      <trkpt lat="43.66555" lon="5.85779">
        <ele>474</ele>
        <time>2015-10-31T10:33:11.294Z</time>
      </trkpt>
      <trkpt lat="43.66559" lon="5.8577">
        <ele>474</ele>
        <time>2015-10-31T10:33:13.325Z</time>
      </trkpt>
      <trkpt lat="43.66561" lon="5.85764">
        <ele>474</ele>
        <time>2015-10-31T10:33:14.295Z</time>
      </trkpt>
      <trkpt lat="43.66562" lon="5.85758">
        <ele>473</ele>
        <time>2015-10-31T10:33:15.345Z</time>
      </trkpt>
      <trkpt lat="43.66563" lon="5.85749">
        <ele>472</ele>
        <time>2015-10-31T10:33:16.294Z</time>
      </trkpt>
      <trkpt lat="43.66566" lon="5.85739">
        <ele>471</ele>
        <time>2015-10-31T10:33:18.326Z</time>
      </trkpt>
      <trkpt lat="43.66566" lon="5.85735">
        <ele>470</ele>
        <time>2015-10-31T10:33:19.293Z</time>
      </trkpt>
      <trkpt lat="43.66564" lon="5.85726">
        <ele>469</ele>
        <time>2015-10-31T10:33:21.317Z</time>
      </trkpt>
      <trkpt lat="43.66562" lon="5.85721">
        <ele>469</ele>
        <time>2015-10-31T10:33:22.286Z</time>
      </trkpt>
      <trkpt lat="43.66566" lon="5.85709">
        <ele>467</ele>
        <time>2015-10-31T10:33:25.317Z</time>
      </trkpt>
      <trkpt lat="43.66567" lon="5.85709">
        <ele>467</ele>
        <time>2015-10-31T10:33:26.295Z</time>
      </trkpt>
      <trkpt lat="43.66564" lon="5.85698">
        <ele>465</ele>
        <time>2015-10-31T10:33:43.318Z</time>
      </trkpt>
      <trkpt lat="43.6656" lon="5.85696">
        <ele>466</ele>
        <time>2015-10-31T10:33:44.294Z</time>
      </trkpt>
      <trkpt lat="43.66556" lon="5.85693">
        <ele>465</ele>
        <time>2015-10-31T10:33:45.318Z</time>
      </trkpt>
      <trkpt lat="43.66548" lon="5.85692">
        <ele>464</ele>
        <time>2015-10-31T10:33:46.295Z</time>
      </trkpt>
      <trkpt lat="43.66542" lon="5.85692">
        <ele>463</ele>
        <time>2015-10-31T10:33:47.317Z</time>
      </trkpt>
      <trkpt lat="43.66536" lon="5.85691">
        <ele>462</ele>
        <time>2015-10-31T10:33:48.284Z</time>
      </trkpt>
      <trkpt lat="43.66528" lon="5.85692">
        <ele>462</ele>
        <time>2015-10-31T10:33:49.318Z</time>
      </trkpt>
      <trkpt lat="43.6652" lon="5.85694">
        <ele>460</ele>
        <time>2015-10-31T10:33:50.294Z</time>
      </trkpt>
      <trkpt lat="43.6652" lon="5.85694">
        <ele>460</ele>
        <time>2015-10-31T10:33:50.320Z</time>
      </trkpt>
      <trkpt lat="43.66511" lon="5.85696">
        <ele>460</ele>
        <time>2015-10-31T10:33:51.298Z</time>
      </trkpt>
      <trkpt lat="43.66502" lon="5.85697">
        <ele>458</ele>
        <time>2015-10-31T10:33:52.364Z</time>
      </trkpt>
      <trkpt lat="43.66495" lon="5.85698">
        <ele>458</ele>
        <time>2015-10-31T10:33:53.294Z</time>
      </trkpt>
      <trkpt lat="43.66488" lon="5.857">
        <ele>457</ele>
        <time>2015-10-31T10:33:54.318Z</time>
      </trkpt>
      <trkpt lat="43.6648" lon="5.85703">
        <ele>456</ele>
        <time>2015-10-31T10:33:55.293Z</time>
      </trkpt>
      <trkpt lat="43.66473" lon="5.85708">
        <ele>455</ele>
        <time>2015-10-31T10:33:56.316Z</time>
      </trkpt>
      <trkpt lat="43.66467" lon="5.85713">
        <ele>455</ele>
        <time>2015-10-31T10:33:57.293Z</time>
      </trkpt>
      <trkpt lat="43.66463" lon="5.85719">
        <ele>454</ele>
        <time>2015-10-31T10:33:58.326Z</time>
      </trkpt>
      <trkpt lat="43.66458" lon="5.85726">
        <ele>454</ele>
        <time>2015-10-31T10:33:59.306Z</time>
      </trkpt>
      <trkpt lat="43.66454" lon="5.85731">
        <ele>453</ele>
        <time>2015-10-31T10:34:00.315Z</time>
      </trkpt>
      <trkpt lat="43.66452" lon="5.85735">
        <ele>452</ele>
        <time>2015-10-31T10:34:01.294Z</time>
      </trkpt>
      <trkpt lat="43.66451" lon="5.85742">
        <ele>452</ele>
        <time>2015-10-31T10:34:02.328Z</time>
      </trkpt>
      <trkpt lat="43.66449" lon="5.85749">
        <ele>451</ele>
        <time>2015-10-31T10:34:03.295Z</time>
      </trkpt>
      <trkpt lat="43.66444" lon="5.85754">
        <ele>450</ele>
        <time>2015-10-31T10:34:05.317Z</time>
      </trkpt>
      <trkpt lat="43.6644" lon="5.85754">
        <ele>449</ele>
        <time>2015-10-31T10:34:06.295Z</time>
      </trkpt>
      <trkpt lat="43.66434" lon="5.85758">
        <ele>448</ele>
        <time>2015-10-31T10:34:08.378Z</time>
      </trkpt>
      <trkpt lat="43.66432" lon="5.85758">
        <ele>448</ele>
        <time>2015-10-31T10:34:09.295Z</time>
      </trkpt>
      <trkpt lat="43.66425" lon="5.85756">
        <ele>446</ele>
        <time>2015-10-31T10:34:11.542Z</time>
      </trkpt>
      <trkpt lat="43.66422" lon="5.85755">
        <ele>446</ele>
        <time>2015-10-31T10:34:12.293Z</time>
      </trkpt>
      <trkpt lat="43.66415" lon="5.85757">
        <ele>445</ele>
        <time>2015-10-31T10:34:17.327Z</time>
      </trkpt>
      <trkpt lat="43.66413" lon="5.85758">
        <ele>444</ele>
        <time>2015-10-31T10:34:18.294Z</time>
      </trkpt>
      <trkpt lat="43.66406" lon="5.85758">
        <ele>442</ele>
        <time>2015-10-31T10:34:20.313Z</time>
      </trkpt>
      <trkpt lat="43.66399" lon="5.85758">
        <ele>442</ele>
        <time>2015-10-31T10:34:21.294Z</time>
      </trkpt>
      <trkpt lat="43.66392" lon="5.85759">
        <ele>441</ele>
        <time>2015-10-31T10:34:23.317Z</time>
      </trkpt>
      <trkpt lat="43.66389" lon="5.85761">
        <ele>441</ele>
        <time>2015-10-31T10:34:24.318Z</time>
      </trkpt>
      <trkpt lat="43.66381" lon="5.85766">
        <ele>440</ele>
        <time>2015-10-31T10:34:27.316Z</time>
      </trkpt>
      <trkpt lat="43.66378" lon="5.85769">
        <ele>440</ele>
        <time>2015-10-31T10:34:28.294Z</time>
      </trkpt>
      <trkpt lat="43.6637" lon="5.85773">
        <ele>439</ele>
        <time>2015-10-31T10:34:30.317Z</time>
      </trkpt>
      <trkpt lat="43.66365" lon="5.85775">
        <ele>439</ele>
        <time>2015-10-31T10:34:31.294Z</time>
      </trkpt>
      <trkpt lat="43.66359" lon="5.85776">
        <ele>439</ele>
        <time>2015-10-31T10:34:33.316Z</time>
      </trkpt>
      <trkpt lat="43.66356" lon="5.85775">
        <ele>438</ele>
        <time>2015-10-31T10:34:34.293Z</time>
      </trkpt>
      <trkpt lat="43.66349" lon="5.8578">
        <ele>437</ele>
        <time>2015-10-31T10:34:36.318Z</time>
      </trkpt>
      <trkpt lat="43.66345" lon="5.85784">
        <ele>437</ele>
        <time>2015-10-31T10:34:37.285Z</time>
      </trkpt>
      <trkpt lat="43.66341" lon="5.85789">
        <ele>437</ele>
        <time>2015-10-31T10:34:38.316Z</time>
      </trkpt>
      <trkpt lat="43.66337" lon="5.85794">
        <ele>437</ele>
        <time>2015-10-31T10:34:39.293Z</time>
      </trkpt>
      <trkpt lat="43.66332" lon="5.85799">
        <ele>437</ele>
        <time>2015-10-31T10:34:40.326Z</time>
      </trkpt>
      <trkpt lat="43.66327" lon="5.85803">
        <ele>437</ele>
        <time>2015-10-31T10:34:41.305Z</time>
      </trkpt>
      <trkpt lat="43.66319" lon="5.85807">
        <ele>435</ele>
        <time>2015-10-31T10:34:44.324Z</time>
      </trkpt>
      <trkpt lat="43.66316" lon="5.85804">
        <ele>433</ele>
        <time>2015-10-31T10:34:45.320Z</time>
      </trkpt>
      <trkpt lat="43.66312" lon="5.85801">
        <ele>434</ele>
        <time>2015-10-31T10:34:46.318Z</time>
      </trkpt>
      <trkpt lat="43.66307" lon="5.85799">
        <ele>433</ele>
        <time>2015-10-31T10:34:47.294Z</time>
      </trkpt>
      <trkpt lat="43.66301" lon="5.85798">
        <ele>432</ele>
        <time>2015-10-31T10:34:48.318Z</time>
      </trkpt>
      <trkpt lat="43.66295" lon="5.85796">
        <ele>431</ele>
        <time>2015-10-31T10:34:49.295Z</time>
      </trkpt>
      <trkpt lat="43.6629" lon="5.85794">
        <ele>431</ele>
        <time>2015-10-31T10:34:50.318Z</time>
      </trkpt>
      <trkpt lat="43.66286" lon="5.85793">
        <ele>430</ele>
        <time>2015-10-31T10:34:51.293Z</time>
      </trkpt>
      <trkpt lat="43.66279" lon="5.85794">
        <ele>428</ele>
        <time>2015-10-31T10:34:53.317Z</time>
      </trkpt>
      <trkpt lat="43.66276" lon="5.85797">
        <ele>428</ele>
        <time>2015-10-31T10:34:54.293Z</time>
      </trkpt>
      <trkpt lat="43.66272" lon="5.85801">
        <ele>428</ele>
        <time>2015-10-31T10:34:55.316Z</time>
      </trkpt>
      <trkpt lat="43.66267" lon="5.85805">
        <ele>427</ele>
        <time>2015-10-31T10:34:56.294Z</time>
      </trkpt>
      <trkpt lat="43.66262" lon="5.85808">
        <ele>426</ele>
        <time>2015-10-31T10:34:57.306Z</time>
      </trkpt>
      <trkpt lat="43.66256" lon="5.85809">
        <ele>426</ele>
        <time>2015-10-31T10:34:58.294Z</time>
      </trkpt>
      <trkpt lat="43.6625" lon="5.85806">
        <ele>425</ele>
        <time>2015-10-31T10:34:59.318Z</time>
      </trkpt>
      <trkpt lat="43.66246" lon="5.85802">
        <ele>424</ele>
        <time>2015-10-31T10:35:00.294Z</time>
      </trkpt>
      <trkpt lat="43.66241" lon="5.85794">
        <ele>423</ele>
        <time>2015-10-31T10:35:01.316Z</time>
      </trkpt>
      <trkpt lat="43.66237" lon="5.85787">
        <ele>423</ele>
        <time>2015-10-31T10:35:02.294Z</time>
      </trkpt>
      <trkpt lat="43.66234" lon="5.85779">
        <ele>422</ele>
        <time>2015-10-31T10:35:03.315Z</time>
      </trkpt>
      <trkpt lat="43.66233" lon="5.85773">
        <ele>422</ele>
        <time>2015-10-31T10:35:04.304Z</time>
      </trkpt>
      <trkpt lat="43.66235" lon="5.85763">
        <ele>420</ele>
        <time>2015-10-31T10:35:07.316Z</time>
      </trkpt>
      <trkpt lat="43.66236" lon="5.85761">
        <ele>420</ele>
        <time>2015-10-31T10:35:08.294Z</time>
      </trkpt>
      <trkpt lat="43.66244" lon="5.85756">
        <ele>420</ele>
        <time>2015-10-31T10:35:12.312Z</time>
      </trkpt>
      <trkpt lat="43.66246" lon="5.85756">
        <ele>420</ele>
        <time>2015-10-31T10:35:13.294Z</time>
      </trkpt>
      <trkpt lat="43.66253" lon="5.85756">
        <ele>421</ele>
        <time>2015-10-31T10:35:17.316Z</time>
      </trkpt>
      <trkpt lat="43.66255" lon="5.85757">
        <ele>421</ele>
        <time>2015-10-31T10:35:18.294Z</time>
      </trkpt>
      <trkpt lat="43.66263" lon="5.85756">
        <ele>422</ele>
        <time>2015-10-31T10:35:22.317Z</time>
      </trkpt>
      <trkpt lat="43.66265" lon="5.85755">
        <ele>422</ele>
        <time>2015-10-31T10:35:23.295Z</time>
      </trkpt>
      <trkpt lat="43.66271" lon="5.8575">
        <ele>424</ele>
        <time>2015-10-31T10:35:33.317Z</time>
      </trkpt>
      <trkpt lat="43.66273" lon="5.85749">
        <ele>424</ele>
        <time>2015-10-31T10:35:34.294Z</time>
      </trkpt>
      <trkpt lat="43.66279" lon="5.85746">
        <ele>425</ele>
        <time>2015-10-31T10:35:36.318Z</time>
      </trkpt>
      <trkpt lat="43.66281" lon="5.85744">
        <ele>425</ele>
        <time>2015-10-31T10:35:37.295Z</time>
      </trkpt>
      <trkpt lat="43.66286" lon="5.85738">
        <ele>425</ele>
        <time>2015-10-31T10:35:39.327Z</time>
      </trkpt>
      <trkpt lat="43.66288" lon="5.85735">
        <ele>425</ele>
        <time>2015-10-31T10:35:40.293Z</time>
      </trkpt>
      <trkpt lat="43.66293" lon="5.85729">
        <ele>425</ele>
        <time>2015-10-31T10:35:42.316Z</time>
      </trkpt>
      <trkpt lat="43.66295" lon="5.85726">
        <ele>425</ele>
        <time>2015-10-31T10:35:43.319Z</time>
      </trkpt>
      <trkpt lat="43.66303" lon="5.85721">
        <ele>426</ele>
        <time>2015-10-31T10:35:46.317Z</time>
      </trkpt>
      <trkpt lat="43.66306" lon="5.85719">
        <ele>426</ele>
        <time>2015-10-31T10:35:47.293Z</time>
      </trkpt>
      <trkpt lat="43.66314" lon="5.85713">
        <ele>423</ele>
        <time>2015-10-31T10:35:59.344Z</time>
      </trkpt>
      <trkpt lat="43.66314" lon="5.85713">
        <ele>423</ele>
        <time>2015-10-31T10:36:00.294Z</time>
      </trkpt>
      <trkpt lat="43.66319" lon="5.85707">
        <ele>423</ele>
        <time>2015-10-31T10:36:07.329Z</time>
      </trkpt>
      <trkpt lat="43.66323" lon="5.85704">
        <ele>424</ele>
        <time>2015-10-31T10:36:08.294Z</time>
      </trkpt>
      <trkpt lat="43.66329" lon="5.85695">
        <ele>427</ele>
        <time>2015-10-31T10:37:28.318Z</time>
      </trkpt>
      <trkpt lat="43.66331" lon="5.85693">
        <ele>427</ele>
        <time>2015-10-31T10:37:29.294Z</time>
      </trkpt>
      <trkpt lat="43.66337" lon="5.85688">
        <ele>427</ele>
        <time>2015-10-31T10:37:32.341Z</time>
      </trkpt>
      <trkpt lat="43.6634" lon="5.85686">
        <ele>427</ele>
        <time>2015-10-31T10:37:33.302Z</time>
      </trkpt>
      <trkpt lat="43.66347" lon="5.85681">
        <ele>427</ele>
        <time>2015-10-31T10:37:36.367Z</time>
      </trkpt>
      <trkpt lat="43.66349" lon="5.8568">
        <ele>427</ele>
        <time>2015-10-31T10:37:37.295Z</time>
      </trkpt>
      <trkpt lat="43.66356" lon="5.85675">
        <ele>428</ele>
        <time>2015-10-31T10:37:40.331Z</time>
      </trkpt>
      <trkpt lat="43.66358" lon="5.85674">
        <ele>428</ele>
        <time>2015-10-31T10:37:41.293Z</time>
      </trkpt>
      <trkpt lat="43.66366" lon="5.85668">
        <ele>429</ele>
        <time>2015-10-31T10:37:45.319Z</time>
      </trkpt>
      <trkpt lat="43.66368" lon="5.85666">
        <ele>430</ele>
        <time>2015-10-31T10:37:46.295Z</time>
      </trkpt>
      <trkpt lat="43.66375" lon="5.8566">
        <ele>430</ele>
        <time>2015-10-31T10:37:50.316Z</time>
      </trkpt>
      <trkpt lat="43.66377" lon="5.85658">
        <ele>430</ele>
        <time>2015-10-31T10:37:51.293Z</time>
      </trkpt>
      <trkpt lat="43.66383" lon="5.85652">
        <ele>431</ele>
        <time>2015-10-31T10:37:55.315Z</time>
      </trkpt>
      <trkpt lat="43.66385" lon="5.85651">
        <ele>431</ele>
        <time>2015-10-31T10:37:56.296Z</time>
      </trkpt>
      <trkpt lat="43.66392" lon="5.85645">
        <ele>432</ele>
        <time>2015-10-31T10:38:01.316Z</time>
      </trkpt>
      <trkpt lat="43.66393" lon="5.85644">
        <ele>432</ele>
        <time>2015-10-31T10:38:02.294Z</time>
      </trkpt>
      <trkpt lat="43.664" lon="5.85641">
        <ele>433</ele>
        <time>2015-10-31T10:38:34.320Z</time>
      </trkpt>
      <trkpt lat="43.66404" lon="5.8564">
        <ele>434</ele>
        <time>2015-10-31T10:38:35.294Z</time>
      </trkpt>
      <trkpt lat="43.66411" lon="5.8564">
        <ele>434</ele>
        <time>2015-10-31T10:38:37.316Z</time>
      </trkpt>
      <trkpt lat="43.66414" lon="5.8564">
        <ele>435</ele>
        <time>2015-10-31T10:38:38.294Z</time>
      </trkpt>
      <trkpt lat="43.66423" lon="5.85638">
        <ele>437</ele>
        <time>2015-10-31T10:38:57.324Z</time>
      </trkpt>
      <trkpt lat="43.66425" lon="5.85637">
        <ele>437</ele>
        <time>2015-10-31T10:38:58.292Z</time>
      </trkpt>
      <trkpt lat="43.66432" lon="5.8563">
        <ele>436</ele>
        <time>2015-10-31T10:39:03.329Z</time>
      </trkpt>
      <trkpt lat="43.66434" lon="5.85629">
        <ele>436</ele>
        <time>2015-10-31T10:39:04.296Z</time>
      </trkpt>
      <trkpt lat="43.6644" lon="5.85623">
        <ele>435</ele>
        <time>2015-10-31T10:39:08.332Z</time>
      </trkpt>
      <trkpt lat="43.66442" lon="5.85622">
        <ele>435</ele>
        <time>2015-10-31T10:39:09.293Z</time>
      </trkpt>
      <trkpt lat="43.66448" lon="5.85616">
        <ele>435</ele>
        <time>2015-10-31T10:39:12.318Z</time>
      </trkpt>
      <trkpt lat="43.6645" lon="5.85614">
        <ele>434</ele>
        <time>2015-10-31T10:39:13.294Z</time>
      </trkpt>
      <trkpt lat="43.66456" lon="5.85609">
        <ele>434</ele>
        <time>2015-10-31T10:39:16.318Z</time>
      </trkpt>
      <trkpt lat="43.66458" lon="5.85608">
        <ele>434</ele>
        <time>2015-10-31T10:39:17.294Z</time>
      </trkpt>
      <trkpt lat="43.66464" lon="5.85599">
        <ele>434</ele>
        <time>2015-10-31T10:39:21.344Z</time>
      </trkpt>
      <trkpt lat="43.66466" lon="5.85594">
        <ele>435</ele>
        <time>2015-10-31T10:39:22.298Z</time>
      </trkpt>
      <trkpt lat="43.66469" lon="5.85589">
        <ele>434</ele>
        <time>2015-10-31T10:39:23.527Z</time>
      </trkpt>
      <trkpt lat="43.66471" lon="5.85584">
        <ele>434</ele>
        <time>2015-10-31T10:39:24.294Z</time>
      </trkpt>
      <trkpt lat="43.66474" lon="5.85578">
        <ele>433</ele>
        <time>2015-10-31T10:39:25.318Z</time>
      </trkpt>
      <trkpt lat="43.66478" lon="5.85572">
        <ele>433</ele>
        <time>2015-10-31T10:39:26.293Z</time>
      </trkpt>
      <trkpt lat="43.66483" lon="5.85564">
        <ele>433</ele>
        <time>2015-10-31T10:39:28.329Z</time>
      </trkpt>
      <trkpt lat="43.66486" lon="5.85563">
        <ele>434</ele>
        <time>2015-10-31T10:39:29.294Z</time>
      </trkpt>
      <trkpt lat="43.66493" lon="5.85563">
        <ele>434</ele>
        <time>2015-10-31T10:39:31.322Z</time>
      </trkpt>
      <trkpt lat="43.66495" lon="5.85563">
        <ele>434</ele>
        <time>2015-10-31T10:39:32.320Z</time>
      </trkpt>
      <trkpt lat="43.66504" lon="5.85563">
        <ele>436</ele>
        <time>2015-10-31T10:39:37.317Z</time>
      </trkpt>
      <trkpt lat="43.66505" lon="5.85562">
        <ele>436</ele>
        <time>2015-10-31T10:39:38.293Z</time>
      </trkpt>
      <trkpt lat="43.66512" lon="5.85557">
        <ele>435</ele>
        <time>2015-10-31T10:39:43.318Z</time>
      </trkpt>
      <trkpt lat="43.66514" lon="5.85556">
        <ele>435</ele>
        <time>2015-10-31T10:39:44.296Z</time>
      </trkpt>
      <trkpt lat="43.66521" lon="5.85557">
        <ele>436</ele>
        <time>2015-10-31T10:39:47.317Z</time>
      </trkpt>
      <trkpt lat="43.66523" lon="5.85557">
        <ele>436</ele>
        <time>2015-10-31T10:39:48.554Z</time>
      </trkpt>
      <trkpt lat="43.66531" lon="5.85553">
        <ele>437</ele>
        <time>2015-10-31T10:40:33.329Z</time>
      </trkpt>
      <trkpt lat="43.66533" lon="5.85552">
        <ele>436</ele>
        <time>2015-10-31T10:40:34.295Z</time>
      </trkpt>
      <trkpt lat="43.66541" lon="5.85548">
        <ele>438</ele>
        <time>2015-10-31T10:40:36.329Z</time>
      </trkpt>
      <trkpt lat="43.66546" lon="5.85546">
        <ele>438</ele>
        <time>2015-10-31T10:40:37.295Z</time>
      </trkpt>
      <trkpt lat="43.66551" lon="5.85543">
        <ele>439</ele>
        <time>2015-10-31T10:40:38.318Z</time>
      </trkpt>
      <trkpt lat="43.66556" lon="5.85541">
        <ele>438</ele>
        <time>2015-10-31T10:40:39.294Z</time>
      </trkpt>
      <trkpt lat="43.66561" lon="5.8554">
        <ele>439</ele>
        <time>2015-10-31T10:40:40.316Z</time>
      </trkpt>
      <trkpt lat="43.66566" lon="5.8554">
        <ele>439</ele>
        <time>2015-10-31T10:40:41.295Z</time>
      </trkpt>
      <trkpt lat="43.66571" lon="5.8554">
        <ele>439</ele>
        <time>2015-10-31T10:40:42.345Z</time>
      </trkpt>
      <trkpt lat="43.66576" lon="5.85539">
        <ele>440</ele>
        <time>2015-10-31T10:40:43.294Z</time>
      </trkpt>
      <trkpt lat="43.66585" lon="5.85538">
        <ele>440</ele>
        <time>2015-10-31T10:40:45.319Z</time>
      </trkpt>
      <trkpt lat="43.66589" lon="5.85537">
        <ele>441</ele>
        <time>2015-10-31T10:40:46.296Z</time>
      </trkpt>
      <trkpt lat="43.66596" lon="5.85534">
        <ele>442</ele>
        <time>2015-10-31T10:40:48.319Z</time>
      </trkpt>
      <trkpt lat="43.66598" lon="5.85535">
        <ele>442</ele>
        <time>2015-10-31T10:40:49.305Z</time>
      </trkpt>
      <trkpt lat="43.66606" lon="5.85537">
        <ele>443</ele>
        <time>2015-10-31T10:40:52.314Z</time>
      </trkpt>
      <trkpt lat="43.66609" lon="5.85538">
        <ele>443</ele>
        <time>2015-10-31T10:40:53.294Z</time>
      </trkpt>
      <trkpt lat="43.66616" lon="5.85533">
        <ele>444</ele>
        <time>2015-10-31T10:40:57.318Z</time>
      </trkpt>
      <trkpt lat="43.66619" lon="5.85532">
        <ele>443</ele>
        <time>2015-10-31T10:40:58.332Z</time>
      </trkpt>
      <trkpt lat="43.66625" lon="5.8553">
        <ele>444</ele>
        <time>2015-10-31T10:41:00.316Z</time>
      </trkpt>
      <trkpt lat="43.66629" lon="5.85529">
        <ele>443</ele>
        <time>2015-10-31T10:41:01.302Z</time>
      </trkpt>
      <trkpt lat="43.66634" lon="5.85525">
        <ele>443</ele>
        <time>2015-10-31T10:41:03.317Z</time>
      </trkpt>
      <trkpt lat="43.66638" lon="5.85523">
        <ele>444</ele>
        <time>2015-10-31T10:41:04.305Z</time>
      </trkpt>
      <trkpt lat="43.66644" lon="5.85521">
        <ele>444</ele>
        <time>2015-10-31T10:41:06.320Z</time>
      </trkpt>
      <trkpt lat="43.66647" lon="5.8552">
        <ele>444</ele>
        <time>2015-10-31T10:41:07.293Z</time>
      </trkpt>
      <trkpt lat="43.66654" lon="5.85517">
        <ele>445</ele>
        <time>2015-10-31T10:41:09.342Z</time>
      </trkpt>
      <trkpt lat="43.66657" lon="5.85516">
        <ele>444</ele>
        <time>2015-10-31T10:41:10.294Z</time>
      </trkpt>
      <trkpt lat="43.66663" lon="5.85513">
        <ele>444</ele>
        <time>2015-10-31T10:41:12.316Z</time>
      </trkpt>
      <trkpt lat="43.66666" lon="5.85513">
        <ele>445</ele>
        <time>2015-10-31T10:41:13.294Z</time>
      </trkpt>
      <trkpt lat="43.66672" lon="5.85512">
        <ele>445</ele>
        <time>2015-10-31T10:41:15.318Z</time>
      </trkpt>
      <trkpt lat="43.66676" lon="5.85512">
        <ele>446</ele>
        <time>2015-10-31T10:41:16.294Z</time>
      </trkpt>
      <trkpt lat="43.66682" lon="5.85513">
        <ele>446</ele>
        <time>2015-10-31T10:41:18.317Z</time>
      </trkpt>
      <trkpt lat="43.66685" lon="5.85513">
        <ele>446</ele>
        <time>2015-10-31T10:41:19.294Z</time>
      </trkpt>
      <trkpt lat="43.66692" lon="5.85514">
        <ele>446</ele>
        <time>2015-10-31T10:41:21.319Z</time>
      </trkpt>
      <trkpt lat="43.66695" lon="5.85513">
        <ele>445</ele>
        <time>2015-10-31T10:41:22.295Z</time>
      </trkpt>
      <trkpt lat="43.66701" lon="5.85513">
        <ele>446</ele>
        <time>2015-10-31T10:41:24.320Z</time>
      </trkpt>
      <trkpt lat="43.66705" lon="5.85512">
        <ele>446</ele>
        <time>2015-10-31T10:41:25.295Z</time>
      </trkpt>
      <trkpt lat="43.66712" lon="5.85511">
        <ele>445</ele>
        <time>2015-10-31T10:41:27.320Z</time>
      </trkpt>
      <trkpt lat="43.66716" lon="5.85511">
        <ele>446</ele>
        <time>2015-10-31T10:41:28.294Z</time>
      </trkpt>
      <trkpt lat="43.66722" lon="5.8551">
        <ele>446</ele>
        <time>2015-10-31T10:41:30.316Z</time>
      </trkpt>
      <trkpt lat="43.66726" lon="5.8551">
        <ele>446</ele>
        <time>2015-10-31T10:41:31.295Z</time>
      </trkpt>
      <trkpt lat="43.66732" lon="5.8551">
        <ele>446</ele>
        <time>2015-10-31T10:41:33.348Z</time>
      </trkpt>
      <trkpt lat="43.66735" lon="5.8551">
        <ele>447</ele>
        <time>2015-10-31T10:41:34.299Z</time>
      </trkpt>
      <trkpt lat="43.66742" lon="5.8551">
        <ele>447</ele>
        <time>2015-10-31T10:41:36.353Z</time>
      </trkpt>
      <trkpt lat="43.66745" lon="5.85509">
        <ele>447</ele>
        <time>2015-10-31T10:41:37.294Z</time>
      </trkpt>
      <trkpt lat="43.66752" lon="5.85508">
        <ele>448</ele>
        <time>2015-10-31T10:41:39.316Z</time>
      </trkpt>
      <trkpt lat="43.66755" lon="5.85508">
        <ele>448</ele>
        <time>2015-10-31T10:41:40.295Z</time>
      </trkpt>
      <trkpt lat="43.66762" lon="5.85508">
        <ele>448</ele>
        <time>2015-10-31T10:41:42.318Z</time>
      </trkpt>
      <trkpt lat="43.66765" lon="5.85508">
        <ele>448</ele>
        <time>2015-10-31T10:41:43.305Z</time>
      </trkpt>
      <trkpt lat="43.66771" lon="5.85509">
        <ele>449</ele>
        <time>2015-10-31T10:41:45.317Z</time>
      </trkpt>
      <trkpt lat="43.66774" lon="5.85509">
        <ele>449</ele>
        <time>2015-10-31T10:41:46.294Z</time>
      </trkpt>
      <trkpt lat="43.66781" lon="5.85511">
        <ele>450</ele>
        <time>2015-10-31T10:41:50.317Z</time>
      </trkpt>
      <trkpt lat="43.66783" lon="5.85512">
        <ele>450</ele>
        <time>2015-10-31T10:41:51.305Z</time>
      </trkpt>
      <trkpt lat="43.66791" lon="5.85513">
        <ele>452</ele>
        <time>2015-10-31T10:41:57.558Z</time>
      </trkpt>
      <trkpt lat="43.66792" lon="5.85513">
        <ele>452</ele>
        <time>2015-10-31T10:41:58.291Z</time>
      </trkpt>
      <trkpt lat="43.668" lon="5.85519">
        <ele>453</ele>
        <time>2015-10-31T10:42:04.314Z</time>
      </trkpt>
      <trkpt lat="43.668" lon="5.8552">
        <ele>454</ele>
        <time>2015-10-31T10:42:05.293Z</time>
      </trkpt>
      <trkpt lat="43.66802" lon="5.85532">
        <ele>456</ele>
        <time>2015-10-31T10:42:13.329Z</time>
      </trkpt>
      <trkpt lat="43.66803" lon="5.85534">
        <ele>455</ele>
        <time>2015-10-31T10:42:14.293Z</time>
      </trkpt>
      <trkpt lat="43.66807" lon="5.85544">
        <ele>459</ele>
        <time>2015-10-31T10:42:21.312Z</time>
      </trkpt>
      <trkpt lat="43.66808" lon="5.85545">
        <ele>460</ele>
        <time>2015-10-31T10:42:22.294Z</time>
      </trkpt>
      <trkpt lat="43.66813" lon="5.85553">
        <ele>462</ele>
        <time>2015-10-31T10:42:28.317Z</time>
      </trkpt>
      <trkpt lat="43.66814" lon="5.85555">
        <ele>462</ele>
        <time>2015-10-31T10:42:29.294Z</time>
      </trkpt>
      <trkpt lat="43.66819" lon="5.85562">
        <ele>464</ele>
        <time>2015-10-31T10:42:34.317Z</time>
      </trkpt>
      <trkpt lat="43.6682" lon="5.85563">
        <ele>464</ele>
        <time>2015-10-31T10:42:35.331Z</time>
      </trkpt>
      <trkpt lat="43.66826" lon="5.85572">
        <ele>466</ele>
        <time>2015-10-31T10:42:41.318Z</time>
      </trkpt>
      <trkpt lat="43.66827" lon="5.85573">
        <ele>466</ele>
        <time>2015-10-31T10:42:42.294Z</time>
      </trkpt>
      <trkpt lat="43.66835" lon="5.85576">
        <ele>465</ele>
        <time>2015-10-31T10:42:47.329Z</time>
      </trkpt>
      <trkpt lat="43.66836" lon="5.85576">
        <ele>465</ele>
        <time>2015-10-31T10:42:48.294Z</time>
      </trkpt>
      <trkpt lat="43.66844" lon="5.85578">
        <ele>465</ele>
        <time>2015-10-31T10:42:54.307Z</time>
      </trkpt>
      <trkpt lat="43.66846" lon="5.85579">
        <ele>465</ele>
        <time>2015-10-31T10:42:55.302Z</time>
      </trkpt>
      <trkpt lat="43.66853" lon="5.85579">
        <ele>465</ele>
        <time>2015-10-31T10:42:57.315Z</time>
      </trkpt>
      <trkpt lat="43.66857" lon="5.8558">
        <ele>465</ele>
        <time>2015-10-31T10:42:58.306Z</time>
      </trkpt>
      <trkpt lat="43.66864" lon="5.85578">
        <ele>467</ele>
        <time>2015-10-31T10:43:00.316Z</time>
      </trkpt>
      <trkpt lat="43.66867" lon="5.85577">
        <ele>466</ele>
        <time>2015-10-31T10:43:01.293Z</time>
      </trkpt>
      <trkpt lat="43.66874" lon="5.85577">
        <ele>466</ele>
        <time>2015-10-31T10:43:03.329Z</time>
      </trkpt>
      <trkpt lat="43.66877" lon="5.85577">
        <ele>465</ele>
        <time>2015-10-31T10:43:04.293Z</time>
      </trkpt>
      <trkpt lat="43.66885" lon="5.85576">
        <ele>463</ele>
        <time>2015-10-31T10:43:06.314Z</time>
      </trkpt>
      <trkpt lat="43.66893" lon="5.85577">
        <ele>463</ele>
        <time>2015-10-31T10:43:07.295Z</time>
      </trkpt>
      <trkpt lat="43.66898" lon="5.85575">
        <ele>462</ele>
        <time>2015-10-31T10:43:08.317Z</time>
      </trkpt>
      <trkpt lat="43.66903" lon="5.85575">
        <ele>461</ele>
        <time>2015-10-31T10:43:09.295Z</time>
      </trkpt>
      <trkpt lat="43.66909" lon="5.85575">
        <ele>460</ele>
        <time>2015-10-31T10:43:10.534Z</time>
      </trkpt>
      <trkpt lat="43.66914" lon="5.85573">
        <ele>460</ele>
        <time>2015-10-31T10:43:11.293Z</time>
      </trkpt>
      <trkpt lat="43.6692" lon="5.85571">
        <ele>460</ele>
        <time>2015-10-31T10:43:12.315Z</time>
      </trkpt>
      <trkpt lat="43.66925" lon="5.85567">
        <ele>459</ele>
        <time>2015-10-31T10:43:13.331Z</time>
      </trkpt>
      <trkpt lat="43.66928" lon="5.8556">
        <ele>459</ele>
        <time>2015-10-31T10:43:14.316Z</time>
      </trkpt>
      <trkpt lat="43.66931" lon="5.85552">
        <ele>459</ele>
        <time>2015-10-31T10:43:15.294Z</time>
      </trkpt>
      <trkpt lat="43.66932" lon="5.85544">
        <ele>460</ele>
        <time>2015-10-31T10:43:16.317Z</time>
      </trkpt>
      <trkpt lat="43.66936" lon="5.85536">
        <ele>458</ele>
        <time>2015-10-31T10:43:17.293Z</time>
      </trkpt>
      <trkpt lat="43.66939" lon="5.85529">
        <ele>456</ele>
        <time>2015-10-31T10:43:18.328Z</time>
      </trkpt>
      <trkpt lat="43.66943" lon="5.8552">
        <ele>454</ele>
        <time>2015-10-31T10:43:19.293Z</time>
      </trkpt>
      <trkpt lat="43.66945" lon="5.8551">
        <ele>452</ele>
        <time>2015-10-31T10:43:20.318Z</time>
      </trkpt>
      <trkpt lat="43.66947" lon="5.85501">
        <ele>451</ele>
        <time>2015-10-31T10:43:21.297Z</time>
      </trkpt>
      <trkpt lat="43.6695" lon="5.85491">
        <ele>451</ele>
        <time>2015-10-31T10:43:22.317Z</time>
      </trkpt>
      <trkpt lat="43.66952" lon="5.85481">
        <ele>450</ele>
        <time>2015-10-31T10:43:23.294Z</time>
      </trkpt>
      <trkpt lat="43.66954" lon="5.85472">
        <ele>450</ele>
        <time>2015-10-31T10:43:24.344Z</time>
      </trkpt>
      <trkpt lat="43.66956" lon="5.85462">
        <ele>449</ele>
        <time>2015-10-31T10:43:25.312Z</time>
      </trkpt>
      <trkpt lat="43.66958" lon="5.85454">
        <ele>449</ele>
        <time>2015-10-31T10:43:26.321Z</time>
      </trkpt>
      <trkpt lat="43.66959" lon="5.85445">
        <ele>448</ele>
        <time>2015-10-31T10:43:27.293Z</time>
      </trkpt>
      <trkpt lat="43.66962" lon="5.85437">
        <ele>448</ele>
        <time>2015-10-31T10:43:28.345Z</time>
      </trkpt>
      <trkpt lat="43.66964" lon="5.85431">
        <ele>447</ele>
        <time>2015-10-31T10:43:29.293Z</time>
      </trkpt>
      <trkpt lat="43.66965" lon="5.85421">
        <ele>447</ele>
        <time>2015-10-31T10:43:31.317Z</time>
      </trkpt>
      <trkpt lat="43.66965" lon="5.85416">
        <ele>447</ele>
        <time>2015-10-31T10:43:32.296Z</time>
      </trkpt>
      <trkpt lat="43.66963" lon="5.85405">
        <ele>447</ele>
        <time>2015-10-31T10:43:35.317Z</time>
      </trkpt>
      <trkpt lat="43.66962" lon="5.85402">
        <ele>447</ele>
        <time>2015-10-31T10:43:36.296Z</time>
      </trkpt>
      <trkpt lat="43.66962" lon="5.85392">
        <ele>446</ele>
        <time>2015-10-31T10:43:40.343Z</time>
      </trkpt>
      <trkpt lat="43.66962" lon="5.85389">
        <ele>446</ele>
        <time>2015-10-31T10:43:41.295Z</time>
      </trkpt>
      <trkpt lat="43.66964" lon="5.85378">
        <ele>446</ele>
        <time>2015-10-31T10:43:45.318Z</time>
      </trkpt>
      <trkpt lat="43.66964" lon="5.85376">
        <ele>446</ele>
        <time>2015-10-31T10:43:46.296Z</time>
      </trkpt>
      <trkpt lat="43.66968" lon="5.85365">
        <ele>447</ele>
        <time>2015-10-31T10:44:02.318Z</time>
      </trkpt>
      <trkpt lat="43.66968" lon="5.85364">
        <ele>447</ele>
        <time>2015-10-31T10:44:03.295Z</time>
      </trkpt>
      <trkpt lat="43.66969" lon="5.85353">
        <ele>448</ele>
        <time>2015-10-31T10:44:09.319Z</time>
      </trkpt>
      <trkpt lat="43.6697" lon="5.85351">
        <ele>448</ele>
        <time>2015-10-31T10:44:10.294Z</time>
      </trkpt>
      <trkpt lat="43.66973" lon="5.85339">
        <ele>448</ele>
        <time>2015-10-31T10:44:15.319Z</time>
      </trkpt>
      <trkpt lat="43.66973" lon="5.85336">
        <ele>448</ele>
        <time>2015-10-31T10:44:16.294Z</time>
      </trkpt>
      <trkpt lat="43.66976" lon="5.85328">
        <ele>449</ele>
        <time>2015-10-31T10:44:20.319Z</time>
      </trkpt>
      <trkpt lat="43.66977" lon="5.85325">
        <ele>449</ele>
        <time>2015-10-31T10:44:21.294Z</time>
      </trkpt>
      <trkpt lat="43.6698" lon="5.85316">
        <ele>448</ele>
        <time>2015-10-31T10:44:24.311Z</time>
      </trkpt>
      <trkpt lat="43.66981" lon="5.85313">
        <ele>448</ele>
        <time>2015-10-31T10:44:25.294Z</time>
      </trkpt>
      <trkpt lat="43.66984" lon="5.85305">
        <ele>448</ele>
        <time>2015-10-31T10:44:28.373Z</time>
      </trkpt>
      <trkpt lat="43.66986" lon="5.85302">
        <ele>448</ele>
        <time>2015-10-31T10:44:29.293Z</time>
      </trkpt>
      <trkpt lat="43.6699" lon="5.85293">
        <ele>448</ele>
        <time>2015-10-31T10:44:32.320Z</time>
      </trkpt>
      <trkpt lat="43.66991" lon="5.8529">
        <ele>448</ele>
        <time>2015-10-31T10:44:33.539Z</time>
      </trkpt>
      <trkpt lat="43.66995" lon="5.85281">
        <ele>450</ele>
        <time>2015-10-31T10:44:36.316Z</time>
      </trkpt>
      <trkpt lat="43.66997" lon="5.85278">
        <ele>450</ele>
        <time>2015-10-31T10:44:37.296Z</time>
      </trkpt>
      <trkpt lat="43.67" lon="5.85269">
        <ele>451</ele>
        <time>2015-10-31T10:44:40.319Z</time>
      </trkpt>
      <trkpt lat="43.67001" lon="5.85266">
        <ele>451</ele>
        <time>2015-10-31T10:44:41.295Z</time>
      </trkpt>
      <trkpt lat="43.67006" lon="5.85257">
        <ele>452</ele>
        <time>2015-10-31T10:44:45.330Z</time>
      </trkpt>
      <trkpt lat="43.67006" lon="5.85255">
        <ele>452</ele>
        <time>2015-10-31T10:44:46.295Z</time>
      </trkpt>
      <trkpt lat="43.67011" lon="5.85247">
        <ele>452</ele>
        <time>2015-10-31T10:44:51.404Z</time>
      </trkpt>
      <trkpt lat="43.67012" lon="5.85245">
        <ele>451</ele>
        <time>2015-10-31T10:44:52.295Z</time>
      </trkpt>
      <trkpt lat="43.67016" lon="5.85236">
        <ele>452</ele>
        <time>2015-10-31T10:44:57.318Z</time>
      </trkpt>
      <trkpt lat="43.67017" lon="5.85234">
        <ele>452</ele>
        <time>2015-10-31T10:44:58.295Z</time>
      </trkpt>
      <trkpt lat="43.67023" lon="5.85225">
        <ele>453</ele>
        <time>2015-10-31T10:45:03.317Z</time>
      </trkpt>
      <trkpt lat="43.67024" lon="5.85223">
        <ele>453</ele>
        <time>2015-10-31T10:45:04.294Z</time>
      </trkpt>
      <trkpt lat="43.6703" lon="5.85216">
        <ele>454</ele>
        <time>2015-10-31T10:45:08.328Z</time>
      </trkpt>
      <trkpt lat="43.67031" lon="5.85215">
        <ele>454</ele>
        <time>2015-10-31T10:45:09.294Z</time>
      </trkpt>
      <trkpt lat="43.67036" lon="5.85206">
        <ele>455</ele>
        <time>2015-10-31T10:45:14.318Z</time>
      </trkpt>
      <trkpt lat="43.67037" lon="5.85204">
        <ele>456</ele>
        <time>2015-10-31T10:45:15.294Z</time>
      </trkpt>
      <trkpt lat="43.6704" lon="5.85193">
        <ele>456</ele>
        <time>2015-10-31T10:45:20.328Z</time>
      </trkpt>
      <trkpt lat="43.67041" lon="5.85191">
        <ele>456</ele>
        <time>2015-10-31T10:45:21.294Z</time>
      </trkpt>
      <trkpt lat="43.67043" lon="5.8518">
        <ele>457</ele>
        <time>2015-10-31T10:45:26.317Z</time>
      </trkpt>
      <trkpt lat="43.67044" lon="5.85178">
        <ele>457</ele>
        <time>2015-10-31T10:45:27.320Z</time>
      </trkpt>
      <trkpt lat="43.67047" lon="5.85167">
        <ele>457</ele>
        <time>2015-10-31T10:45:32.317Z</time>
      </trkpt>
      <trkpt lat="43.67048" lon="5.85165">
        <ele>457</ele>
        <time>2015-10-31T10:45:33.294Z</time>
      </trkpt>
      <trkpt lat="43.67049" lon="5.85154">
        <ele>455</ele>
        <time>2015-10-31T10:46:47.359Z</time>
      </trkpt>
      <trkpt lat="43.6705" lon="5.85151">
        <ele>455</ele>
        <time>2015-10-31T10:46:48.293Z</time>
      </trkpt>
      <trkpt lat="43.67052" lon="5.8514">
        <ele>457</ele>
        <time>2015-10-31T10:46:52.307Z</time>
      </trkpt>
      <trkpt lat="43.67053" lon="5.85137">
        <ele>457</ele>
        <time>2015-10-31T10:46:53.293Z</time>
      </trkpt>
      <trkpt lat="43.67055" lon="5.85126">
        <ele>459</ele>
        <time>2015-10-31T10:46:56.319Z</time>
      </trkpt>
      <trkpt lat="43.67056" lon="5.85123">
        <ele>459</ele>
        <time>2015-10-31T10:46:57.294Z</time>
      </trkpt>
      <trkpt lat="43.67063" lon="5.85117">
        <ele>460</ele>
        <time>2015-10-31T10:47:00.318Z</time>
      </trkpt>
      <trkpt lat="43.67066" lon="5.85116">
        <ele>461</ele>
        <time>2015-10-31T10:47:01.294Z</time>
      </trkpt>
      <trkpt lat="43.67073" lon="5.85113">
        <ele>462</ele>
        <time>2015-10-31T10:47:04.328Z</time>
      </trkpt>
      <trkpt lat="43.67075" lon="5.85112">
        <ele>462</ele>
        <time>2015-10-31T10:47:05.305Z</time>
      </trkpt>
      <trkpt lat="43.67079" lon="5.85122">
        <ele>467</ele>
        <time>2015-10-31T10:53:53.319Z</time>
      </trkpt>
      <trkpt lat="43.67078" lon="5.85125">
        <ele>468</ele>
        <time>2015-10-31T10:53:54.304Z</time>
      </trkpt>
      <trkpt lat="43.67076" lon="5.85136">
        <ele>469</ele>
        <time>2015-10-31T10:53:59.318Z</time>
      </trkpt>
      <trkpt lat="43.67075" lon="5.85139">
        <ele>469</ele>
        <time>2015-10-31T10:54:00.295Z</time>
      </trkpt>
      <trkpt lat="43.67074" lon="5.8515">
        <ele>470</ele>
        <time>2015-10-31T10:54:05.329Z</time>
      </trkpt>
      <trkpt lat="43.67074" lon="5.85152">
        <ele>470</ele>
        <time>2015-10-31T10:54:06.294Z</time>
      </trkpt>
      <trkpt lat="43.67074" lon="5.85163">
        <ele>472</ele>
        <time>2015-10-31T10:54:11.344Z</time>
      </trkpt>
      <trkpt lat="43.67074" lon="5.85165">
        <ele>472</ele>
        <time>2015-10-31T10:54:12.319Z</time>
      </trkpt>
      <trkpt lat="43.67077" lon="5.85176">
        <ele>473</ele>
        <time>2015-10-31T10:54:17.347Z</time>
      </trkpt>
      <trkpt lat="43.67077" lon="5.85178">
        <ele>473</ele>
        <time>2015-10-31T10:54:18.294Z</time>
      </trkpt>
      <trkpt lat="43.6708" lon="5.85189">
        <ele>474</ele>
        <time>2015-10-31T10:54:23.320Z</time>
      </trkpt>
      <trkpt lat="43.6708" lon="5.85191">
        <ele>474</ele>
        <time>2015-10-31T10:54:24.295Z</time>
      </trkpt>
      <trkpt lat="43.67083" lon="5.85202">
        <ele>475</ele>
        <time>2015-10-31T10:54:29.316Z</time>
      </trkpt>
      <trkpt lat="43.67084" lon="5.85203">
        <ele>475</ele>
        <time>2015-10-31T10:54:30.295Z</time>
      </trkpt>
      <trkpt lat="43.67087" lon="5.85214">
        <ele>475</ele>
        <time>2015-10-31T10:54:35.319Z</time>
      </trkpt>
      <trkpt lat="43.67087" lon="5.85216">
        <ele>476</ele>
        <time>2015-10-31T10:54:36.297Z</time>
      </trkpt>
      <trkpt lat="43.6709" lon="5.85226">
        <ele>476</ele>
        <time>2015-10-31T10:54:41.328Z</time>
      </trkpt>
      <trkpt lat="43.67091" lon="5.85229">
        <ele>476</ele>
        <time>2015-10-31T10:54:42.296Z</time>
      </trkpt>
      <trkpt lat="43.67094" lon="5.8524">
        <ele>478</ele>
        <time>2015-10-31T10:54:47.317Z</time>
      </trkpt>
      <trkpt lat="43.67094" lon="5.85242">
        <ele>477</ele>
        <time>2015-10-31T10:54:48.294Z</time>
      </trkpt>
      <trkpt lat="43.67097" lon="5.85252">
        <ele>479</ele>
        <time>2015-10-31T10:54:53.330Z</time>
      </trkpt>
      <trkpt lat="43.67098" lon="5.85254">
        <ele>479</ele>
        <time>2015-10-31T10:54:54.295Z</time>
      </trkpt>
      <trkpt lat="43.67101" lon="5.85265">
        <ele>479</ele>
        <time>2015-10-31T10:54:59.317Z</time>
      </trkpt>
      <trkpt lat="43.67102" lon="5.85267">
        <ele>479</ele>
        <time>2015-10-31T10:55:00.321Z</time>
      </trkpt>
      <trkpt lat="43.67103" lon="5.85278">
        <ele>481</ele>
        <time>2015-10-31T10:55:05.318Z</time>
      </trkpt>
      <trkpt lat="43.67103" lon="5.8528">
        <ele>481</ele>
        <time>2015-10-31T10:55:06.294Z</time>
      </trkpt>
      <trkpt lat="43.67104" lon="5.85291">
        <ele>481</ele>
        <time>2015-10-31T10:55:10.319Z</time>
      </trkpt>
      <trkpt lat="43.67105" lon="5.85293">
        <ele>481</ele>
        <time>2015-10-31T10:55:11.328Z</time>
      </trkpt>
      <trkpt lat="43.67105" lon="5.85305">
        <ele>483</ele>
        <time>2015-10-31T10:55:15.317Z</time>
      </trkpt>
      <trkpt lat="43.67104" lon="5.85308">
        <ele>483</ele>
        <time>2015-10-31T10:55:16.294Z</time>
      </trkpt>
      <trkpt lat="43.67104" lon="5.85317">
        <ele>483</ele>
        <time>2015-10-31T10:55:19.316Z</time>
      </trkpt>
      <trkpt lat="43.67104" lon="5.85321">
        <ele>483</ele>
        <time>2015-10-31T10:55:20.305Z</time>
      </trkpt>
      <trkpt lat="43.67104" lon="5.8533">
        <ele>484</ele>
        <time>2015-10-31T10:55:23.312Z</time>
      </trkpt>
      <trkpt lat="43.67104" lon="5.85333">
        <ele>484</ele>
        <time>2015-10-31T10:55:24.292Z</time>
      </trkpt>
      <trkpt lat="43.67103" lon="5.85342">
        <ele>485</ele>
        <time>2015-10-31T10:55:27.310Z</time>
      </trkpt>
      <trkpt lat="43.67103" lon="5.85346">
        <ele>485</ele>
        <time>2015-10-31T10:55:28.300Z</time>
      </trkpt>
      <trkpt lat="43.67107" lon="5.85356">
        <ele>485</ele>
        <time>2015-10-31T10:55:32.312Z</time>
      </trkpt>
      <trkpt lat="43.67107" lon="5.85358">
        <ele>485</ele>
        <time>2015-10-31T10:55:33.483Z</time>
      </trkpt>
      <trkpt lat="43.67111" lon="5.85368">
        <ele>486</ele>
        <time>2015-10-31T10:55:37.313Z</time>
      </trkpt>
      <trkpt lat="43.67112" lon="5.8537">
        <ele>486</ele>
        <time>2015-10-31T10:55:38.324Z</time>
      </trkpt>
      <trkpt lat="43.67117" lon="5.85379">
        <ele>485</ele>
        <time>2015-10-31T10:55:42.311Z</time>
      </trkpt>
      <trkpt lat="43.67118" lon="5.85381">
        <ele>485</ele>
        <time>2015-10-31T10:55:43.299Z</time>
      </trkpt>
      <trkpt lat="43.67123" lon="5.85389">
        <ele>485</ele>
        <time>2015-10-31T10:55:47.311Z</time>
      </trkpt>
      <trkpt lat="43.67125" lon="5.85391">
        <ele>484</ele>
        <time>2015-10-31T10:55:48.293Z</time>
      </trkpt>
      <trkpt lat="43.6713" lon="5.854">
        <ele>484</ele>
        <time>2015-10-31T10:55:52.320Z</time>
      </trkpt>
      <trkpt lat="43.67132" lon="5.85402">
        <ele>484</ele>
        <time>2015-10-31T10:55:53.292Z</time>
      </trkpt>
      <trkpt lat="43.67136" lon="5.8541">
        <ele>483</ele>
        <time>2015-10-31T10:55:56.311Z</time>
      </trkpt>
      <trkpt lat="43.67137" lon="5.85413">
        <ele>483</ele>
        <time>2015-10-31T10:55:57.292Z</time>
      </trkpt>
      <trkpt lat="43.67141" lon="5.85422">
        <ele>483</ele>
        <time>2015-10-31T10:56:00.313Z</time>
      </trkpt>
      <trkpt lat="43.67143" lon="5.85425">
        <ele>483</ele>
        <time>2015-10-31T10:56:01.292Z</time>
      </trkpt>
      <trkpt lat="43.67146" lon="5.85433">
        <ele>483</ele>
        <time>2015-10-31T10:56:03.319Z</time>
      </trkpt>
      <trkpt lat="43.67148" lon="5.85437">
        <ele>482</ele>
        <time>2015-10-31T10:56:04.292Z</time>
      </trkpt>
      <trkpt lat="43.67152" lon="5.85445">
        <ele>482</ele>
        <time>2015-10-31T10:56:06.310Z</time>
      </trkpt>
      <trkpt lat="43.67154" lon="5.8545">
        <ele>482</ele>
        <time>2015-10-31T10:56:07.293Z</time>
      </trkpt>
      <trkpt lat="43.67159" lon="5.85459">
        <ele>482</ele>
        <time>2015-10-31T10:56:09.313Z</time>
      </trkpt>
      <trkpt lat="43.67161" lon="5.85465">
        <ele>481</ele>
        <time>2015-10-31T10:56:10.315Z</time>
      </trkpt>
      <trkpt lat="43.67163" lon="5.8547">
        <ele>481</ele>
        <time>2015-10-31T10:56:11.312Z</time>
      </trkpt>
      <trkpt lat="43.67165" lon="5.85477">
        <ele>481</ele>
        <time>2015-10-31T10:56:12.293Z</time>
      </trkpt>
      <trkpt lat="43.6717" lon="5.85486">
        <ele>481</ele>
        <time>2015-10-31T10:56:13.312Z</time>
      </trkpt>
      <trkpt lat="43.67173" lon="5.85493">
        <ele>480</ele>
        <time>2015-10-31T10:56:14.291Z</time>
      </trkpt>
      <trkpt lat="43.67173" lon="5.85493">
        <ele>480</ele>
        <time>2015-10-31T10:56:14.315Z</time>
      </trkpt>
      <trkpt lat="43.67179" lon="5.85503">
        <ele>477</ele>
        <time>2015-10-31T10:56:15.287Z</time>
      </trkpt>
      <trkpt lat="43.67185" lon="5.8551">
        <ele>476</ele>
        <time>2015-10-31T10:56:16.312Z</time>
      </trkpt>
      <trkpt lat="43.67193" lon="5.85514">
        <ele>474</ele>
        <time>2015-10-31T10:56:17.969Z</time>
      </trkpt>
      <trkpt lat="43.672" lon="5.85517">
        <ele>474</ele>
        <time>2015-10-31T10:56:18.301Z</time>
      </trkpt>
      <trkpt lat="43.67208" lon="5.85521">
        <ele>473</ele>
        <time>2015-10-31T10:56:19.289Z</time>
      </trkpt>
      <trkpt lat="43.67216" lon="5.85526">
        <ele>472</ele>
        <time>2015-10-31T10:56:20.318Z</time>
      </trkpt>
      <trkpt lat="43.6722" lon="5.85532">
        <ele>473</ele>
        <time>2015-10-31T10:56:21.315Z</time>
      </trkpt>
      <trkpt lat="43.67222" lon="5.85539">
        <ele>474</ele>
        <time>2015-10-31T10:56:22.311Z</time>
      </trkpt>
      <trkpt lat="43.67224" lon="5.85546">
        <ele>474</ele>
        <time>2015-10-31T10:56:23.301Z</time>
      </trkpt>
      <trkpt lat="43.67225" lon="5.85557">
        <ele>475</ele>
        <time>2015-10-31T10:56:25.318Z</time>
      </trkpt>
      <trkpt lat="43.67226" lon="5.85562">
        <ele>476</ele>
        <time>2015-10-31T10:56:26.293Z</time>
      </trkpt>
      <trkpt lat="43.67227" lon="5.85574">
        <ele>477</ele>
        <time>2015-10-31T10:56:28.319Z</time>
      </trkpt>
      <trkpt lat="43.67227" lon="5.8558">
        <ele>477</ele>
        <time>2015-10-31T10:56:29.293Z</time>
      </trkpt>
      <trkpt lat="43.6723" lon="5.85591">
        <ele>477</ele>
        <time>2015-10-31T10:56:31.489Z</time>
      </trkpt>
      <trkpt lat="43.67231" lon="5.85597">
        <ele>477</ele>
        <time>2015-10-31T10:56:32.291Z</time>
      </trkpt>
      <trkpt lat="43.67234" lon="5.85608">
        <ele>477</ele>
        <time>2015-10-31T10:56:34.312Z</time>
      </trkpt>
      <trkpt lat="43.67235" lon="5.85613">
        <ele>477</ele>
        <time>2015-10-31T10:56:35.292Z</time>
      </trkpt>
      <trkpt lat="43.67238" lon="5.85625">
        <ele>477</ele>
        <time>2015-10-31T10:56:37.334Z</time>
      </trkpt>
      <trkpt lat="43.67239" lon="5.8563">
        <ele>477</ele>
        <time>2015-10-31T10:56:38.293Z</time>
      </trkpt>
      <trkpt lat="43.67242" lon="5.85641">
        <ele>476</ele>
        <time>2015-10-31T10:56:40.311Z</time>
      </trkpt>
      <trkpt lat="43.67243" lon="5.85646">
        <ele>476</ele>
        <time>2015-10-31T10:56:41.292Z</time>
      </trkpt>
      <trkpt lat="43.67246" lon="5.85656">
        <ele>476</ele>
        <time>2015-10-31T10:56:43.486Z</time>
      </trkpt>
      <trkpt lat="43.67248" lon="5.85661">
        <ele>477</ele>
        <time>2015-10-31T10:56:44.293Z</time>
      </trkpt>
      <trkpt lat="43.6725" lon="5.85671">
        <ele>476</ele>
        <time>2015-10-31T10:56:46.311Z</time>
      </trkpt>
      <trkpt lat="43.67252" lon="5.85677">
        <ele>476</ele>
        <time>2015-10-31T10:56:47.293Z</time>
      </trkpt>
      <trkpt lat="43.67253" lon="5.85682">
        <ele>476</ele>
        <time>2015-10-31T10:56:48.311Z</time>
      </trkpt>
      <trkpt lat="43.67255" lon="5.85689">
        <ele>476</ele>
        <time>2015-10-31T10:56:49.292Z</time>
      </trkpt>
      <trkpt lat="43.67256" lon="5.85695">
        <ele>476</ele>
        <time>2015-10-31T10:56:50.312Z</time>
      </trkpt>
      <trkpt lat="43.67258" lon="5.85702">
        <ele>476</ele>
        <time>2015-10-31T10:56:51.292Z</time>
      </trkpt>
      <trkpt lat="43.6726" lon="5.85708">
        <ele>475</ele>
        <time>2015-10-31T10:56:52.319Z</time>
      </trkpt>
      <trkpt lat="43.67263" lon="5.85715">
        <ele>475</ele>
        <time>2015-10-31T10:56:53.313Z</time>
      </trkpt>
      <trkpt lat="43.67265" lon="5.85722">
        <ele>475</ele>
        <time>2015-10-31T10:56:54.312Z</time>
      </trkpt>
      <trkpt lat="43.67267" lon="5.85729">
        <ele>475</ele>
        <time>2015-10-31T10:56:55.300Z</time>
      </trkpt>
      <trkpt lat="43.6727" lon="5.85737">
        <ele>475</ele>
        <time>2015-10-31T10:56:56.312Z</time>
      </trkpt>
      <trkpt lat="43.67273" lon="5.85744">
        <ele>475</ele>
        <time>2015-10-31T10:56:57.294Z</time>
      </trkpt>
      <trkpt lat="43.67276" lon="5.85751">
        <ele>474</ele>
        <time>2015-10-31T10:56:58.311Z</time>
      </trkpt>
      <trkpt lat="43.67279" lon="5.85759">
        <ele>474</ele>
        <time>2015-10-31T10:56:59.292Z</time>
      </trkpt>
      <trkpt lat="43.67281" lon="5.85766">
        <ele>474</ele>
        <time>2015-10-31T10:57:00.311Z</time>
      </trkpt>
      <trkpt lat="43.67284" lon="5.85774">
        <ele>475</ele>
        <time>2015-10-31T10:57:01.292Z</time>
      </trkpt>
      <trkpt lat="43.67287" lon="5.85781">
        <ele>475</ele>
        <time>2015-10-31T10:57:02.321Z</time>
      </trkpt>
      <trkpt lat="43.6729" lon="5.85789">
        <ele>475</ele>
        <time>2015-10-31T10:57:03.298Z</time>
      </trkpt>
      <trkpt lat="43.67293" lon="5.85798">
        <ele>475</ele>
        <time>2015-10-31T10:57:04.312Z</time>
      </trkpt>
      <trkpt lat="43.67295" lon="5.85806">
        <ele>474</ele>
        <time>2015-10-31T10:57:05.292Z</time>
      </trkpt>
      <trkpt lat="43.67295" lon="5.85815">
        <ele>474</ele>
        <time>2015-10-31T10:57:06.341Z</time>
      </trkpt>
      <trkpt lat="43.67294" lon="5.85823">
        <ele>475</ele>
        <time>2015-10-31T10:57:07.292Z</time>
      </trkpt>
      <trkpt lat="43.67293" lon="5.85831">
        <ele>476</ele>
        <time>2015-10-31T10:57:08.312Z</time>
      </trkpt>
      <trkpt lat="43.67295" lon="5.85838">
        <ele>477</ele>
        <time>2015-10-31T10:57:09.315Z</time>
      </trkpt>
      <trkpt lat="43.67297" lon="5.85848">
        <ele>476</ele>
        <time>2015-10-31T10:57:11.311Z</time>
      </trkpt>
      <trkpt lat="43.67297" lon="5.85852">
        <ele>475</ele>
        <time>2015-10-31T10:57:12.291Z</time>
      </trkpt>
      <trkpt lat="43.67298" lon="5.85862">
        <ele>474</ele>
        <time>2015-10-31T10:57:19.361Z</time>
      </trkpt>
      <trkpt lat="43.67299" lon="5.85868">
        <ele>475</ele>
        <time>2015-10-31T10:57:20.292Z</time>
      </trkpt>
      <trkpt lat="43.67301" lon="5.85877">
        <ele>475</ele>
        <time>2015-10-31T10:57:22.312Z</time>
      </trkpt>
      <trkpt lat="43.67301" lon="5.85882">
        <ele>474</ele>
        <time>2015-10-31T10:57:23.291Z</time>
      </trkpt>
      <trkpt lat="43.67304" lon="5.85893">
        <ele>474</ele>
        <time>2015-10-31T10:57:25.311Z</time>
      </trkpt>
      <trkpt lat="43.67305" lon="5.85898">
        <ele>474</ele>
        <time>2015-10-31T10:57:26.292Z</time>
      </trkpt>
      <trkpt lat="43.67307" lon="5.85909">
        <ele>474</ele>
        <time>2015-10-31T10:57:28.312Z</time>
      </trkpt>
      <trkpt lat="43.67308" lon="5.85914">
        <ele>475</ele>
        <time>2015-10-31T10:57:29.292Z</time>
      </trkpt>
      <trkpt lat="43.67309" lon="5.85924">
        <ele>475</ele>
        <time>2015-10-31T10:57:30.346Z</time>
      </trkpt>
      <trkpt lat="43.6731" lon="5.8593">
        <ele>475</ele>
        <time>2015-10-31T10:57:31.293Z</time>
      </trkpt>
      <trkpt lat="43.67311" lon="5.85936">
        <ele>475</ele>
        <time>2015-10-31T10:57:32.314Z</time>
      </trkpt>
      <trkpt lat="43.67311" lon="5.85944">
        <ele>474</ele>
        <time>2015-10-31T10:57:33.301Z</time>
      </trkpt>
      <trkpt lat="43.67312" lon="5.85951">
        <ele>474</ele>
        <time>2015-10-31T10:57:34.313Z</time>
      </trkpt>
      <trkpt lat="43.67312" lon="5.85956">
        <ele>474</ele>
        <time>2015-10-31T10:57:35.291Z</time>
      </trkpt>
      <trkpt lat="43.67312" lon="5.85963">
        <ele>474</ele>
        <time>2015-10-31T10:57:36.307Z</time>
      </trkpt>
      <trkpt lat="43.67312" lon="5.85969">
        <ele>474</ele>
        <time>2015-10-31T10:57:37.294Z</time>
      </trkpt>
      <trkpt lat="43.67311" lon="5.85981">
        <ele>474</ele>
        <time>2015-10-31T10:57:39.312Z</time>
      </trkpt>
      <trkpt lat="43.67311" lon="5.85987">
        <ele>473</ele>
        <time>2015-10-31T10:57:40.301Z</time>
      </trkpt>
      <trkpt lat="43.67311" lon="5.85999">
        <ele>473</ele>
        <time>2015-10-31T10:57:42.318Z</time>
      </trkpt>
      <trkpt lat="43.6731" lon="5.86005">
        <ele>473</ele>
        <time>2015-10-31T10:57:43.293Z</time>
      </trkpt>
      <trkpt lat="43.67309" lon="5.86012">
        <ele>473</ele>
        <time>2015-10-31T10:57:44.348Z</time>
      </trkpt>
      <trkpt lat="43.67309" lon="5.86018">
        <ele>472</ele>
        <time>2015-10-31T10:57:45.292Z</time>
      </trkpt>
      <trkpt lat="43.67308" lon="5.86024">
        <ele>472</ele>
        <time>2015-10-31T10:57:46.319Z</time>
      </trkpt>
      <trkpt lat="43.67306" lon="5.86031">
        <ele>473</ele>
        <time>2015-10-31T10:57:47.294Z</time>
      </trkpt>
      <trkpt lat="43.67304" lon="5.86037">
        <ele>473</ele>
        <time>2015-10-31T10:57:48.317Z</time>
      </trkpt>
      <trkpt lat="43.67303" lon="5.86044">
        <ele>473</ele>
        <time>2015-10-31T10:57:49.293Z</time>
      </trkpt>
      <trkpt lat="43.67301" lon="5.86051">
        <ele>472</ele>
        <time>2015-10-31T10:57:50.317Z</time>
      </trkpt>
      <trkpt lat="43.673" lon="5.86057">
        <ele>471</ele>
        <time>2015-10-31T10:57:51.294Z</time>
      </trkpt>
      <trkpt lat="43.67297" lon="5.86065">
        <ele>471</ele>
        <time>2015-10-31T10:57:52.345Z</time>
      </trkpt>
      <trkpt lat="43.67295" lon="5.86071">
        <ele>470</ele>
        <time>2015-10-31T10:57:53.295Z</time>
      </trkpt>
      <trkpt lat="43.67292" lon="5.86078">
        <ele>470</ele>
        <time>2015-10-31T10:57:54.317Z</time>
      </trkpt>
      <trkpt lat="43.6729" lon="5.86085">
        <ele>469</ele>
        <time>2015-10-31T10:57:55.295Z</time>
      </trkpt>
      <trkpt lat="43.67288" lon="5.86091">
        <ele>469</ele>
        <time>2015-10-31T10:57:56.316Z</time>
      </trkpt>
      <trkpt lat="43.67285" lon="5.86096">
        <ele>468</ele>
        <time>2015-10-31T10:57:57.294Z</time>
      </trkpt>
      <trkpt lat="43.67281" lon="5.86107">
        <ele>468</ele>
        <time>2015-10-31T10:57:59.318Z</time>
      </trkpt>
      <trkpt lat="43.67279" lon="5.86112">
        <ele>468</ele>
        <time>2015-10-31T10:58:00.294Z</time>
      </trkpt>
      <trkpt lat="43.67271" lon="5.86116">
        <ele>467</ele>
        <time>2015-10-31T10:58:03.342Z</time>
      </trkpt>
      <trkpt lat="43.67269" lon="5.86114">
        <ele>468</ele>
        <time>2015-10-31T10:58:04.319Z</time>
      </trkpt>
      <trkpt lat="43.67263" lon="5.86106">
        <ele>470</ele>
        <time>2015-10-31T10:58:09.327Z</time>
      </trkpt>
      <trkpt lat="43.67261" lon="5.86106">
        <ele>470</ele>
        <time>2015-10-31T10:58:10.295Z</time>
      </trkpt>
      <trkpt lat="43.67253" lon="5.86106">
        <ele>471</ele>
        <time>2015-10-31T10:58:14.342Z</time>
      </trkpt>
      <trkpt lat="43.67251" lon="5.86107">
        <ele>471</ele>
        <time>2015-10-31T10:58:15.305Z</time>
      </trkpt>
      <trkpt lat="43.67244" lon="5.86115">
        <ele>472</ele>
        <time>2015-10-31T10:58:19.318Z</time>
      </trkpt>
      <trkpt lat="43.67243" lon="5.86116">
        <ele>472</ele>
        <time>2015-10-31T10:58:20.295Z</time>
      </trkpt>
      <trkpt lat="43.67235" lon="5.86119">
        <ele>473</ele>
        <time>2015-10-31T10:58:44.327Z</time>
      </trkpt>
      <trkpt lat="43.67233" lon="5.86118">
        <ele>473</ele>
        <time>2015-10-31T10:58:45.295Z</time>
      </trkpt>
      <trkpt lat="43.67226" lon="5.86119">
        <ele>473</ele>
        <time>2015-10-31T10:58:49.328Z</time>
      </trkpt>
      <trkpt lat="43.67224" lon="5.8612">
        <ele>473</ele>
        <time>2015-10-31T10:58:50.295Z</time>
      </trkpt>
      <trkpt lat="43.67217" lon="5.86123">
        <ele>473</ele>
        <time>2015-10-31T10:58:54.329Z</time>
      </trkpt>
      <trkpt lat="43.67215" lon="5.86124">
        <ele>473</ele>
        <time>2015-10-31T10:58:55.295Z</time>
      </trkpt>
      <trkpt lat="43.67207" lon="5.86123">
        <ele>474</ele>
        <time>2015-10-31T10:58:59.317Z</time>
      </trkpt>
      <trkpt lat="43.67205" lon="5.86123">
        <ele>474</ele>
        <time>2015-10-31T10:59:00.294Z</time>
      </trkpt>
      <trkpt lat="43.67199" lon="5.86132">
        <ele>473</ele>
        <time>2015-10-31T10:59:04.318Z</time>
      </trkpt>
      <trkpt lat="43.67198" lon="5.86134">
        <ele>473</ele>
        <time>2015-10-31T10:59:05.295Z</time>
      </trkpt>
      <trkpt lat="43.6719" lon="5.8613">
        <ele>475</ele>
        <time>2015-10-31T10:59:22.328Z</time>
      </trkpt>
      <trkpt lat="43.67189" lon="5.86129">
        <ele>475</ele>
        <time>2015-10-31T10:59:23.295Z</time>
      </trkpt>
      <trkpt lat="43.67181" lon="5.86124">
        <ele>474</ele>
        <time>2015-10-31T10:59:50.550Z</time>
      </trkpt>
      <trkpt lat="43.67181" lon="5.86124">
        <ele>474</ele>
        <time>2015-10-31T10:59:51.297Z</time>
      </trkpt>
      <trkpt lat="43.67176" lon="5.8612">
        <ele>474</ele>
        <time>2015-10-31T11:00:27.101Z</time>
      </trkpt>
    </trkseg>
  </trk>
</gpx>